<?xml version="1.0" encoding="UTF-8" standalone="no" ?><gpx xmlns="http://www.topografix.com/GPX/1/1" xmlns:gpxx="http://www.garmin.com/xmlschemas/GpxExtensions/v3" xmlns:gpxtrkx="http://www.garmin.com/xmlschemas/TrackStatsExtension/v1" xmlns:wptx1="http://www.garmin.com/xmlschemas/WaypointExtension/v1" xmlns:gpxtpx="http://www.garmin.com/xmlschemas/TrackPointExtension/v1" creator="GPSMAP 64" version="1.1" xmlns:xsi="http://www.w3.org/2001/XMLSchema-instance" xsi:schemaLocation="http://www.topografix.com/GPX/1/1 http://www.topografix.com/GPX/1/1/gpx.xsd http://www.garmin.com/xmlschemas/GpxExtensions/v3 http://www8.garmin.com/xmlschemas/GpxExtensionsv3.xsd http://www.garmin.com/xmlschemas/TrackStatsExtension/v1 http://www8.garmin.com/xmlschemas/TrackStatsExtension.xsd http://www.garmin.com/xmlschemas/WaypointExtension/v1 http://www8.garmin.com/xmlschemas/WaypointExtensionv1.xsd http://www.garmin.com/xmlschemas/TrackPointExtension/v1 http://www.garmin.com/xmlschemas/TrackPointExtensionv1.xsd"><metadata><link href="http://www.garmin.com"><text>Garmin International</text></link><time>2026-08-15T10:13:56Z</time></metadata><trk><name>20260815ЛИСА12ГОЛЛИВУД</name><extensions><gpxx:TrackExtension><gpxx:DisplayColor>Magenta</gpxx:DisplayColor></gpxx:TrackExtension><gpxtrkx:TrackStatsExtension><gpxtrkx:Distance>336593.000</gpxtrkx:Distance><gpxtrkx:TotalElapsedTime>2963613</gpxtrkx:TotalElapsedTime><gpxtrkx:MovingTime>42812</gpxtrkx:MovingTime><gpxtrkx:StoppedTime>86191</gpxtrkx:StoppedTime><gpxtrkx:MovingSpeed>7.862</gpxtrkx:MovingSpeed><gpxtrkx:MaxSpeed>444.218</gpxtrkx:MaxSpeed><gpxtrkx:MaxElevation>11303.946</gpxtrkx:MaxElevation><gpxtrkx:MinElevation>-502.210</gpxtrkx:MinElevation><gpxtrkx:Ascent>71306.000</gpxtrkx:Ascent><gpxtrkx:Descent>72561.727</gpxtrkx:Descent><gpxtrkx:AvgAscentRate>0.046</gpxtrkx:AvgAscentRate><gpxtrkx:MaxAscentRate>5.978</gpxtrkx:MaxAscentRate><gpxtrkx:AvgDescentRate>0.047</gpxtrkx:AvgDescentRate><gpxtrkx:MaxDescentRate>-5.499</gpxtrkx:MaxDescentRate></gpxtrkx:TrackStatsExtension></extensions><trkseg><trkpt lat="59.9110599887" lon="32.0627152640"><ele>49.95</ele><time>2026-07-12T03:00:23Z</time></trkpt><trkpt lat="59.9110624194" lon="32.0627254900"><ele>51.36</ele><time>2026-07-12T03:01:04Z</time></trkpt><trkpt lat="59.9110612459" lon="32.0627235621"><ele>51.09</ele><time>2026-07-12T03:01:08Z</time></trkpt></trkseg><trkseg><trkpt lat="60.1170044392" lon="31.3729509339"><ele>102.97</ele><time>2026-07-25T07:05:33Z</time></trkpt><trkpt lat="60.1168351248" lon="31.3680651225"><ele>106.41</ele><time>2026-07-25T07:05:41Z</time></trkpt><trkpt lat="60.1169168483" lon="31.3675823249"><ele>106.02</ele><time>2026-07-25T07:05:42Z</time></trkpt><trkpt lat="60.1162866130" lon="31.3762781303"><ele>111.58</ele><time>2026-07-25T07:05:48Z</time></trkpt><trkpt lat="60.1156378537" lon="31.3829116523"><ele>107.26</ele><time>2026-07-25T07:05:59Z</time></trkpt><trkpt lat="60.1160501596" lon="31.3877427299"><ele>115.73</ele><time>2026-07-25T07:06:07Z</time></trkpt><trkpt lat="60.1168090571" lon="31.3975843415"><ele>109.79</ele><time>2026-07-25T07:06:23Z</time></trkpt><trkpt lat="60.1172563992" lon="31.4039383270"><ele>108.14</ele><time>2026-07-25T07:06:35Z</time></trkpt><trkpt lat="60.1176359318" lon="31.3897366170"><ele>109.53</ele><time>2026-07-25T07:06:50Z</time></trkpt><trkpt lat="60.1173645258" lon="31.3812529575"><ele>104.36</ele><time>2026-07-25T07:07:04Z</time></trkpt><trkpt lat="60.1168973185" lon="31.3696991745"><ele>107.04</ele><time>2026-07-25T07:07:23Z</time></trkpt><trkpt lat="60.1169156749" lon="31.3690986112"><ele>107.44</ele><time>2026-07-25T07:07:24Z</time></trkpt><trkpt lat="60.1171428245" lon="31.3701185212"><ele>109.55</ele><time>2026-07-25T07:07:28Z</time></trkpt><trkpt lat="60.1157136261" lon="31.3823484723"><ele>105.07</ele><time>2026-07-25T07:07:43Z</time></trkpt><trkpt lat="60.1158745587" lon="31.3860877231"><ele>100.17</ele><time>2026-07-25T07:07:49Z</time></trkpt><trkpt lat="60.1164993457" lon="31.3941226155"><ele>100.24</ele><time>2026-07-25T07:08:02Z</time></trkpt><trkpt lat="60.1172159985" lon="31.4027392957"><ele>104.42</ele><time>2026-07-25T07:08:16Z</time></trkpt><trkpt lat="60.1175592374" lon="31.4027152397"><ele>105.11</ele><time>2026-07-25T07:08:21Z</time></trkpt><trkpt lat="60.1179562043" lon="31.3957545720"><ele>106.67</ele><time>2026-07-25T07:08:25Z</time></trkpt><trkpt lat="60.1174986362" lon="31.3865473028"><ele>104.02</ele><time>2026-07-25T07:08:40Z</time></trkpt><trkpt lat="60.1171912719" lon="31.3774469029"><ele>104.68</ele><time>2026-07-25T07:08:55Z</time></trkpt><trkpt lat="60.1169062871" lon="31.3701193593"><ele>110.32</ele><time>2026-07-25T07:09:07Z</time></trkpt><trkpt lat="60.1169565786" lon="31.3671417721"><ele>111.00</ele><time>2026-07-25T07:09:12Z</time></trkpt><trkpt lat="60.1170883421" lon="31.3670288678"><ele>110.64</ele><time>2026-07-25T07:09:13Z</time></trkpt><trkpt lat="60.1167460252" lon="31.3744160905"><ele>113.17</ele><time>2026-07-25T07:09:19Z</time></trkpt><trkpt lat="60.1164624654" lon="31.3763682358"><ele>113.74</ele><time>2026-07-25T07:09:21Z</time></trkpt><trkpt lat="60.1159504149" lon="31.3808622770"><ele>114.96</ele><time>2026-07-25T07:09:27Z</time></trkpt><trkpt lat="60.1158326492" lon="31.3818589691"><ele>115.09</ele><time>2026-07-25T07:09:28Z</time></trkpt><trkpt lat="60.1159293763" lon="31.3862551935"><ele>116.64</ele><time>2026-07-25T07:09:34Z</time></trkpt><trkpt lat="60.1168133318" lon="31.3973422721"><ele>112.85</ele><time>2026-07-25T07:09:52Z</time></trkpt><trkpt lat="60.1173556410" lon="31.4035416115"><ele>112.55</ele><time>2026-07-25T07:10:02Z</time></trkpt><trkpt lat="60.1178955194" lon="31.3970698602"><ele>109.16</ele><time>2026-07-25T07:10:09Z</time></trkpt><trkpt lat="60.1179381832" lon="31.3966414612"><ele>108.87</ele><time>2026-07-25T07:10:11Z</time></trkpt><trkpt lat="60.1177914999" lon="31.3942931872"><ele>109.18</ele><time>2026-07-25T07:10:13Z</time></trkpt><trkpt lat="60.1174271386" lon="31.3834312465"><ele>104.43</ele><time>2026-07-25T07:10:30Z</time></trkpt><trkpt lat="60.1171297487" lon="31.3767169230"><ele>102.40</ele><time>2026-07-25T07:10:41Z</time></trkpt><trkpt lat="60.1168905292" lon="31.3700239733"><ele>102.33</ele><time>2026-07-25T07:10:52Z</time></trkpt><trkpt lat="60.1171989832" lon="31.3693885412"><ele>106.51</ele><time>2026-07-25T07:10:57Z</time></trkpt><trkpt lat="60.1170978975" lon="31.3720128313"><ele>109.20</ele><time>2026-07-25T07:11:00Z</time></trkpt><trkpt lat="60.1167057920" lon="31.3746442460"><ele>110.21</ele><time>2026-07-25T07:11:02Z</time></trkpt><trkpt lat="60.1156883966" lon="31.3822495658"><ele>115.75</ele><time>2026-07-25T07:11:12Z</time></trkpt><trkpt lat="60.1159254368" lon="31.3865054771"><ele>114.57</ele><time>2026-07-25T07:11:19Z</time></trkpt><trkpt lat="60.1167928800" lon="31.3962938637"><ele>106.11</ele><time>2026-07-25T07:11:35Z</time></trkpt><trkpt lat="60.1174816210" lon="31.4041088149"><ele>99.12</ele><time>2026-07-25T07:11:48Z</time></trkpt><trkpt lat="60.1179834455" lon="31.3978070486"><ele>97.13</ele><time>2026-07-25T07:11:53Z</time></trkpt><trkpt lat="60.1179865468" lon="31.3963085320"><ele>96.54</ele><time>2026-07-25T07:11:55Z</time></trkpt><trkpt lat="60.1178489998" lon="31.3941215258"><ele>95.72</ele><time>2026-07-25T07:11:58Z</time></trkpt><trkpt lat="60.1174335927" lon="31.3833269756"><ele>93.64</ele><time>2026-07-25T07:12:15Z</time></trkpt><trkpt lat="60.1170429122" lon="31.3739980850"><ele>97.97</ele><time>2026-07-25T07:12:30Z</time></trkpt><trkpt lat="60.1168865897" lon="31.3703424856"><ele>99.44</ele><time>2026-07-25T07:12:36Z</time></trkpt><trkpt lat="60.1170242205" lon="31.3663048390"><ele>99.25</ele><time>2026-07-25T07:12:43Z</time></trkpt><trkpt lat="60.1172864065" lon="31.3716591150"><ele>103.71</ele><time>2026-07-25T07:12:47Z</time></trkpt><trkpt lat="60.1166323666" lon="31.3757255953"><ele>103.23</ele><time>2026-07-25T07:12:49Z</time></trkpt><trkpt lat="60.1156939287" lon="31.3824249990"><ele>95.24</ele><time>2026-07-25T07:12:57Z</time></trkpt><trkpt lat="60.1158862934" lon="31.3860922493"><ele>96.85</ele><time>2026-07-25T07:13:03Z</time></trkpt><trkpt lat="60.1167811453" lon="31.3977220561"><ele>101.10</ele><time>2026-07-25T07:13:22Z</time></trkpt><trkpt lat="60.1171162538" lon="31.4020881057"><ele>99.15</ele><time>2026-07-25T07:13:29Z</time></trkpt><trkpt lat="60.1172565669" lon="31.4011576306"><ele>94.21</ele><time>2026-07-25T07:13:34Z</time></trkpt><trkpt lat="60.1173962094" lon="31.3904859591"><ele>85.88</ele><time>2026-07-25T07:13:49Z</time></trkpt><trkpt lat="60.1172504481" lon="31.3788638636"><ele>94.10</ele><time>2026-07-25T07:14:07Z</time></trkpt><trkpt lat="60.1169041079" lon="31.3703136519"><ele>94.59</ele><time>2026-07-25T07:14:21Z</time></trkpt><trkpt lat="60.1165629644" lon="31.3740141783"><ele>112.17</ele><time>2026-07-25T07:14:28Z</time></trkpt><trkpt lat="60.1156756561" lon="31.3825890329"><ele>111.08</ele><time>2026-07-25T07:14:42Z</time></trkpt><trkpt lat="60.1160259359" lon="31.3880697079"><ele>108.24</ele><time>2026-07-25T07:14:51Z</time></trkpt><trkpt lat="60.1166919619" lon="31.3966742344"><ele>107.61</ele><time>2026-07-25T07:15:05Z</time></trkpt><trkpt lat="60.1174514461" lon="31.4036727883"><ele>107.82</ele><time>2026-07-25T07:15:17Z</time></trkpt><trkpt lat="60.1180739701" lon="31.3990392722"><ele>128.47</ele><time>2026-07-25T07:15:21Z</time></trkpt><trkpt lat="60.1177864708" lon="31.3957110699"><ele>123.41</ele><time>2026-07-25T07:15:24Z</time></trkpt><trkpt lat="60.1175174117" lon="31.3858599029"><ele>108.05</ele><time>2026-07-25T07:15:40Z</time></trkpt><trkpt lat="60.1171607617" lon="31.3761134259"><ele>106.70</ele><time>2026-07-25T07:15:56Z</time></trkpt><trkpt lat="60.1169029344" lon="31.3700102270"><ele>109.07</ele><time>2026-07-25T07:16:06Z</time></trkpt><trkpt lat="60.1171080396" lon="31.3675936405"><ele>113.17</ele><time>2026-07-25T07:16:11Z</time></trkpt><trkpt lat="60.1174356882" lon="31.3686706312"><ele>115.71</ele><time>2026-07-25T07:16:14Z</time></trkpt><trkpt lat="60.1169183571" lon="31.3756408542"><ele>117.87</ele><time>2026-07-25T07:16:20Z</time></trkpt><trkpt lat="60.1163427718" lon="31.3782500569"><ele>118.92</ele><time>2026-07-25T07:16:22Z</time></trkpt><trkpt lat="60.1155914180" lon="31.3833213598"><ele>121.13</ele><time>2026-07-25T07:16:28Z</time></trkpt><trkpt lat="60.1160004549" lon="31.3876537979"><ele>118.76</ele><time>2026-07-25T07:16:35Z</time></trkpt><trkpt lat="60.1166800596" lon="31.3956271671"><ele>118.33</ele><time>2026-07-25T07:16:48Z</time></trkpt><trkpt lat="60.1173631847" lon="31.4042169414"><ele>120.16</ele><time>2026-07-25T07:17:02Z</time></trkpt><trkpt lat="60.1328828651" lon="31.4101976808"><ele>247.06</ele><time>2026-07-25T07:17:41Z</time></trkpt><trkpt lat="60.1322594192" lon="31.4022016805"><ele>197.35</ele><time>2026-07-25T07:17:54Z</time></trkpt><trkpt lat="60.1157742273" lon="31.3823204767"><ele>133.30</ele><time>2026-07-25T07:18:11Z</time></trkpt><trkpt lat="60.1158705354" lon="31.3849159330"><ele>120.34</ele><time>2026-07-25T07:18:15Z</time></trkpt><trkpt lat="60.1166446041" lon="31.3951948285"><ele>109.05</ele><time>2026-07-25T07:18:32Z</time></trkpt><trkpt lat="60.1170941256" lon="31.4014060702"><ele>101.17</ele><time>2026-07-25T07:18:42Z</time></trkpt><trkpt lat="60.1179098524" lon="31.4006439038"><ele>99.36</ele><time>2026-07-25T07:18:47Z</time></trkpt><trkpt lat="60.1182318013" lon="31.3985101227"><ele>99.41</ele><time>2026-07-25T07:18:50Z</time></trkpt><trkpt lat="60.1178758219" lon="31.3950023800"><ele>99.98</ele><time>2026-07-25T07:18:55Z</time></trkpt><trkpt lat="60.1174641866" lon="31.3837764133"><ele>101.55</ele><time>2026-07-25T07:19:13Z</time></trkpt><trkpt lat="60.1171030104" lon="31.3751955237"><ele>105.48</ele><time>2026-07-25T07:19:27Z</time></trkpt><trkpt lat="60.1169044431" lon="31.3690763991"><ele>108.99</ele><time>2026-07-25T07:19:37Z</time></trkpt><trkpt lat="60.1169640385" lon="31.3682125602"><ele>112.17</ele><time>2026-07-25T07:19:39Z</time></trkpt><trkpt lat="60.1170812175" lon="31.3718165271"><ele>120.89</ele><time>2026-07-25T07:19:43Z</time></trkpt><trkpt lat="60.1169797126" lon="31.3742333651"><ele>121.74</ele><time>2026-07-25T07:19:46Z</time></trkpt><trkpt lat="60.1164156944" lon="31.3768778555"><ele>122.90</ele><time>2026-07-25T07:19:48Z</time></trkpt><trkpt lat="60.1156812720" lon="31.3824824151"><ele>118.99</ele><time>2026-07-25T07:19:56Z</time></trkpt><trkpt lat="60.1165489666" lon="31.3940955419"><ele>113.81</ele><time>2026-07-25T07:20:15Z</time></trkpt><trkpt lat="60.1176946051" lon="31.4077121112"><ele>109.14</ele><time>2026-07-25T07:20:37Z</time></trkpt><trkpt lat="60.1185405906" lon="31.4043004252"><ele>109.36</ele><time>2026-07-25T07:20:38Z</time></trkpt><trkpt lat="60.1179272868" lon="31.3962629344"><ele>109.05</ele><time>2026-07-25T07:20:43Z</time></trkpt><trkpt lat="60.1178510115" lon="31.3951706886"><ele>108.71</ele><time>2026-07-25T07:20:44Z</time></trkpt><trkpt lat="60.1177725568" lon="31.3882547803"><ele>109.26</ele><time>2026-07-25T07:20:55Z</time></trkpt><trkpt lat="60.1172604226" lon="31.3768703118"><ele>112.19</ele><time>2026-07-25T07:21:09Z</time></trkpt><trkpt lat="60.1169711631" lon="31.3671180513"><ele>111.57</ele><time>2026-07-25T07:21:25Z</time></trkpt><trkpt lat="60.1169865858" lon="31.3653187081"><ele>111.32</ele><time>2026-07-25T07:21:28Z</time></trkpt><trkpt lat="60.1172241289" lon="31.3678949699"><ele>114.47</ele><time>2026-07-25T07:21:30Z</time></trkpt><trkpt lat="60.1158815157" lon="31.3809689786"><ele>98.80</ele><time>2026-07-25T07:21:38Z</time></trkpt><trkpt lat="60.1156531088" lon="31.3839343283"><ele>98.09</ele><time>2026-07-25T07:21:43Z</time></trkpt><trkpt lat="60.1162537560" lon="31.3912536576"><ele>97.98</ele><time>2026-07-25T07:21:55Z</time></trkpt><trkpt lat="60.1169388089" lon="31.4003966376"><ele>97.64</ele><time>2026-07-25T07:22:10Z</time></trkpt><trkpt lat="60.1172052696" lon="31.4028745797"><ele>97.34</ele><time>2026-07-25T07:22:14Z</time></trkpt><trkpt lat="60.1172983926" lon="31.4013680164"><ele>95.43</ele><time>2026-07-25T07:22:18Z</time></trkpt><trkpt lat="60.1172461733" lon="31.4004983939"><ele>94.74</ele><time>2026-07-25T07:22:19Z</time></trkpt><trkpt lat="60.1172507834" lon="31.3897479326"><ele>85.91</ele><time>2026-07-25T07:22:34Z</time></trkpt><trkpt lat="60.1171850692" lon="31.3771451544"><ele>106.75</ele><time>2026-07-25T07:22:53Z</time></trkpt><trkpt lat="60.1168707479" lon="31.3692760561"><ele>108.13</ele><time>2026-07-25T07:23:06Z</time></trkpt><trkpt lat="60.1169409044" lon="31.3669437077"><ele>110.44</ele><time>2026-07-25T07:23:12Z</time></trkpt><trkpt lat="60.1172860712" lon="31.3717617095"><ele>115.14</ele><time>2026-07-25T07:23:16Z</time></trkpt><trkpt lat="60.1167932153" lon="31.3760778029"><ele>115.45</ele><time>2026-07-25T07:23:20Z</time></trkpt><trkpt lat="60.1156757399" lon="31.3842509966"><ele>114.93</ele><time>2026-07-25T07:23:29Z</time></trkpt><trkpt lat="60.1161696855" lon="31.3894062862"><ele>115.38</ele><time>2026-07-25T07:23:37Z</time></trkpt><trkpt lat="60.1168487035" lon="31.3987522759"><ele>116.63</ele><time>2026-07-25T07:23:52Z</time></trkpt><trkpt lat="60.1172811259" lon="31.4036110975"><ele>116.23</ele><time>2026-07-25T07:24:00Z</time></trkpt><trkpt lat="60.1182446256" lon="31.4020404965"><ele>117.82</ele><time>2026-07-25T07:24:03Z</time></trkpt><trkpt lat="60.1180078369" lon="31.3985972106"><ele>118.11</ele><time>2026-07-25T07:24:05Z</time></trkpt><trkpt lat="60.1178588904" lon="31.3965547085"><ele>118.23</ele><time>2026-07-25T07:24:07Z</time></trkpt><trkpt lat="60.1174560562" lon="31.3837298937"><ele>113.11</ele><time>2026-07-25T07:24:27Z</time></trkpt><trkpt lat="60.1170010027" lon="31.3738764636"><ele>115.88</ele><time>2026-07-25T07:24:43Z</time></trkpt><trkpt lat="60.1168338675" lon="31.3689981122"><ele>114.94</ele><time>2026-07-25T07:24:51Z</time></trkpt><trkpt lat="60.1168580074" lon="31.3678877614"><ele>115.70</ele><time>2026-07-25T07:24:53Z</time></trkpt><trkpt lat="60.1163249183" lon="31.3764595147"><ele>130.25</ele><time>2026-07-25T07:25:00Z</time></trkpt><trkpt lat="60.1157210022" lon="31.3818859588"><ele>111.14</ele><time>2026-07-25T07:25:09Z</time></trkpt><trkpt lat="60.1158888917" lon="31.3855360262"><ele>104.38</ele><time>2026-07-25T07:25:15Z</time></trkpt><trkpt lat="60.1170101389" lon="31.4002582524"><ele>100.57</ele><time>2026-07-25T07:25:39Z</time></trkpt><trkpt lat="60.1172729116" lon="31.4032993745"><ele>99.79</ele><time>2026-07-25T07:25:44Z</time></trkpt><trkpt lat="60.1178335771" lon="31.3969505858"><ele>98.35</ele><time>2026-07-25T07:25:51Z</time></trkpt><trkpt lat="60.1178444736" lon="31.3959445897"><ele>97.77</ele><time>2026-07-25T07:25:53Z</time></trkpt><trkpt lat="60.1177931763" lon="31.3946600631"><ele>97.95</ele><time>2026-07-25T07:25:55Z</time></trkpt><trkpt lat="60.1176920906" lon="31.3907047268"><ele>98.88</ele><time>2026-07-25T07:26:01Z</time></trkpt><trkpt lat="60.1173315011" lon="31.3805639651"><ele>104.18</ele><time>2026-07-25T07:26:17Z</time></trkpt><trkpt lat="60.1170507912" lon="31.3684444875"><ele>102.94</ele><time>2026-07-25T07:26:40Z</time></trkpt><trkpt lat="60.1171642821" lon="31.3704201858"><ele>102.55</ele><time>2026-07-25T07:26:41Z</time></trkpt><trkpt lat="60.1161949988" lon="31.3762507215"><ele>101.74</ele><time>2026-07-25T07:26:47Z</time></trkpt><trkpt lat="60.1160807535" lon="31.3772320747"><ele>101.65</ele><time>2026-07-25T07:26:48Z</time></trkpt><trkpt lat="60.1157782506" lon="31.3786617760"><ele>101.62</ele><time>2026-07-25T07:26:51Z</time></trkpt><trkpt lat="60.1156467386" lon="31.3814313244"><ele>101.81</ele><time>2026-07-25T07:26:55Z</time></trkpt><trkpt lat="60.1159962639" lon="31.3861468155"><ele>99.44</ele><time>2026-07-25T07:27:01Z</time></trkpt><trkpt lat="60.1168041117" lon="31.3972653262"><ele>102.00</ele><time>2026-07-25T07:27:19Z</time></trkpt><trkpt lat="60.1174910925" lon="31.4059607964"><ele>106.31</ele><time>2026-07-25T07:27:33Z</time></trkpt><trkpt lat="60.1184188016" lon="31.4002390578"><ele>109.62</ele><time>2026-07-25T07:27:40Z</time></trkpt><trkpt lat="60.1185643114" lon="31.3986187521"><ele>110.23</ele><time>2026-07-25T07:27:43Z</time></trkpt><trkpt lat="60.1179645024" lon="31.3878303207"><ele>112.01</ele><time>2026-07-25T07:27:51Z</time></trkpt><trkpt lat="60.1174772624" lon="31.3787415717"><ele>113.65</ele><time>2026-07-25T07:28:05Z</time></trkpt><trkpt lat="60.1169507112" lon="31.3687872235"><ele>120.31</ele><time>2026-07-25T07:28:21Z</time></trkpt><trkpt lat="60.1169870049" lon="31.3682517037"><ele>120.95</ele><time>2026-07-25T07:28:25Z</time></trkpt><trkpt lat="60.1165021956" lon="31.3748248760"><ele>122.59</ele><time>2026-07-25T07:28:30Z</time></trkpt><trkpt lat="60.1163487229" lon="31.3772738166"><ele>122.73</ele><time>2026-07-25T07:28:34Z</time></trkpt><trkpt lat="60.1156673580" lon="31.3818399422"><ele>124.35</ele><time>2026-07-25T07:28:39Z</time></trkpt><trkpt lat="60.1158370078" lon="31.3856852241"><ele>124.49</ele><time>2026-07-25T07:28:45Z</time></trkpt><trkpt lat="60.1166428439" lon="31.3956172764"><ele>119.29</ele><time>2026-07-25T07:29:01Z</time></trkpt><trkpt lat="60.1171517931" lon="31.4018397499"><ele>114.47</ele><time>2026-07-25T07:29:11Z</time></trkpt><trkpt lat="60.1176661905" lon="31.4022790454"><ele>114.57</ele><time>2026-07-25T07:29:16Z</time></trkpt><trkpt lat="60.1180176437" lon="31.4005087037"><ele>114.42</ele><time>2026-07-25T07:29:18Z</time></trkpt><trkpt lat="60.1182945818" lon="31.3985546306"><ele>114.44</ele><time>2026-07-25T07:29:20Z</time></trkpt><trkpt lat="60.1178430486" lon="31.3948401902"><ele>114.64</ele><time>2026-07-25T07:29:24Z</time></trkpt><trkpt lat="60.1175409649" lon="31.3874237146"><ele>113.63</ele><time>2026-07-25T07:29:35Z</time></trkpt><trkpt lat="60.1172008272" lon="31.3770803623"><ele>111.82</ele><time>2026-07-25T07:29:52Z</time></trkpt><trkpt lat="60.1168652996" lon="31.3661273103"><ele>114.53</ele><time>2026-07-25T07:30:10Z</time></trkpt><trkpt lat="60.1167166885" lon="31.3634991646"><ele>114.68</ele><time>2026-07-25T07:30:17Z</time></trkpt><trkpt lat="60.1175422221" lon="31.3765267376"><ele>116.50</ele><time>2026-07-25T07:30:22Z</time></trkpt><trkpt lat="60.1167444326" lon="31.3807129953"><ele>105.41</ele><time>2026-07-25T07:30:26Z</time></trkpt><trkpt lat="60.1164989267" lon="31.3875196036"><ele>98.38</ele><time>2026-07-25T07:30:34Z</time></trkpt><trkpt lat="60.1169130765" lon="31.3977043703"><ele>96.80</ele><time>2026-07-25T07:30:49Z</time></trkpt><trkpt lat="60.1175164059" lon="31.4052961115"><ele>93.14</ele><time>2026-07-25T07:31:02Z</time></trkpt><trkpt lat="60.1174100395" lon="31.4048767649"><ele>93.72</ele><time>2026-07-25T07:31:03Z</time></trkpt><trkpt lat="60.1179494150" lon="31.3945108652"><ele>110.69</ele><time>2026-07-25T07:31:09Z</time></trkpt><trkpt lat="60.1175312418" lon="31.3853986468"><ele>106.31</ele><time>2026-07-25T07:31:23Z</time></trkpt><trkpt lat="60.1171139069" lon="31.3750832062"><ele>110.62</ele><time>2026-07-25T07:31:40Z</time></trkpt><trkpt lat="60.1168999169" lon="31.3654698338"><ele>114.96</ele><time>2026-07-25T07:31:56Z</time></trkpt><trkpt lat="60.1156125404" lon="31.3826643862"><ele>113.29</ele><time>2026-07-25T07:32:09Z</time></trkpt><trkpt lat="60.1156128757" lon="31.3832898438"><ele>112.88</ele><time>2026-07-25T07:32:10Z</time></trkpt><trkpt lat="60.1160611399" lon="31.3880588114"><ele>114.22</ele><time>2026-07-25T07:32:18Z</time></trkpt><trkpt lat="60.1168559957" lon="31.3978811447"><ele>115.44</ele><time>2026-07-25T07:32:34Z</time></trkpt><trkpt lat="60.1175674517" lon="31.4075902384"><ele>115.86</ele><time>2026-07-25T07:32:50Z</time></trkpt><trkpt lat="60.1176042482" lon="31.4081059769"><ele>115.77</ele><time>2026-07-25T07:32:51Z</time></trkpt><trkpt lat="60.1182963420" lon="31.4064190350"><ele>115.07</ele><time>2026-07-25T07:32:52Z</time></trkpt><trkpt lat="60.1179489121" lon="31.3934852555"><ele>141.90</ele><time>2026-07-25T07:32:57Z</time></trkpt><trkpt lat="60.1173915993" lon="31.3815598190"><ele>105.61</ele><time>2026-07-25T07:33:14Z</time></trkpt><trkpt lat="60.1169147529" lon="31.3700074609"><ele>111.77</ele><time>2026-07-25T07:33:33Z</time></trkpt><trkpt lat="60.1169495378" lon="31.3686909992"><ele>118.21</ele><time>2026-07-25T07:33:38Z</time></trkpt><trkpt lat="60.1168118231" lon="31.3736431114"><ele>118.51</ele><time>2026-07-25T07:33:41Z</time></trkpt><trkpt lat="60.1166819874" lon="31.3743274938"><ele>118.08</ele><time>2026-07-25T07:33:42Z</time></trkpt><trkpt lat="60.1161156222" lon="31.3778679259"><ele>118.00</ele><time>2026-07-25T07:33:46Z</time></trkpt><trkpt lat="60.1156277116" lon="31.3827380631"><ele>114.39</ele><time>2026-07-25T07:33:54Z</time></trkpt><trkpt lat="60.1160393469" lon="31.3882228453"><ele>110.02</ele><time>2026-07-25T07:34:03Z</time></trkpt><trkpt lat="60.1168367174" lon="31.3980453461"><ele>107.69</ele><time>2026-07-25T07:34:19Z</time></trkpt><trkpt lat="60.1173776016" lon="31.4047485217"><ele>107.79</ele><time>2026-07-25T07:34:32Z</time></trkpt><trkpt lat="60.1178700384" lon="31.3972262666"><ele>109.12</ele><time>2026-07-25T07:34:35Z</time></trkpt><trkpt lat="60.1178584713" lon="31.3962052669"><ele>108.89</ele><time>2026-07-25T07:34:37Z</time></trkpt><trkpt lat="60.1175288111" lon="31.3894335274"><ele>108.97</ele><time>2026-07-25T07:34:46Z</time></trkpt><trkpt lat="60.1172819640" lon="31.3796272036"><ele>109.76</ele><time>2026-07-25T07:35:02Z</time></trkpt><trkpt lat="60.1168544870" lon="31.3683233690"><ele>111.66</ele><time>2026-07-25T07:35:22Z</time></trkpt><trkpt lat="60.1168062072" lon="31.3709633332"><ele>113.66</ele><time>2026-07-25T07:35:23Z</time></trkpt><trkpt lat="60.1167059597" lon="31.3731546979"><ele>114.04</ele><time>2026-07-25T07:35:25Z</time></trkpt><trkpt lat="60.1162083261" lon="31.3768541347"><ele>113.41</ele><time>2026-07-25T07:35:29Z</time></trkpt><trkpt lat="60.1156363450" lon="31.3834727369"><ele>111.67</ele><time>2026-07-25T07:35:40Z</time></trkpt><trkpt lat="60.1160398498" lon="31.3883468136"><ele>110.28</ele><time>2026-07-25T07:35:48Z</time></trkpt><trkpt lat="60.1168873440" lon="31.3988146372"><ele>111.31</ele><time>2026-07-25T07:36:05Z</time></trkpt><trkpt lat="60.1173090376" lon="31.4037461299"><ele>111.04</ele><time>2026-07-25T07:36:14Z</time></trkpt><trkpt lat="60.1181250159" lon="31.4033938386"><ele>111.09</ele><time>2026-07-25T07:36:16Z</time></trkpt><trkpt lat="60.1186029520" lon="31.4000679832"><ele>111.59</ele><time>2026-07-25T07:36:19Z</time></trkpt><trkpt lat="60.1182654966" lon="31.3967863005"><ele>111.78</ele><time>2026-07-25T07:36:23Z</time></trkpt><trkpt lat="60.1181248482" lon="31.3927543536"><ele>113.02</ele><time>2026-07-25T07:36:29Z</time></trkpt><trkpt lat="60.1176384464" lon="31.3858589809"><ele>114.99</ele><time>2026-07-25T07:36:38Z</time></trkpt><trkpt lat="60.1172802038" lon="31.3758313749"><ele>116.81</ele><time>2026-07-25T07:36:53Z</time></trkpt><trkpt lat="60.1169433352" lon="31.3667555340"><ele>116.59</ele><time>2026-07-25T07:37:08Z</time></trkpt><trkpt lat="60.1168738492" lon="31.3736342266"><ele>114.43</ele><time>2026-07-25T07:37:13Z</time></trkpt><trkpt lat="60.1166264992" lon="31.3754876330"><ele>113.27</ele><time>2026-07-25T07:37:14Z</time></trkpt><trkpt lat="60.1158873830" lon="31.3796631619"><ele>110.46</ele><time>2026-07-25T07:37:19Z</time></trkpt><trkpt lat="60.1155270450" lon="31.3840312231"><ele>109.23</ele><time>2026-07-25T07:37:26Z</time></trkpt><trkpt lat="60.1160140336" lon="31.3890605327"><ele>108.09</ele><time>2026-07-25T07:37:34Z</time></trkpt><trkpt lat="60.1168405730" lon="31.3989827782"><ele>102.98</ele><time>2026-07-25T07:37:50Z</time></trkpt><trkpt lat="60.1171072852" lon="31.4020603616"><ele>102.05</ele><time>2026-07-25T07:37:55Z</time></trkpt><trkpt lat="60.1178155560" lon="31.4015147835"><ele>109.25</ele><time>2026-07-25T07:38:02Z</time></trkpt><trkpt lat="60.1181433722" lon="31.3995180465"><ele>109.43</ele><time>2026-07-25T07:38:04Z</time></trkpt><trkpt lat="60.1184603758" lon="31.3976180367"><ele>110.61</ele><time>2026-07-25T07:38:08Z</time></trkpt><trkpt lat="60.1179064158" lon="31.3925706223"><ele>112.17</ele><time>2026-07-25T07:38:13Z</time></trkpt><trkpt lat="60.1174575649" lon="31.3824371528"><ele>118.91</ele><time>2026-07-25T07:38:27Z</time></trkpt><trkpt lat="60.1170214545" lon="31.3725574873"><ele>118.45</ele><time>2026-07-25T07:38:43Z</time></trkpt><trkpt lat="60.1169978175" lon="31.3687204197"><ele>125.08</ele><time>2026-07-25T07:38:52Z</time></trkpt><trkpt lat="60.1169328578" lon="31.3728692941"><ele>127.18</ele><time>2026-07-25T07:38:56Z</time></trkpt><trkpt lat="60.1166678220" lon="31.3757027127"><ele>122.89</ele><time>2026-07-25T07:38:59Z</time></trkpt><trkpt lat="60.1163997687" lon="31.3770134747"><ele>123.00</ele><time>2026-07-25T07:39:00Z</time></trkpt><trkpt lat="60.1157267857" lon="31.3820589613"><ele>119.25</ele><time>2026-07-25T07:39:07Z</time></trkpt><trkpt lat="60.1158736367" lon="31.3857045863"><ele>117.10</ele><time>2026-07-25T07:39:13Z</time></trkpt><trkpt lat="60.1167544909" lon="31.3967274595"><ele>111.81</ele><time>2026-07-25T07:39:31Z</time></trkpt><trkpt lat="60.1173256338" lon="31.4043578412"><ele>114.45</ele><time>2026-07-25T07:39:44Z</time></trkpt><trkpt lat="60.1179619879" lon="31.3998423424"><ele>147.34</ele><time>2026-07-25T07:39:47Z</time></trkpt><trkpt lat="60.1179474872" lon="31.3973737881"><ele>144.13</ele><time>2026-07-25T07:39:49Z</time></trkpt><trkpt lat="60.1177481655" lon="31.3902980369"><ele>140.72</ele><time>2026-07-25T07:40:00Z</time></trkpt><trkpt lat="60.1172446646" lon="31.3778952509"><ele>120.82</ele><time>2026-07-25T07:40:19Z</time></trkpt><trkpt lat="60.1168711670" lon="31.3676156010"><ele>120.73</ele><time>2026-07-25T07:40:36Z</time></trkpt><trkpt lat="60.1168611087" lon="31.3660143223"><ele>120.99</ele><time>2026-07-25T07:40:39Z</time></trkpt><trkpt lat="60.1172555611" lon="31.3719469495"><ele>124.78</ele><time>2026-07-25T07:40:42Z</time></trkpt><trkpt lat="60.1168228872" lon="31.3755341526"><ele>123.13</ele><time>2026-07-25T07:40:45Z</time></trkpt><trkpt lat="60.1156728063" lon="31.3826687448"><ele>121.04</ele><time>2026-07-25T07:40:53Z</time></trkpt><trkpt lat="60.1159877982" lon="31.3876434881"><ele>116.87</ele><time>2026-07-25T07:41:01Z</time></trkpt><trkpt lat="60.1168149244" lon="31.3974944875"><ele>112.44</ele><time>2026-07-25T07:41:17Z</time></trkpt><trkpt lat="60.1173663698" lon="31.4045583364"><ele>114.69</ele><time>2026-07-25T07:41:30Z</time></trkpt><trkpt lat="60.1176640950" lon="31.3998216391"><ele>116.57</ele><time>2026-07-25T07:41:35Z</time></trkpt><trkpt lat="60.1176791824" lon="31.3996871095"><ele>116.64</ele><time>2026-07-25T07:41:36Z</time></trkpt><trkpt lat="60.1179557852" lon="31.3948700298"><ele>117.21</ele><time>2026-07-25T07:41:40Z</time></trkpt><trkpt lat="60.1177045796" lon="31.3903854601"><ele>118.43</ele><time>2026-07-25T07:41:45Z</time></trkpt><trkpt lat="60.1174026635" lon="31.3825578522"><ele>114.94</ele><time>2026-07-25T07:41:56Z</time></trkpt><trkpt lat="60.1171273179" lon="31.3758250047"><ele>113.35</ele><time>2026-07-25T07:42:07Z</time></trkpt><trkpt lat="60.1168355439" lon="31.3684745785"><ele>113.50</ele><time>2026-07-25T07:42:19Z</time></trkpt><trkpt lat="60.1167821512" lon="31.3674431853"><ele>113.82</ele><time>2026-07-25T07:42:21Z</time></trkpt><trkpt lat="60.1165705081" lon="31.3725335151"><ele>114.93</ele><time>2026-07-25T07:42:24Z</time></trkpt><trkpt lat="60.1161670033" lon="31.3764501270"><ele>114.23</ele><time>2026-07-25T07:42:28Z</time></trkpt><trkpt lat="60.1161324698" lon="31.3772229385"><ele>114.12</ele><time>2026-07-25T07:42:29Z</time></trkpt><trkpt lat="60.1156605687" lon="31.3824058045"><ele>114.72</ele><time>2026-07-25T07:42:37Z</time></trkpt><trkpt lat="60.1157272886" lon="31.3848269172"><ele>113.18</ele><time>2026-07-25T07:42:41Z</time></trkpt><trkpt lat="60.1166196261" lon="31.3952250872"><ele>111.02</ele><time>2026-07-25T07:42:58Z</time></trkpt><trkpt lat="60.1174314972" lon="31.4032656793"><ele>108.99</ele><time>2026-07-25T07:43:13Z</time></trkpt><trkpt lat="60.1175942738" lon="31.4034269471"><ele>109.31</ele><time>2026-07-25T07:43:14Z</time></trkpt><trkpt lat="60.1179825235" lon="31.3965831231"><ele>111.61</ele><time>2026-07-25T07:43:19Z</time></trkpt><trkpt lat="60.1177896559" lon="31.3933677413"><ele>112.04</ele><time>2026-07-25T07:43:23Z</time></trkpt><trkpt lat="60.1174745802" lon="31.3835705537"><ele>111.55</ele><time>2026-07-25T07:43:39Z</time></trkpt><trkpt lat="60.1171406452" lon="31.3756381720"><ele>111.30</ele><time>2026-07-25T07:43:52Z</time></trkpt><trkpt lat="60.1168739330" lon="31.3684180006"><ele>111.56</ele><time>2026-07-25T07:44:04Z</time></trkpt><trkpt lat="60.1169202849" lon="31.3682126440"><ele>113.87</ele><time>2026-07-25T07:44:06Z</time></trkpt><trkpt lat="60.1168090571" lon="31.3728800230"><ele>114.63</ele><time>2026-07-25T07:44:10Z</time></trkpt><trkpt lat="60.1162171271" lon="31.3768752571"><ele>113.47</ele><time>2026-07-25T07:44:14Z</time></trkpt><trkpt lat="60.1158651710" lon="31.3794641756"><ele>112.77</ele><time>2026-07-25T07:44:17Z</time></trkpt><trkpt lat="60.1156147197" lon="31.3818848692"><ele>114.03</ele><time>2026-07-25T07:44:21Z</time></trkpt><trkpt lat="60.1156675257" lon="31.3843243383"><ele>115.43</ele><time>2026-07-25T07:44:25Z</time></trkpt><trkpt lat="60.1164680813" lon="31.3929321337"><ele>112.03</ele><time>2026-07-25T07:44:39Z</time></trkpt><trkpt lat="60.1176916715" lon="31.4042689931"><ele>114.28</ele><time>2026-07-25T07:44:59Z</time></trkpt><trkpt lat="60.1179505885" lon="31.4010199998"><ele>113.96</ele><time>2026-07-25T07:45:01Z</time></trkpt><trkpt lat="60.1180604752" lon="31.3964274712"><ele>114.42</ele><time>2026-07-25T07:45:05Z</time></trkpt><trkpt lat="60.1179369260" lon="31.3939714059"><ele>114.41</ele><time>2026-07-25T07:45:08Z</time></trkpt><trkpt lat="60.1178472396" lon="31.3928474765"><ele>114.79</ele><time>2026-07-25T07:45:09Z</time></trkpt><trkpt lat="60.1174330059" lon="31.3814361859"><ele>114.91</ele><time>2026-07-25T07:45:27Z</time></trkpt><trkpt lat="60.1169872563" lon="31.3718037028"><ele>111.54</ele><time>2026-07-25T07:45:43Z</time></trkpt><trkpt lat="60.1168662217" lon="31.3682556432"><ele>113.82</ele><time>2026-07-25T07:45:49Z</time></trkpt><trkpt lat="60.1161494013" lon="31.3789720740"><ele>112.01</ele><time>2026-07-25T07:46:03Z</time></trkpt><trkpt lat="60.1158223394" lon="31.3818986155"><ele>111.72</ele><time>2026-07-25T07:46:07Z</time></trkpt><trkpt lat="60.1161802467" lon="31.3891754486"><ele>113.35</ele><time>2026-07-25T07:46:18Z</time></trkpt><trkpt lat="60.1168110687" lon="31.3974701799"><ele>112.00</ele><time>2026-07-25T07:46:31Z</time></trkpt><trkpt lat="60.1173169166" lon="31.4031902421"><ele>114.30</ele><time>2026-07-25T07:46:41Z</time></trkpt><trkpt lat="60.1180169731" lon="31.3999953121"><ele>127.25</ele><time>2026-07-25T07:46:44Z</time></trkpt><trkpt lat="60.1180530991" lon="31.3988011423"><ele>124.23</ele><time>2026-07-25T07:46:46Z</time></trkpt><trkpt lat="60.1179365907" lon="31.3971717004"><ele>122.93</ele><time>2026-07-25T07:46:48Z</time></trkpt><trkpt lat="60.1176673640" lon="31.3922607433"><ele>92.55</ele><time>2026-07-25T07:48:38Z</time></trkpt><trkpt lat="60.1174441539" lon="31.3824343029"><ele>102.37</ele><time>2026-07-25T07:48:55Z</time></trkpt><trkpt lat="60.1170595083" lon="31.3739302754"><ele>101.50</ele><time>2026-07-25T07:49:09Z</time></trkpt><trkpt lat="60.1168203726" lon="31.3665307313"><ele>104.62</ele><time>2026-07-25T07:49:22Z</time></trkpt><trkpt lat="60.1165173668" lon="31.3722410705"><ele>157.04</ele><time>2026-07-25T07:49:24Z</time></trkpt><trkpt lat="60.1156362612" lon="31.3819225039"><ele>122.28</ele><time>2026-07-25T07:49:35Z</time></trkpt><trkpt lat="60.1158984471" lon="31.3861786667"><ele>118.81</ele><time>2026-07-25T07:49:42Z</time></trkpt><trkpt lat="60.1167625375" lon="31.3966735639"><ele>109.06</ele><time>2026-07-25T07:49:59Z</time></trkpt><trkpt lat="60.1172352768" lon="31.4029394556"><ele>106.33</ele><time>2026-07-25T07:50:12Z</time></trkpt><trkpt lat="60.1178983692" lon="31.3981848210"><ele>107.49</ele><time>2026-07-25T07:50:15Z</time></trkpt><trkpt lat="60.1176030748" lon="31.3877669536"><ele>110.07</ele><time>2026-07-25T07:50:31Z</time></trkpt><trkpt lat="60.1172743365" lon="31.3786196150"><ele>108.84</ele><time>2026-07-25T07:50:46Z</time></trkpt><trkpt lat="60.1168879308" lon="31.3694686722"><ele>112.96</ele><time>2026-07-25T07:51:01Z</time></trkpt><trkpt lat="60.1167714223" lon="31.3673612103"><ele>113.84</ele><time>2026-07-25T07:51:06Z</time></trkpt><trkpt lat="60.1164622139" lon="31.3753059972"><ele>114.57</ele><time>2026-07-25T07:51:10Z</time></trkpt><trkpt lat="60.1156632509" lon="31.3826206326"><ele>108.11</ele><time>2026-07-25T07:51:21Z</time></trkpt><trkpt lat="60.1156280469" lon="31.3838634174"><ele>107.41</ele><time>2026-07-25T07:51:23Z</time></trkpt><trkpt lat="60.1160515007" lon="31.3887835108"><ele>103.26</ele><time>2026-07-25T07:51:31Z</time></trkpt><trkpt lat="60.1169433352" lon="31.3993178029"><ele>101.94</ele><time>2026-07-25T07:51:48Z</time></trkpt><trkpt lat="60.1172065269" lon="31.4035023842"><ele>105.82</ele><time>2026-07-25T07:51:55Z</time></trkpt><trkpt lat="60.1177548710" lon="31.3983568177"><ele>137.75</ele><time>2026-07-25T07:51:58Z</time></trkpt><trkpt lat="60.1176174916" lon="31.3899337593"><ele>114.60</ele><time>2026-07-25T07:52:12Z</time></trkpt><trkpt lat="60.1173014939" lon="31.3796253596"><ele>109.08</ele><time>2026-07-25T07:52:29Z</time></trkpt><trkpt lat="60.1168027706" lon="31.3689015526"><ele>111.86</ele><time>2026-07-25T07:52:47Z</time></trkpt><trkpt lat="60.1163721085" lon="31.3720635418"><ele>114.11</ele><time>2026-07-25T07:52:50Z</time></trkpt><trkpt lat="60.1163559314" lon="31.3721043617"><ele>114.19</ele><time>2026-07-25T07:52:51Z</time></trkpt><trkpt lat="60.1161637343" lon="31.3744364586"><ele>115.08</ele><time>2026-07-25T07:52:55Z</time></trkpt><trkpt lat="60.1161454618" lon="31.3754960988"><ele>115.26</ele><time>2026-07-25T07:52:56Z</time></trkpt><trkpt lat="60.1156313159" lon="31.3822975941"><ele>113.77</ele><time>2026-07-25T07:53:05Z</time></trkpt><trkpt lat="60.1158568729" lon="31.3859262876"><ele>111.49</ele><time>2026-07-25T07:53:11Z</time></trkpt><trkpt lat="60.1167538203" lon="31.3969396893"><ele>111.73</ele><time>2026-07-25T07:53:29Z</time></trkpt><trkpt lat="60.1172746718" lon="31.4039467089"><ele>112.26</ele><time>2026-07-25T07:53:41Z</time></trkpt><trkpt lat="60.1182016265" lon="31.4005791117"><ele>115.66</ele><time>2026-07-25T07:53:45Z</time></trkpt><trkpt lat="60.1181616448" lon="31.3976149354"><ele>117.01</ele><time>2026-07-25T07:53:48Z</time></trkpt><trkpt lat="60.1180626545" lon="31.3965099491"><ele>117.34</ele><time>2026-07-25T07:53:49Z</time></trkpt><trkpt lat="60.1175482571" lon="31.3867305312"><ele>112.03</ele><time>2026-07-25T07:54:02Z</time></trkpt><trkpt lat="60.1171687245" lon="31.3764207065"><ele>110.18</ele><time>2026-07-25T07:54:19Z</time></trkpt><trkpt lat="60.1167394035" lon="31.3692965079"><ele>115.66</ele><time>2026-07-25T07:54:35Z</time></trkpt><trkpt lat="60.1166081429" lon="31.3731873035"><ele>117.19</ele><time>2026-07-25T07:54:37Z</time></trkpt><trkpt lat="60.1161788218" lon="31.3775664289"><ele>116.52</ele><time>2026-07-25T07:54:42Z</time></trkpt><trkpt lat="60.1156834513" lon="31.3824116718"><ele>116.20</ele><time>2026-07-25T07:54:50Z</time></trkpt><trkpt lat="60.1159658376" lon="31.3867016137"><ele>115.44</ele><time>2026-07-25T07:54:57Z</time></trkpt><trkpt lat="60.1166929677" lon="31.3959062006"><ele>114.47</ele><time>2026-07-25T07:55:12Z</time></trkpt><trkpt lat="60.1172852330" lon="31.4041632134"><ele>114.04</ele><time>2026-07-25T07:55:26Z</time></trkpt><trkpt lat="60.1172164176" lon="31.4047850668"><ele>113.94</ele><time>2026-07-25T07:55:28Z</time></trkpt><trkpt lat="60.1179059967" lon="31.3970206585"><ele>115.89</ele><time>2026-07-25T07:55:32Z</time></trkpt><trkpt lat="60.1178544480" lon="31.3952623028"><ele>117.58</ele><time>2026-07-25T07:55:34Z</time></trkpt><trkpt lat="60.1174594928" lon="31.3847086485"><ele>111.46</ele><time>2026-07-25T07:55:50Z</time></trkpt><trkpt lat="60.1171299163" lon="31.3761848398"><ele>108.87</ele><time>2026-07-25T07:56:04Z</time></trkpt><trkpt lat="60.1167808939" lon="31.3673726935"><ele>111.63</ele><time>2026-07-25T07:56:19Z</time></trkpt><trkpt lat="60.1167424209" lon="31.3727032486"><ele>140.58</ele><time>2026-07-25T07:56:24Z</time></trkpt><trkpt lat="60.1166301034" lon="31.3742822316"><ele>128.12</ele><time>2026-07-25T07:56:25Z</time></trkpt><trkpt lat="60.1159717049" lon="31.3793123793"><ele>109.86</ele><time>2026-07-25T07:56:30Z</time></trkpt><trkpt lat="60.1156787574" lon="31.3819546066"><ele>107.51</ele><time>2026-07-25T07:56:34Z</time></trkpt><trkpt lat="60.1159671787" lon="31.3868517336"><ele>106.21</ele><time>2026-07-25T07:56:42Z</time></trkpt><trkpt lat="60.1167939696" lon="31.3973082416"><ele>106.76</ele><time>2026-07-25T07:56:59Z</time></trkpt><trkpt lat="60.1173789427" lon="31.4034223370"><ele>109.67</ele><time>2026-07-25T07:57:13Z</time></trkpt><trkpt lat="60.1178862993" lon="31.3985048421"><ele>112.54</ele><time>2026-07-25T07:57:17Z</time></trkpt><trkpt lat="60.1178969443" lon="31.3972447906"><ele>112.03</ele><time>2026-07-25T07:57:18Z</time></trkpt><trkpt lat="60.1174837165" lon="31.3846078981"><ele>108.26</ele><time>2026-07-25T07:57:35Z</time></trkpt><trkpt lat="60.1171222888" lon="31.3754411135"><ele>109.43</ele><time>2026-07-25T07:57:50Z</time></trkpt><trkpt lat="60.1167457737" lon="31.3664426375"><ele>112.33</ele><time>2026-07-25T07:58:05Z</time></trkpt><trkpt lat="60.1167336199" lon="31.3720007613"><ele>115.53</ele><time>2026-07-25T07:58:08Z</time></trkpt><trkpt lat="60.1161675062" lon="31.3772444800"><ele>113.91</ele><time>2026-07-25T07:58:11Z</time></trkpt><trkpt lat="60.1156173181" lon="31.3827798888"><ele>111.68</ele><time>2026-07-25T07:58:20Z</time></trkpt><trkpt lat="60.1159328129" lon="31.3870503847"><ele>108.81</ele><time>2026-07-25T07:58:27Z</time></trkpt><trkpt lat="60.1169569977" lon="31.3993898872"><ele>105.95</ele><time>2026-07-25T07:58:47Z</time></trkpt><trkpt lat="60.1173004042" lon="31.4044744335"><ele>100.88</ele><time>2026-07-25T07:58:56Z</time></trkpt><trkpt lat="60.1174349338" lon="31.4007738233"><ele>106.00</ele><time>2026-07-25T07:58:59Z</time></trkpt><trkpt lat="60.1176911686" lon="31.3975239079"><ele>106.26</ele><time>2026-07-25T07:59:01Z</time></trkpt><trkpt lat="60.1175894961" lon="31.3886853587"><ele>102.52</ele><time>2026-07-25T07:59:13Z</time></trkpt><trkpt lat="60.1173130609" lon="31.3801314589"><ele>103.11</ele><time>2026-07-25T07:59:27Z</time></trkpt><trkpt lat="60.1169326901" lon="31.3715924788"><ele>102.13</ele><time>2026-07-25T07:59:41Z</time></trkpt><trkpt lat="60.1167936344" lon="31.3724843133"><ele>135.89</ele><time>2026-07-25T07:59:51Z</time></trkpt><trkpt lat="60.1163643971" lon="31.3763018511"><ele>119.26</ele><time>2026-07-25T07:59:55Z</time></trkpt><trkpt lat="60.1157923322" lon="31.3811650313"><ele>108.33</ele><time>2026-07-25T08:00:02Z</time></trkpt><trkpt lat="60.1156687830" lon="31.3823712710"><ele>108.24</ele><time>2026-07-25T08:00:04Z</time></trkpt><trkpt lat="60.1158921607" lon="31.3860089332"><ele>107.95</ele><time>2026-07-25T08:00:10Z</time></trkpt><trkpt lat="60.1169424132" lon="31.3995286915"><ele>105.64</ele><time>2026-07-25T08:00:32Z</time></trkpt><trkpt lat="60.1171703171" lon="31.4026041795"><ele>103.81</ele><time>2026-07-25T08:00:37Z</time></trkpt><trkpt lat="60.1179904863" lon="31.4047455881"><ele>103.97</ele><time>2026-07-25T08:00:43Z</time></trkpt><trkpt lat="60.1184720267" lon="31.3983189315"><ele>126.92</ele><time>2026-07-25T08:00:48Z</time></trkpt><trkpt lat="60.1183023769" lon="31.3960900996"><ele>125.00</ele><time>2026-07-25T08:00:51Z</time></trkpt><trkpt lat="60.1182293706" lon="31.3952089101"><ele>126.18</ele><time>2026-07-25T08:00:52Z</time></trkpt><trkpt lat="60.1175157353" lon="31.3835775107"><ele>103.14</ele><time>2026-07-25T08:01:06Z</time></trkpt><trkpt lat="60.1171389688" lon="31.3750697114"><ele>104.40</ele><time>2026-07-25T08:01:20Z</time></trkpt><trkpt lat="60.1167955622" lon="31.3674365636"><ele>107.91</ele><time>2026-07-25T08:01:33Z</time></trkpt><trkpt lat="60.1167564187" lon="31.3677128311"><ele>109.00</ele><time>2026-07-25T08:01:34Z</time></trkpt><trkpt lat="60.1165136788" lon="31.3745433278"><ele>90.03</ele><time>2026-07-25T08:01:38Z</time></trkpt><trkpt lat="60.1156504266" lon="31.3824498095"><ele>92.78</ele><time>2026-07-25T08:01:49Z</time></trkpt><trkpt lat="60.1160014607" lon="31.3873544801"><ele>99.33</ele><time>2026-07-25T08:01:57Z</time></trkpt><trkpt lat="60.1168239769" lon="31.3978238963"><ele>97.63</ele><time>2026-07-25T08:02:14Z</time></trkpt><trkpt lat="60.1175071020" lon="31.4033403620"><ele>98.40</ele><time>2026-07-25T08:02:25Z</time></trkpt><trkpt lat="60.1177581400" lon="31.4025124814"><ele>99.84</ele><time>2026-07-25T08:02:27Z</time></trkpt><trkpt lat="60.1180185657" lon="31.3976956531"><ele>99.48</ele><time>2026-07-25T08:02:30Z</time></trkpt><trkpt lat="60.1178323198" lon="31.3949772343"><ele>101.78</ele><time>2026-07-25T08:02:33Z</time></trkpt><trkpt lat="60.1174765918" lon="31.3846704271"><ele>101.64</ele><time>2026-07-25T08:02:49Z</time></trkpt><trkpt lat="60.1171943732" lon="31.3767395541"><ele>104.91</ele><time>2026-07-25T08:03:02Z</time></trkpt><trkpt lat="60.1167564187" lon="31.3680343609"><ele>109.83</ele><time>2026-07-25T08:03:18Z</time></trkpt><trkpt lat="60.1166513935" lon="31.3695317879"><ele>111.87</ele><time>2026-07-25T08:03:20Z</time></trkpt><trkpt lat="60.1165196300" lon="31.3761721831"><ele>112.18</ele><time>2026-07-25T08:03:25Z</time></trkpt><trkpt lat="60.1160339825" lon="31.3790184259"><ele>111.75</ele><time>2026-07-25T08:03:28Z</time></trkpt><trkpt lat="60.1156821102" lon="31.3821752183"><ele>110.32</ele><time>2026-07-25T08:03:33Z</time></trkpt><trkpt lat="60.1159274485" lon="31.3864369132"><ele>110.84</ele><time>2026-07-25T08:03:40Z</time></trkpt><trkpt lat="60.1168380585" lon="31.3980683126"><ele>110.16</ele><time>2026-07-25T08:03:59Z</time></trkpt><trkpt lat="60.1171234623" lon="31.4017912187"><ele>109.38</ele><time>2026-07-25T08:04:05Z</time></trkpt><trkpt lat="60.1180544402" lon="31.4019954856"><ele>105.49</ele><time>2026-07-25T08:04:12Z</time></trkpt><trkpt lat="60.1182908937" lon="31.3982665446"><ele>106.42</ele><time>2026-07-25T08:04:16Z</time></trkpt><trkpt lat="60.1181813423" lon="31.3967987895"><ele>106.63</ele><time>2026-07-25T08:04:18Z</time></trkpt><trkpt lat="60.1175936032" lon="31.3841862883"><ele>111.70</ele><time>2026-07-25T08:04:36Z</time></trkpt><trkpt lat="60.1171108894" lon="31.3748993073"><ele>110.69</ele><time>2026-07-25T08:04:50Z</time></trkpt><trkpt lat="60.1168288384" lon="31.3687407039"><ele>111.00</ele><time>2026-07-25T08:05:00Z</time></trkpt><trkpt lat="60.1166081429" lon="31.3732043188"><ele>120.10</ele><time>2026-07-25T08:05:04Z</time></trkpt><trkpt lat="60.1159488223" lon="31.3793179113"><ele>111.80</ele><time>2026-07-25T08:05:13Z</time></trkpt><trkpt lat="60.1156535279" lon="31.3823258411"><ele>110.81</ele><time>2026-07-25T08:05:18Z</time></trkpt><trkpt lat="60.1158355828" lon="31.3859623298"><ele>109.20</ele><time>2026-07-25T08:05:24Z</time></trkpt><trkpt lat="60.1166171115" lon="31.3951696828"><ele>110.22</ele><time>2026-07-25T08:05:39Z</time></trkpt><trkpt lat="60.1170984842" lon="31.4013684355"><ele>107.94</ele><time>2026-07-25T08:05:49Z</time></trkpt><trkpt lat="60.1179532707" lon="31.3996784762"><ele>107.43</ele><time>2026-07-25T08:05:54Z</time></trkpt><trkpt lat="60.1182106789" lon="31.3979326934"><ele>107.08</ele><time>2026-07-25T08:05:57Z</time></trkpt><trkpt lat="60.1178521011" lon="31.3952639792"><ele>106.28</ele><time>2026-07-25T08:06:01Z</time></trkpt><trkpt lat="60.1174781844" lon="31.3842986058"><ele>103.93</ele><time>2026-07-25T08:06:19Z</time></trkpt><trkpt lat="60.1170939580" lon="31.3751194160"><ele>106.20</ele><time>2026-07-25T08:06:34Z</time></trkpt><trkpt lat="60.1167689916" lon="31.3676285930"><ele>111.17</ele><time>2026-07-25T08:06:47Z</time></trkpt><trkpt lat="60.1166907046" lon="31.3720614463"><ele>113.99</ele><time>2026-07-25T08:06:49Z</time></trkpt><trkpt lat="60.1163960807" lon="31.3762044534"><ele>113.80</ele><time>2026-07-25T08:06:54Z</time></trkpt><trkpt lat="60.1156477444" lon="31.3825233188"><ele>110.26</ele><time>2026-07-25T08:07:03Z</time></trkpt><trkpt lat="60.1158323977" lon="31.3855692185"><ele>108.03</ele><time>2026-07-25T08:07:08Z</time></trkpt><trkpt lat="60.1165221445" lon="31.3941107132"><ele>110.23</ele><time>2026-07-25T08:07:22Z</time></trkpt><trkpt lat="60.1171377115" lon="31.4026555605"><ele>111.90</ele><time>2026-07-25T08:07:36Z</time></trkpt><trkpt lat="60.1172683015" lon="31.4039975870"><ele>114.84</ele><time>2026-07-25T08:07:39Z</time></trkpt><trkpt lat="60.1182530075" lon="31.3985711429"><ele>131.62</ele><time>2026-07-25T08:07:43Z</time></trkpt><trkpt lat="60.1178443898" lon="31.3947611488"><ele>122.94</ele><time>2026-07-25T08:07:47Z</time></trkpt><trkpt lat="60.1175528672" lon="31.3864898030"><ele>116.60</ele><time>2026-07-25T08:08:00Z</time></trkpt><trkpt lat="60.1172462571" lon="31.3780011144"><ele>113.17</ele><time>2026-07-25T08:08:14Z</time></trkpt><trkpt lat="60.1168976538" lon="31.3700861670"><ele>115.47</ele><time>2026-07-25T08:08:27Z</time></trkpt><trkpt lat="60.1164813247" lon="31.3694485556"><ele>117.56</ele><time>2026-07-25T08:08:34Z</time></trkpt><trkpt lat="60.1161093358" lon="31.3774370123"><ele>107.36</ele><time>2026-07-25T08:08:40Z</time></trkpt><trkpt lat="60.1160145365" lon="31.3781478815"><ele>113.15</ele><time>2026-07-25T08:08:41Z</time></trkpt><trkpt lat="60.1155821141" lon="31.3832258899"><ele>113.04</ele><time>2026-07-25T08:08:49Z</time></trkpt><trkpt lat="60.1160729583" lon="31.3881548680"><ele>110.45</ele><time>2026-07-25T08:08:57Z</time></trkpt><trkpt lat="60.1167716738" lon="31.3973710220"><ele>108.34</ele><time>2026-07-25T08:09:12Z</time></trkpt><trkpt lat="60.1176111214" lon="31.4012256917"><ele>113.28</ele><time>2026-07-25T08:09:24Z</time></trkpt><trkpt lat="60.1179064158" lon="31.3996992633"><ele>113.69</ele><time>2026-07-25T08:09:25Z</time></trkpt><trkpt lat="60.1180172246" lon="31.3975861017"><ele>113.08</ele><time>2026-07-25T08:09:29Z</time></trkpt><trkpt lat="60.1178067550" lon="31.3927350752"><ele>114.01</ele><time>2026-07-25T08:09:36Z</time></trkpt><trkpt lat="60.1174016576" lon="31.3815374393"><ele>106.46</ele><time>2026-07-25T08:09:53Z</time></trkpt><trkpt lat="60.1168951392" lon="31.3699375559"><ele>109.63</ele><time>2026-07-25T08:10:12Z</time></trkpt><trkpt lat="60.1168882661" lon="31.3702282403"><ele>150.62</ele><time>2026-07-25T08:10:17Z</time></trkpt><trkpt lat="60.1168415789" lon="31.3718154375"><ele>149.90</ele><time>2026-07-25T08:10:19Z</time></trkpt><trkpt lat="60.1165835001" lon="31.3747607544"><ele>142.42</ele><time>2026-07-25T08:10:23Z</time></trkpt><trkpt lat="60.1158486586" lon="31.3796498347"><ele>122.11</ele><time>2026-07-25T08:10:28Z</time></trkpt><trkpt lat="60.1156250294" lon="31.3820967637"><ele>119.36</ele><time>2026-07-25T08:10:32Z</time></trkpt><trkpt lat="60.1156056672" lon="31.3839104399"><ele>119.74</ele><time>2026-07-25T08:10:35Z</time></trkpt><trkpt lat="60.1162989344" lon="31.3912824076"><ele>117.30</ele><time>2026-07-25T08:10:47Z</time></trkpt><trkpt lat="60.1170068700" lon="31.3999045361"><ele>110.94</ele><time>2026-07-25T08:11:00Z</time></trkpt><trkpt lat="60.1177040767" lon="31.3939998206"><ele>109.24</ele><time>2026-07-25T08:11:17Z</time></trkpt><trkpt lat="60.1175092813" lon="31.3862271141"><ele>110.18</ele><time>2026-07-25T08:11:30Z</time></trkpt><trkpt lat="60.1172812935" lon="31.3782887813"><ele>110.04</ele><time>2026-07-25T08:11:43Z</time></trkpt><trkpt lat="60.1168456022" lon="31.3685364369"><ele>113.30</ele><time>2026-07-25T08:11:59Z</time></trkpt><trkpt lat="60.1167857554" lon="31.3744386379"><ele>111.21</ele><time>2026-07-25T08:12:06Z</time></trkpt><trkpt lat="60.1157728024" lon="31.3822133560"><ele>89.74</ele><time>2026-07-25T08:12:17Z</time></trkpt><trkpt lat="60.1163168717" lon="31.3908648212"><ele>102.42</ele><time>2026-07-25T08:12:31Z</time></trkpt><trkpt lat="60.1172097120" lon="31.4031611569"><ele>105.60</ele><time>2026-07-25T08:12:51Z</time></trkpt><trkpt lat="60.1174647734" lon="31.4012043178"><ele>111.40</ele><time>2026-07-25T08:12:54Z</time></trkpt><trkpt lat="60.1176233590" lon="31.3908738736"><ele>110.93</ele><time>2026-07-25T08:13:07Z</time></trkpt><trkpt lat="60.1173330937" lon="31.3800053112"><ele>112.61</ele><time>2026-07-25T08:13:25Z</time></trkpt><trkpt lat="60.1171574928" lon="31.3762628753"><ele>112.55</ele><time>2026-07-25T08:13:31Z</time></trkpt><trkpt lat="60.1169996615" lon="31.3725858182"><ele>112.32</ele><time>2026-07-25T08:13:37Z</time></trkpt><trkpt lat="60.1166897826" lon="31.3677213807"><ele>116.33</ele><time>2026-07-25T08:13:48Z</time></trkpt><trkpt lat="60.1157268696" lon="31.3819496613"><ele>96.42</ele><time>2026-07-25T08:14:01Z</time></trkpt><trkpt lat="60.1159128640" lon="31.3862297963"><ele>100.37</ele><time>2026-07-25T08:14:08Z</time></trkpt><trkpt lat="60.1169802994" lon="31.3998042885"><ele>104.66</ele><time>2026-07-25T08:14:30Z</time></trkpt><trkpt lat="60.1173389610" lon="31.4015991054"><ele>110.83</ele><time>2026-07-25T08:14:39Z</time></trkpt><trkpt lat="60.1176307350" lon="31.3919416443"><ele>110.24</ele><time>2026-07-25T08:14:50Z</time></trkpt><trkpt lat="60.1172154117" lon="31.3779311255"><ele>104.69</ele><time>2026-07-25T08:15:13Z</time></trkpt><trkpt lat="60.1169235539" lon="31.3706013188"><ele>107.89</ele><time>2026-07-25T08:15:25Z</time></trkpt><trkpt lat="60.1167384814" lon="31.3681372907"><ele>109.19</ele><time>2026-07-25T08:15:29Z</time></trkpt><trkpt lat="60.1167249028" lon="31.3683992252"><ele>113.62</ele><time>2026-07-25T08:15:32Z</time></trkpt><trkpt lat="60.1167973224" lon="31.3742485363"><ele>116.69</ele><time>2026-07-25T08:15:35Z</time></trkpt><trkpt lat="60.1166405808" lon="31.3752167299"><ele>116.71</ele><time>2026-07-25T08:15:36Z</time></trkpt><trkpt lat="60.1159930788" lon="31.3803140167"><ele>111.58</ele><time>2026-07-25T08:15:43Z</time></trkpt><trkpt lat="60.1157045737" lon="31.3840345759"><ele>109.54</ele><time>2026-07-25T08:15:49Z</time></trkpt><trkpt lat="60.1162436977" lon="31.3900784310"><ele>107.64</ele><time>2026-07-25T08:15:59Z</time></trkpt><trkpt lat="60.1171030104" lon="31.4012182318"><ele>103.04</ele><time>2026-07-25T08:16:17Z</time></trkpt><trkpt lat="60.1179496665" lon="31.4007887430"><ele>103.17</ele><time>2026-07-25T08:16:23Z</time></trkpt><trkpt lat="60.1183626428" lon="31.3997990917"><ele>103.22</ele><time>2026-07-25T08:16:25Z</time></trkpt><trkpt lat="60.1181253511" lon="31.3969389349"><ele>104.00</ele><time>2026-07-25T08:16:29Z</time></trkpt><trkpt lat="60.1175450720" lon="31.3831968885"><ele>106.38</ele><time>2026-07-25T08:16:50Z</time></trkpt><trkpt lat="60.1170436665" lon="31.3729818631"><ele>111.57</ele><time>2026-07-25T08:17:06Z</time></trkpt><trkpt lat="60.1166938059" lon="31.3675651420"><ele>111.31</ele><time>2026-07-25T08:17:16Z</time></trkpt><trkpt lat="60.1167472824" lon="31.3706469163"><ele>112.79</ele><time>2026-07-25T08:17:17Z</time></trkpt><trkpt lat="60.1155650150" lon="31.3824825827"><ele>108.60</ele><time>2026-07-25T08:17:31Z</time></trkpt><trkpt lat="60.1159666758" lon="31.3878764212"><ele>105.30</ele><time>2026-07-25T08:17:40Z</time></trkpt><trkpt lat="60.1170352008" lon="31.4007320814"><ele>105.51</ele><time>2026-07-25T08:18:01Z</time></trkpt><trkpt lat="60.1171307545" lon="31.4019758720"><ele>105.65</ele><time>2026-07-25T08:18:03Z</time></trkpt><trkpt lat="60.1179484930" lon="31.3978250697"><ele>108.48</ele><time>2026-07-25T08:18:11Z</time></trkpt><trkpt lat="60.1179042365" lon="31.3964947779"><ele>108.12</ele><time>2026-07-25T08:18:13Z</time></trkpt><trkpt lat="60.1177793462" lon="31.3946912438"><ele>108.55</ele><time>2026-07-25T08:18:15Z</time></trkpt><trkpt lat="60.1174760051" lon="31.3842209056"><ele>111.48</ele><time>2026-07-25T08:18:32Z</time></trkpt><trkpt lat="60.1170615200" lon="31.3738718536"><ele>112.40</ele><time>2026-07-25T08:18:49Z</time></trkpt><trkpt lat="60.1166577637" lon="31.3675200474"><ele>117.56</ele><time>2026-07-25T08:19:02Z</time></trkpt><trkpt lat="60.1163630560" lon="31.3757926505"><ele>100.34</ele><time>2026-07-25T08:19:06Z</time></trkpt><trkpt lat="60.1161008701" lon="31.3784157671"><ele>97.63</ele><time>2026-07-25T08:19:10Z</time></trkpt><trkpt lat="60.1157779153" lon="31.3824434392"><ele>94.66</ele><time>2026-07-25T08:19:16Z</time></trkpt><trkpt lat="60.1161354035" lon="31.3886066526"><ele>105.82</ele><time>2026-07-25T08:19:26Z</time></trkpt><trkpt lat="60.1170308422" lon="31.4003323484"><ele>106.14</ele><time>2026-07-25T08:19:45Z</time></trkpt><trkpt lat="60.1171217021" lon="31.4015701879"><ele>106.06</ele><time>2026-07-25T08:19:47Z</time></trkpt><trkpt lat="60.1179012191" lon="31.3996607065"><ele>105.78</ele><time>2026-07-25T08:19:52Z</time></trkpt><trkpt lat="60.1178038213" lon="31.3967500906"><ele>107.04</ele><time>2026-07-25T08:19:56Z</time></trkpt><trkpt lat="60.1174777653" lon="31.3846918847"><ele>108.55</ele><time>2026-07-25T08:20:16Z</time></trkpt><trkpt lat="60.1171425730" lon="31.3755387627"><ele>108.98</ele><time>2026-07-25T08:20:31Z</time></trkpt><trkpt lat="60.1166361384" lon="31.3674417604"><ele>107.33</ele><time>2026-07-25T08:20:46Z</time></trkpt><trkpt lat="60.1163885370" lon="31.3745285757"><ele>107.63</ele><time>2026-07-25T08:20:48Z</time></trkpt><trkpt lat="60.1161503233" lon="31.3773178216"><ele>107.07</ele><time>2026-07-25T08:20:53Z</time></trkpt><trkpt lat="60.1157976966" lon="31.3808730897"><ele>107.21</ele><time>2026-07-25T08:20:58Z</time></trkpt><trkpt lat="60.1156764105" lon="31.3820850290"><ele>107.53</ele><time>2026-07-25T08:21:00Z</time></trkpt><trkpt lat="60.1158843655" lon="31.3863310497"><ele>104.74</ele><time>2026-07-25T08:21:07Z</time></trkpt><trkpt lat="60.1167009305" lon="31.3967681956"><ele>104.11</ele><time>2026-07-25T08:21:24Z</time></trkpt><trkpt lat="60.1171544753" lon="31.4034121949"><ele>108.06</ele><time>2026-07-25T08:21:35Z</time></trkpt><trkpt lat="60.1172887534" lon="31.4036657475"><ele>110.75</ele><time>2026-07-25T08:21:37Z</time></trkpt><trkpt lat="60.1176925097" lon="31.3990719616"><ele>112.73</ele><time>2026-07-25T08:21:41Z</time></trkpt><trkpt lat="60.1178744808" lon="31.3960013352"><ele>113.00</ele><time>2026-07-25T08:21:44Z</time></trkpt><trkpt lat="60.1176490914" lon="31.3876487687"><ele>114.36</ele><time>2026-07-25T08:21:57Z</time></trkpt><trkpt lat="60.1172256377" lon="31.3778457139"><ele>112.27</ele><time>2026-07-25T08:22:12Z</time></trkpt><trkpt lat="60.1169206202" lon="31.3705070224"><ele>112.50</ele><time>2026-07-25T08:22:24Z</time></trkpt><trkpt lat="60.1166766230" lon="31.3710923307"><ele>112.91</ele><time>2026-07-25T08:22:29Z</time></trkpt><trkpt lat="60.1159942523" lon="31.3811288215"><ele>112.58</ele><time>2026-07-25T08:22:45Z</time></trkpt><trkpt lat="60.1163880341" lon="31.3867158629"><ele>109.34</ele><time>2026-07-25T08:22:54Z</time></trkpt><trkpt lat="60.1170831453" lon="31.3991757296"><ele>102.84</ele><time>2026-07-25T08:23:13Z</time></trkpt><trkpt lat="60.1173960418" lon="31.4041974116"><ele>105.37</ele><time>2026-07-25T08:23:21Z</time></trkpt><trkpt lat="60.1180027239" lon="31.4009304810"><ele>105.85</ele><time>2026-07-25T08:23:23Z</time></trkpt><trkpt lat="60.1179971918" lon="31.3964430615"><ele>105.06</ele><time>2026-07-25T08:23:28Z</time></trkpt><trkpt lat="60.1179077569" lon="31.3954974990"><ele>105.26</ele><time>2026-07-25T08:23:29Z</time></trkpt><trkpt lat="60.1173848938" lon="31.3825070579"><ele>105.00</ele><time>2026-07-25T08:23:49Z</time></trkpt><trkpt lat="60.1170773618" lon="31.3745754305"><ele>108.31</ele><time>2026-07-25T08:24:02Z</time></trkpt><trkpt lat="60.1167265791" lon="31.3677528128"><ele>111.75</ele><time>2026-07-25T08:24:14Z</time></trkpt><trkpt lat="60.1164871920" lon="31.3735390920"><ele>113.42</ele><time>2026-07-25T08:24:17Z</time></trkpt><trkpt lat="60.1160231698" lon="31.3767279871"><ele>114.44</ele><time>2026-07-25T08:24:22Z</time></trkpt><trkpt lat="60.1159082539" lon="31.3784788828"><ele>114.84</ele><time>2026-07-25T08:24:24Z</time></trkpt><trkpt lat="60.1155873947" lon="31.3823365699"><ele>116.00</ele><time>2026-07-25T08:24:30Z</time></trkpt><trkpt lat="60.1160052326" lon="31.3873043563"><ele>112.89</ele><time>2026-07-25T08:24:38Z</time></trkpt><trkpt lat="60.1171103027" lon="31.4015125204"><ele>108.93</ele><time>2026-07-25T08:25:01Z</time></trkpt><trkpt lat="60.1175689604" lon="31.4016851876"><ele>111.62</ele><time>2026-07-25T08:25:07Z</time></trkpt><trkpt lat="60.1176259574" lon="31.4015443716"><ele>111.85</ele><time>2026-07-25T08:25:08Z</time></trkpt><trkpt lat="60.1177196670" lon="31.3943713903"><ele>103.04</ele><time>2026-07-25T08:25:14Z</time></trkpt><trkpt lat="60.1173418947" lon="31.3804876897"><ele>104.86</ele><time>2026-07-25T08:25:37Z</time></trkpt><trkpt lat="60.1169178542" lon="31.3701160904"><ele>112.90</ele><time>2026-07-25T08:25:54Z</time></trkpt><trkpt lat="60.1164179575" lon="31.3741135877"><ele>112.42</ele><time>2026-07-25T08:26:02Z</time></trkpt><trkpt lat="60.1156836189" lon="31.3819671795"><ele>111.42</ele><time>2026-07-25T08:26:14Z</time></trkpt><trkpt lat="60.1158644166" lon="31.3850004226"><ele>109.73</ele><time>2026-07-25T08:26:19Z</time></trkpt><trkpt lat="60.1168473624" lon="31.3979382254"><ele>105.38</ele><time>2026-07-25T08:26:40Z</time></trkpt><trkpt lat="60.1170744281" lon="31.4034187328"><ele>109.48</ele><time>2026-07-25T08:26:52Z</time></trkpt><trkpt lat="60.1178382710" lon="31.3993157912"><ele>107.56</ele><time>2026-07-25T08:26:55Z</time></trkpt><trkpt lat="60.1179033145" lon="31.3959590066"><ele>107.42</ele><time>2026-07-25T08:26:58Z</time></trkpt><trkpt lat="60.1174480934" lon="31.3823221531"><ele>105.93</ele><time>2026-07-25T08:27:19Z</time></trkpt><trkpt lat="60.1168549899" lon="31.3693808299"><ele>109.61</ele><time>2026-07-25T08:27:40Z</time></trkpt><trkpt lat="60.1166306064" lon="31.3707592338"><ele>114.15</ele><time>2026-07-25T08:27:45Z</time></trkpt><trkpt lat="60.1165750343" lon="31.3745572418"><ele>114.80</ele><time>2026-07-25T08:27:50Z</time></trkpt><trkpt lat="60.1162633952" lon="31.3781372365"><ele>115.74</ele><time>2026-07-25T08:27:54Z</time></trkpt><trkpt lat="60.1156956051" lon="31.3821671717"><ele>113.22</ele><time>2026-07-25T08:27:59Z</time></trkpt><trkpt lat="60.1158792526" lon="31.3858242799"><ele>108.77</ele><time>2026-07-25T08:28:05Z</time></trkpt><trkpt lat="60.1170554850" lon="31.4006154891"><ele>106.35</ele><time>2026-07-25T08:28:29Z</time></trkpt><trkpt lat="60.1173974667" lon="31.4040738624"><ele>107.36</ele><time>2026-07-25T08:28:35Z</time></trkpt><trkpt lat="60.1180691086" lon="31.3989134599"><ele>107.75</ele><time>2026-07-25T08:28:39Z</time></trkpt><trkpt lat="60.1179438829" lon="31.3963254634"><ele>107.35</ele><time>2026-07-25T08:28:42Z</time></trkpt><trkpt lat="60.1175965369" lon="31.3877146505"><ele>107.83</ele><time>2026-07-25T08:28:55Z</time></trkpt><trkpt lat="60.1171947084" lon="31.3770625927"><ele>99.88</ele><time>2026-07-25T08:29:12Z</time></trkpt><trkpt lat="60.1168025192" lon="31.3686206751"><ele>103.17</ele><time>2026-07-25T08:29:26Z</time></trkpt><trkpt lat="60.1158834435" lon="31.3712748047"><ele>104.96</ele><time>2026-07-25T08:29:31Z</time></trkpt><trkpt lat="60.1156493369" lon="31.3823863585"><ele>112.38</ele><time>2026-07-25T08:29:44Z</time></trkpt><trkpt lat="60.1159769855" lon="31.3872756064"><ele>108.10</ele><time>2026-07-25T08:29:52Z</time></trkpt><trkpt lat="60.1168243121" lon="31.3977495488"><ele>98.67</ele><time>2026-07-25T08:30:09Z</time></trkpt><trkpt lat="60.1171238814" lon="31.4015069045"><ele>98.30</ele><time>2026-07-25T08:30:15Z</time></trkpt><trkpt lat="60.1171497814" lon="31.4021145925"><ele>98.26</ele><time>2026-07-25T08:30:16Z</time></trkpt><trkpt lat="60.1177567150" lon="31.3995834254"><ele>96.84</ele><time>2026-07-25T08:30:23Z</time></trkpt><trkpt lat="60.1175568067" lon="31.3860044908"><ele>98.82</ele><time>2026-07-25T08:30:43Z</time></trkpt><trkpt lat="60.1170623582" lon="31.3734307140"><ele>98.87</ele><time>2026-07-25T08:31:03Z</time></trkpt><trkpt lat="60.1169396471" lon="31.3703473471"><ele>98.93</ele><time>2026-07-25T08:31:08Z</time></trkpt><trkpt lat="60.1165905409" lon="31.3731857948"><ele>98.38</ele><time>2026-07-25T08:31:16Z</time></trkpt><trkpt lat="60.1160648279" lon="31.3811307494"><ele>90.92</ele><time>2026-07-25T08:31:28Z</time></trkpt><trkpt lat="60.1161505748" lon="31.3842858654"><ele>86.19</ele><time>2026-07-25T08:31:33Z</time></trkpt><trkpt lat="60.1172619313" lon="31.4007683750"><ele>81.92</ele><time>2026-07-25T08:31:59Z</time></trkpt><trkpt lat="60.1174237859" lon="31.4037300367"><ele>83.54</ele><time>2026-07-25T08:32:04Z</time></trkpt><trkpt lat="60.1178477425" lon="31.4019185398"><ele>84.79</ele><time>2026-07-25T08:32:07Z</time></trkpt><trkpt lat="60.1177599002" lon="31.3938730862"><ele>94.89</ele><time>2026-07-25T08:32:14Z</time></trkpt><trkpt lat="60.1173801161" lon="31.3816525228"><ele>102.94</ele><time>2026-07-25T08:32:34Z</time></trkpt><trkpt lat="60.1169257332" lon="31.3701605145"><ele>102.31</ele><time>2026-07-25T08:32:53Z</time></trkpt><trkpt lat="60.1167112403" lon="31.3687101100"><ele>107.76</ele><time>2026-07-25T08:32:59Z</time></trkpt><trkpt lat="60.1166483760" lon="31.3712643273"><ele>109.40</ele><time>2026-07-25T08:33:00Z</time></trkpt><trkpt lat="60.1166187041" lon="31.3756105117"><ele>109.22</ele><time>2026-07-25T08:33:05Z</time></trkpt><trkpt lat="60.1159141213" lon="31.3801699318"><ele>106.70</ele><time>2026-07-25T08:33:10Z</time></trkpt><trkpt lat="60.1157210860" lon="31.3820973504"><ele>104.43</ele><time>2026-07-25T08:33:13Z</time></trkpt><trkpt lat="60.1158823539" lon="31.3857469149"><ele>103.30</ele><time>2026-07-25T08:33:19Z</time></trkpt><trkpt lat="60.1168487035" lon="31.3980876748"><ele>104.09</ele><time>2026-07-25T08:33:39Z</time></trkpt><trkpt lat="60.1170890965" lon="31.4011598937"><ele>105.02</ele><time>2026-07-25T08:33:44Z</time></trkpt><trkpt lat="60.1171182655" lon="31.4017655700"><ele>105.10</ele><time>2026-07-25T08:33:45Z</time></trkpt><trkpt lat="60.1179634966" lon="31.3996083196"><ele>105.97</ele><time>2026-07-25T08:33:51Z</time></trkpt><trkpt lat="60.1176542044" lon="31.3880414609"><ele>104.90</ele><time>2026-07-25T08:34:09Z</time></trkpt><trkpt lat="60.1171575766" lon="31.3759446144"><ele>110.43</ele><time>2026-07-25T08:34:28Z</time></trkpt><trkpt lat="60.1167018525" lon="31.3671039697"><ele>113.86</ele><time>2026-07-25T08:34:43Z</time></trkpt><trkpt lat="60.1166651398" lon="31.3674496394"><ele>114.75</ele><time>2026-07-25T08:34:45Z</time></trkpt><trkpt lat="60.1160936616" lon="31.3780188840"><ele>101.27</ele><time>2026-07-25T08:34:51Z</time></trkpt><trkpt lat="60.1156771649" lon="31.3822872005"><ele>102.84</ele><time>2026-07-25T08:34:58Z</time></trkpt><trkpt lat="60.1158406958" lon="31.3853352796"><ele>93.97</ele><time>2026-07-25T08:35:03Z</time></trkpt><trkpt lat="60.1168830693" lon="31.3988510147"><ele>94.84</ele><time>2026-07-25T08:35:25Z</time></trkpt><trkpt lat="60.1170590892" lon="31.4013355784"><ele>96.21</ele><time>2026-07-25T08:35:29Z</time></trkpt><trkpt lat="60.1184149459" lon="31.4004701469"><ele>97.74</ele><time>2026-07-25T08:35:36Z</time></trkpt><trkpt lat="60.1184825040" lon="31.3981223758"><ele>99.99</ele><time>2026-07-25T08:35:40Z</time></trkpt><trkpt lat="60.1183825918" lon="31.3973895460"><ele>100.32</ele><time>2026-07-25T08:35:41Z</time></trkpt><trkpt lat="60.1173303276" lon="31.3814682886"><ele>98.68</ele><time>2026-07-25T08:36:04Z</time></trkpt><trkpt lat="60.1165384054" lon="31.3669868745"><ele>101.89</ele><time>2026-07-25T08:36:28Z</time></trkpt><trkpt lat="60.1164574362" lon="31.3706731517"><ele>103.50</ele><time>2026-07-25T08:36:31Z</time></trkpt><trkpt lat="60.1164597832" lon="31.3725537993"><ele>103.47</ele><time>2026-07-25T08:36:33Z</time></trkpt><trkpt lat="60.1164177898" lon="31.3757921476"><ele>103.60</ele><time>2026-07-25T08:36:34Z</time></trkpt><trkpt lat="60.1155759953" lon="31.3824902102"><ele>103.64</ele><time>2026-07-25T08:36:43Z</time></trkpt><trkpt lat="60.1159318071" lon="31.3873564079"><ele>103.70</ele><time>2026-07-25T08:36:51Z</time></trkpt><trkpt lat="60.1170154195" lon="31.4014893025"><ele>106.24</ele><time>2026-07-25T08:37:14Z</time></trkpt><trkpt lat="60.1176174078" lon="31.4016461279"><ele>106.40</ele><time>2026-07-25T08:37:18Z</time></trkpt><trkpt lat="60.1179610658" lon="31.3984620105"><ele>106.97</ele><time>2026-07-25T08:37:22Z</time></trkpt><trkpt lat="60.1175788511" lon="31.3865594566"><ele>97.92</ele><time>2026-07-25T08:37:41Z</time></trkpt><trkpt lat="60.1170139946" lon="31.3738929760"><ele>99.21</ele><time>2026-07-25T08:38:01Z</time></trkpt><trkpt lat="60.1166731026" lon="31.3690155465"><ele>102.62</ele><time>2026-07-25T08:38:13Z</time></trkpt><trkpt lat="60.1167941373" lon="31.3706826232"><ele>104.07</ele><time>2026-07-25T08:38:16Z</time></trkpt><trkpt lat="60.1164141856" lon="31.3768786937"><ele>106.01</ele><time>2026-07-25T08:38:21Z</time></trkpt><trkpt lat="60.1158197410" lon="31.3807071280"><ele>107.94</ele><time>2026-07-25T08:38:26Z</time></trkpt><trkpt lat="60.1157024782" lon="31.3848403282"><ele>110.45</ele><time>2026-07-25T08:38:33Z</time></trkpt><trkpt lat="60.1161960047" lon="31.3899985515"><ele>110.30</ele><time>2026-07-25T08:38:41Z</time></trkpt><trkpt lat="60.1169181056" lon="31.4015573636"><ele>103.34</ele><time>2026-07-25T08:38:59Z</time></trkpt><trkpt lat="60.1170676388" lon="31.4040656481"><ele>108.74</ele><time>2026-07-25T08:39:04Z</time></trkpt><trkpt lat="60.1179492474" lon="31.3993453793"><ele>109.77</ele><time>2026-07-25T08:39:09Z</time></trkpt><trkpt lat="60.1178937592" lon="31.3961030915"><ele>109.86</ele><time>2026-07-25T08:39:11Z</time></trkpt><trkpt lat="60.1176649332" lon="31.3926366717"><ele>112.40</ele><time>2026-07-25T08:39:16Z</time></trkpt><trkpt lat="60.1172850654" lon="31.3814537879"><ele>107.63</ele><time>2026-07-25T08:39:33Z</time></trkpt><trkpt lat="60.1168585941" lon="31.3698667288"><ele>113.08</ele><time>2026-07-25T08:39:52Z</time></trkpt><trkpt lat="60.1164430194" lon="31.3732489105"><ele>112.83</ele><time>2026-07-25T08:40:01Z</time></trkpt><trkpt lat="60.1158969384" lon="31.3807765301"><ele>110.22</ele><time>2026-07-25T08:40:13Z</time></trkpt><trkpt lat="60.1159507502" lon="31.3864828460"><ele>94.19</ele><time>2026-07-25T08:40:19Z</time></trkpt><trkpt lat="60.1167805586" lon="31.3969110232"><ele>98.33</ele><time>2026-07-25T08:40:36Z</time></trkpt><trkpt lat="60.1171279885" lon="31.4035761449"><ele>100.68</ele><time>2026-07-25T08:40:47Z</time></trkpt><trkpt lat="60.1172041800" lon="31.4040942304"><ele>101.33</ele><time>2026-07-25T08:40:49Z</time></trkpt><trkpt lat="60.1179022249" lon="31.3978455216"><ele>90.87</ele><time>2026-07-25T08:40:52Z</time></trkpt><trkpt lat="60.1176920068" lon="31.3933423441"><ele>111.90</ele><time>2026-07-25T08:40:58Z</time></trkpt><trkpt lat="60.1173599157" lon="31.3818822708"><ele>119.32</ele><time>2026-07-25T08:41:17Z</time></trkpt><trkpt lat="60.1169034373" lon="31.3702867460"><ele>119.14</ele><time>2026-07-25T08:41:36Z</time></trkpt><trkpt lat="60.1164375711" lon="31.3747496903"><ele>118.87</ele><time>2026-07-25T08:41:46Z</time></trkpt><trkpt lat="60.1156614069" lon="31.3822574448"><ele>115.82</ele><time>2026-07-25T08:41:57Z</time></trkpt><trkpt lat="60.1159602217" lon="31.3871695753"><ele>112.54</ele><time>2026-07-25T08:42:05Z</time></trkpt><trkpt lat="60.1169800479" lon="31.3995226566"><ele>107.08</ele><time>2026-07-25T08:42:25Z</time></trkpt><trkpt lat="60.1172422338" lon="31.4032681100"><ele>106.34</ele><time>2026-07-25T08:42:35Z</time></trkpt><trkpt lat="60.1172428206" lon="31.4035933279"><ele>106.64</ele><time>2026-07-25T08:42:36Z</time></trkpt><trkpt lat="60.1175147295" lon="31.3981036842"><ele>108.71</ele><time>2026-07-25T08:42:41Z</time></trkpt><trkpt lat="60.1178265363" lon="31.3946933392"><ele>108.81</ele><time>2026-07-25T08:42:44Z</time></trkpt><trkpt lat="60.1177402027" lon="31.3926901482"><ele>108.13</ele><time>2026-07-25T08:42:46Z</time></trkpt><trkpt lat="60.1173596643" lon="31.3796945103"><ele>107.01</ele><time>2026-07-25T08:43:06Z</time></trkpt><trkpt lat="60.1168409083" lon="31.3684107084"><ele>110.54</ele><time>2026-07-25T08:43:24Z</time></trkpt><trkpt lat="60.1167589333" lon="31.3666080125"><ele>110.98</ele><time>2026-07-25T08:43:27Z</time></trkpt><trkpt lat="60.1162763033" lon="31.3691062387"><ele>109.79</ele><time>2026-07-25T08:43:29Z</time></trkpt><trkpt lat="60.1159929950" lon="31.3788570743"><ele>111.39</ele><time>2026-07-25T08:43:36Z</time></trkpt><trkpt lat="60.1157013047" lon="31.3819426205"><ele>113.27</ele><time>2026-07-25T08:43:41Z</time></trkpt><trkpt lat="60.1157860458" lon="31.3849625364"><ele>112.07</ele><time>2026-07-25T08:43:46Z</time></trkpt><trkpt lat="60.1167220529" lon="31.3966363482"><ele>111.58</ele><time>2026-07-25T08:44:05Z</time></trkpt><trkpt lat="60.1173725724" lon="31.4041917119"><ele>109.75</ele><time>2026-07-25T08:44:17Z</time></trkpt><trkpt lat="60.1176753268" lon="31.3967129588"><ele>107.76</ele><time>2026-07-25T08:44:23Z</time></trkpt><trkpt lat="60.1176830381" lon="31.3949046470"><ele>108.97</ele><time>2026-07-25T08:44:25Z</time></trkpt><trkpt lat="60.1173158269" lon="31.3802752085"><ele>112.50</ele><time>2026-07-25T08:44:49Z</time></trkpt><trkpt lat="60.1168759447" lon="31.3693447877"><ele>116.04</ele><time>2026-07-25T08:45:07Z</time></trkpt><trkpt lat="60.1167733502" lon="31.3678202871"><ele>115.85</ele><time>2026-07-25T08:45:10Z</time></trkpt><trkpt lat="60.1166005153" lon="31.3685731497"><ele>116.66</ele><time>2026-07-25T08:45:11Z</time></trkpt><trkpt lat="60.1163425203" lon="31.3758824207"><ele>118.37</ele><time>2026-07-25T08:45:17Z</time></trkpt><trkpt lat="60.1162697654" lon="31.3771243673"><ele>118.95</ele><time>2026-07-25T08:45:19Z</time></trkpt><trkpt lat="60.1159028895" lon="31.3801951613"><ele>118.75</ele><time>2026-07-25T08:45:23Z</time></trkpt><trkpt lat="60.1157234330" lon="31.3820244279"><ele>119.16</ele><time>2026-07-25T08:45:26Z</time></trkpt><trkpt lat="60.1158181485" lon="31.3844733685"><ele>117.65</ele><time>2026-07-25T08:45:30Z</time></trkpt><trkpt lat="60.1168690715" lon="31.3980642892"><ele>113.95</ele><time>2026-07-25T08:45:52Z</time></trkpt><trkpt lat="60.1171871647" lon="31.4034642465"><ele>115.89</ele><time>2026-07-25T08:46:01Z</time></trkpt><trkpt lat="60.1172113884" lon="31.4040281810"><ele>116.70</ele><time>2026-07-25T08:46:02Z</time></trkpt><trkpt lat="60.1179629937" lon="31.3990863785"><ele>120.46</ele><time>2026-07-25T08:46:06Z</time></trkpt><trkpt lat="60.1178478263" lon="31.3962744176"><ele>122.01</ele><time>2026-07-25T08:46:10Z</time></trkpt><trkpt lat="60.1177443098" lon="31.3945533615"><ele>123.68</ele><time>2026-07-25T08:46:12Z</time></trkpt><trkpt lat="60.1175174955" lon="31.3861508388"><ele>122.33</ele><time>2026-07-25T08:46:24Z</time></trkpt><trkpt lat="60.1171612646" lon="31.3758096658"><ele>119.66</ele><time>2026-07-25T08:46:41Z</time></trkpt><trkpt lat="60.1167288423" lon="31.3686499279"><ele>117.27</ele><time>2026-07-25T08:46:56Z</time></trkpt><trkpt lat="60.1162644010" lon="31.3762648869"><ele>105.92</ele><time>2026-07-25T08:47:01Z</time></trkpt><trkpt lat="60.1159691066" lon="31.3787049428"><ele>108.45</ele><time>2026-07-25T08:47:05Z</time></trkpt><trkpt lat="60.1156478282" lon="31.3823276851"><ele>113.66</ele><time>2026-07-25T08:47:11Z</time></trkpt><trkpt lat="60.1159900613" lon="31.3877973799"><ele>114.51</ele><time>2026-07-25T08:47:20Z</time></trkpt><trkpt lat="60.1169657987" lon="31.3994773105"><ele>115.19</ele><time>2026-07-25T08:47:39Z</time></trkpt><trkpt lat="60.1172534656" lon="31.4036471397"><ele>115.29</ele><time>2026-07-25T08:47:46Z</time></trkpt><trkpt lat="60.1174251270" lon="31.4015153702"><ele>118.20</ele><time>2026-07-25T08:47:49Z</time></trkpt><trkpt lat="60.1177759934" lon="31.3970947545"><ele>119.78</ele><time>2026-07-25T08:47:52Z</time></trkpt><trkpt lat="60.1176558807" lon="31.3929416053"><ele>123.33</ele><time>2026-07-25T08:47:58Z</time></trkpt><trkpt lat="60.1173898391" lon="31.3824923895"><ele>117.04</ele><time>2026-07-25T08:48:15Z</time></trkpt><trkpt lat="60.1169698220" lon="31.3720223028"><ele>115.39</ele><time>2026-07-25T08:48:32Z</time></trkpt><trkpt lat="60.1167135034" lon="31.3684952818"><ele>116.84</ele><time>2026-07-25T08:48:40Z</time></trkpt><trkpt lat="60.1163748745" lon="31.3732359186"><ele>118.62</ele><time>2026-07-25T08:48:44Z</time></trkpt><trkpt lat="60.1167104021" lon="31.3757611345"><ele>118.81</ele><time>2026-07-25T08:48:47Z</time></trkpt><trkpt lat="60.1157164760" lon="31.3819018006"><ele>117.22</ele><time>2026-07-25T08:48:55Z</time></trkpt><trkpt lat="60.1158530172" lon="31.3849541545"><ele>114.34</ele><time>2026-07-25T08:49:00Z</time></trkpt><trkpt lat="60.1167974062" lon="31.3972195610"><ele>114.00</ele><time>2026-07-25T08:49:20Z</time></trkpt><trkpt lat="60.1171224564" lon="31.4015545975"><ele>113.94</ele><time>2026-07-25T08:49:27Z</time></trkpt><trkpt lat="60.1171766035" lon="31.4027643576"><ele>115.11</ele><time>2026-07-25T08:49:29Z</time></trkpt><trkpt lat="60.1172675472" lon="31.4037499856"><ele>117.02</ele><time>2026-07-25T08:49:31Z</time></trkpt><trkpt lat="60.1174096204" lon="31.4033198263"><ele>119.17</ele><time>2026-07-25T08:49:32Z</time></trkpt><trkpt lat="60.1178463176" lon="31.3969528489"><ele>116.15</ele><time>2026-07-25T08:49:36Z</time></trkpt><trkpt lat="60.1176055893" lon="31.3900980446"><ele>120.89</ele><time>2026-07-25T08:49:47Z</time></trkpt><trkpt lat="60.1172263920" lon="31.3779424410"><ele>110.68</ele><time>2026-07-25T08:50:07Z</time></trkpt><trkpt lat="60.1167678181" lon="31.3671924826"><ele>115.25</ele><time>2026-07-25T08:50:27Z</time></trkpt><trkpt lat="60.1165881939" lon="31.3688824419"><ele>115.95</ele><time>2026-07-25T08:50:28Z</time></trkpt><trkpt lat="60.1160581224" lon="31.3781368174"><ele>115.84</ele><time>2026-07-25T08:50:34Z</time></trkpt><trkpt lat="60.1156951860" lon="31.3820572849"><ele>112.58</ele><time>2026-07-25T08:50:40Z</time></trkpt><trkpt lat="60.1158684399" lon="31.3857450709"><ele>109.00</ele><time>2026-07-25T08:50:46Z</time></trkpt><trkpt lat="60.1173413079" lon="31.4034559485"><ele>111.15</ele><time>2026-07-25T08:51:17Z</time></trkpt><trkpt lat="60.1178992074" lon="31.3976864330"><ele>110.88</ele><time>2026-07-25T08:51:22Z</time></trkpt><trkpt lat="60.1178742293" lon="31.3966762461"><ele>110.39</ele><time>2026-07-25T08:51:23Z</time></trkpt><trkpt lat="60.1177666895" lon="31.3933865167"><ele>110.64</ele><time>2026-07-25T08:51:27Z</time></trkpt><trkpt lat="60.1173823792" lon="31.3814008143"><ele>113.38</ele><time>2026-07-25T08:51:46Z</time></trkpt><trkpt lat="60.1168990787" lon="31.3685148954"><ele>123.24</ele><time>2026-07-25T08:52:07Z</time></trkpt><trkpt lat="60.1170309260" lon="31.3668457232"><ele>123.45</ele><time>2026-07-25T08:52:10Z</time></trkpt><trkpt lat="60.1169682294" lon="31.3716479670"><ele>128.19</ele><time>2026-07-25T08:52:13Z</time></trkpt><trkpt lat="60.1165171992" lon="31.3764585927"><ele>133.21</ele><time>2026-07-25T08:52:19Z</time></trkpt><trkpt lat="60.1162126008" lon="31.3851042744"><ele>140.31</ele><time>2026-07-25T08:52:32Z</time></trkpt><trkpt lat="60.1166259963" lon="31.3911743648"><ele>145.13</ele><time>2026-07-25T08:52:42Z</time></trkpt><trkpt lat="60.1174594089" lon="31.4032527711"><ele>151.75</ele><time>2026-07-25T08:53:01Z</time></trkpt><trkpt lat="60.1189896092" lon="31.3947539404"><ele>154.32</ele><time>2026-07-25T08:53:12Z</time></trkpt><trkpt lat="60.1182928216" lon="31.3912622910"><ele>154.58</ele><time>2026-07-25T08:53:16Z</time></trkpt><trkpt lat="60.1182859484" lon="31.3904253580"><ele>155.01</ele><time>2026-07-25T08:53:17Z</time></trkpt><trkpt lat="60.1173685491" lon="31.3801220711"><ele>149.99</ele><time>2026-07-25T08:53:33Z</time></trkpt><trkpt lat="60.1168213785" lon="31.3677763660"><ele>137.98</ele><time>2026-07-25T08:53:53Z</time></trkpt><trkpt lat="60.1169758569" lon="31.3650688436"><ele>137.82</ele><time>2026-07-25T08:53:58Z</time></trkpt><trkpt lat="60.1171931159" lon="31.3642797712"><ele>137.95</ele><time>2026-07-25T08:54:00Z</time></trkpt><trkpt lat="60.1172696427" lon="31.3655627053"><ele>138.33</ele><time>2026-07-25T08:54:02Z</time></trkpt><trkpt lat="60.1168915350" lon="31.3783311937"><ele>137.21</ele><time>2026-07-25T08:54:06Z</time></trkpt><trkpt lat="60.1160429511" lon="31.3808482792"><ele>134.90</ele><time>2026-07-25T08:54:08Z</time></trkpt><trkpt lat="60.1157965232" lon="31.3835331704"><ele>130.58</ele><time>2026-07-25T08:54:12Z</time></trkpt><trkpt lat="60.1165717654" lon="31.3940164167"><ele>118.09</ele><time>2026-07-25T08:54:29Z</time></trkpt><trkpt lat="60.1171160024" lon="31.4016219042"><ele>113.48</ele><time>2026-07-25T08:54:41Z</time></trkpt><trkpt lat="60.1178435516" lon="31.4000642113"><ele>116.30</ele><time>2026-07-25T08:54:52Z</time></trkpt><trkpt lat="60.1178100239" lon="31.3968569599"><ele>115.21</ele><time>2026-07-25T08:54:55Z</time></trkpt><trkpt lat="60.1178104430" lon="31.3966659363"><ele>115.39</ele><time>2026-07-25T08:54:56Z</time></trkpt><trkpt lat="60.1180655044" lon="31.3923296425"><ele>115.31</ele><time>2026-07-25T08:54:59Z</time></trkpt><trkpt lat="60.1176323276" lon="31.3866262604"><ele>112.77</ele><time>2026-07-25T08:55:07Z</time></trkpt><trkpt lat="60.1171440817" lon="31.3762132544"><ele>108.85</ele><time>2026-07-25T08:55:24Z</time></trkpt><trkpt lat="60.1167652197" lon="31.3670782372"><ele>111.21</ele><time>2026-07-25T08:55:39Z</time></trkpt><trkpt lat="60.1170765236" lon="31.3711857889"><ele>112.60</ele><time>2026-07-25T08:55:42Z</time></trkpt><trkpt lat="60.1154917572" lon="31.3826950639"><ele>110.90</ele><time>2026-07-25T08:55:55Z</time></trkpt><trkpt lat="60.1157957688" lon="31.3863299601"><ele>105.19</ele><time>2026-07-25T08:56:01Z</time></trkpt><trkpt lat="60.1168962289" lon="31.3992618117"><ele>111.77</ele><time>2026-07-25T08:56:22Z</time></trkpt><trkpt lat="60.1171637792" lon="31.4034721255"><ele>110.51</ele><time>2026-07-25T08:56:29Z</time></trkpt><trkpt lat="60.1172755100" lon="31.4040763769"><ele>111.23</ele><time>2026-07-25T08:56:31Z</time></trkpt><trkpt lat="60.1172768511" lon="31.4040939789"><ele>111.45</ele><time>2026-07-25T08:56:33Z</time></trkpt><trkpt lat="60.1177468244" lon="31.3949784916"><ele>136.27</ele><time>2026-07-25T08:56:38Z</time></trkpt><trkpt lat="60.1177259535" lon="31.3929607160"><ele>119.05</ele><time>2026-07-25T08:56:41Z</time></trkpt><trkpt lat="60.1175422221" lon="31.3819104340"><ele>118.99</ele><time>2026-07-25T08:56:59Z</time></trkpt><trkpt lat="60.1171306707" lon="31.3729433063"><ele>119.81</ele><time>2026-07-25T08:57:14Z</time></trkpt><trkpt lat="60.1168515533" lon="31.3663019892"><ele>120.59</ele><time>2026-07-25T08:57:25Z</time></trkpt><trkpt lat="60.1173818763" lon="31.3650197256"><ele>121.19</ele><time>2026-07-25T08:57:28Z</time></trkpt><trkpt lat="60.1166247390" lon="31.3784463611"><ele>201.67</ele><time>2026-07-25T08:57:35Z</time></trkpt><trkpt lat="60.1156301424" lon="31.3831346948"><ele>109.16</ele><time>2026-07-25T08:57:40Z</time></trkpt><trkpt lat="60.1162413508" lon="31.3901609927"><ele>110.26</ele><time>2026-07-25T08:57:52Z</time></trkpt><trkpt lat="60.1171461772" lon="31.4024331886"><ele>108.02</ele><time>2026-07-25T08:58:12Z</time></trkpt><trkpt lat="60.1178279612" lon="31.4003569074"><ele>106.10</ele><time>2026-07-25T08:58:17Z</time></trkpt><trkpt lat="60.1182446256" lon="31.3967761584"><ele>97.57</ele><time>2026-07-25T08:58:21Z</time></trkpt><trkpt lat="60.1182647422" lon="31.3940521237"><ele>91.74</ele><time>2026-07-25T08:58:25Z</time></trkpt><trkpt lat="60.1182584558" lon="31.3934120815"><ele>89.37</ele><time>2026-07-25T08:58:26Z</time></trkpt><trkpt lat="60.1177613251" lon="31.3863388449"><ele>86.55</ele><time>2026-07-25T08:58:38Z</time></trkpt><trkpt lat="60.1171854883" lon="31.3760043774"><ele>99.94</ele><time>2026-07-25T08:58:54Z</time></trkpt><trkpt lat="60.1170551497" lon="31.3652225677"><ele>108.03</ele><time>2026-07-25T08:59:12Z</time></trkpt><trkpt lat="60.1174622588" lon="31.3644692022"><ele>108.93</ele><time>2026-07-25T08:59:14Z</time></trkpt><trkpt lat="60.1177281328" lon="31.3668807596"><ele>109.48</ele><time>2026-07-25T08:59:16Z</time></trkpt><trkpt lat="60.1173978858" lon="31.3695599511"><ele>109.35</ele><time>2026-07-25T08:59:17Z</time></trkpt><trkpt lat="60.1155635063" lon="31.3822605461"><ele>126.47</ele><time>2026-07-25T08:59:24Z</time></trkpt><trkpt lat="60.1159512531" lon="31.3872249797"><ele>117.57</ele><time>2026-07-25T08:59:32Z</time></trkpt><trkpt lat="60.1168748550" lon="31.3989081793"><ele>113.36</ele><time>2026-07-25T08:59:51Z</time></trkpt><trkpt lat="60.1171276532" lon="31.4037313778"><ele>110.35</ele><time>2026-07-25T08:59:59Z</time></trkpt><trkpt lat="60.1171774417" lon="31.4026873279"><ele>111.17</ele><time>2026-07-25T09:00:02Z</time></trkpt><trkpt lat="60.1178340800" lon="31.3954596967"><ele>107.76</ele><time>2026-07-25T09:00:07Z</time></trkpt><trkpt lat="60.1176531985" lon="31.3922008127"><ele>108.11</ele><time>2026-07-25T09:00:12Z</time></trkpt><trkpt lat="60.1172719896" lon="31.3799086679"><ele>112.11</ele><time>2026-07-25T09:00:32Z</time></trkpt><trkpt lat="60.1168329455" lon="31.3674508967"><ele>115.96</ele><time>2026-07-25T09:00:53Z</time></trkpt><trkpt lat="60.1168604381" lon="31.3678498752"><ele>116.79</ele><time>2026-07-25T09:00:54Z</time></trkpt><trkpt lat="60.1160849445" lon="31.3770233653"><ele>100.50</ele><time>2026-07-25T09:01:00Z</time></trkpt><trkpt lat="60.1160393469" lon="31.3777246792"><ele>100.97</ele><time>2026-07-25T09:01:01Z</time></trkpt><trkpt lat="60.1155869756" lon="31.3825633842"><ele>105.24</ele><time>2026-07-25T09:01:09Z</time></trkpt><trkpt lat="60.1161450427" lon="31.3892710023"><ele>107.15</ele><time>2026-07-25T09:01:20Z</time></trkpt><trkpt lat="60.1170296688" lon="31.4009777550"><ele>108.63</ele><time>2026-07-25T09:01:39Z</time></trkpt><trkpt lat="60.1171853207" lon="31.4034514222"><ele>108.04</ele><time>2026-07-25T09:01:43Z</time></trkpt><trkpt lat="60.1173744164" lon="31.4037709404"><ele>107.17</ele><time>2026-07-25T09:01:46Z</time></trkpt><trkpt lat="60.1176661067" lon="31.3929864485"><ele>115.45</ele><time>2026-07-25T09:01:55Z</time></trkpt><trkpt lat="60.1173584908" lon="31.3815306500"><ele>115.19</ele><time>2026-07-25T09:02:14Z</time></trkpt><trkpt lat="60.1168989111" lon="31.3711594697"><ele>117.69</ele><time>2026-07-25T09:02:31Z</time></trkpt><trkpt lat="60.1168211270" lon="31.3681385480"><ele>117.57</ele><time>2026-07-25T09:02:36Z</time></trkpt><trkpt lat="60.1170585025" lon="31.3677665591"><ele>116.45</ele><time>2026-07-25T09:02:39Z</time></trkpt><trkpt lat="60.1162673347" lon="31.3760333788"><ele>117.29</ele><time>2026-07-25T09:02:43Z</time></trkpt><trkpt lat="60.1161115989" lon="31.3778462168"><ele>116.72</ele><time>2026-07-25T09:02:46Z</time></trkpt><trkpt lat="60.1156838704" lon="31.3821578678"><ele>114.08</ele><time>2026-07-25T09:02:53Z</time></trkpt><trkpt lat="60.1158531848" lon="31.3852373790"><ele>110.33</ele><time>2026-07-25T09:02:58Z</time></trkpt><trkpt lat="60.1169098914" lon="31.3986784313"><ele>109.86</ele><time>2026-07-25T09:03:20Z</time></trkpt><trkpt lat="60.1171445008" lon="31.4023570810"><ele>108.41</ele><time>2026-07-25T09:03:26Z</time></trkpt><trkpt lat="60.1171574090" lon="31.4034707844"><ele>106.86</ele><time>2026-07-25T09:03:28Z</time></trkpt><trkpt lat="60.1176572219" lon="31.4004147425"><ele>107.44</ele><time>2026-07-25T09:03:31Z</time></trkpt><trkpt lat="60.1179348305" lon="31.3972646557"><ele>104.66</ele><time>2026-07-25T09:03:34Z</time></trkpt><trkpt lat="60.1179546956" lon="31.3949251827"><ele>102.37</ele><time>2026-07-25T09:03:38Z</time></trkpt><trkpt lat="60.1177965291" lon="31.3940296602"><ele>102.26</ele><time>2026-07-25T09:03:39Z</time></trkpt><trkpt lat="60.1173990592" lon="31.3821355719"><ele>105.18</ele><time>2026-07-25T09:03:58Z</time></trkpt><trkpt lat="60.1170166768" lon="31.3741239812"><ele>110.51</ele><time>2026-07-25T09:04:11Z</time></trkpt><trkpt lat="60.1168803032" lon="31.3704465050"><ele>113.60</ele><time>2026-07-25T09:04:17Z</time></trkpt><trkpt lat="60.1157076750" lon="31.3817422930"><ele>111.70</ele><time>2026-07-25T09:04:37Z</time></trkpt><trkpt lat="60.1156480797" lon="31.3823468797"><ele>110.92</ele><time>2026-07-25T09:04:38Z</time></trkpt><trkpt lat="60.1159247663" lon="31.3866060600"><ele>106.86</ele><time>2026-07-25T09:04:45Z</time></trkpt><trkpt lat="60.1166994218" lon="31.3964026608"><ele>107.58</ele><time>2026-07-25T09:05:01Z</time></trkpt><trkpt lat="60.1171358675" lon="31.4036652446"><ele>106.34</ele><time>2026-07-25T09:05:13Z</time></trkpt><trkpt lat="60.1173789427" lon="31.4030468278"><ele>105.32</ele><time>2026-07-25T09:05:15Z</time></trkpt><trkpt lat="60.1173075289" lon="31.4033896476"><ele>119.86</ele><time>2026-07-25T09:05:16Z</time></trkpt><trkpt lat="60.1177926734" lon="31.3952419348"><ele>111.03</ele><time>2026-07-25T09:05:21Z</time></trkpt><trkpt lat="60.1177310664" lon="31.3945468236"><ele>112.25</ele><time>2026-07-25T09:05:22Z</time></trkpt><trkpt lat="60.1173257176" lon="31.3806085568"><ele>110.02</ele><time>2026-07-25T09:05:45Z</time></trkpt><trkpt lat="60.1168645453" lon="31.3690417819"><ele>112.08</ele><time>2026-07-25T09:06:04Z</time></trkpt><trkpt lat="60.1177126262" lon="31.3678005058"><ele>111.83</ele><time>2026-07-25T09:06:09Z</time></trkpt><trkpt lat="60.1176534500" lon="31.3699114043"><ele>111.78</ele><time>2026-07-25T09:06:10Z</time></trkpt><trkpt lat="60.1159190666" lon="31.3785091415"><ele>106.92</ele><time>2026-07-25T09:06:16Z</time></trkpt><trkpt lat="60.1155230217" lon="31.3832685538"><ele>109.09</ele><time>2026-07-25T09:06:24Z</time></trkpt><trkpt lat="60.1157914940" lon="31.3868099079"><ele>102.79</ele><time>2026-07-25T09:06:30Z</time></trkpt><trkpt lat="60.1168989111" lon="31.3984486833"><ele>100.89</ele><time>2026-07-25T09:06:49Z</time></trkpt><trkpt lat="60.1171702333" lon="31.4038513228"><ele>100.18</ele><time>2026-07-25T09:06:58Z</time></trkpt><trkpt lat="60.1174036693" lon="31.4009529445"><ele>105.02</ele><time>2026-07-25T09:07:01Z</time></trkpt><trkpt lat="60.1178415399" lon="31.3966119569"><ele>104.66</ele><time>2026-07-25T09:07:05Z</time></trkpt><trkpt lat="60.1176853850" lon="31.3936285023"><ele>107.44</ele><time>2026-07-25T09:07:09Z</time></trkpt><trkpt lat="60.1174551342" lon="31.3828774542"><ele>105.38</ele><time>2026-07-25T09:07:26Z</time></trkpt><trkpt lat="60.1171017531" lon="31.3736626413"><ele>106.72</ele><time>2026-07-25T09:07:41Z</time></trkpt><trkpt lat="60.1169221289" lon="31.3687792607"><ele>109.46</ele><time>2026-07-25T09:07:49Z</time></trkpt><trkpt lat="60.1170024276" lon="31.3689241000"><ele>110.08</ele><time>2026-07-25T09:07:52Z</time></trkpt><trkpt lat="60.1165140141" lon="31.3737820834"><ele>109.76</ele><time>2026-07-25T09:07:58Z</time></trkpt><trkpt lat="60.1161124371" lon="31.3813980483"><ele>107.03</ele><time>2026-07-25T09:08:09Z</time></trkpt><trkpt lat="60.1165100746" lon="31.3901137188"><ele>105.50</ele><time>2026-07-25T09:08:21Z</time></trkpt><trkpt lat="60.1172018331" lon="31.4021097310"><ele>105.93</ele><time>2026-07-25T09:08:40Z</time></trkpt><trkpt lat="60.1172039285" lon="31.4031861350"><ele>103.95</ele><time>2026-07-25T09:08:42Z</time></trkpt><trkpt lat="60.1178149693" lon="31.3983483519"><ele>103.05</ele><time>2026-07-25T09:08:47Z</time></trkpt><trkpt lat="60.1179641671" lon="31.3972612191"><ele>99.88</ele><time>2026-07-25T09:08:49Z</time></trkpt><trkpt lat="60.1180091780" lon="31.3964330032"><ele>97.91</ele><time>2026-07-25T09:08:50Z</time></trkpt><trkpt lat="60.1180830225" lon="31.3953104150"><ele>95.81</ele><time>2026-07-25T09:08:52Z</time></trkpt><trkpt lat="60.1177249476" lon="31.3905049022"><ele>89.95</ele><time>2026-07-25T09:08:59Z</time></trkpt><trkpt lat="60.1173792779" lon="31.3799290359"><ele>81.91</ele><time>2026-07-25T09:09:16Z</time></trkpt><trkpt lat="60.1169793773" lon="31.3688363414"><ele>88.66</ele><time>2026-07-25T09:09:34Z</time></trkpt><trkpt lat="60.1170375478" lon="31.3675919641"><ele>88.91</ele><time>2026-07-25T09:09:38Z</time></trkpt><trkpt lat="60.1171160862" lon="31.3683500234"><ele>88.81</ele><time>2026-07-25T09:09:40Z</time></trkpt><trkpt lat="60.1157526858" lon="31.3789526280"><ele>90.02</ele><time>2026-07-25T09:09:47Z</time></trkpt><trkpt lat="60.1156122051" lon="31.3822126016"><ele>89.18</ele><time>2026-07-25T09:09:52Z</time></trkpt><trkpt lat="60.1159364171" lon="31.3864777330"><ele>94.24</ele><time>2026-07-25T09:09:59Z</time></trkpt><trkpt lat="60.1170434151" lon="31.3999652211"><ele>100.24</ele><time>2026-07-25T09:10:21Z</time></trkpt><trkpt lat="60.1172168367" lon="31.4033830259"><ele>97.42</ele><time>2026-07-25T09:10:27Z</time></trkpt><trkpt lat="60.1173853967" lon="31.4029007312"><ele>101.39</ele><time>2026-07-25T09:10:29Z</time></trkpt><trkpt lat="60.1178019773" lon="31.3957670610"><ele>101.97</ele><time>2026-07-25T09:10:34Z</time></trkpt><trkpt lat="60.1175800245" lon="31.3854277320"><ele>98.93</ele><time>2026-07-25T09:10:51Z</time></trkpt><trkpt lat="60.1172920223" lon="31.3775399420"><ele>98.63</ele><time>2026-07-25T09:11:04Z</time></trkpt><trkpt lat="60.1169224642" lon="31.3672597054"><ele>102.56</ele><time>2026-07-25T09:11:21Z</time></trkpt><trkpt lat="60.1171590853" lon="31.3649715297"><ele>103.07</ele><time>2026-07-25T09:11:25Z</time></trkpt><trkpt lat="60.1178742293" lon="31.3645672705"><ele>104.53</ele><time>2026-07-25T09:11:27Z</time></trkpt><trkpt lat="60.1176424697" lon="31.3723962195"><ele>104.43</ele><time>2026-07-25T09:11:30Z</time></trkpt><trkpt lat="60.1154742390" lon="31.3825664856"><ele>104.23</ele><time>2026-07-25T09:11:37Z</time></trkpt><trkpt lat="60.1159503311" lon="31.3873133250"><ele>100.67</ele><time>2026-07-25T09:11:45Z</time></trkpt><trkpt lat="60.1172326785" lon="31.4020132553"><ele>100.65</ele><time>2026-07-25T09:12:09Z</time></trkpt><trkpt lat="60.1173497736" lon="31.4043807238"><ele>100.20</ele><time>2026-07-25T09:12:13Z</time></trkpt><trkpt lat="60.1167007629" lon="31.4060806576"><ele>99.75</ele><time>2026-07-25T09:12:17Z</time></trkpt><trkpt lat="60.1165928040" lon="31.4016151149"><ele>99.60</ele><time>2026-07-25T09:12:21Z</time></trkpt><trkpt lat="60.1179214194" lon="31.3932938129"><ele>98.46</ele><time>2026-07-25T09:12:24Z</time></trkpt><trkpt lat="60.1177109499" lon="31.3895032648"><ele>97.74</ele><time>2026-07-25T09:12:29Z</time></trkpt><trkpt lat="60.1172383782" lon="31.3767688908"><ele>99.40</ele><time>2026-07-25T09:12:50Z</time></trkpt><trkpt lat="60.1169373840" lon="31.3700831495"><ele>101.66</ele><time>2026-07-25T09:13:01Z</time></trkpt><trkpt lat="60.1169401500" lon="31.3688761555"><ele>101.49</ele><time>2026-07-25T09:13:03Z</time></trkpt><trkpt lat="60.1171800401" lon="31.3691107649"><ele>100.51</ele><time>2026-07-25T09:13:06Z</time></trkpt><trkpt lat="60.1173997298" lon="31.3742149249"><ele>97.84</ele><time>2026-07-25T09:13:12Z</time></trkpt><trkpt lat="60.1165274251" lon="31.3806476165"><ele>92.15</ele><time>2026-07-25T09:13:21Z</time></trkpt><trkpt lat="60.1160903927" lon="31.3852813840"><ele>97.60</ele><time>2026-07-25T09:13:27Z</time></trkpt><trkpt lat="60.1171527151" lon="31.4026466757"><ele>104.60</ele><time>2026-07-25T09:13:55Z</time></trkpt><trkpt lat="60.1177861355" lon="31.3986696303"><ele>102.51</ele><time>2026-07-25T09:13:59Z</time></trkpt><trkpt lat="60.1178272069" lon="31.3961262256"><ele>100.18</ele><time>2026-07-25T09:14:03Z</time></trkpt><trkpt lat="60.1174683776" lon="31.3851694018"><ele>102.21</ele><time>2026-07-25T09:14:21Z</time></trkpt><trkpt lat="60.1170157548" lon="31.3743509632"><ele>105.45</ele><time>2026-07-25T09:14:39Z</time></trkpt><trkpt lat="60.1168492902" lon="31.3700091373"><ele>107.60</ele><time>2026-07-25T09:14:46Z</time></trkpt><trkpt lat="60.1171092968" lon="31.3702248875"><ele>111.76</ele><time>2026-07-25T09:14:52Z</time></trkpt><trkpt lat="60.1172365341" lon="31.3711578771"><ele>112.03</ele><time>2026-07-25T09:14:53Z</time></trkpt><trkpt lat="60.1169887651" lon="31.3754841965"><ele>111.69</ele><time>2026-07-25T09:14:58Z</time></trkpt><trkpt lat="60.1163542550" lon="31.3782859314"><ele>111.96</ele><time>2026-07-25T09:15:01Z</time></trkpt><trkpt lat="60.1155951899" lon="31.3821758889"><ele>115.66</ele><time>2026-07-25T09:15:06Z</time></trkpt><trkpt lat="60.1157039870" lon="31.3852784503"><ele>113.63</ele><time>2026-07-25T09:15:11Z</time></trkpt><trkpt lat="60.1165268384" lon="31.3971083332"><ele>117.64</ele><time>2026-07-25T09:15:30Z</time></trkpt><trkpt lat="60.1171429921" lon="31.4047517069"><ele>116.82</ele><time>2026-07-25T09:15:43Z</time></trkpt><trkpt lat="60.1176503487" lon="31.3970793318"><ele>117.15</ele><time>2026-07-25T09:15:47Z</time></trkpt><trkpt lat="60.1177989598" lon="31.3951841835"><ele>117.41</ele><time>2026-07-25T09:15:50Z</time></trkpt><trkpt lat="60.1178991236" lon="31.3925487455"><ele>118.57</ele><time>2026-07-25T09:15:55Z</time></trkpt><trkpt lat="60.1173857320" lon="31.3821395114"><ele>119.00</ele><time>2026-07-25T09:16:11Z</time></trkpt><trkpt lat="60.1169069577" lon="31.3709966093"><ele>118.45</ele><time>2026-07-25T09:16:29Z</time></trkpt><trkpt lat="60.1168160141" lon="31.3637805451"><ele>120.13</ele><time>2026-07-25T09:16:41Z</time></trkpt><trkpt lat="60.1168362983" lon="31.3628070708"><ele>120.34</ele><time>2026-07-25T09:16:43Z</time></trkpt><trkpt lat="60.1171856560" lon="31.3837153092"><ele>90.01</ele><time>2026-07-25T09:16:57Z</time></trkpt></trkseg><trkseg><trkpt lat="59.3505555019" lon="34.6994685475"><ele>171.97</ele><time>2026-08-13T22:04:03Z</time></trkpt><trkpt lat="59.3505997583" lon="34.6995027456"><ele>168.95</ele><time>2026-08-13T22:04:31Z</time></trkpt><trkpt lat="59.3505800609" lon="34.6994863171"><ele>167.08</ele><time>2026-08-13T22:05:01Z</time></trkpt><trkpt lat="59.3505841680" lon="34.6995091997"><ele>166.10</ele><time>2026-08-13T22:05:34Z</time></trkpt><trkpt lat="59.3506050389" lon="34.6995122172"><ele>166.61</ele><time>2026-08-13T22:06:04Z</time></trkpt><trkpt lat="59.3506000936" lon="34.6995010693"><ele>167.72</ele><time>2026-08-13T22:06:38Z</time></trkpt><trkpt lat="59.3505912088" lon="34.6994808689"><ele>167.48</ele><time>2026-08-13T22:07:08Z</time></trkpt><trkpt lat="59.3506256584" lon="34.6994998120"><ele>167.77</ele><time>2026-08-13T22:07:39Z</time></trkpt><trkpt lat="59.3506076373" lon="34.6995319147"><ele>166.25</ele><time>2026-08-13T22:08:11Z</time></trkpt><trkpt lat="59.3505710084" lon="34.6993740834"><ele>165.24</ele><time>2026-08-13T22:08:27Z</time></trkpt><trkpt lat="59.3505570944" lon="34.6994617581"><ele>164.41</ele><time>2026-08-13T22:08:52Z</time></trkpt><trkpt lat="59.3506430928" lon="34.6995386202"><ele>164.68</ele><time>2026-08-13T22:09:12Z</time></trkpt><trkpt lat="59.3506484572" lon="34.6995962877"><ele>164.26</ele><time>2026-08-13T22:09:37Z</time></trkpt><trkpt lat="59.3506336212" lon="34.6996817831"><ele>163.03</ele><time>2026-08-13T22:09:57Z</time></trkpt><trkpt lat="59.3506461103" lon="34.6996998880"><ele>160.57</ele><time>2026-08-13T22:10:29Z</time></trkpt><trkpt lat="59.3506585993" lon="34.6997390315"><ele>157.81</ele><time>2026-08-13T22:10:59Z</time></trkpt><trkpt lat="59.3505907059" lon="34.6995874867"><ele>157.37</ele><time>2026-08-13T22:11:21Z</time></trkpt><trkpt lat="59.3505237345" lon="34.6994861495"><ele>157.62</ele><time>2026-08-13T22:11:48Z</time></trkpt><trkpt lat="59.3504969124" lon="34.6995073557"><ele>157.60</ele><time>2026-08-13T22:12:23Z</time></trkpt><trkpt lat="59.3505842518" lon="34.6995445713"><ele>157.95</ele><time>2026-08-13T22:12:49Z</time></trkpt><trkpt lat="59.3505303562" lon="34.6994189266"><ele>157.76</ele><time>2026-08-13T22:13:11Z</time></trkpt><trkpt lat="59.3505196273" lon="34.6993688028"><ele>156.18</ele><time>2026-08-13T22:13:36Z</time></trkpt><trkpt lat="59.3505388219" lon="34.6993776038"><ele>154.79</ele><time>2026-08-13T22:14:05Z</time></trkpt><trkpt lat="59.3505276740" lon="34.6993413940"><ele>153.77</ele><time>2026-08-13T22:14:53Z</time></trkpt><trkpt lat="59.3505372293" lon="34.6993955411"><ele>154.70</ele><time>2026-08-13T22:15:26Z</time></trkpt><trkpt lat="59.3505282607" lon="34.6993586607"><ele>153.26</ele><time>2026-08-13T22:15:55Z</time></trkpt><trkpt lat="59.3505287636" lon="34.6993574873"><ele>155.31</ele><time>2026-08-13T22:16:52Z</time></trkpt><trkpt lat="59.3505242374" lon="34.6993512008"><ele>157.75</ele><time>2026-08-13T22:17:44Z</time></trkpt><trkpt lat="59.3505244888" lon="34.6993631031"><ele>158.77</ele><time>2026-08-13T22:18:15Z</time></trkpt><trkpt lat="59.3505301047" lon="34.6993811242"><ele>159.30</ele><time>2026-08-13T22:18:47Z</time></trkpt><trkpt lat="59.3505510595" lon="34.6993549727"><ele>159.27</ele><time>2026-08-13T22:19:16Z</time></trkpt><trkpt lat="59.3505561724" lon="34.6993672941"><ele>160.14</ele><time>2026-08-13T22:19:46Z</time></trkpt><trkpt lat="59.3505428452" lon="34.6993387956"><ele>160.54</ele><time>2026-08-13T22:20:14Z</time></trkpt><trkpt lat="59.3505735230" lon="34.6993705630"><ele>160.43</ele><time>2026-08-13T22:20:43Z</time></trkpt><trkpt lat="59.3505562562" lon="34.6993612591"><ele>159.25</ele><time>2026-08-13T22:21:16Z</time></trkpt><trkpt lat="59.3505475391" lon="34.6993641090"><ele>158.82</ele><time>2026-08-13T22:21:43Z</time></trkpt><trkpt lat="59.3505090661" lon="34.6993637737"><ele>157.60</ele><time>2026-08-13T22:22:14Z</time></trkpt><trkpt lat="59.3505382352" lon="34.6993897576"><ele>157.45</ele><time>2026-08-13T22:22:48Z</time></trkpt><trkpt lat="59.3505443539" lon="34.6993878298"><ele>157.10</ele><time>2026-08-13T22:23:48Z</time></trkpt><trkpt lat="59.3505387381" lon="34.6994129755"><ele>156.58</ele><time>2026-08-13T22:24:24Z</time></trkpt><trkpt lat="59.3505422585" lon="34.6994116344"><ele>156.59</ele><time>2026-08-13T22:24:56Z</time></trkpt><trkpt lat="59.3505242374" lon="34.6993956249"><ele>157.39</ele><time>2026-08-13T22:25:27Z</time></trkpt><trkpt lat="59.3504985049" lon="34.6993408911"><ele>156.97</ele><time>2026-08-13T22:25:56Z</time></trkpt><trkpt lat="59.3505343795" lon="34.6993628517"><ele>157.71</ele><time>2026-08-13T22:26:29Z</time></trkpt><trkpt lat="59.3505434319" lon="34.6993792802"><ele>158.27</ele><time>2026-08-13T22:27:01Z</time></trkpt><trkpt lat="59.3505471200" lon="34.6993890032"><ele>157.35</ele><time>2026-08-13T22:27:27Z</time></trkpt><trkpt lat="59.3505524006" lon="34.6993997321"><ele>154.33</ele><time>2026-08-13T22:27:57Z</time></trkpt><trkpt lat="59.3505546637" lon="34.6993437409"><ele>156.45</ele><time>2026-08-13T22:28:29Z</time></trkpt><trkpt lat="59.3505365588" lon="34.6993157454"><ele>156.22</ele><time>2026-08-13T22:28:58Z</time></trkpt><trkpt lat="59.3505115807" lon="34.6993438248"><ele>158.45</ele><time>2026-08-13T22:29:29Z</time></trkpt><trkpt lat="59.3505139276" lon="34.6993276477"><ele>159.08</ele><time>2026-08-13T22:30:00Z</time></trkpt><trkpt lat="59.3505383190" lon="34.6993423160"><ele>159.40</ele><time>2026-08-13T22:30:37Z</time></trkpt><trkpt lat="59.3505361397" lon="34.6993413102"><ele>159.59</ele><time>2026-08-13T22:31:10Z</time></trkpt><trkpt lat="59.3505368102" lon="34.6993541345"><ele>159.48</ele><time>2026-08-13T22:31:40Z</time></trkpt><trkpt lat="59.3505170289" lon="34.6993372031"><ele>159.64</ele><time>2026-08-13T22:32:11Z</time></trkpt><trkpt lat="59.3505163584" lon="34.6993256360"><ele>158.86</ele><time>2026-08-13T22:32:39Z</time></trkpt><trkpt lat="59.3505337089" lon="34.6993557271"><ele>158.83</ele><time>2026-08-13T22:33:09Z</time></trkpt><trkpt lat="59.3505482096" lon="34.6993444115"><ele>159.97</ele><time>2026-08-13T22:33:41Z</time></trkpt><trkpt lat="59.3505037855" lon="34.6993054356"><ele>159.40</ele><time>2026-08-13T22:34:10Z</time></trkpt><trkpt lat="59.3504907098" lon="34.6993089560"><ele>158.09</ele><time>2026-08-13T22:34:41Z</time></trkpt><trkpt lat="59.3505033664" lon="34.6993141528"><ele>158.02</ele><time>2026-08-13T22:35:26Z</time></trkpt><trkpt lat="59.3505148496" lon="34.6993214451"><ele>158.55</ele><time>2026-08-13T22:36:27Z</time></trkpt><trkpt lat="59.3505122513" lon="34.6993361134"><ele>157.69</ele><time>2026-08-13T22:37:28Z</time></trkpt><trkpt lat="59.3505226448" lon="34.6993249655"><ele>158.08</ele><time>2026-08-13T22:37:56Z</time></trkpt><trkpt lat="59.3505275063" lon="34.6993196011"><ele>158.36</ele><time>2026-08-13T22:39:13Z</time></trkpt><trkpt lat="59.3505410850" lon="34.6993081179"><ele>157.37</ele><time>2026-08-13T22:40:11Z</time></trkpt><trkpt lat="59.3505337927" lon="34.6993174218"><ele>157.90</ele><time>2026-08-13T22:41:21Z</time></trkpt><trkpt lat="59.3505297694" lon="34.6993303299"><ele>157.76</ele><time>2026-08-13T22:42:35Z</time></trkpt><trkpt lat="59.3505453598" lon="34.6993036754"><ele>160.10</ele><time>2026-08-13T22:43:45Z</time></trkpt><trkpt lat="59.3505365588" lon="34.6993020829"><ele>159.76</ele><time>2026-08-13T22:44:54Z</time></trkpt><trkpt lat="59.3505435158" lon="34.6993295755"><ele>159.39</ele><time>2026-08-13T22:46:08Z</time></trkpt><trkpt lat="59.3505430128" lon="34.6993206069"><ele>158.76</ele><time>2026-08-13T22:47:21Z</time></trkpt><trkpt lat="59.3505367264" lon="34.6993291564"><ele>157.98</ele><time>2026-08-13T22:48:26Z</time></trkpt><trkpt lat="59.3505462818" lon="34.6993050165"><ele>160.50</ele><time>2026-08-13T22:49:38Z</time></trkpt><trkpt lat="59.3505705055" lon="34.6993140690"><ele>162.63</ele><time>2026-08-13T22:50:45Z</time></trkpt><trkpt lat="59.3505728524" lon="34.6993115544"><ele>162.75</ele><time>2026-08-13T22:51:19Z</time></trkpt><trkpt lat="59.3505597766" lon="34.6993079502"><ele>163.46</ele><time>2026-08-13T22:52:23Z</time></trkpt><trkpt lat="59.3505582679" lon="34.6992905997"><ele>164.43</ele><time>2026-08-13T22:53:18Z</time></trkpt><trkpt lat="59.3505490478" lon="34.6993078664"><ele>162.79</ele><time>2026-08-13T22:54:15Z</time></trkpt><trkpt lat="59.3505524844" lon="34.6993141528"><ele>162.11</ele><time>2026-08-13T22:54:44Z</time></trkpt><trkpt lat="59.3505720980" lon="34.6992835589"><ele>162.52</ele><time>2026-08-13T22:55:49Z</time></trkpt><trkpt lat="59.3505601119" lon="34.6993035078"><ele>161.42</ele><time>2026-08-13T22:56:57Z</time></trkpt><trkpt lat="59.3505558372" lon="34.6992796194"><ele>160.97</ele><time>2026-08-13T22:58:07Z</time></trkpt><trkpt lat="59.3505466171" lon="34.6992749255"><ele>159.90</ele><time>2026-08-13T22:58:54Z</time></trkpt><trkpt lat="59.3505326193" lon="34.6992836427"><ele>157.90</ele><time>2026-08-13T23:00:00Z</time></trkpt><trkpt lat="59.3505420070" lon="34.6992960479"><ele>156.54</ele><time>2026-08-13T23:01:10Z</time></trkpt><trkpt lat="59.3505354691" lon="34.6993296593"><ele>157.03</ele><time>2026-08-13T23:01:57Z</time></trkpt><trkpt lat="59.3505372293" lon="34.6993640251"><ele>158.09</ele><time>2026-08-13T23:02:27Z</time></trkpt><trkpt lat="59.3505368102" lon="34.6993798669"><ele>159.69</ele><time>2026-08-13T23:03:26Z</time></trkpt><trkpt lat="59.3505292665" lon="34.6993724909"><ele>160.28</ele><time>2026-08-13T23:04:40Z</time></trkpt><trkpt lat="59.3505311105" lon="34.6993879136"><ele>160.72</ele><time>2026-08-13T23:05:33Z</time></trkpt><trkpt lat="59.3505340442" lon="34.6993510332"><ele>160.78</ele><time>2026-08-13T23:06:36Z</time></trkpt><trkpt lat="59.3505354691" lon="34.6993911825"><ele>164.56</ele><time>2026-08-13T23:07:54Z</time></trkpt><trkpt lat="59.3505463656" lon="34.6994104609"><ele>166.11</ele><time>2026-08-13T23:08:57Z</time></trkpt><trkpt lat="59.3505446892" lon="34.6994015761"><ele>166.37</ele><time>2026-08-13T23:09:58Z</time></trkpt><trkpt lat="59.3505451083" lon="34.6994066890"><ele>164.58</ele><time>2026-08-13T23:11:12Z</time></trkpt><trkpt lat="59.3505466171" lon="34.6993898414"><ele>164.47</ele><time>2026-08-13T23:12:31Z</time></trkpt><trkpt lat="59.3505581841" lon="34.6993887518"><ele>163.99</ele><time>2026-08-13T23:13:43Z</time></trkpt><trkpt lat="59.3505613692" lon="34.6994007379"><ele>165.81</ele><time>2026-08-13T23:15:05Z</time></trkpt><trkpt lat="59.3505525682" lon="34.6993768495"><ele>165.99</ele><time>2026-08-13T23:16:15Z</time></trkpt><trkpt lat="59.3505436834" lon="34.6993659530"><ele>164.82</ele><time>2026-08-13T23:17:42Z</time></trkpt><trkpt lat="59.3505418394" lon="34.6993448306"><ele>162.43</ele><time>2026-08-13T23:19:03Z</time></trkpt><trkpt lat="59.3505398277" lon="34.6993433218"><ele>162.32</ele><time>2026-08-13T23:20:19Z</time></trkpt><trkpt lat="59.3505417556" lon="34.6993391309"><ele>162.11</ele><time>2026-08-13T23:21:41Z</time></trkpt><trkpt lat="59.3505358044" lon="34.6993494406"><ele>162.89</ele><time>2026-08-13T23:22:39Z</time></trkpt><trkpt lat="59.3505394924" lon="34.6993622649"><ele>163.64</ele><time>2026-08-13T23:23:56Z</time></trkpt><trkpt lat="59.3505397439" lon="34.6993832197"><ele>164.48</ele><time>2026-08-13T23:24:59Z</time></trkpt><trkpt lat="59.3505322002" lon="34.6993798669"><ele>165.13</ele><time>2026-08-13T23:26:23Z</time></trkpt><trkpt lat="59.3505474553" lon="34.6993782744"><ele>165.28</ele><time>2026-08-13T23:27:39Z</time></trkpt><trkpt lat="59.3505533226" lon="34.6994066890"><ele>165.47</ele><time>2026-08-13T23:28:30Z</time></trkpt><trkpt lat="59.3505689967" lon="34.6994107123"><ele>165.68</ele><time>2026-08-13T23:29:10Z</time></trkpt><trkpt lat="59.3505565077" lon="34.6993977204"><ele>165.41</ele><time>2026-08-13T23:29:38Z</time></trkpt><trkpt lat="59.3505562562" lon="34.6993821301"><ele>166.06</ele><time>2026-08-13T23:30:28Z</time></trkpt><trkpt lat="59.3505565077" lon="34.6993592475"><ele>167.07</ele><time>2026-08-13T23:31:06Z</time></trkpt><trkpt lat="59.3505482096" lon="34.6993358620"><ele>167.16</ele><time>2026-08-13T23:31:39Z</time></trkpt><trkpt lat="59.3505437672" lon="34.6993517037"><ele>166.98</ele><time>2026-08-13T23:32:18Z</time></trkpt><trkpt lat="59.3505585194" lon="34.6993626840"><ele>168.39</ele><time>2026-08-13T23:32:52Z</time></trkpt><trkpt lat="59.3505643029" lon="34.6993589122"><ele>169.49</ele><time>2026-08-13T23:33:28Z</time></trkpt><trkpt lat="59.3505598605" lon="34.6993465908"><ele>168.21</ele><time>2026-08-13T23:34:32Z</time></trkpt><trkpt lat="59.3505589385" lon="34.6993538830"><ele>167.80</ele><time>2026-08-13T23:35:33Z</time></trkpt><trkpt lat="59.3505389057" lon="34.6993365325"><ele>168.28</ele><time>2026-08-13T23:36:32Z</time></trkpt><trkpt lat="59.3505374808" lon="34.6993455011"><ele>167.31</ele><time>2026-08-13T23:37:20Z</time></trkpt><trkpt lat="59.3505342118" lon="34.6993760951"><ele>165.92</ele><time>2026-08-13T23:37:52Z</time></trkpt><trkpt lat="59.3505318649" lon="34.6993754245"><ele>165.39</ele><time>2026-08-13T23:38:41Z</time></trkpt><trkpt lat="59.3505322002" lon="34.6993858181"><ele>164.35</ele><time>2026-08-13T23:39:46Z</time></trkpt><trkpt lat="59.3505487964" lon="34.6993657853"><ele>164.77</ele><time>2026-08-13T23:40:49Z</time></trkpt><trkpt lat="59.3505422585" lon="34.6993584093"><ele>163.67</ele><time>2026-08-13T23:41:56Z</time></trkpt><trkpt lat="59.3505354691" lon="34.6993672103"><ele>164.60</ele><time>2026-08-13T23:42:49Z</time></trkpt><trkpt lat="59.3505293503" lon="34.6993663721"><ele>164.40</ele><time>2026-08-13T23:43:33Z</time></trkpt><trkpt lat="59.3505301047" lon="34.6993494406"><ele>163.85</ele><time>2026-08-13T23:44:23Z</time></trkpt><trkpt lat="59.3505302723" lon="34.6993687190"><ele>163.20</ele><time>2026-08-13T23:45:22Z</time></trkpt><trkpt lat="59.3505386543" lon="34.6993859857"><ele>163.57</ele><time>2026-08-13T23:46:11Z</time></trkpt><trkpt lat="59.3505280931" lon="34.6993869916"><ele>164.27</ele><time>2026-08-13T23:46:48Z</time></trkpt><trkpt lat="59.3505243212" lon="34.6993641090"><ele>163.11</ele><time>2026-08-13T23:47:47Z</time></trkpt><trkpt lat="59.3505148496" lon="34.6993810404"><ele>163.65</ele><time>2026-08-13T23:48:48Z</time></trkpt><trkpt lat="59.3505089823" lon="34.6993708983"><ele>163.82</ele><time>2026-08-13T23:49:38Z</time></trkpt><trkpt lat="59.3505097367" lon="34.6993846446"><ele>162.77</ele><time>2026-08-13T23:50:30Z</time></trkpt><trkpt lat="59.3505182024" lon="34.6993803699"><ele>162.02</ele><time>2026-08-13T23:51:14Z</time></trkpt><trkpt lat="59.3505214714" lon="34.6993570682"><ele>161.97</ele><time>2026-08-13T23:51:47Z</time></trkpt><trkpt lat="59.3505371455" lon="34.6993751731"><ele>162.57</ele><time>2026-08-13T23:52:52Z</time></trkpt><trkpt lat="59.3505295180" lon="34.6993613429"><ele>163.32</ele><time>2026-08-13T23:54:12Z</time></trkpt><trkpt lat="59.3505192921" lon="34.6993535478"><ele>165.64</ele><time>2026-08-13T23:55:40Z</time></trkpt><trkpt lat="59.3505115807" lon="34.6993575711"><ele>165.48</ele><time>2026-08-13T23:56:32Z</time></trkpt><trkpt lat="59.3505077250" lon="34.6993599180"><ele>166.00</ele><time>2026-08-13T23:57:53Z</time></trkpt><trkpt lat="59.3505286798" lon="34.6993663721"><ele>166.23</ele><time>2026-08-13T23:59:11Z</time></trkpt><trkpt lat="59.3505338766" lon="34.6993948705"><ele>165.30</ele><time>2026-08-14T00:00:24Z</time></trkpt><trkpt lat="59.3505355529" lon="34.6993519552"><ele>164.80</ele><time>2026-08-14T00:01:38Z</time></trkpt><trkpt lat="59.3505330384" lon="34.6993340179"><ele>164.09</ele><time>2026-08-14T00:02:55Z</time></trkpt><trkpt lat="59.3505368102" lon="34.6993878298"><ele>164.85</ele><time>2026-08-14T00:04:01Z</time></trkpt><trkpt lat="59.3505387381" lon="34.6993825492"><ele>163.99</ele><time>2026-08-14T00:05:13Z</time></trkpt><trkpt lat="59.3505409174" lon="34.6993776038"><ele>163.02</ele><time>2026-08-14T00:06:31Z</time></trkpt><trkpt lat="59.3505449407" lon="34.6994028334"><ele>162.49</ele><time>2026-08-14T00:07:24Z</time></trkpt><trkpt lat="59.3505392410" lon="34.6994433179"><ele>162.59</ele><time>2026-08-14T00:08:03Z</time></trkpt><trkpt lat="59.3505315296" lon="34.6994450781"><ele>163.89</ele><time>2026-08-14T00:08:57Z</time></trkpt><trkpt lat="59.3505420908" lon="34.6994770970"><ele>163.92</ele><time>2026-08-14T00:09:58Z</time></trkpt><trkpt lat="59.3505383190" lon="34.6994595788"><ele>164.35</ele><time>2026-08-14T00:10:47Z</time></trkpt><trkpt lat="59.3505445216" lon="34.6994744986"><ele>164.27</ele><time>2026-08-14T00:12:02Z</time></trkpt><trkpt lat="59.3505374808" lon="34.6994573157"><ele>166.15</ele><time>2026-08-14T00:13:08Z</time></trkpt><trkpt lat="59.3505449407" lon="34.6994579863"><ele>165.50</ele><time>2026-08-14T00:14:26Z</time></trkpt><trkpt lat="59.3505396601" lon="34.6994725708"><ele>164.81</ele><time>2026-08-14T00:15:40Z</time></trkpt><trkpt lat="59.3505457789" lon="34.6994672064"><ele>166.11</ele><time>2026-08-14T00:16:53Z</time></trkpt><trkpt lat="59.3505358882" lon="34.6994874068"><ele>166.76</ele><time>2026-08-14T00:18:13Z</time></trkpt><trkpt lat="59.3505534902" lon="34.6994791087"><ele>167.93</ele><time>2026-08-14T00:18:56Z</time></trkpt><trkpt lat="59.3505398277" lon="34.6994612552"><ele>169.11</ele><time>2026-08-14T00:19:31Z</time></trkpt><trkpt lat="59.3505495507" lon="34.6994701400"><ele>169.31</ele><time>2026-08-14T00:21:05Z</time></trkpt><trkpt lat="59.3505416717" lon="34.6994610876"><ele>169.98</ele><time>2026-08-14T00:22:33Z</time></trkpt><trkpt lat="59.3505437672" lon="34.6994724870"><ele>168.97</ele><time>2026-08-14T00:23:53Z</time></trkpt><trkpt lat="59.3505404145" lon="34.6994621772"><ele>169.28</ele><time>2026-08-14T00:25:10Z</time></trkpt><trkpt lat="59.3505293503" lon="34.6994656138"><ele>167.16</ele><time>2026-08-14T00:26:42Z</time></trkpt><trkpt lat="59.3505227286" lon="34.6994339302"><ele>167.36</ele><time>2026-08-14T00:28:17Z</time></trkpt><trkpt lat="59.3505517300" lon="34.6994672064"><ele>167.43</ele><time>2026-08-14T00:29:30Z</time></trkpt><trkpt lat="59.3505498022" lon="34.6994432341"><ele>167.33</ele><time>2026-08-14T00:30:49Z</time></trkpt><trkpt lat="59.3505367264" lon="34.6994455811"><ele>167.08</ele><time>2026-08-14T00:32:13Z</time></trkpt><trkpt lat="59.3505386543" lon="34.6994621772"><ele>165.50</ele><time>2026-08-14T00:33:40Z</time></trkpt><trkpt lat="59.3505529873" lon="34.6994562261"><ele>167.06</ele><time>2026-08-14T00:34:54Z</time></trkpt><trkpt lat="59.3505705055" lon="34.6994627640"><ele>168.59</ele><time>2026-08-14T00:36:13Z</time></trkpt><trkpt lat="59.3505611178" lon="34.6994412225"><ele>168.80</ele><time>2026-08-14T00:37:35Z</time></trkpt><trkpt lat="59.3505469523" lon="34.6994421445"><ele>169.36</ele><time>2026-08-14T00:38:53Z</time></trkpt><trkpt lat="59.3505482096" lon="34.6994939446"><ele>169.16</ele><time>2026-08-14T00:40:08Z</time></trkpt><trkpt lat="59.3505502213" lon="34.6994676255"><ele>170.09</ele><time>2026-08-14T00:41:26Z</time></trkpt><trkpt lat="59.3505501375" lon="34.6994609199"><ele>170.43</ele><time>2026-08-14T00:42:46Z</time></trkpt><trkpt lat="59.3505521491" lon="34.6994545497"><ele>170.34</ele><time>2026-08-14T00:43:23Z</time></trkpt><trkpt lat="59.3505724333" lon="34.6994401328"><ele>170.21</ele><time>2026-08-14T00:44:30Z</time></trkpt><trkpt lat="59.3505497184" lon="34.6994628478"><ele>169.60</ele><time>2026-08-14T00:45:40Z</time></trkpt><trkpt lat="59.3505512271" lon="34.6994567290"><ele>167.96</ele><time>2026-08-14T00:46:46Z</time></trkpt><trkpt lat="59.3505507242" lon="34.6994732413"><ele>167.32</ele><time>2026-08-14T00:47:50Z</time></trkpt><trkpt lat="59.3505461141" lon="34.6994648594"><ele>166.71</ele><time>2026-08-14T00:48:50Z</time></trkpt><trkpt lat="59.3505477067" lon="34.6994524542"><ele>165.94</ele><time>2026-08-14T00:50:06Z</time></trkpt><trkpt lat="59.3505603634" lon="34.6994500235"><ele>165.75</ele><time>2026-08-14T00:50:53Z</time></trkpt><trkpt lat="59.3505465332" lon="34.6994419768"><ele>165.56</ele><time>2026-08-14T00:51:22Z</time></trkpt><trkpt lat="59.3505179510" lon="34.6994775161"><ele>165.53</ele><time>2026-08-14T00:51:55Z</time></trkpt><trkpt lat="59.3505598605" lon="34.6994811203"><ele>165.10</ele><time>2026-08-14T00:52:25Z</time></trkpt><trkpt lat="59.3505411688" lon="34.6994678769"><ele>164.50</ele><time>2026-08-14T00:53:00Z</time></trkpt><trkpt lat="59.3505317811" lon="34.6994764265"><ele>163.23</ele><time>2026-08-14T00:54:01Z</time></trkpt><trkpt lat="59.3505446892" lon="34.6994827967"><ele>163.09</ele><time>2026-08-14T00:54:41Z</time></trkpt><trkpt lat="59.3505692482" lon="34.6994534601"><ele>165.70</ele><time>2026-08-14T00:55:14Z</time></trkpt><trkpt lat="59.3505664822" lon="34.6994658653"><ele>165.80</ele><time>2026-08-14T00:55:53Z</time></trkpt><trkpt lat="59.3505458627" lon="34.6994501073"><ele>165.95</ele><time>2026-08-14T00:56:22Z</time></trkpt><trkpt lat="59.3505219743" lon="34.6994724870"><ele>165.55</ele><time>2026-08-14T00:56:54Z</time></trkpt><trkpt lat="59.3505513947" lon="34.6994243748"><ele>167.79</ele><time>2026-08-14T00:57:24Z</time></trkpt><trkpt lat="59.3505801447" lon="34.6994064376"><ele>169.22</ele><time>2026-08-14T00:57:55Z</time></trkpt><trkpt lat="59.3506065477" lon="34.6994054317"><ele>169.97</ele><time>2026-08-14T00:58:27Z</time></trkpt><trkpt lat="59.3505780492" lon="34.6994181722"><ele>168.96</ele><time>2026-08-14T00:58:56Z</time></trkpt><trkpt lat="59.3505480420" lon="34.6994436532"><ele>167.93</ele><time>2026-08-14T00:59:25Z</time></trkpt><trkpt lat="59.3505521491" lon="34.6994427312"><ele>168.36</ele><time>2026-08-14T01:00:22Z</time></trkpt><trkpt lat="59.3505458627" lon="34.6994608361"><ele>167.96</ele><time>2026-08-14T01:01:23Z</time></trkpt><trkpt lat="59.3505596928" lon="34.6994869877"><ele>167.85</ele><time>2026-08-14T01:02:24Z</time></trkpt><trkpt lat="59.3505544122" lon="34.6994900052"><ele>169.08</ele><time>2026-08-14T01:03:23Z</time></trkpt><trkpt lat="59.3505534064" lon="34.6994949505"><ele>169.36</ele><time>2026-08-14T01:04:23Z</time></trkpt><trkpt lat="59.3505497184" lon="34.6994785219"><ele>170.56</ele><time>2026-08-14T01:05:31Z</time></trkpt><trkpt lat="59.3505473714" lon="34.6994579025"><ele>170.24</ele><time>2026-08-14T01:06:07Z</time></trkpt><trkpt lat="59.3505418394" lon="34.6994361095"><ele>169.57</ele><time>2026-08-14T01:06:38Z</time></trkpt><trkpt lat="59.3505728524" lon="34.6994561423"><ele>169.25</ele><time>2026-08-14T01:07:09Z</time></trkpt><trkpt lat="59.3505731039" lon="34.6994268894"><ele>170.29</ele><time>2026-08-14T01:07:38Z</time></trkpt><trkpt lat="59.3505784683" lon="34.6993959602"><ele>169.50</ele><time>2026-08-14T01:08:16Z</time></trkpt><trkpt lat="59.3505715951" lon="34.6994039230"><ele>168.44</ele><time>2026-08-14T01:08:47Z</time></trkpt><trkpt lat="59.3505661469" lon="34.6994447429"><ele>167.22</ele><time>2026-08-14T01:09:22Z</time></trkpt><trkpt lat="59.3505495507" lon="34.6994962916"><ele>166.40</ele><time>2026-08-14T01:09:59Z</time></trkpt><trkpt lat="59.3505636323" lon="34.6994616743"><ele>164.73</ele><time>2026-08-14T01:10:28Z</time></trkpt><trkpt lat="59.3505606148" lon="34.6994569805"><ele>164.14</ele><time>2026-08-14T01:11:00Z</time></trkpt><trkpt lat="59.3505413365" lon="34.6994911786"><ele>165.29</ele><time>2026-08-14T01:11:31Z</time></trkpt><trkpt lat="59.3505340442" lon="34.6994864009"><ele>165.42</ele><time>2026-08-14T01:12:04Z</time></trkpt><trkpt lat="59.3505539931" lon="34.6994468383"><ele>166.76</ele><time>2026-08-14T01:12:46Z</time></trkpt><trkpt lat="59.3505566753" lon="34.6994588245"><ele>167.44</ele><time>2026-08-14T01:13:16Z</time></trkpt><trkpt lat="59.3505543284" lon="34.6994646918"><ele>167.74</ele><time>2026-08-14T01:13:46Z</time></trkpt><trkpt lat="59.3505384866" lon="34.6994879097"><ele>168.88</ele><time>2026-08-14T01:14:17Z</time></trkpt><trkpt lat="59.3505356368" lon="34.6994778514"><ele>167.62</ele><time>2026-08-14T01:14:45Z</time></trkpt><trkpt lat="59.3505353853" lon="34.6994654462"><ele>166.47</ele><time>2026-08-14T01:15:32Z</time></trkpt><trkpt lat="59.3505473714" lon="34.6994651109"><ele>166.18</ele><time>2026-08-14T01:16:00Z</time></trkpt><trkpt lat="59.3505872693" lon="34.6995064337"><ele>166.05</ele><time>2026-08-14T01:16:30Z</time></trkpt><trkpt lat="59.3505848385" lon="34.6995220240"><ele>165.88</ele><time>2026-08-14T01:16:59Z</time></trkpt><trkpt lat="59.3505673204" lon="34.6994748339"><ele>165.04</ele><time>2026-08-14T01:17:33Z</time></trkpt><trkpt lat="59.3505524006" lon="34.6994648594"><ele>165.54</ele><time>2026-08-14T01:18:03Z</time></trkpt><trkpt lat="59.3505539931" lon="34.6994300745"><ele>165.57</ele><time>2026-08-14T01:18:35Z</time></trkpt><trkpt lat="59.3505508080" lon="34.6993975528"><ele>165.12</ele><time>2026-08-14T01:19:07Z</time></trkpt><trkpt lat="59.3505606987" lon="34.6993951220"><ele>164.85</ele><time>2026-08-14T01:19:38Z</time></trkpt><trkpt lat="59.3505544960" lon="34.6993985586"><ele>165.27</ele><time>2026-08-14T01:20:13Z</time></trkpt><trkpt lat="59.3505961541" lon="34.6994273085"><ele>164.90</ele><time>2026-08-14T01:20:44Z</time></trkpt><trkpt lat="59.3505497184" lon="34.6994357742"><ele>165.03</ele><time>2026-08-14T01:21:14Z</time></trkpt><trkpt lat="59.3505493831" lon="34.6994389594"><ele>165.22</ele><time>2026-08-14T01:21:46Z</time></trkpt><trkpt lat="59.3505373131" lon="34.6994346846"><ele>163.56</ele><time>2026-08-14T01:23:07Z</time></trkpt><trkpt lat="59.3505395763" lon="34.6994254645"><ele>164.99</ele><time>2026-08-14T01:24:11Z</time></trkpt><trkpt lat="59.3505399115" lon="34.6994273085"><ele>166.21</ele><time>2026-08-14T01:25:23Z</time></trkpt><trkpt lat="59.3505524006" lon="34.6994384564"><ele>166.21</ele><time>2026-08-14T01:26:34Z</time></trkpt><trkpt lat="59.3505330384" lon="34.6994271409"><ele>165.95</ele><time>2026-08-14T01:27:43Z</time></trkpt><trkpt lat="59.3505323678" lon="34.6994092874"><ele>167.16</ele><time>2026-08-14T01:29:16Z</time></trkpt><trkpt lat="59.3505223095" lon="34.6994188428"><ele>166.46</ele><time>2026-08-14T01:30:45Z</time></trkpt><trkpt lat="59.3505229801" lon="34.6994392108"><ele>164.67</ele><time>2026-08-14T01:32:16Z</time></trkpt><trkpt lat="59.3505171128" lon="34.6994404681"><ele>164.01</ele><time>2026-08-14T01:33:13Z</time></trkpt><trkpt lat="59.3505356368" lon="34.6994480118"><ele>162.60</ele><time>2026-08-14T01:33:50Z</time></trkpt><trkpt lat="59.3505556695" lon="34.6994415578"><ele>161.79</ele><time>2026-08-14T01:34:59Z</time></trkpt><trkpt lat="59.3505358882" lon="34.6994041745"><ele>161.59</ele><time>2026-08-14T01:36:13Z</time></trkpt><trkpt lat="59.3505364750" lon="34.6994056832"><ele>162.39</ele><time>2026-08-14T01:37:25Z</time></trkpt><trkpt lat="59.3505254947" lon="34.6994040068"><ele>163.01</ele><time>2026-08-14T01:38:23Z</time></trkpt><trkpt lat="59.3505247403" lon="34.6994257998"><ele>162.61</ele><time>2026-08-14T01:39:29Z</time></trkpt><trkpt lat="59.3505184539" lon="34.6993906796"><ele>162.62</ele><time>2026-08-14T01:40:18Z</time></trkpt><trkpt lat="59.3505147658" lon="34.6993864048"><ele>163.30</ele><time>2026-08-14T01:41:28Z</time></trkpt><trkpt lat="59.3505290989" lon="34.6994239558"><ele>162.88</ele><time>2026-08-14T01:42:42Z</time></trkpt><trkpt lat="59.3505329546" lon="34.6994222794"><ele>163.01</ele><time>2026-08-14T01:43:58Z</time></trkpt><trkpt lat="59.3505119998" lon="34.6993834712"><ele>163.82</ele><time>2026-08-14T01:45:15Z</time></trkpt><trkpt lat="59.3505246565" lon="34.6993983071"><ele>163.96</ele><time>2026-08-14T01:46:31Z</time></trkpt><trkpt lat="59.3505176995" lon="34.6994042583"><ele>163.94</ele><time>2026-08-14T01:47:47Z</time></trkpt><trkpt lat="59.3505252432" lon="34.6994048450"><ele>163.58</ele><time>2026-08-14T01:48:25Z</time></trkpt><trkpt lat="59.3505413365" lon="34.6994070243"><ele>163.64</ele><time>2026-08-14T01:49:34Z</time></trkpt><trkpt lat="59.3505220581" lon="34.6994270571"><ele>163.06</ele><time>2026-08-14T01:50:45Z</time></trkpt><trkpt lat="59.3505162746" lon="34.6993842255"><ele>163.19</ele><time>2026-08-14T01:52:05Z</time></trkpt><trkpt lat="59.3505223934" lon="34.6994085331"><ele>163.01</ele><time>2026-08-14T01:53:10Z</time></trkpt><trkpt lat="59.3505269196" lon="34.6994111314"><ele>161.59</ele><time>2026-08-14T01:54:09Z</time></trkpt><trkpt lat="59.3505283445" lon="34.6994107962"><ele>161.70</ele><time>2026-08-14T01:54:57Z</time></trkpt><trkpt lat="59.3505225610" lon="34.6993944515"><ele>162.43</ele><time>2026-08-14T01:55:27Z</time></trkpt><trkpt lat="59.3505251594" lon="34.6993848123"><ele>163.80</ele><time>2026-08-14T01:56:19Z</time></trkpt><trkpt lat="59.3505400792" lon="34.6994041745"><ele>164.03</ele><time>2026-08-14T01:57:24Z</time></trkpt><trkpt lat="59.3505394086" lon="34.6994172502"><ele>165.12</ele><time>2026-08-14T01:58:27Z</time></trkpt><trkpt lat="59.3505456112" lon="34.6994273923"><ele>165.42</ele><time>2026-08-14T01:59:30Z</time></trkpt><trkpt lat="59.3505506404" lon="34.6994045936"><ele>165.44</ele><time>2026-08-14T02:00:47Z</time></trkpt><trkpt lat="59.3505330384" lon="34.6993831359"><ele>166.22</ele><time>2026-08-14T02:01:24Z</time></trkpt><trkpt lat="59.3505396601" lon="34.6993941162"><ele>166.65</ele><time>2026-08-14T02:01:56Z</time></trkpt><trkpt lat="59.3505140115" lon="34.6993957087"><ele>166.22</ele><time>2026-08-14T02:03:11Z</time></trkpt><trkpt lat="59.3505205493" lon="34.6993983909"><ele>165.07</ele><time>2026-08-14T02:04:34Z</time></trkpt><trkpt lat="59.3505228125" lon="34.6994020790"><ele>164.43</ele><time>2026-08-14T02:05:57Z</time></trkpt><trkpt lat="59.3505322002" lon="34.6994149033"><ele>164.95</ele><time>2026-08-14T02:07:31Z</time></trkpt><trkpt lat="59.3505324516" lon="34.6994209383"><ele>164.01</ele><time>2026-08-14T02:08:42Z</time></trkpt><trkpt lat="59.3505322002" lon="34.6994032525"><ele>163.66</ele><time>2026-08-14T02:10:07Z</time></trkpt><trkpt lat="59.3505213875" lon="34.6993946191"><ele>163.16</ele><time>2026-08-14T02:11:25Z</time></trkpt><trkpt lat="59.3505200464" lon="34.6994000673"><ele>163.06</ele><time>2026-08-14T02:12:10Z</time></trkpt><trkpt lat="59.3505254108" lon="34.6993850637"><ele>163.11</ele><time>2026-08-14T02:13:08Z</time></trkpt><trkpt lat="59.3505362235" lon="34.6994301584"><ele>163.28</ele><time>2026-08-14T02:14:33Z</time></trkpt><trkpt lat="59.3505344633" lon="34.6994271409"><ele>163.62</ele><time>2026-08-14T02:15:49Z</time></trkpt><trkpt lat="59.3505305238" lon="34.6994199324"><ele>163.62</ele><time>2026-08-14T02:16:39Z</time></trkpt><trkpt lat="59.3505306076" lon="34.6993943676"><ele>164.27</ele><time>2026-08-14T02:17:36Z</time></trkpt><trkpt lat="59.3505324516" lon="34.6993853990"><ele>165.46</ele><time>2026-08-14T02:18:36Z</time></trkpt><trkpt lat="59.3505378999" lon="34.6994019952"><ele>165.75</ele><time>2026-08-14T02:19:54Z</time></trkpt><trkpt lat="59.3505265843" lon="34.6994019113"><ele>166.30</ele><time>2026-08-14T02:21:00Z</time></trkpt><trkpt lat="59.3505290151" lon="34.6994051803"><ele>166.32</ele><time>2026-08-14T02:22:00Z</time></trkpt><trkpt lat="59.3505166098" lon="34.6994013246"><ele>167.51</ele><time>2026-08-14T02:23:08Z</time></trkpt><trkpt lat="59.3505020253" lon="34.6993781906"><ele>167.91</ele><time>2026-08-14T02:24:19Z</time></trkpt><trkpt lat="59.3505088147" lon="34.6993877459"><ele>168.48</ele><time>2026-08-14T02:25:34Z</time></trkpt><trkpt lat="59.3505137600" lon="34.6993825492"><ele>169.24</ele><time>2026-08-14T02:27:08Z</time></trkpt><trkpt lat="59.3504986726" lon="34.6993700601"><ele>170.06</ele><time>2026-08-14T02:28:39Z</time></trkpt><trkpt lat="59.3504946493" lon="34.6993822139"><ele>169.87</ele><time>2026-08-14T02:30:05Z</time></trkpt><trkpt lat="59.3505374808" lon="34.6993827168"><ele>169.99</ele><time>2026-08-14T02:31:23Z</time></trkpt><trkpt lat="59.3505364750" lon="34.6993867401"><ele>170.74</ele><time>2026-08-14T02:32:38Z</time></trkpt><trkpt lat="59.3505301047" lon="34.6994116344"><ele>171.69</ele><time>2026-08-14T02:33:49Z</time></trkpt><trkpt lat="59.3505156878" lon="34.6994053479"><ele>172.93</ele><time>2026-08-14T02:35:03Z</time></trkpt><trkpt lat="59.3505318649" lon="34.6994405519"><ele>170.85</ele><time>2026-08-14T02:36:31Z</time></trkpt><trkpt lat="59.3505107425" lon="34.6993830521"><ele>169.47</ele><time>2026-08-14T02:37:44Z</time></trkpt><trkpt lat="59.3505248241" lon="34.6994350199"><ele>169.84</ele><time>2026-08-14T02:39:01Z</time></trkpt><trkpt lat="59.3505255785" lon="34.6994446591"><ele>171.13</ele><time>2026-08-14T02:40:21Z</time></trkpt><trkpt lat="59.3505348824" lon="34.6994363610"><ele>171.37</ele><time>2026-08-14T02:41:23Z</time></trkpt><trkpt lat="59.3505462818" lon="34.6994573157"><ele>171.64</ele><time>2026-08-14T02:42:16Z</time></trkpt><trkpt lat="59.3505486287" lon="34.6994264703"><ele>169.92</ele><time>2026-08-14T02:43:24Z</time></trkpt><trkpt lat="59.3505503889" lon="34.6994465031"><ele>169.00</ele><time>2026-08-14T02:44:24Z</time></trkpt><trkpt lat="59.3505420908" lon="34.6994507778"><ele>168.61</ele><time>2026-08-14T02:45:02Z</time></trkpt><trkpt lat="59.3505173642" lon="34.6994593274"><ele>168.05</ele><time>2026-08-14T02:46:01Z</time></trkpt><trkpt lat="59.3505378999" lon="34.6994400490"><ele>167.36</ele><time>2026-08-14T02:47:18Z</time></trkpt><trkpt lat="59.3505257461" lon="34.6994290687"><ele>167.65</ele><time>2026-08-14T02:48:46Z</time></trkpt><trkpt lat="59.3505306076" lon="34.6994265541"><ele>165.73</ele><time>2026-08-14T02:50:05Z</time></trkpt><trkpt lat="59.3505369779" lon="34.6994558070"><ele>165.97</ele><time>2026-08-14T02:51:18Z</time></trkpt><trkpt lat="59.3505444378" lon="34.6994598303"><ele>165.16</ele><time>2026-08-14T02:52:31Z</time></trkpt><trkpt lat="59.3505309429" lon="34.6994382888"><ele>165.41</ele><time>2026-08-14T02:53:47Z</time></trkpt><trkpt lat="59.3505378999" lon="34.6994552203"><ele>165.87</ele><time>2026-08-14T02:55:15Z</time></trkpt><trkpt lat="59.3505341280" lon="34.6994767617"><ele>165.88</ele><time>2026-08-14T02:56:26Z</time></trkpt><trkpt lat="59.3505234830" lon="34.6994822938"><ele>165.84</ele><time>2026-08-14T02:57:37Z</time></trkpt><trkpt lat="59.3505121674" lon="34.6994430665"><ele>165.74</ele><time>2026-08-14T02:58:48Z</time></trkpt><trkpt lat="59.3504980020" lon="34.6994162444"><ele>165.86</ele><time>2026-08-14T02:59:52Z</time></trkpt><trkpt lat="59.3505124189" lon="34.6994361095"><ele>166.98</ele><time>2026-08-14T03:00:54Z</time></trkpt><trkpt lat="59.3505188730" lon="34.6994675416"><ele>166.73</ele><time>2026-08-14T03:02:02Z</time></trkpt><trkpt lat="59.3505073898" lon="34.6994537953"><ele>165.61</ele><time>2026-08-14T03:02:59Z</time></trkpt><trkpt lat="59.3505094852" lon="34.6994603332"><ele>166.43</ele><time>2026-08-14T03:03:30Z</time></trkpt><trkpt lat="59.3505099881" lon="34.6994641051"><ele>169.67</ele><time>2026-08-14T03:04:37Z</time></trkpt><trkpt lat="59.3505130056" lon="34.6994265541"><ele>168.13</ele><time>2026-08-14T03:05:54Z</time></trkpt><trkpt lat="59.3505151011" lon="34.6994128078"><ele>166.91</ele><time>2026-08-14T03:07:20Z</time></trkpt><trkpt lat="59.3505135085" lon="34.6994260512"><ele>169.47</ele><time>2026-08-14T03:08:39Z</time></trkpt><trkpt lat="59.3505104911" lon="34.6994232014"><ele>171.28</ele><time>2026-08-14T03:10:01Z</time></trkpt><trkpt lat="59.3505064677" lon="34.6994165797"><ele>170.36</ele><time>2026-08-14T03:11:30Z</time></trkpt><trkpt lat="59.3505152687" lon="34.6994081140"><ele>170.18</ele><time>2026-08-14T03:12:40Z</time></trkpt><trkpt lat="59.3505222257" lon="34.6994087007"><ele>169.68</ele><time>2026-08-14T03:13:38Z</time></trkpt><trkpt lat="59.3505365588" lon="34.6994070243"><ele>168.10</ele><time>2026-08-14T03:14:47Z</time></trkpt><trkpt lat="59.3505353853" lon="34.6994058508"><ele>165.83</ele><time>2026-08-14T03:16:04Z</time></trkpt><trkpt lat="59.3505405821" lon="34.6994056832"><ele>165.70</ele><time>2026-08-14T03:17:17Z</time></trkpt><trkpt lat="59.3505470362" lon="34.6994256321"><ele>165.73</ele><time>2026-08-14T03:18:28Z</time></trkpt><trkpt lat="59.3505384028" lon="34.6993967146"><ele>164.37</ele><time>2026-08-14T03:19:39Z</time></trkpt><trkpt lat="59.3505503051" lon="34.6993799508"><ele>166.59</ele><time>2026-08-14T03:20:57Z</time></trkpt><trkpt lat="59.3505333737" lon="34.6993727423"><ele>166.47</ele><time>2026-08-14T03:22:17Z</time></trkpt><trkpt lat="59.3505369779" lon="34.6993988939"><ele>164.81</ele><time>2026-08-14T03:23:37Z</time></trkpt><trkpt lat="59.3505335413" lon="34.6994115505"><ele>164.54</ele><time>2026-08-14T03:24:59Z</time></trkpt><trkpt lat="59.3505236506" lon="34.6994409710"><ele>162.19</ele><time>2026-08-14T03:26:23Z</time></trkpt><trkpt lat="59.3505278416" lon="34.6993959602"><ele>163.00</ele><time>2026-08-14T03:27:46Z</time></trkpt><trkpt lat="59.3505376484" lon="34.6994076110"><ele>162.67</ele><time>2026-08-14T03:29:11Z</time></trkpt><trkpt lat="59.3505186215" lon="34.6994214412"><ele>161.93</ele><time>2026-08-14T03:30:20Z</time></trkpt><trkpt lat="59.3505090661" lon="34.6994337626"><ele>161.36</ele><time>2026-08-14T03:31:25Z</time></trkpt><trkpt lat="59.3505130056" lon="34.6994416416"><ele>160.24</ele><time>2026-08-14T03:32:30Z</time></trkpt><trkpt lat="59.3505283445" lon="34.6994346008"><ele>160.58</ele><time>2026-08-14T03:33:46Z</time></trkpt><trkpt lat="59.3505389895" lon="34.6994703077"><ele>160.75</ele><time>2026-08-14T03:35:06Z</time></trkpt><trkpt lat="59.3505272549" lon="34.6994501911"><ele>160.80</ele><time>2026-08-14T03:36:21Z</time></trkpt><trkpt lat="59.3505250756" lon="34.6994278952"><ele>160.62</ele><time>2026-08-14T03:37:39Z</time></trkpt><trkpt lat="59.3505261652" lon="34.6994516999"><ele>161.47</ele><time>2026-08-14T03:38:55Z</time></trkpt><trkpt lat="59.3505340442" lon="34.6994597465"><ele>161.33</ele><time>2026-08-14T03:40:10Z</time></trkpt><trkpt lat="59.3505229801" lon="34.6994515322"><ele>160.46</ele><time>2026-08-14T03:41:23Z</time></trkpt><trkpt lat="59.3505173642" lon="34.6994544659"><ele>159.50</ele><time>2026-08-14T03:42:37Z</time></trkpt><trkpt lat="59.3505358044" lon="34.6994700562"><ele>158.63</ele><time>2026-08-14T03:43:49Z</time></trkpt><trkpt lat="59.3505456112" lon="34.6994925197"><ele>158.82</ele><time>2026-08-14T03:45:06Z</time></trkpt><trkpt lat="59.3505274225" lon="34.6994499397"><ele>160.11</ele><time>2026-08-14T03:46:28Z</time></trkpt><trkpt lat="59.3505339604" lon="34.6994491015"><ele>162.10</ele><time>2026-08-14T03:47:45Z</time></trkpt><trkpt lat="59.3505362235" lon="34.6994209383"><ele>161.71</ele><time>2026-08-14T03:48:50Z</time></trkpt><trkpt lat="59.3505586870" lon="34.6994602494"><ele>162.08</ele><time>2026-08-14T03:49:56Z</time></trkpt><trkpt lat="59.3505443539" lon="34.6994180046"><ele>162.68</ele><time>2026-08-14T03:51:04Z</time></trkpt><trkpt lat="59.3505508080" lon="34.6994510293"><ele>161.69</ele><time>2026-08-14T03:52:08Z</time></trkpt><trkpt lat="59.3505238183" lon="34.6994527057"><ele>160.95</ele><time>2026-08-14T03:53:18Z</time></trkpt><trkpt lat="59.3505237345" lon="34.6994386241"><ele>159.80</ele><time>2026-08-14T03:54:25Z</time></trkpt><trkpt lat="59.3505244888" lon="34.6994412225"><ele>160.57</ele><time>2026-08-14T03:55:36Z</time></trkpt><trkpt lat="59.3505330384" lon="34.6994564775"><ele>163.06</ele><time>2026-08-14T03:56:38Z</time></trkpt><trkpt lat="59.3505453598" lon="34.6994710620"><ele>163.20</ele><time>2026-08-14T03:57:08Z</time></trkpt><trkpt lat="59.3505153526" lon="34.6994677093"><ele>162.86</ele><time>2026-08-14T03:57:41Z</time></trkpt><trkpt lat="59.3505265843" lon="34.6994620934"><ele>163.27</ele><time>2026-08-14T03:58:49Z</time></trkpt><trkpt lat="59.3505099881" lon="34.6994390432"><ele>160.34</ele><time>2026-08-14T03:59:54Z</time></trkpt><trkpt lat="59.3504973315" lon="34.6994274762"><ele>159.55</ele><time>2026-08-14T04:00:55Z</time></trkpt><trkpt lat="59.3504957389" lon="34.6994362772"><ele>159.36</ele><time>2026-08-14T04:01:35Z</time></trkpt><trkpt lat="59.3505043723" lon="34.6994578186"><ele>159.19</ele><time>2026-08-14T04:02:24Z</time></trkpt><trkpt lat="59.3505221419" lon="34.6994437370"><ele>160.41</ele><time>2026-08-14T04:03:13Z</time></trkpt><trkpt lat="59.3505163584" lon="34.6994356904"><ele>160.74</ele><time>2026-08-14T04:03:42Z</time></trkpt><trkpt lat="59.3505030312" lon="34.6994195972"><ele>162.01</ele><time>2026-08-14T04:04:27Z</time></trkpt><trkpt lat="59.3505150173" lon="34.6994350199"><ele>162.88</ele><time>2026-08-14T04:05:36Z</time></trkpt><trkpt lat="59.3505249079" lon="34.6994219441"><ele>161.65</ele><time>2026-08-14T04:06:45Z</time></trkpt><trkpt lat="59.3505204655" lon="34.6994185075"><ele>161.14</ele><time>2026-08-14T04:08:03Z</time></trkpt><trkpt lat="59.3505166098" lon="34.6994350199"><ele>160.81</ele><time>2026-08-14T04:09:15Z</time></trkpt><trkpt lat="59.3505220581" lon="34.6994428989"><ele>161.58</ele><time>2026-08-14T04:10:23Z</time></trkpt><trkpt lat="59.3505191244" lon="34.6994166635"><ele>161.38</ele><time>2026-08-14T04:11:34Z</time></trkpt><trkpt lat="59.3505325355" lon="34.6994005702"><ele>161.85</ele><time>2026-08-14T04:12:50Z</time></trkpt><trkpt lat="59.3505536579" lon="34.6994213574"><ele>160.91</ele><time>2026-08-14T04:13:44Z</time></trkpt><trkpt lat="59.3505506404" lon="34.6994117182"><ele>160.48</ele><time>2026-08-14T04:14:50Z</time></trkpt><trkpt lat="59.3505549990" lon="34.6994169150"><ele>158.97</ele><time>2026-08-14T04:15:20Z</time></trkpt><trkpt lat="59.3505586870" lon="34.6994614229"><ele>157.57</ele><time>2026-08-14T04:15:49Z</time></trkpt><trkpt lat="59.3505457789" lon="34.6994700562"><ele>157.39</ele><time>2026-08-14T04:16:20Z</time></trkpt><trkpt lat="59.3505487125" lon="34.6994539630"><ele>156.66</ele><time>2026-08-14T04:16:52Z</time></trkpt><trkpt lat="59.3505532388" lon="34.6994553879"><ele>154.06</ele><time>2026-08-14T04:17:25Z</time></trkpt><trkpt lat="59.3505244888" lon="34.6994378697"><ele>153.20</ele><time>2026-08-14T04:18:05Z</time></trkpt><trkpt lat="59.3505175319" lon="34.6994397976"><ele>153.63</ele><time>2026-08-14T04:18:57Z</time></trkpt><trkpt lat="59.3505197112" lon="34.6994330082"><ele>154.49</ele><time>2026-08-14T04:19:33Z</time></trkpt><trkpt lat="59.3505330384" lon="34.6994202677"><ele>154.60</ele><time>2026-08-14T04:20:04Z</time></trkpt><trkpt lat="59.3505168613" lon="34.6994025819"><ele>155.70</ele><time>2026-08-14T04:20:43Z</time></trkpt><trkpt lat="59.3505202141" lon="34.6994130593"><ele>158.30</ele><time>2026-08-14T04:21:18Z</time></trkpt><trkpt lat="59.3505389057" lon="34.6994294878"><ele>161.20</ele><time>2026-08-14T04:22:09Z</time></trkpt><trkpt lat="59.3505342957" lon="34.6994545497"><ele>161.39</ele><time>2026-08-14T04:22:42Z</time></trkpt><trkpt lat="59.3505479582" lon="34.6994835511"><ele>162.02</ele><time>2026-08-14T04:23:16Z</time></trkpt><trkpt lat="59.3505685776" lon="34.6994219441"><ele>160.93</ele><time>2026-08-14T04:23:46Z</time></trkpt><trkpt lat="59.3505503051" lon="34.6994138975"><ele>160.98</ele><time>2026-08-14T04:24:27Z</time></trkpt><trkpt lat="59.3505363911" lon="34.6994026657"><ele>160.11</ele><time>2026-08-14T04:25:23Z</time></trkpt><trkpt lat="59.3505448569" lon="34.6993839741"><ele>159.77</ele><time>2026-08-14T04:26:31Z</time></trkpt><trkpt lat="59.3505572621" lon="34.6993876621"><ele>160.06</ele><time>2026-08-14T04:27:32Z</time></trkpt><trkpt lat="59.3505508080" lon="34.6994043421"><ele>159.08</ele><time>2026-08-14T04:28:18Z</time></trkpt><trkpt lat="59.3505507242" lon="34.6994040068"><ele>157.75</ele><time>2026-08-14T04:29:09Z</time></trkpt><trkpt lat="59.3505645543" lon="34.6993904281"><ele>158.99</ele><time>2026-08-14T04:30:08Z</time></trkpt><trkpt lat="59.3505541608" lon="34.6993957087"><ele>158.37</ele><time>2026-08-14T04:31:05Z</time></trkpt><trkpt lat="59.3505609501" lon="34.6994171664"><ele>156.93</ele><time>2026-08-14T04:32:00Z</time></trkpt><trkpt lat="59.3505567592" lon="34.6994275600"><ele>157.61</ele><time>2026-08-14T04:33:01Z</time></trkpt><trkpt lat="59.3505606987" lon="34.6994059347"><ele>157.42</ele><time>2026-08-14T04:34:01Z</time></trkpt><trkpt lat="59.3505523168" lon="34.6993981395"><ele>157.73</ele><time>2026-08-14T04:35:02Z</time></trkpt><trkpt lat="59.3505578488" lon="34.6993956249"><ele>158.84</ele><time>2026-08-14T04:36:04Z</time></trkpt><trkpt lat="59.3505556695" lon="34.6994151548"><ele>160.07</ele><time>2026-08-14T04:37:06Z</time></trkpt><trkpt lat="59.3505535740" lon="34.6994035877"><ele>160.31</ele><time>2026-08-14T04:37:59Z</time></trkpt><trkpt lat="59.3505570106" lon="34.6994142327"><ele>160.27</ele><time>2026-08-14T04:39:10Z</time></trkpt><trkpt lat="59.3505617045" lon="34.6994181722"><ele>160.23</ele><time>2026-08-14T04:40:16Z</time></trkpt><trkpt lat="59.3505605310" lon="34.6994202677"><ele>160.29</ele><time>2026-08-14T04:41:03Z</time></trkpt><trkpt lat="59.3505580164" lon="34.6994356904"><ele>160.77</ele><time>2026-08-14T04:41:59Z</time></trkpt><trkpt lat="59.3505631294" lon="34.6994312480"><ele>161.59</ele><time>2026-08-14T04:42:46Z</time></trkpt><trkpt lat="59.3505638838" lon="34.6994331758"><ele>160.54</ele><time>2026-08-14T04:43:51Z</time></trkpt><trkpt lat="59.3505606148" lon="34.6994351875"><ele>160.40</ele><time>2026-08-14T04:44:53Z</time></trkpt><trkpt lat="59.3505658116" lon="34.6994195133"><ele>159.98</ele><time>2026-08-14T04:45:38Z</time></trkpt><trkpt lat="59.3505926337" lon="34.6994426474"><ele>159.69</ele><time>2026-08-14T04:46:11Z</time></trkpt><trkpt lat="59.3505736068" lon="34.6994919330"><ele>160.00</ele><time>2026-08-14T04:46:39Z</time></trkpt><trkpt lat="59.3505602796" lon="34.6994721517"><ele>159.36</ele><time>2026-08-14T04:47:21Z</time></trkpt><trkpt lat="59.3505566753" lon="34.6994185075"><ele>159.19</ele><time>2026-08-14T04:48:34Z</time></trkpt><trkpt lat="59.3505453598" lon="34.6994110476"><ele>159.88</ele><time>2026-08-14T04:50:01Z</time></trkpt><trkpt lat="59.3505559210" lon="34.6994050965"><ele>160.06</ele><time>2026-08-14T04:51:17Z</time></trkpt><trkpt lat="59.3505511433" lon="34.6994211059"><ele>160.05</ele><time>2026-08-14T04:52:41Z</time></trkpt><trkpt lat="59.3505568430" lon="34.6994325891"><ele>158.67</ele><time>2026-08-14T04:53:58Z</time></trkpt><trkpt lat="59.3505566753" lon="34.6994169988"><ele>157.80</ele><time>2026-08-14T04:55:10Z</time></trkpt><trkpt lat="59.3505580164" lon="34.6994238719"><ele>158.93</ele><time>2026-08-14T04:56:23Z</time></trkpt><trkpt lat="59.3505476229" lon="34.6993958764"><ele>159.60</ele><time>2026-08-14T04:57:39Z</time></trkpt><trkpt lat="59.3505568430" lon="34.6993978042"><ele>160.54</ele><time>2026-08-14T04:58:59Z</time></trkpt><trkpt lat="59.3505489640" lon="34.6993869916"><ele>160.81</ele><time>2026-08-14T05:00:28Z</time></trkpt><trkpt lat="59.3505493831" lon="34.6994173340"><ele>160.75</ele><time>2026-08-14T05:01:59Z</time></trkpt><trkpt lat="59.3505428452" lon="34.6994050965"><ele>159.55</ele><time>2026-08-14T05:03:24Z</time></trkpt><trkpt lat="59.3505619559" lon="34.6994018275"><ele>160.31</ele><time>2026-08-14T05:04:25Z</time></trkpt><trkpt lat="59.3505552504" lon="34.6994302422"><ele>161.17</ele><time>2026-08-14T05:04:58Z</time></trkpt><trkpt lat="59.3505411688" lon="34.6993943676"><ele>160.61</ele><time>2026-08-14T05:05:31Z</time></trkpt><trkpt lat="59.3505534064" lon="34.6993605047"><ele>160.39</ele><time>2026-08-14T05:06:37Z</time></trkpt><trkpt lat="59.3505513947" lon="34.6993919369"><ele>161.03</ele><time>2026-08-14T05:07:30Z</time></trkpt><trkpt lat="59.3505378999" lon="34.6993788611"><ele>161.64</ele><time>2026-08-14T05:08:39Z</time></trkpt><trkpt lat="59.3505546637" lon="34.6993720718"><ele>161.14</ele><time>2026-08-14T05:09:41Z</time></trkpt><trkpt lat="59.3505487964" lon="34.6993551403"><ele>162.40</ele><time>2026-08-14T05:10:53Z</time></trkpt><trkpt lat="59.3505505566" lon="34.6993627679"><ele>162.24</ele><time>2026-08-14T05:12:16Z</time></trkpt><trkpt lat="59.3505645543" lon="34.6993739996"><ele>161.76</ele><time>2026-08-14T05:13:25Z</time></trkpt><trkpt lat="59.3505610339" lon="34.6993789449"><ele>161.56</ele><time>2026-08-14T05:14:41Z</time></trkpt><trkpt lat="59.3505539093" lon="34.6993719041"><ele>161.06</ele><time>2026-08-14T05:15:31Z</time></trkpt><trkpt lat="59.3505422585" lon="34.6993549727"><ele>161.54</ele><time>2026-08-14T05:16:51Z</time></trkpt><trkpt lat="59.3505452760" lon="34.6993630193"><ele>162.64</ele><time>2026-08-14T05:17:56Z</time></trkpt><trkpt lat="59.3505515624" lon="34.6993533801"><ele>162.02</ele><time>2026-08-14T05:19:06Z</time></trkpt><trkpt lat="59.3505587708" lon="34.6994112991"><ele>160.62</ele><time>2026-08-14T05:20:20Z</time></trkpt><trkpt lat="59.3505575974" lon="34.6994088683"><ele>159.37</ele><time>2026-08-14T05:21:31Z</time></trkpt><trkpt lat="59.3505606148" lon="34.6994045097"><ele>158.52</ele><time>2026-08-14T05:22:43Z</time></trkpt><trkpt lat="59.3505506404" lon="34.6993910987"><ele>159.87</ele><time>2026-08-14T05:23:47Z</time></trkpt><trkpt lat="59.3505380675" lon="34.6993957926"><ele>159.96</ele><time>2026-08-14T05:24:38Z</time></trkpt><trkpt lat="59.3505702540" lon="34.6993565653"><ele>160.33</ele><time>2026-08-14T05:25:19Z</time></trkpt><trkpt lat="59.3505834974" lon="34.6993570682"><ele>160.97</ele><time>2026-08-14T05:26:13Z</time></trkpt><trkpt lat="59.3505661469" lon="34.6993530449"><ele>162.17</ele><time>2026-08-14T05:26:53Z</time></trkpt><trkpt lat="59.3505603634" lon="34.6993828844"><ele>162.96</ele><time>2026-08-14T05:27:57Z</time></trkpt><trkpt lat="59.3505602796" lon="34.6993889194"><ele>162.94</ele><time>2026-08-14T05:29:00Z</time></trkpt><trkpt lat="59.3505500536" lon="34.6993764304"><ele>161.93</ele><time>2026-08-14T05:30:06Z</time></trkpt><trkpt lat="59.3505645543" lon="34.6993865725"><ele>162.34</ele><time>2026-08-14T05:31:00Z</time></trkpt><trkpt lat="59.3505744450" lon="34.6993844770"><ele>161.77</ele><time>2026-08-14T05:32:02Z</time></trkpt><trkpt lat="59.3505604472" lon="34.6994097065"><ele>164.59</ele><time>2026-08-14T05:33:18Z</time></trkpt><trkpt lat="59.3505601119" lon="34.6993882488"><ele>166.00</ele><time>2026-08-14T05:34:38Z</time></trkpt><trkpt lat="59.3505501375" lon="34.6993746702"><ele>167.75</ele><time>2026-08-14T05:35:52Z</time></trkpt><trkpt lat="59.3505725171" lon="34.6993824653"><ele>168.27</ele><time>2026-08-14T05:37:06Z</time></trkpt><trkpt lat="59.3505585194" lon="34.6993942838"><ele>169.04</ele><time>2026-08-14T05:38:17Z</time></trkpt><trkpt lat="59.3505694158" lon="34.6994033363"><ele>167.68</ele><time>2026-08-14T05:39:00Z</time></trkpt><trkpt lat="59.3505648896" lon="34.6993973851"><ele>165.85</ele><time>2026-08-14T05:39:31Z</time></trkpt><trkpt lat="59.3505814858" lon="34.6994138137"><ele>164.15</ele><time>2026-08-14T05:40:03Z</time></trkpt><trkpt lat="59.3505888619" lon="34.6994218603"><ele>162.82</ele><time>2026-08-14T05:40:34Z</time></trkpt><trkpt lat="59.3505649734" lon="34.6994356904"><ele>161.69</ele><time>2026-08-14T05:41:47Z</time></trkpt><trkpt lat="59.3505865149" lon="34.6994127240"><ele>160.13</ele><time>2026-08-14T05:42:21Z</time></trkpt><trkpt lat="59.3505707569" lon="34.6994193457"><ele>159.42</ele><time>2026-08-14T05:42:54Z</time></trkpt><trkpt lat="59.3505753670" lon="34.6994203515"><ele>159.49</ele><time>2026-08-14T05:43:26Z</time></trkpt><trkpt lat="59.3505711760" lon="34.6994225308"><ele>159.29</ele><time>2026-08-14T05:44:06Z</time></trkpt><trkpt lat="59.3505777139" lon="34.6994160768"><ele>158.65</ele><time>2026-08-14T05:44:43Z</time></trkpt><trkpt lat="59.3505917117" lon="34.6993858181"><ele>158.31</ele><time>2026-08-14T05:45:14Z</time></trkpt><trkpt lat="59.3506026920" lon="34.6993586607"><ele>158.07</ele><time>2026-08-14T05:45:44Z</time></trkpt><trkpt lat="59.3505791388" lon="34.6994025819"><ele>157.01</ele><time>2026-08-14T05:46:18Z</time></trkpt><trkpt lat="59.3505962379" lon="34.6994004026"><ele>158.70</ele><time>2026-08-14T05:47:24Z</time></trkpt><trkpt lat="59.3505813181" lon="34.6993963793"><ele>160.00</ele><time>2026-08-14T05:48:13Z</time></trkpt><trkpt lat="59.3505800609" lon="34.6993957926"><ele>159.87</ele><time>2026-08-14T05:49:05Z</time></trkpt><trkpt lat="59.3505732715" lon="34.6994092036"><ele>160.47</ele><time>2026-08-14T05:50:03Z</time></trkpt><trkpt lat="59.3505746964" lon="34.6994206030"><ele>161.39</ele><time>2026-08-14T05:51:14Z</time></trkpt><trkpt lat="59.3505615368" lon="34.6994114667"><ele>161.90</ele><time>2026-08-14T05:52:26Z</time></trkpt><trkpt lat="59.3505715113" lon="34.6993926074"><ele>161.94</ele><time>2026-08-14T05:53:23Z</time></trkpt><trkpt lat="59.3505638838" lon="34.6993838903"><ele>162.38</ele><time>2026-08-14T05:54:39Z</time></trkpt><trkpt lat="59.3505643029" lon="34.6993776876"><ele>163.09</ele><time>2026-08-14T05:55:48Z</time></trkpt><trkpt lat="59.3505584355" lon="34.6993853990"><ele>163.24</ele><time>2026-08-14T05:57:01Z</time></trkpt><trkpt lat="59.3505573459" lon="34.6993914340"><ele>162.72</ele><time>2026-08-14T05:58:18Z</time></trkpt><trkpt lat="59.3505590223" lon="34.6994109638"><ele>162.44</ele><time>2026-08-14T05:59:38Z</time></trkpt><trkpt lat="59.3505495507" lon="34.6994076949"><ele>163.18</ele><time>2026-08-14T06:00:57Z</time></trkpt><trkpt lat="59.3505500536" lon="34.6994125564"><ele>162.30</ele><time>2026-08-14T06:02:06Z</time></trkpt><trkpt lat="59.3505468685" lon="34.6994341817"><ele>161.21</ele><time>2026-08-14T06:03:18Z</time></trkpt><trkpt lat="59.3505485449" lon="34.6994419768"><ele>161.07</ele><time>2026-08-14T06:04:36Z</time></trkpt><trkpt lat="59.3505572621" lon="34.6994449943"><ele>162.16</ele><time>2026-08-14T06:06:02Z</time></trkpt><trkpt lat="59.3505653925" lon="34.6994237881"><ele>161.86</ele><time>2026-08-14T06:07:22Z</time></trkpt><trkpt lat="59.3505651411" lon="34.6994168311"><ele>162.65</ele><time>2026-08-14T06:08:35Z</time></trkpt><trkpt lat="59.3505587708" lon="34.6994232014"><ele>163.50</ele><time>2026-08-14T06:09:53Z</time></trkpt><trkpt lat="59.3505653087" lon="34.6994220279"><ele>161.63</ele><time>2026-08-14T06:11:17Z</time></trkpt><trkpt lat="59.3505598605" lon="34.6993998997"><ele>160.12</ele><time>2026-08-14T06:12:40Z</time></trkpt><trkpt lat="59.3505643029" lon="34.6994035039"><ele>158.90</ele><time>2026-08-14T06:13:54Z</time></trkpt><trkpt lat="59.3505685776" lon="34.6993932780"><ele>157.34</ele><time>2026-08-14T06:15:14Z</time></trkpt><trkpt lat="59.3505565915" lon="34.6994219441"><ele>157.11</ele><time>2026-08-14T06:16:27Z</time></trkpt><trkpt lat="59.3505500536" lon="34.6994125564"><ele>156.63</ele><time>2026-08-14T06:17:15Z</time></trkpt><trkpt lat="59.3505528197" lon="34.6994155739"><ele>156.51</ele><time>2026-08-14T06:17:49Z</time></trkpt><trkpt lat="59.3505483773" lon="34.6994527057"><ele>156.35</ele><time>2026-08-14T06:18:20Z</time></trkpt><trkpt lat="59.3505477067" lon="34.6994486824"><ele>157.53</ele><time>2026-08-14T06:19:06Z</time></trkpt><trkpt lat="59.3505481258" lon="34.6994241234"><ele>158.40</ele><time>2026-08-14T06:19:36Z</time></trkpt><trkpt lat="59.3505667336" lon="34.6993766818"><ele>158.67</ele><time>2026-08-14T06:20:18Z</time></trkpt><trkpt lat="59.3505475391" lon="34.6994059347"><ele>159.49</ele><time>2026-08-14T06:21:10Z</time></trkpt><trkpt lat="59.3505627103" lon="34.6994321700"><ele>158.93</ele><time>2026-08-14T06:21:49Z</time></trkpt><trkpt lat="59.3505613692" lon="34.6994202677"><ele>159.07</ele><time>2026-08-14T06:22:49Z</time></trkpt><trkpt lat="59.3505462818" lon="34.6994168311"><ele>159.25</ele><time>2026-08-14T06:24:07Z</time></trkpt><trkpt lat="59.3505591899" lon="34.6994145680"><ele>159.40</ele><time>2026-08-14T06:25:26Z</time></trkpt><trkpt lat="59.3505500536" lon="34.6994030848"><ele>159.88</ele><time>2026-08-14T06:26:37Z</time></trkpt><trkpt lat="59.3505536579" lon="34.6994040906"><ele>158.79</ele><time>2026-08-14T06:27:41Z</time></trkpt><trkpt lat="59.3505546637" lon="34.6993997321"><ele>158.39</ele><time>2026-08-14T06:28:17Z</time></trkpt><trkpt lat="59.3505741097" lon="34.6993937809"><ele>158.83</ele><time>2026-08-14T06:28:49Z</time></trkpt><trkpt lat="59.3505787198" lon="34.6994103771"><ele>159.48</ele><time>2026-08-14T06:29:22Z</time></trkpt><trkpt lat="59.3505826592" lon="34.6994255483"><ele>160.54</ele><time>2026-08-14T06:29:52Z</time></trkpt><trkpt lat="59.3505832460" lon="34.6994170826"><ele>161.33</ele><time>2026-08-14T06:30:31Z</time></trkpt><trkpt lat="59.3505808152" lon="34.6993963793"><ele>162.08</ele><time>2026-08-14T06:31:03Z</time></trkpt><trkpt lat="59.3505589385" lon="34.6993843094"><ele>163.41</ele><time>2026-08-14T06:31:34Z</time></trkpt><trkpt lat="59.3505511433" lon="34.6993791126"><ele>164.07</ele><time>2026-08-14T06:32:06Z</time></trkpt><trkpt lat="59.3505530711" lon="34.6993896738"><ele>164.00</ele><time>2026-08-14T06:32:38Z</time></trkpt><trkpt lat="59.3505731039" lon="34.6993823815"><ele>163.94</ele><time>2026-08-14T06:33:10Z</time></trkpt><trkpt lat="59.3505557533" lon="34.6993658692"><ele>162.90</ele><time>2026-08-14T06:33:41Z</time></trkpt><trkpt lat="59.3505630456" lon="34.6993926913"><ele>162.33</ele><time>2026-08-14T06:34:11Z</time></trkpt><trkpt lat="59.3505623750" lon="34.6994137298"><ele>162.58</ele><time>2026-08-14T06:34:40Z</time></trkpt><trkpt lat="59.3505695835" lon="34.6993969660"><ele>163.13</ele><time>2026-08-14T06:35:15Z</time></trkpt><trkpt lat="59.3505990878" lon="34.6993881650"><ele>162.93</ele><time>2026-08-14T06:35:46Z</time></trkpt><trkpt lat="59.3506072182" lon="34.6993890870"><ele>162.70</ele><time>2026-08-14T06:36:21Z</time></trkpt><trkpt lat="59.3505719304" lon="34.6994023304"><ele>162.20</ele><time>2026-08-14T06:36:52Z</time></trkpt><trkpt lat="59.3505599443" lon="34.6993982233"><ele>162.25</ele><time>2026-08-14T06:37:24Z</time></trkpt><trkpt lat="59.3505751155" lon="34.6994033363"><ele>163.15</ele><time>2026-08-14T06:37:53Z</time></trkpt><trkpt lat="59.3505753670" lon="34.6993933618"><ele>163.99</ele><time>2026-08-14T06:38:25Z</time></trkpt><trkpt lat="59.3505812343" lon="34.6994209383"><ele>163.71</ele><time>2026-08-14T06:39:31Z</time></trkpt><trkpt lat="59.3505666498" lon="34.6993898414"><ele>163.40</ele><time>2026-08-14T06:40:13Z</time></trkpt><trkpt lat="59.3505519815" lon="34.6993771847"><ele>163.12</ele><time>2026-08-14T06:41:13Z</time></trkpt><trkpt lat="59.3505624589" lon="34.6993789449"><ele>163.73</ele><time>2026-08-14T06:42:13Z</time></trkpt><trkpt lat="59.3505627941" lon="34.6993866563"><ele>163.79</ele><time>2026-08-14T06:43:19Z</time></trkpt><trkpt lat="59.3505542446" lon="34.6993904281"><ele>163.39</ele><time>2026-08-14T06:44:25Z</time></trkpt><trkpt lat="59.3505615368" lon="34.6994145680"><ele>163.77</ele><time>2026-08-14T06:45:48Z</time></trkpt><trkpt lat="59.3505565077" lon="34.6993916854"><ele>163.80</ele><time>2026-08-14T06:46:51Z</time></trkpt><trkpt lat="59.3505545799" lon="34.6993865725"><ele>164.58</ele><time>2026-08-14T06:47:53Z</time></trkpt><trkpt lat="59.3505598605" lon="34.6993869916"><ele>163.83</ele><time>2026-08-14T06:48:50Z</time></trkpt><trkpt lat="59.3505461980" lon="34.6993905958"><ele>164.06</ele><time>2026-08-14T06:49:32Z</time></trkpt><trkpt lat="59.3505567592" lon="34.6993778553"><ele>164.26</ele><time>2026-08-14T06:50:31Z</time></trkpt><trkpt lat="59.3505513947" lon="34.6993688866"><ele>165.54</ele><time>2026-08-14T06:51:02Z</time></trkpt><trkpt lat="59.3505481258" lon="34.6993912663"><ele>165.82</ele><time>2026-08-14T06:52:05Z</time></trkpt><trkpt lat="59.3505529873" lon="34.6993941162"><ele>166.20</ele><time>2026-08-14T06:53:08Z</time></trkpt><trkpt lat="59.3505583517" lon="34.6993734967"><ele>167.26</ele><time>2026-08-14T06:54:18Z</time></trkpt><trkpt lat="59.3505800609" lon="34.6993898414"><ele>168.14</ele><time>2026-08-14T06:55:11Z</time></trkpt><trkpt lat="59.3505818211" lon="34.6993729100"><ele>168.74</ele><time>2026-08-14T06:56:22Z</time></trkpt><trkpt lat="59.3505763728" lon="34.6993817110"><ele>168.72</ele><time>2026-08-14T06:57:21Z</time></trkpt><trkpt lat="59.3505811505" lon="34.6993914340"><ele>169.52</ele><time>2026-08-14T06:57:54Z</time></trkpt><trkpt lat="59.3505553342" lon="34.6993683837"><ele>169.33</ele><time>2026-08-14T06:58:20Z</time></trkpt><trkpt lat="59.3505778816" lon="34.6993959602"><ele>169.14</ele><time>2026-08-14T06:58:57Z</time></trkpt><trkpt lat="59.3505759537" lon="34.6993910987"><ele>169.28</ele><time>2026-08-14T06:59:55Z</time></trkpt><trkpt lat="59.3505605310" lon="34.6993658692"><ele>167.60</ele><time>2026-08-14T07:00:23Z</time></trkpt><trkpt lat="59.3505473714" lon="34.6993622649"><ele>167.35</ele><time>2026-08-14T07:01:06Z</time></trkpt><trkpt lat="59.3505573459" lon="34.6993920207"><ele>167.29</ele><time>2026-08-14T07:01:34Z</time></trkpt><trkpt lat="59.3505511433" lon="34.6994096227"><ele>166.87</ele><time>2026-08-14T07:02:03Z</time></trkpt><trkpt lat="59.3505679909" lon="34.6994148195"><ele>166.94</ele><time>2026-08-14T07:02:35Z</time></trkpt><trkpt lat="59.3505719304" lon="34.6994185913"><ele>167.79</ele><time>2026-08-14T07:03:07Z</time></trkpt><trkpt lat="59.3505686615" lon="34.6994147357"><ele>168.41</ele><time>2026-08-14T07:03:39Z</time></trkpt><trkpt lat="59.3505487964" lon="34.6994095389"><ele>167.18</ele><time>2026-08-14T07:04:09Z</time></trkpt><trkpt lat="59.3505025283" lon="34.6993923560"><ele>166.21</ele><time>2026-08-14T07:04:40Z</time></trkpt><trkpt lat="59.3505197950" lon="34.6993791126"><ele>166.09</ele><time>2026-08-14T07:05:08Z</time></trkpt><trkpt lat="59.3505229801" lon="34.6993450820"><ele>166.08</ele><time>2026-08-14T07:05:39Z</time></trkpt><trkpt lat="59.3505638000" lon="34.6993847284"><ele>167.58</ele><time>2026-08-14T07:06:07Z</time></trkpt><trkpt lat="59.3505697511" lon="34.6993800346"><ele>168.43</ele><time>2026-08-14T07:06:39Z</time></trkpt><trkpt lat="59.3506006803" lon="34.6993762627"><ele>168.49</ele><time>2026-08-14T07:07:07Z</time></trkpt><trkpt lat="59.3505811505" lon="34.6993729938"><ele>169.41</ele><time>2026-08-14T07:07:35Z</time></trkpt><trkpt lat="59.3505570106" lon="34.6993504465"><ele>168.67</ele><time>2026-08-14T07:08:06Z</time></trkpt><trkpt lat="59.3505850062" lon="34.6993833873"><ele>168.93</ele><time>2026-08-14T07:08:36Z</time></trkpt><trkpt lat="59.3505684100" lon="34.6993888356"><ele>168.33</ele><time>2026-08-14T07:09:09Z</time></trkpt><trkpt lat="59.3505532388" lon="34.6993827168"><ele>168.54</ele><time>2026-08-14T07:09:38Z</time></trkpt><trkpt lat="59.3505309429" lon="34.6993731614"><ele>167.60</ele><time>2026-08-14T07:10:12Z</time></trkpt><trkpt lat="59.3505198788" lon="34.6993643604"><ele>167.36</ele><time>2026-08-14T07:10:44Z</time></trkpt><trkpt lat="59.3505380675" lon="34.6993862372"><ele>167.46</ele><time>2026-08-14T07:11:16Z</time></trkpt><trkpt lat="59.3505517300" lon="34.6993766818"><ele>167.09</ele><time>2026-08-14T07:11:47Z</time></trkpt><trkpt lat="59.3505519815" lon="34.6993820462"><ele>166.39</ele><time>2026-08-14T07:12:17Z</time></trkpt><trkpt lat="59.3505508918" lon="34.6993767656"><ele>165.40</ele><time>2026-08-14T07:12:49Z</time></trkpt><trkpt lat="59.3505813181" lon="34.6994083654"><ele>166.27</ele><time>2026-08-14T07:13:20Z</time></trkpt><trkpt lat="59.3505769596" lon="34.6993965469"><ele>166.10</ele><time>2026-08-14T07:13:50Z</time></trkpt><trkpt lat="59.3505732715" lon="34.6993766818"><ele>166.11</ele><time>2026-08-14T07:14:22Z</time></trkpt><trkpt lat="59.3505757023" lon="34.6993643604"><ele>167.11</ele><time>2026-08-14T07:14:52Z</time></trkpt><trkpt lat="59.3505598605" lon="34.6993214451"><ele>167.39</ele><time>2026-08-14T07:15:22Z</time></trkpt><trkpt lat="59.3505503889" lon="34.6993478481"><ele>166.82</ele><time>2026-08-14T07:15:54Z</time></trkpt><trkpt lat="59.3505403306" lon="34.6993683837"><ele>165.09</ele><time>2026-08-14T07:16:21Z</time></trkpt><trkpt lat="59.3504931405" lon="34.6993884165"><ele>164.35</ele><time>2026-08-14T07:16:53Z</time></trkpt><trkpt lat="59.3505027797" lon="34.6993715689"><ele>163.40</ele><time>2026-08-14T07:17:24Z</time></trkpt><trkpt lat="59.3504844233" lon="34.6993625164"><ele>163.20</ele><time>2026-08-14T07:17:54Z</time></trkpt><trkpt lat="59.3504871894" lon="34.6993685514"><ele>163.67</ele><time>2026-08-14T07:18:25Z</time></trkpt><trkpt lat="59.3504858483" lon="34.6993370354"><ele>163.96</ele><time>2026-08-14T07:18:59Z</time></trkpt><trkpt lat="59.3505118322" lon="34.6993662044"><ele>164.20</ele><time>2026-08-14T07:19:32Z</time></trkpt><trkpt lat="59.3505384866" lon="34.6993605886"><ele>165.18</ele><time>2026-08-14T07:20:04Z</time></trkpt><trkpt lat="59.3505135924" lon="34.6993528772"><ele>165.34</ele><time>2026-08-14T07:20:37Z</time></trkpt><trkpt lat="59.3505161069" lon="34.6993555594"><ele>165.80</ele><time>2026-08-14T07:21:07Z</time></trkpt><trkpt lat="59.3505366426" lon="34.6993557271"><ele>164.32</ele><time>2026-08-14T07:21:41Z</time></trkpt><trkpt lat="59.3505274225" lon="34.6993609238"><ele>165.42</ele><time>2026-08-14T07:22:15Z</time></trkpt><trkpt lat="59.3505412526" lon="34.6993760951"><ele>165.60</ele><time>2026-08-14T07:22:50Z</time></trkpt><trkpt lat="59.3505324516" lon="34.6993836388"><ele>166.28</ele><time>2026-08-14T07:23:26Z</time></trkpt><trkpt lat="59.3505556695" lon="34.6993885003"><ele>165.29</ele><time>2026-08-14T07:23:54Z</time></trkpt><trkpt lat="59.3505469523" lon="34.6993663721"><ele>165.11</ele><time>2026-08-14T07:24:25Z</time></trkpt><trkpt lat="59.3505404983" lon="34.6993664559"><ele>165.00</ele><time>2026-08-14T07:24:57Z</time></trkpt><trkpt lat="59.3505187053" lon="34.6993758436"><ele>164.96</ele><time>2026-08-14T07:25:27Z</time></trkpt><trkpt lat="59.3505202141" lon="34.6993916016"><ele>166.31</ele><time>2026-08-14T07:25:58Z</time></trkpt><trkpt lat="59.3505461980" lon="34.6994030010"><ele>166.76</ele><time>2026-08-14T07:26:32Z</time></trkpt><trkpt lat="59.3505610339" lon="34.6993853990"><ele>166.04</ele><time>2026-08-14T07:27:04Z</time></trkpt><trkpt lat="59.3505524844" lon="34.6993712336"><ele>165.15</ele><time>2026-08-14T07:27:36Z</time></trkpt><trkpt lat="59.3505370617" lon="34.6993906796"><ele>165.71</ele><time>2026-08-14T07:28:05Z</time></trkpt><trkpt lat="59.3505507242" lon="34.6993997321"><ele>165.55</ele><time>2026-08-14T07:28:33Z</time></trkpt><trkpt lat="59.3505581003" lon="34.6994083654"><ele>167.62</ele><time>2026-08-14T07:29:04Z</time></trkpt><trkpt lat="59.3505618721" lon="34.6994211059"><ele>168.00</ele><time>2026-08-14T07:29:33Z</time></trkpt><trkpt lat="59.3505699188" lon="34.6993995644"><ele>169.32</ele><time>2026-08-14T07:30:04Z</time></trkpt><trkpt lat="59.3505733553" lon="34.6994005702"><ele>169.36</ele><time>2026-08-14T07:30:37Z</time></trkpt><trkpt lat="59.3505525682" lon="34.6994160768"><ele>169.60</ele><time>2026-08-14T07:31:10Z</time></trkpt><trkpt lat="59.3505675718" lon="34.6994382888"><ele>167.36</ele><time>2026-08-14T07:31:46Z</time></trkpt><trkpt lat="59.3505557533" lon="34.6994428150"><ele>166.35</ele><time>2026-08-14T07:32:25Z</time></trkpt><trkpt lat="59.3505572621" lon="34.6994060185"><ele>165.15</ele><time>2026-08-14T07:33:02Z</time></trkpt><trkpt lat="59.3505721819" lon="34.6994088683"><ele>165.25</ele><time>2026-08-14T07:33:37Z</time></trkpt><trkpt lat="59.3505479582" lon="34.6993770171"><ele>163.90</ele><time>2026-08-14T07:34:08Z</time></trkpt><trkpt lat="59.3505369779" lon="34.6994030010"><ele>162.19</ele><time>2026-08-14T07:34:45Z</time></trkpt><trkpt lat="59.3505305238" lon="34.6993686352"><ele>161.26</ele><time>2026-08-14T07:35:15Z</time></trkpt><trkpt lat="59.3505392410" lon="34.6994109638"><ele>162.16</ele><time>2026-08-14T07:35:54Z</time></trkpt><trkpt lat="59.3505503889" lon="34.6993815433"><ele>163.11</ele><time>2026-08-14T07:36:24Z</time></trkpt><trkpt lat="59.3505581841" lon="34.6993748378"><ele>164.22</ele><time>2026-08-14T07:37:01Z</time></trkpt><trkpt lat="59.3505489640" lon="34.6993956249"><ele>164.44</ele><time>2026-08-14T07:37:32Z</time></trkpt><trkpt lat="59.3505491316" lon="34.6994027495"><ele>163.77</ele><time>2026-08-14T07:38:11Z</time></trkpt><trkpt lat="59.3505448569" lon="34.6993718203"><ele>164.37</ele><time>2026-08-14T07:39:08Z</time></trkpt><trkpt lat="59.3505380675" lon="34.6993846446"><ele>163.85</ele><time>2026-08-14T07:40:05Z</time></trkpt><trkpt lat="59.3505255785" lon="34.6993622649"><ele>163.38</ele><time>2026-08-14T07:41:05Z</time></trkpt><trkpt lat="59.3505202979" lon="34.6993638575"><ele>163.35</ele><time>2026-08-14T07:42:04Z</time></trkpt><trkpt lat="59.3505204655" lon="34.6993837226"><ele>162.72</ele><time>2026-08-14T07:43:03Z</time></trkpt><trkpt lat="59.3505339604" lon="34.6993800346"><ele>162.52</ele><time>2026-08-14T07:44:04Z</time></trkpt><trkpt lat="59.3505394924" lon="34.6993658692"><ele>163.24</ele><time>2026-08-14T07:45:09Z</time></trkpt><trkpt lat="59.3505332898" lon="34.6993860696"><ele>160.77</ele><time>2026-08-14T07:46:23Z</time></trkpt><trkpt lat="59.3505301885" lon="34.6993739996"><ele>161.07</ele><time>2026-08-14T07:47:27Z</time></trkpt><trkpt lat="59.3505205493" lon="34.6993509494"><ele>162.02</ele><time>2026-08-14T07:48:31Z</time></trkpt><trkpt lat="59.3505206332" lon="34.6993817110"><ele>161.78</ele><time>2026-08-14T07:49:36Z</time></trkpt><trkpt lat="59.3505265005" lon="34.6993860696"><ele>161.69</ele><time>2026-08-14T07:50:37Z</time></trkpt><trkpt lat="59.3505314458" lon="34.6993875783"><ele>161.89</ele><time>2026-08-14T07:51:43Z</time></trkpt><trkpt lat="59.3505259138" lon="34.6993942838"><ele>163.13</ele><time>2026-08-14T07:52:44Z</time></trkpt><trkpt lat="59.3505170289" lon="34.6994042583"><ele>163.79</ele><time>2026-08-14T07:53:48Z</time></trkpt><trkpt lat="59.3505265005" lon="34.6993978880"><ele>164.74</ele><time>2026-08-14T07:54:48Z</time></trkpt><trkpt lat="59.3505219743" lon="34.6993702278"><ele>163.14</ele><time>2026-08-14T07:55:50Z</time></trkpt><trkpt lat="59.3505162746" lon="34.6993670426"><ele>163.09</ele><time>2026-08-14T07:57:00Z</time></trkpt><trkpt lat="59.3505393248" lon="34.6993680485"><ele>163.55</ele><time>2026-08-14T07:57:47Z</time></trkpt><trkpt lat="59.3505549990" lon="34.6994088683"><ele>164.22</ele><time>2026-08-14T07:58:18Z</time></trkpt><trkpt lat="59.3505257461" lon="34.6993603371"><ele>163.29</ele><time>2026-08-14T07:58:51Z</time></trkpt><trkpt lat="59.3505161908" lon="34.6993841417"><ele>163.01</ele><time>2026-08-14T07:59:20Z</time></trkpt><trkpt lat="59.3505281769" lon="34.6993600018"><ele>162.54</ele><time>2026-08-14T07:59:54Z</time></trkpt><trkpt lat="59.3505125865" lon="34.6993858181"><ele>162.03</ele><time>2026-08-14T08:00:22Z</time></trkpt><trkpt lat="59.3505178671" lon="34.6994024143"><ele>161.42</ele><time>2026-08-14T08:00:52Z</time></trkpt><trkpt lat="59.3505160231" lon="34.6994175017"><ele>161.76</ele><time>2026-08-14T08:01:23Z</time></trkpt><trkpt lat="59.3505145144" lon="34.6994061861"><ele>162.26</ele><time>2026-08-14T08:01:53Z</time></trkpt><trkpt lat="59.3505021930" lon="34.6993904281"><ele>162.69</ele><time>2026-08-14T08:02:24Z</time></trkpt><trkpt lat="59.3505208008" lon="34.6993883327"><ele>162.20</ele><time>2026-08-14T08:02:56Z</time></trkpt><trkpt lat="59.3505212199" lon="34.6993671264"><ele>162.39</ele><time>2026-08-14T08:03:27Z</time></trkpt><trkpt lat="59.3505201302" lon="34.6993733291"><ele>160.57</ele><time>2026-08-14T08:04:00Z</time></trkpt><trkpt lat="59.3505120836" lon="34.6993764304"><ele>160.64</ele><time>2026-08-14T08:05:09Z</time></trkpt><trkpt lat="59.3505263329" lon="34.6993711498"><ele>159.57</ele><time>2026-08-14T08:06:21Z</time></trkpt><trkpt lat="59.3505145982" lon="34.6993858181"><ele>159.70</ele><time>2026-08-14T08:07:00Z</time></trkpt><trkpt lat="59.3505203817" lon="34.6993812080"><ele>159.46</ele><time>2026-08-14T08:07:31Z</time></trkpt><trkpt lat="59.3505305238" lon="34.6993699763"><ele>158.71</ele><time>2026-08-14T08:08:01Z</time></trkpt><trkpt lat="59.3505138438" lon="34.6993617620"><ele>159.13</ele><time>2026-08-14T08:08:34Z</time></trkpt><trkpt lat="59.3504974991" lon="34.6994081140"><ele>161.99</ele><time>2026-08-14T08:09:02Z</time></trkpt><trkpt lat="59.3504758738" lon="34.6994316671"><ele>162.83</ele><time>2026-08-14T08:09:31Z</time></trkpt><trkpt lat="59.3504977506" lon="34.6994452458"><ele>164.46</ele><time>2026-08-14T08:10:00Z</time></trkpt><trkpt lat="59.3505087309" lon="34.6994357742"><ele>163.99</ele><time>2026-08-14T08:10:37Z</time></trkpt><trkpt lat="59.3504982535" lon="34.6994161606"><ele>162.75</ele><time>2026-08-14T08:11:12Z</time></trkpt><trkpt lat="59.3505112454" lon="34.6994143166"><ele>162.10</ele><time>2026-08-14T08:11:44Z</time></trkpt><trkpt lat="59.3505313620" lon="34.6993865725"><ele>161.41</ele><time>2026-08-14T08:12:17Z</time></trkpt><trkpt lat="59.3505260814" lon="34.6993792802"><ele>161.21</ele><time>2026-08-14T08:12:48Z</time></trkpt><trkpt lat="59.3505208846" lon="34.6993947029"><ele>160.13</ele><time>2026-08-14T08:13:19Z</time></trkpt><trkpt lat="59.3505156878" lon="34.6993694734"><ele>160.39</ele><time>2026-08-14T08:13:45Z</time></trkpt><trkpt lat="59.3505130894" lon="34.6993801184"><ele>160.97</ele><time>2026-08-14T08:14:14Z</time></trkpt><trkpt lat="59.3505283445" lon="34.6993914340"><ele>160.32</ele><time>2026-08-14T08:14:55Z</time></trkpt><trkpt lat="59.3505351339" lon="34.6994083654"><ele>160.44</ele><time>2026-08-14T08:15:50Z</time></trkpt><trkpt lat="59.3505452760" lon="34.6994042583"><ele>160.29</ele><time>2026-08-14T08:16:41Z</time></trkpt><trkpt lat="59.3505309429" lon="34.6994080301"><ele>159.89</ele><time>2026-08-14T08:17:54Z</time></trkpt><trkpt lat="59.3505232316" lon="34.6994169150"><ele>157.99</ele><time>2026-08-14T08:19:15Z</time></trkpt><trkpt lat="59.3505241536" lon="34.6994002350"><ele>157.50</ele><time>2026-08-14T08:20:36Z</time></trkpt><trkpt lat="59.3505185377" lon="34.6994079463"><ele>156.97</ele><time>2026-08-14T08:21:57Z</time></trkpt><trkpt lat="59.3505227286" lon="34.6994116344"><ele>156.30</ele><time>2026-08-14T08:23:19Z</time></trkpt><trkpt lat="59.3505232316" lon="34.6993957926"><ele>156.43</ele><time>2026-08-14T08:24:41Z</time></trkpt><trkpt lat="59.3505198788" lon="34.6994026657"><ele>155.97</ele><time>2026-08-14T08:26:02Z</time></trkpt><trkpt lat="59.3505323678" lon="34.6994193457"><ele>156.37</ele><time>2026-08-14T08:27:25Z</time></trkpt><trkpt lat="59.3505213037" lon="34.6993957087"><ele>157.24</ele><time>2026-08-14T08:28:43Z</time></trkpt><trkpt lat="59.3505166098" lon="34.6994125564"><ele>158.85</ele><time>2026-08-14T08:30:03Z</time></trkpt><trkpt lat="59.3505253270" lon="34.6994114667"><ele>159.58</ele><time>2026-08-14T08:31:31Z</time></trkpt><trkpt lat="59.3505313620" lon="34.6994042583"><ele>157.14</ele><time>2026-08-14T08:32:50Z</time></trkpt><trkpt lat="59.3505233154" lon="34.6994020790"><ele>156.56</ele><time>2026-08-14T08:34:03Z</time></trkpt><trkpt lat="59.3505211361" lon="34.6994102933"><ele>156.61</ele><time>2026-08-14T08:35:10Z</time></trkpt><trkpt lat="59.3505186215" lon="34.6993981395"><ele>156.45</ele><time>2026-08-14T08:36:16Z</time></trkpt><trkpt lat="59.3505141791" lon="34.6994106285"><ele>156.17</ele><time>2026-08-14T08:37:10Z</time></trkpt><trkpt lat="59.3505129218" lon="34.6994057670"><ele>155.88</ele><time>2026-08-14T08:38:19Z</time></trkpt><trkpt lat="59.3505205493" lon="34.6994039230"><ele>155.85</ele><time>2026-08-14T08:39:34Z</time></trkpt><trkpt lat="59.3505276740" lon="34.6994029172"><ele>154.75</ele><time>2026-08-14T08:40:48Z</time></trkpt><trkpt lat="59.3505218904" lon="34.6993977204"><ele>155.07</ele><time>2026-08-14T08:41:56Z</time></trkpt><trkpt lat="59.3505231477" lon="34.6993919369"><ele>155.24</ele><time>2026-08-14T08:43:09Z</time></trkpt><trkpt lat="59.3505282607" lon="34.6994201001"><ele>157.34</ele><time>2026-08-14T08:44:16Z</time></trkpt><trkpt lat="59.3505389895" lon="34.6994128078"><ele>157.66</ele><time>2026-08-14T08:45:03Z</time></trkpt><trkpt lat="59.3505268358" lon="34.6993824653"><ele>156.47</ele><time>2026-08-14T08:46:04Z</time></trkpt><trkpt lat="59.3505262490" lon="34.6993949544"><ele>155.81</ele><time>2026-08-14T08:47:25Z</time></trkpt><trkpt lat="59.3505255785" lon="34.6994009893"><ele>156.30</ele><time>2026-08-14T08:48:33Z</time></trkpt><trkpt lat="59.3505324516" lon="34.6993929427"><ele>157.76</ele><time>2026-08-14T08:49:43Z</time></trkpt><trkpt lat="59.3505474553" lon="34.6994179208"><ele>158.61</ele><time>2026-08-14T08:51:01Z</time></trkpt><trkpt lat="59.3505268358" lon="34.6994210221"><ele>157.46</ele><time>2026-08-14T08:52:11Z</time></trkpt><trkpt lat="59.3505330384" lon="34.6994172502"><ele>158.22</ele><time>2026-08-14T08:53:35Z</time></trkpt><trkpt lat="59.3505446054" lon="34.6994077787"><ele>158.45</ele><time>2026-08-14T08:54:52Z</time></trkpt><trkpt lat="59.3505153526" lon="34.6994076110"><ele>158.76</ele><time>2026-08-14T08:56:09Z</time></trkpt><trkpt lat="59.3505261652" lon="34.6994247939"><ele>160.99</ele><time>2026-08-14T08:57:26Z</time></trkpt><trkpt lat="59.3505211361" lon="34.6994227823"><ele>160.32</ele><time>2026-08-14T08:58:45Z</time></trkpt><trkpt lat="59.3505306914" lon="34.6994118020"><ele>160.33</ele><time>2026-08-14T09:00:02Z</time></trkpt><trkpt lat="59.3505338766" lon="34.6993936971"><ele>160.26</ele><time>2026-08-14T09:01:23Z</time></trkpt><trkpt lat="59.3505261652" lon="34.6993989777"><ele>158.61</ele><time>2026-08-14T09:02:37Z</time></trkpt><trkpt lat="59.3505197112" lon="34.6994050965"><ele>157.61</ele><time>2026-08-14T09:03:55Z</time></trkpt><trkpt lat="59.3505311944" lon="34.6993807051"><ele>157.51</ele><time>2026-08-14T09:05:26Z</time></trkpt><trkpt lat="59.3505277578" lon="34.6994029172"><ele>159.13</ele><time>2026-08-14T09:06:47Z</time></trkpt><trkpt lat="59.3505338766" lon="34.6993988100"><ele>159.90</ele><time>2026-08-14T09:08:19Z</time></trkpt><trkpt lat="59.3505332898" lon="34.6993963793"><ele>160.81</ele><time>2026-08-14T09:09:49Z</time></trkpt><trkpt lat="59.3505121674" lon="34.6994165797"><ele>160.31</ele><time>2026-08-14T09:11:18Z</time></trkpt><trkpt lat="59.3505159393" lon="34.6994309127"><ele>158.60</ele><time>2026-08-14T09:12:50Z</time></trkpt><trkpt lat="59.3505328707" lon="34.6994382050"><ele>158.19</ele><time>2026-08-14T09:14:17Z</time></trkpt><trkpt lat="59.3505295180" lon="34.6994328406"><ele>158.27</ele><time>2026-08-14T09:15:44Z</time></trkpt><trkpt lat="59.3505306076" lon="34.6994151548"><ele>159.84</ele><time>2026-08-14T09:17:14Z</time></trkpt><trkpt lat="59.3505290151" lon="34.6994312480"><ele>159.57</ele><time>2026-08-14T09:18:41Z</time></trkpt><trkpt lat="59.3505155202" lon="34.6994330920"><ele>159.09</ele><time>2026-08-14T09:20:05Z</time></trkpt><trkpt lat="59.3505353853" lon="34.6994573995"><ele>158.20</ele><time>2026-08-14T09:21:26Z</time></trkpt><trkpt lat="59.3505255785" lon="34.6994490176"><ele>158.86</ele><time>2026-08-14T09:22:48Z</time></trkpt><trkpt lat="59.3505170289" lon="34.6994251292"><ele>160.20</ele><time>2026-08-14T09:24:16Z</time></trkpt><trkpt lat="59.3505327031" lon="34.6994294040"><ele>161.32</ele><time>2026-08-14T09:25:27Z</time></trkpt><trkpt lat="59.3505360559" lon="34.6994240396"><ele>161.96</ele><time>2026-08-14T09:26:51Z</time></trkpt><trkpt lat="59.3505303562" lon="34.6994221956"><ele>160.81</ele><time>2026-08-14T09:28:02Z</time></trkpt><trkpt lat="59.3505417556" lon="34.6994300745"><ele>160.25</ele><time>2026-08-14T09:29:08Z</time></trkpt><trkpt lat="59.3505342957" lon="34.6994402166"><ele>159.86</ele><time>2026-08-14T09:30:36Z</time></trkpt><trkpt lat="59.3505316135" lon="34.6994423959"><ele>159.13</ele><time>2026-08-14T09:32:02Z</time></trkpt><trkpt lat="59.3505360559" lon="34.6994235367"><ele>158.40</ele><time>2026-08-14T09:32:42Z</time></trkpt><trkpt lat="59.3505414203" lon="34.6994214412"><ele>157.99</ele><time>2026-08-14T09:33:25Z</time></trkpt><trkpt lat="59.3505369779" lon="34.6994453296"><ele>156.72</ele><time>2026-08-14T09:34:49Z</time></trkpt><trkpt lat="59.3505494669" lon="34.6994224470"><ele>158.46</ele><time>2026-08-14T09:36:13Z</time></trkpt><trkpt lat="59.3505498860" lon="34.6994395461"><ele>159.63</ele><time>2026-08-14T09:37:30Z</time></trkpt><trkpt lat="59.3505572621" lon="34.6994325891"><ele>159.88</ele><time>2026-08-14T09:38:19Z</time></trkpt><trkpt lat="59.3505632132" lon="34.6994274762"><ele>159.24</ele><time>2026-08-14T09:39:12Z</time></trkpt><trkpt lat="59.3505479582" lon="34.6994397976"><ele>159.42</ele><time>2026-08-14T09:40:11Z</time></trkpt><trkpt lat="59.3505405821" lon="34.6994326729"><ele>159.67</ele><time>2026-08-14T09:41:15Z</time></trkpt><trkpt lat="59.3505409174" lon="34.6994255483"><ele>159.13</ele><time>2026-08-14T09:42:25Z</time></trkpt><trkpt lat="59.3505504727" lon="34.6994421445"><ele>158.20</ele><time>2026-08-14T09:43:09Z</time></trkpt><trkpt lat="59.3505634647" lon="34.6994496882"><ele>159.19</ele><time>2026-08-14T09:44:12Z</time></trkpt><trkpt lat="59.3505602796" lon="34.6994216926"><ele>160.47</ele><time>2026-08-14T09:45:24Z</time></trkpt><trkpt lat="59.3505529035" lon="34.6994266380"><ele>160.68</ele><time>2026-08-14T09:46:42Z</time></trkpt><trkpt lat="59.3505379837" lon="34.6994290687"><ele>161.74</ele><time>2026-08-14T09:48:02Z</time></trkpt><trkpt lat="59.3505386543" lon="34.6994219441"><ele>161.43</ele><time>2026-08-14T09:49:14Z</time></trkpt><trkpt lat="59.3505481258" lon="34.6994137298"><ele>161.78</ele><time>2026-08-14T09:50:23Z</time></trkpt><trkpt lat="59.3505584355" lon="34.6994105447"><ele>161.50</ele><time>2026-08-14T09:51:24Z</time></trkpt><trkpt lat="59.3505575974" lon="34.6994235367"><ele>161.42</ele><time>2026-08-14T09:52:13Z</time></trkpt><trkpt lat="59.3505407497" lon="34.6994170826"><ele>160.98</ele><time>2026-08-14T09:53:19Z</time></trkpt><trkpt lat="59.3505321164" lon="34.6994296554"><ele>160.43</ele><time>2026-08-14T09:54:17Z</time></trkpt><trkpt lat="59.3505291827" lon="34.6994562261"><ele>160.15</ele><time>2026-08-14T09:55:25Z</time></trkpt><trkpt lat="59.3505504727" lon="34.6994310804"><ele>158.69</ele><time>2026-08-14T09:56:45Z</time></trkpt><trkpt lat="59.3505483773" lon="34.6994039230"><ele>160.14</ele><time>2026-08-14T09:57:56Z</time></trkpt><trkpt lat="59.3505458627" lon="34.6993967146"><ele>161.26</ele><time>2026-08-14T09:59:08Z</time></trkpt><trkpt lat="59.3505358044" lon="34.6994437370"><ele>161.65</ele><time>2026-08-14T10:00:26Z</time></trkpt><trkpt lat="59.3505462818" lon="34.6994308289"><ele>161.68</ele><time>2026-08-14T10:01:26Z</time></trkpt><trkpt lat="59.3505606987" lon="34.6994332597"><ele>162.65</ele><time>2026-08-14T10:02:41Z</time></trkpt><trkpt lat="59.3505683262" lon="34.6994299907"><ele>163.19</ele><time>2026-08-14T10:04:00Z</time></trkpt><trkpt lat="59.3505570944" lon="34.6994417254"><ele>162.88</ele><time>2026-08-14T10:05:11Z</time></trkpt><trkpt lat="59.3505592737" lon="34.6994211059"><ele>162.51</ele><time>2026-08-14T10:06:19Z</time></trkpt><trkpt lat="59.3505519815" lon="34.6994164120"><ele>163.72</ele><time>2026-08-14T10:07:33Z</time></trkpt><trkpt lat="59.3505574297" lon="34.6994428150"><ele>164.14</ele><time>2026-08-14T10:08:43Z</time></trkpt><trkpt lat="59.3505545799" lon="34.6994377859"><ele>163.38</ele><time>2026-08-14T10:09:56Z</time></trkpt><trkpt lat="59.3505608663" lon="34.6994299069"><ele>163.85</ele><time>2026-08-14T10:11:06Z</time></trkpt><trkpt lat="59.3505591899" lon="34.6994039230"><ele>164.98</ele><time>2026-08-14T10:12:10Z</time></trkpt><trkpt lat="59.3505591899" lon="34.6994150709"><ele>164.04</ele><time>2026-08-14T10:13:17Z</time></trkpt><trkpt lat="59.3505513947" lon="34.6994375344"><ele>164.13</ele><time>2026-08-14T10:14:33Z</time></trkpt><trkpt lat="59.3505552504" lon="34.6994340140"><ele>163.69</ele><time>2026-08-14T10:15:53Z</time></trkpt><trkpt lat="59.3505525682" lon="34.6994303260"><ele>163.73</ele><time>2026-08-14T10:17:09Z</time></trkpt><trkpt lat="59.3505522329" lon="34.6994157415"><ele>163.89</ele><time>2026-08-14T10:18:29Z</time></trkpt><trkpt lat="59.3505556695" lon="34.6994296554"><ele>164.58</ele><time>2026-08-14T10:19:57Z</time></trkpt><trkpt lat="59.3505583517" lon="34.6994440723"><ele>164.62</ele><time>2026-08-14T10:21:27Z</time></trkpt><trkpt lat="59.3505539093" lon="34.6994087845"><ele>163.69</ele><time>2026-08-14T10:22:48Z</time></trkpt><trkpt lat="59.3505417556" lon="34.6994202677"><ele>164.53</ele><time>2026-08-14T10:24:12Z</time></trkpt><trkpt lat="59.3505507242" lon="34.6994265541"><ele>162.91</ele><time>2026-08-14T10:25:29Z</time></trkpt><trkpt lat="59.3505550828" lon="34.6994294878"><ele>162.44</ele><time>2026-08-14T10:26:53Z</time></trkpt><trkpt lat="59.3505573459" lon="34.6994340979"><ele>162.04</ele><time>2026-08-14T10:28:05Z</time></trkpt><trkpt lat="59.3505553342" lon="34.6994161606"><ele>161.23</ele><time>2026-08-14T10:29:13Z</time></trkpt><trkpt lat="59.3505513947" lon="34.6994291525"><ele>161.15</ele><time>2026-08-14T10:30:18Z</time></trkpt><trkpt lat="59.3505498860" lon="34.6994338464"><ele>160.76</ele><time>2026-08-14T10:31:14Z</time></trkpt><trkpt lat="59.3505559210" lon="34.6994375344"><ele>160.45</ele><time>2026-08-14T10:32:17Z</time></trkpt><trkpt lat="59.3505561724" lon="34.6994390432"><ele>159.71</ele><time>2026-08-14T10:33:01Z</time></trkpt><trkpt lat="59.3505730201" lon="34.6994335949"><ele>159.76</ele><time>2026-08-14T10:34:02Z</time></trkpt><trkpt lat="59.3505571783" lon="34.6994335111"><ele>161.55</ele><time>2026-08-14T10:35:05Z</time></trkpt><trkpt lat="59.3505614530" lon="34.6994563099"><ele>162.55</ele><time>2026-08-14T10:35:58Z</time></trkpt><trkpt lat="59.3505739421" lon="34.6994482633"><ele>163.31</ele><time>2026-08-14T10:36:34Z</time></trkpt><trkpt lat="59.3505735230" lon="34.6994468383"><ele>165.62</ele><time>2026-08-14T10:37:40Z</time></trkpt><trkpt lat="59.3505826592" lon="34.6994660329"><ele>165.97</ele><time>2026-08-14T10:38:19Z</time></trkpt><trkpt lat="59.3505754508" lon="34.6994389594"><ele>166.14</ele><time>2026-08-14T10:39:37Z</time></trkpt><trkpt lat="59.3505814020" lon="34.6994572319"><ele>167.38</ele><time>2026-08-14T10:40:55Z</time></trkpt><trkpt lat="59.3505824916" lon="34.6994382888"><ele>167.72</ele><time>2026-08-14T10:42:10Z</time></trkpt><trkpt lat="59.3505910411" lon="34.6994170826"><ele>168.20</ele><time>2026-08-14T10:43:21Z</time></trkpt><trkpt lat="59.3505869340" lon="34.6994355228"><ele>168.54</ele><time>2026-08-14T10:44:30Z</time></trkpt><trkpt lat="59.3505702540" lon="34.6994267218"><ele>165.72</ele><time>2026-08-14T10:45:44Z</time></trkpt><trkpt lat="59.3505747803" lon="34.6994584054"><ele>166.28</ele><time>2026-08-14T10:47:02Z</time></trkpt><trkpt lat="59.3505804799" lon="34.6994740795"><ele>166.25</ele><time>2026-08-14T10:48:19Z</time></trkpt><trkpt lat="59.3505815696" lon="34.6994579863"><ele>167.62</ele><time>2026-08-14T10:49:29Z</time></trkpt><trkpt lat="59.3505722657" lon="34.6994505264"><ele>167.09</ele><time>2026-08-14T10:50:49Z</time></trkpt><trkpt lat="59.3505613692" lon="34.6994619258"><ele>165.86</ele><time>2026-08-14T10:52:09Z</time></trkpt><trkpt lat="59.3505610339" lon="34.6994533762"><ele>165.52</ele><time>2026-08-14T10:53:20Z</time></trkpt><trkpt lat="59.3505701702" lon="34.6994440723"><ele>165.71</ele><time>2026-08-14T10:53:53Z</time></trkpt><trkpt lat="59.3505664822" lon="34.6994369477"><ele>165.89</ele><time>2026-08-14T10:54:27Z</time></trkpt><trkpt lat="59.3505494669" lon="34.6994342655"><ele>165.78</ele><time>2026-08-14T10:54:53Z</time></trkpt><trkpt lat="59.3505641352" lon="34.6994401328"><ele>165.28</ele><time>2026-08-14T10:55:20Z</time></trkpt><trkpt lat="59.3505758699" lon="34.6994622611"><ele>163.84</ele><time>2026-08-14T10:56:07Z</time></trkpt><trkpt lat="59.3505789712" lon="34.6994705591"><ele>163.80</ele><time>2026-08-14T10:56:48Z</time></trkpt><trkpt lat="59.3505742773" lon="34.6994633507"><ele>163.62</ele><time>2026-08-14T10:57:18Z</time></trkpt><trkpt lat="59.3505815696" lon="34.6994586568"><ele>162.62</ele><time>2026-08-14T10:57:49Z</time></trkpt><trkpt lat="59.3505861796" lon="34.6994741634"><ele>162.21</ele><time>2026-08-14T10:58:20Z</time></trkpt><trkpt lat="59.3505728524" lon="34.6994394623"><ele>161.40</ele><time>2026-08-14T10:58:50Z</time></trkpt><trkpt lat="59.3505844194" lon="34.6994472574"><ele>161.45</ele><time>2026-08-14T10:59:20Z</time></trkpt><trkpt lat="59.3505722657" lon="34.6994656976"><ele>160.93</ele><time>2026-08-14T10:59:50Z</time></trkpt><trkpt lat="59.3505793903" lon="34.6994570643"><ele>160.90</ele><time>2026-08-14T11:00:40Z</time></trkpt><trkpt lat="59.3505783845" lon="34.6994667873"><ele>161.35</ele><time>2026-08-14T11:01:11Z</time></trkpt><trkpt lat="59.3505928013" lon="34.6994710620"><ele>161.98</ele><time>2026-08-14T11:01:42Z</time></trkpt><trkpt lat="59.3505861796" lon="34.6994455811"><ele>162.47</ele><time>2026-08-14T11:02:15Z</time></trkpt><trkpt lat="59.3505833298" lon="34.6994449943"><ele>162.86</ele><time>2026-08-14T11:02:41Z</time></trkpt><trkpt lat="59.3505657278" lon="34.6994468383"><ele>162.49</ele><time>2026-08-14T11:03:15Z</time></trkpt><trkpt lat="59.3505824916" lon="34.6994306613"><ele>161.91</ele><time>2026-08-14T11:03:47Z</time></trkpt><trkpt lat="59.3505787198" lon="34.6994320024"><ele>161.83</ele><time>2026-08-14T11:04:27Z</time></trkpt><trkpt lat="59.3505842518" lon="34.6994099580"><ele>161.30</ele><time>2026-08-14T11:04:59Z</time></trkpt><trkpt lat="59.3505767919" lon="34.6994258836"><ele>161.34</ele><time>2026-08-14T11:05:32Z</time></trkpt><trkpt lat="59.3505790550" lon="34.6994348522"><ele>160.42</ele><time>2026-08-14T11:06:00Z</time></trkpt><trkpt lat="59.3505960703" lon="34.6994579025"><ele>160.52</ele><time>2026-08-14T11:06:30Z</time></trkpt><trkpt lat="59.3505876884" lon="34.6994509455"><ele>160.46</ele><time>2026-08-14T11:07:02Z</time></trkpt><trkpt lat="59.3505725171" lon="34.6994486824"><ele>160.64</ele><time>2026-08-14T11:08:00Z</time></trkpt><trkpt lat="59.3505487125" lon="34.6994345170"><ele>160.71</ele><time>2026-08-14T11:08:29Z</time></trkpt><trkpt lat="59.3505375646" lon="34.6994353551"><ele>160.49</ele><time>2026-08-14T11:08:58Z</time></trkpt><trkpt lat="59.3505444378" lon="34.6994474251"><ele>161.09</ele><time>2026-08-14T11:09:50Z</time></trkpt><trkpt lat="59.3505953159" lon="34.6994380374"><ele>161.85</ele><time>2026-08-14T11:10:24Z</time></trkpt><trkpt lat="59.3505829107" lon="34.6994452458"><ele>160.97</ele><time>2026-08-14T11:10:53Z</time></trkpt><trkpt lat="59.3505694158" lon="34.6994328406"><ele>161.22</ele><time>2026-08-14T11:11:27Z</time></trkpt><trkpt lat="59.3505532388" lon="34.6994312480"><ele>161.26</ele><time>2026-08-14T11:11:59Z</time></trkpt><trkpt lat="59.3505666498" lon="34.6994220279"><ele>160.00</ele><time>2026-08-14T11:12:30Z</time></trkpt><trkpt lat="59.3505773786" lon="34.6994133946"><ele>159.60</ele><time>2026-08-14T11:13:00Z</time></trkpt><trkpt lat="59.3505746964" lon="34.6994275600"><ele>158.47</ele><time>2026-08-14T11:13:40Z</time></trkpt><trkpt lat="59.3505727686" lon="34.6994375344"><ele>158.56</ele><time>2026-08-14T11:14:18Z</time></trkpt><trkpt lat="59.3505730201" lon="34.6994391270"><ele>157.97</ele><time>2026-08-14T11:14:48Z</time></trkpt><trkpt lat="59.3505684100" lon="34.6994193457"><ele>158.02</ele><time>2026-08-14T11:15:20Z</time></trkpt><trkpt lat="59.3505601957" lon="34.6994329244"><ele>158.56</ele><time>2026-08-14T11:15:50Z</time></trkpt><trkpt lat="59.3505669851" lon="34.6994335111"><ele>158.04</ele><time>2026-08-14T11:16:18Z</time></trkpt><trkpt lat="59.3505494669" lon="34.6994395461"><ele>156.50</ele><time>2026-08-14T11:16:46Z</time></trkpt><trkpt lat="59.3505555857" lon="34.6994100418"><ele>156.20</ele><time>2026-08-14T11:17:18Z</time></trkpt><trkpt lat="59.3505726848" lon="34.6993782744"><ele>155.92</ele><time>2026-08-14T11:17:48Z</time></trkpt><trkpt lat="59.3505589385" lon="34.6993910987"><ele>155.47</ele><time>2026-08-14T11:18:21Z</time></trkpt><trkpt lat="59.3505687453" lon="34.6993651148"><ele>154.91</ele><time>2026-08-14T11:18:54Z</time></trkpt><trkpt lat="59.3505684100" lon="34.6993717365"><ele>154.95</ele><time>2026-08-14T11:19:27Z</time></trkpt><trkpt lat="59.3505622074" lon="34.6993948705"><ele>155.39</ele><time>2026-08-14T11:19:57Z</time></trkpt><trkpt lat="59.3505562562" lon="34.6993997321"><ele>156.00</ele><time>2026-08-14T11:20:29Z</time></trkpt><trkpt lat="59.3505490478" lon="34.6994046774"><ele>155.42</ele><time>2026-08-14T11:21:43Z</time></trkpt><trkpt lat="59.3505491316" lon="34.6994019952"><ele>155.26</ele><time>2026-08-14T11:22:54Z</time></trkpt><trkpt lat="59.3505599443" lon="34.6993909311"><ele>155.02</ele><time>2026-08-14T11:24:02Z</time></trkpt><trkpt lat="59.3505610339" lon="34.6993654501"><ele>155.17</ele><time>2026-08-14T11:25:05Z</time></trkpt><trkpt lat="59.3505633809" lon="34.6993878298"><ele>155.14</ele><time>2026-08-14T11:25:39Z</time></trkpt><trkpt lat="59.3505668174" lon="34.6994328406"><ele>156.62</ele><time>2026-08-14T11:26:40Z</time></trkpt><trkpt lat="59.3505644705" lon="34.6994312480"><ele>157.67</ele><time>2026-08-14T11:27:42Z</time></trkpt><trkpt lat="59.3505702540" lon="34.6994133946"><ele>158.33</ele><time>2026-08-14T11:28:44Z</time></trkpt><trkpt lat="59.3505701702" lon="34.6994300745"><ele>159.42</ele><time>2026-08-14T11:29:47Z</time></trkpt><trkpt lat="59.3505798932" lon="34.6994309966"><ele>159.95</ele><time>2026-08-14T11:30:48Z</time></trkpt><trkpt lat="59.3505733553" lon="34.6994377021"><ele>160.40</ele><time>2026-08-14T11:31:45Z</time></trkpt><trkpt lat="59.3505668174" lon="34.6994166635"><ele>159.91</ele><time>2026-08-14T11:32:13Z</time></trkpt><trkpt lat="59.3505658116" lon="34.6994221117"><ele>158.95</ele><time>2026-08-14T11:32:59Z</time></trkpt><trkpt lat="59.3505684100" lon="34.6994154900"><ele>158.97</ele><time>2026-08-14T11:33:43Z</time></trkpt><trkpt lat="59.3505794741" lon="34.6994235367"><ele>159.27</ele><time>2026-08-14T11:34:28Z</time></trkpt><trkpt lat="59.3505734392" lon="34.6994158253"><ele>159.30</ele><time>2026-08-14T11:35:28Z</time></trkpt><trkpt lat="59.3505749479" lon="34.6994102933"><ele>158.88</ele><time>2026-08-14T11:36:00Z</time></trkpt><trkpt lat="59.3505859282" lon="34.6994305775"><ele>160.75</ele><time>2026-08-14T11:37:00Z</time></trkpt><trkpt lat="59.3505798094" lon="34.6994280629"><ele>159.95</ele><time>2026-08-14T11:37:54Z</time></trkpt><trkpt lat="59.3505745288" lon="34.6994176693"><ele>158.83</ele><time>2026-08-14T11:39:06Z</time></trkpt><trkpt lat="59.3505641352" lon="34.6994081978"><ele>159.01</ele><time>2026-08-14T11:40:20Z</time></trkpt><trkpt lat="59.3505645543" lon="34.6994273085"><ele>158.37</ele><time>2026-08-14T11:41:37Z</time></trkpt><trkpt lat="59.3505608663" lon="34.6994054317"><ele>158.69</ele><time>2026-08-14T11:42:59Z</time></trkpt><trkpt lat="59.3505613692" lon="34.6993922722"><ele>158.33</ele><time>2026-08-14T11:44:14Z</time></trkpt><trkpt lat="59.3505712599" lon="34.6994062699"><ele>158.71</ele><time>2026-08-14T11:45:32Z</time></trkpt><trkpt lat="59.3505590223" lon="34.6993918531"><ele>159.38</ele><time>2026-08-14T11:46:41Z</time></trkpt><trkpt lat="59.3505475391" lon="34.6993938647"><ele>157.86</ele><time>2026-08-14T11:47:49Z</time></trkpt><trkpt lat="59.3505601119" lon="34.6993936133"><ele>158.06</ele><time>2026-08-14T11:48:52Z</time></trkpt><trkpt lat="59.3505708408" lon="34.6993926913"><ele>159.08</ele><time>2026-08-14T11:50:02Z</time></trkpt><trkpt lat="59.3505702540" lon="34.6994017437"><ele>160.10</ele><time>2026-08-14T11:51:00Z</time></trkpt><trkpt lat="59.3505659793" lon="34.6994121373"><ele>159.44</ele><time>2026-08-14T11:52:09Z</time></trkpt><trkpt lat="59.3505643867" lon="34.6994095389"><ele>159.47</ele><time>2026-08-14T11:53:18Z</time></trkpt><trkpt lat="59.3505805638" lon="34.6994082816"><ele>159.59</ele><time>2026-08-14T11:54:24Z</time></trkpt><trkpt lat="59.3505678233" lon="34.6993998997"><ele>158.81</ele><time>2026-08-14T11:55:30Z</time></trkpt><trkpt lat="59.3505635485" lon="34.6994075272"><ele>158.32</ele><time>2026-08-14T11:56:30Z</time></trkpt><trkpt lat="59.3505564239" lon="34.6994295716"><ele>158.15</ele><time>2026-08-14T11:57:33Z</time></trkpt><trkpt lat="59.3505497184" lon="34.6994132269"><ele>157.39</ele><time>2026-08-14T11:58:25Z</time></trkpt><trkpt lat="59.3505448569" lon="34.6994177531"><ele>155.98</ele><time>2026-08-14T11:59:33Z</time></trkpt><trkpt lat="59.3505663145" lon="34.6993961278"><ele>157.51</ele><time>2026-08-14T12:00:40Z</time></trkpt><trkpt lat="59.3505599443" lon="34.6993986424"><ele>157.52</ele><time>2026-08-14T12:01:56Z</time></trkpt><trkpt lat="59.3505659793" lon="34.6994028334"><ele>157.76</ele><time>2026-08-14T12:03:15Z</time></trkpt><trkpt lat="59.3505657278" lon="34.6993786097"><ele>158.26</ele><time>2026-08-14T12:04:21Z</time></trkpt><trkpt lat="59.3505627941" lon="34.6994085331"><ele>159.14</ele><time>2026-08-14T12:05:29Z</time></trkpt><trkpt lat="59.3505499698" lon="34.6993858181"><ele>159.49</ele><time>2026-08-14T12:06:23Z</time></trkpt><trkpt lat="59.3505546637" lon="34.6993815433"><ele>158.39</ele><time>2026-08-14T12:07:23Z</time></trkpt><trkpt lat="59.3505500536" lon="34.6994028334"><ele>157.16</ele><time>2026-08-14T12:08:35Z</time></trkpt><trkpt lat="59.3505509757" lon="34.6993948705"><ele>157.62</ele><time>2026-08-14T12:09:48Z</time></trkpt><trkpt lat="59.3505498022" lon="34.6994061861"><ele>157.94</ele><time>2026-08-14T12:11:09Z</time></trkpt><trkpt lat="59.3505474553" lon="34.6994215250"><ele>158.35</ele><time>2026-08-14T12:12:27Z</time></trkpt><trkpt lat="59.3505673204" lon="34.6994123887"><ele>158.87</ele><time>2026-08-14T12:13:46Z</time></trkpt><trkpt lat="59.3505537417" lon="34.6994022466"><ele>159.07</ele><time>2026-08-14T12:14:59Z</time></trkpt><trkpt lat="59.3505446892" lon="34.6994133107"><ele>159.56</ele><time>2026-08-14T12:16:06Z</time></trkpt><trkpt lat="59.3505508918" lon="34.6994144842"><ele>159.43</ele><time>2026-08-14T12:17:13Z</time></trkpt><trkpt lat="59.3505679909" lon="34.6993979719"><ele>159.36</ele><time>2026-08-14T12:18:08Z</time></trkpt><trkpt lat="59.3505821563" lon="34.6994043421"><ele>159.97</ele><time>2026-08-14T12:19:09Z</time></trkpt><trkpt lat="59.3505770434" lon="34.6994116344"><ele>159.19</ele><time>2026-08-14T12:19:59Z</time></trkpt><trkpt lat="59.3505829945" lon="34.6994312480"><ele>159.42</ele><time>2026-08-14T12:20:55Z</time></trkpt><trkpt lat="59.3506031949" lon="34.6994315833"><ele>160.36</ele><time>2026-08-14T12:22:02Z</time></trkpt><trkpt lat="59.3505932204" lon="34.6994147357"><ele>162.86</ele><time>2026-08-14T12:23:03Z</time></trkpt><trkpt lat="59.3505715951" lon="34.6994284820"><ele>163.48</ele><time>2026-08-14T12:24:12Z</time></trkpt><trkpt lat="59.3505590223" lon="34.6994033363"><ele>162.94</ele><time>2026-08-14T12:25:13Z</time></trkpt><trkpt lat="59.3505492993" lon="34.6994073596"><ele>160.91</ele><time>2026-08-14T12:26:16Z</time></trkpt><trkpt lat="59.3505371455" lon="34.6994159091"><ele>159.51</ele><time>2026-08-14T12:27:38Z</time></trkpt><trkpt lat="59.3505338766" lon="34.6994169988"><ele>158.57</ele><time>2026-08-14T12:28:46Z</time></trkpt><trkpt lat="59.3505188730" lon="34.6994083654"><ele>157.42</ele><time>2026-08-14T12:29:56Z</time></trkpt><trkpt lat="59.3505233992" lon="34.6994206868"><ele>156.04</ele><time>2026-08-14T12:31:06Z</time></trkpt><trkpt lat="59.3505208846" lon="34.6994116344"><ele>155.33</ele><time>2026-08-14T12:32:14Z</time></trkpt><trkpt lat="59.3505254947" lon="34.6994120535"><ele>155.03</ele><time>2026-08-14T12:33:18Z</time></trkpt><trkpt lat="59.3505075574" lon="34.6994110476"><ele>154.46</ele><time>2026-08-14T12:34:17Z</time></trkpt><trkpt lat="59.3504911289" lon="34.6993835550"><ele>153.88</ele><time>2026-08-14T12:35:24Z</time></trkpt><trkpt lat="59.3505088147" lon="34.6993990615"><ele>153.55</ele><time>2026-08-14T12:36:29Z</time></trkpt><trkpt lat="59.3505052943" lon="34.6994091198"><ele>153.31</ele><time>2026-08-14T12:37:19Z</time></trkpt><trkpt lat="59.3505085632" lon="34.6994212735"><ele>153.94</ele><time>2026-08-14T12:37:59Z</time></trkpt><trkpt lat="59.3505218904" lon="34.6994146518"><ele>155.69</ele><time>2026-08-14T12:39:03Z</time></trkpt><trkpt lat="59.3505290151" lon="34.6994087007"><ele>155.97</ele><time>2026-08-14T12:40:04Z</time></trkpt><trkpt lat="59.3505301047" lon="34.6994063538"><ele>157.54</ele><time>2026-08-14T12:41:16Z</time></trkpt><trkpt lat="59.3505386543" lon="34.6994271409"><ele>158.61</ele><time>2026-08-14T12:42:22Z</time></trkpt><trkpt lat="59.3505425937" lon="34.6994036715"><ele>158.51</ele><time>2026-08-14T12:43:29Z</time></trkpt><trkpt lat="59.3505434319" lon="34.6993796993"><ele>157.29</ele><time>2026-08-14T12:44:38Z</time></trkpt><trkpt lat="59.3505347986" lon="34.6993945353"><ele>155.78</ele><time>2026-08-14T12:45:53Z</time></trkpt><trkpt lat="59.3505148496" lon="34.6993817110"><ele>155.85</ele><time>2026-08-14T12:47:09Z</time></trkpt><trkpt lat="59.3505176995" lon="34.6993809566"><ele>154.37</ele><time>2026-08-14T12:48:21Z</time></trkpt><trkpt lat="59.3505261652" lon="34.6993877459"><ele>155.58</ele><time>2026-08-14T12:49:30Z</time></trkpt><trkpt lat="59.3505290151" lon="34.6994066890"><ele>157.39</ele><time>2026-08-14T12:50:45Z</time></trkpt><trkpt lat="59.3505337927" lon="34.6994092874"><ele>157.60</ele><time>2026-08-14T12:51:44Z</time></trkpt><trkpt lat="59.3505396601" lon="34.6993931942"><ele>158.65</ele><time>2026-08-14T12:52:52Z</time></trkpt><trkpt lat="59.3505516462" lon="34.6993919369"><ele>158.13</ele><time>2026-08-14T12:53:55Z</time></trkpt><trkpt lat="59.3505473714" lon="34.6993693896"><ele>158.41</ele><time>2026-08-14T12:54:59Z</time></trkpt><trkpt lat="59.3505415879" lon="34.6993883327"><ele>160.09</ele><time>2026-08-14T12:56:11Z</time></trkpt><trkpt lat="59.3505303562" lon="34.6993902605"><ele>160.32</ele><time>2026-08-14T12:57:25Z</time></trkpt><trkpt lat="59.3505343795" lon="34.6993796993"><ele>159.70</ele><time>2026-08-14T12:58:36Z</time></trkpt><trkpt lat="59.3505410850" lon="34.6993635222"><ele>159.91</ele><time>2026-08-14T12:59:43Z</time></trkpt><trkpt lat="59.3505509757" lon="34.6994001511"><ele>159.04</ele><time>2026-08-14T13:00:49Z</time></trkpt><trkpt lat="59.3505468685" lon="34.6993877459"><ele>159.63</ele><time>2026-08-14T13:02:06Z</time></trkpt><trkpt lat="59.3505385704" lon="34.6993733291"><ele>160.35</ele><time>2026-08-14T13:03:25Z</time></trkpt><trkpt lat="59.3505266681" lon="34.6993584093"><ele>159.67</ele><time>2026-08-14T13:04:38Z</time></trkpt><trkpt lat="59.3505331222" lon="34.6993557271"><ele>160.10</ele><time>2026-08-14T13:05:53Z</time></trkpt><trkpt lat="59.3505519815" lon="34.6993750054"><ele>161.98</ele><time>2026-08-14T13:07:16Z</time></trkpt><trkpt lat="59.3505591061" lon="34.6993674617"><ele>160.70</ele><time>2026-08-14T13:08:35Z</time></trkpt><trkpt lat="59.3505392410" lon="34.6993702278"><ele>160.87</ele><time>2026-08-14T13:09:55Z</time></trkpt><trkpt lat="59.3505430967" lon="34.6993469261"><ele>159.33</ele><time>2026-08-14T13:11:11Z</time></trkpt><trkpt lat="59.3505539931" lon="34.6993714012"><ele>160.92</ele><time>2026-08-14T13:12:31Z</time></trkpt><trkpt lat="59.3505565915" lon="34.6993650310"><ele>161.24</ele><time>2026-08-14T13:13:47Z</time></trkpt><trkpt lat="59.3505645543" lon="34.6993668750"><ele>159.98</ele><time>2026-08-14T13:14:50Z</time></trkpt><trkpt lat="59.3505623750" lon="34.6993766818"><ele>161.39</ele><time>2026-08-14T13:16:04Z</time></trkpt><trkpt lat="59.3505638838" lon="34.6993714850"><ele>162.74</ele><time>2026-08-14T13:17:19Z</time></trkpt><trkpt lat="59.3505729362" lon="34.6993661206"><ele>162.94</ele><time>2026-08-14T13:18:35Z</time></trkpt><trkpt lat="59.3505823240" lon="34.6993551403"><ele>163.05</ele><time>2026-08-14T13:19:59Z</time></trkpt><trkpt lat="59.3505780492" lon="34.6993959602"><ele>165.15</ele><time>2026-08-14T13:21:15Z</time></trkpt><trkpt lat="59.3505776301" lon="34.6993872430"><ele>165.42</ele><time>2026-08-14T13:22:34Z</time></trkpt><trkpt lat="59.3505649734" lon="34.6993870754"><ele>164.65</ele><time>2026-08-14T13:23:32Z</time></trkpt><trkpt lat="59.3505747803" lon="34.6994212735"><ele>164.78</ele><time>2026-08-14T13:24:28Z</time></trkpt><trkpt lat="59.3505831622" lon="34.6994344331"><ele>165.47</ele><time>2026-08-14T13:25:10Z</time></trkpt><trkpt lat="59.3505897839" lon="34.6994038392"><ele>165.25</ele><time>2026-08-14T13:26:25Z</time></trkpt><trkpt lat="59.3505961541" lon="34.6994077787"><ele>166.15</ele><time>2026-08-14T13:26:52Z</time></trkpt><trkpt lat="59.3505868502" lon="34.6993838064"><ele>165.57</ele><time>2026-08-14T13:27:31Z</time></trkpt><trkpt lat="59.3506182823" lon="34.6994002350"><ele>167.34</ele><time>2026-08-14T13:28:28Z</time></trkpt><trkpt lat="59.3506195396" lon="34.6994088683"><ele>167.50</ele><time>2026-08-14T13:29:22Z</time></trkpt><trkpt lat="59.3506163545" lon="34.6994010732"><ele>167.49</ele><time>2026-08-14T13:30:19Z</time></trkpt><trkpt lat="59.3506020214" lon="34.6993791964"><ele>166.65</ele><time>2026-08-14T13:30:48Z</time></trkpt><trkpt lat="59.3505987525" lon="34.6993850637"><ele>165.64</ele><time>2026-08-14T13:31:31Z</time></trkpt><trkpt lat="59.3506062962" lon="34.6993882488"><ele>166.51</ele><time>2026-08-14T13:32:07Z</time></trkpt><trkpt lat="59.3506031949" lon="34.6994092874"><ele>167.33</ele><time>2026-08-14T13:32:42Z</time></trkpt><trkpt lat="59.3506246526" lon="34.6993859857"><ele>170.25</ele><time>2026-08-14T13:33:46Z</time></trkpt><trkpt lat="59.3506094813" lon="34.6993903443"><ele>168.05</ele><time>2026-08-14T13:34:50Z</time></trkpt><trkpt lat="59.3506146781" lon="34.6994114667"><ele>167.73</ele><time>2026-08-14T13:35:57Z</time></trkpt><trkpt lat="59.3506031111" lon="34.6994035877"><ele>168.35</ele><time>2026-08-14T13:36:54Z</time></trkpt><trkpt lat="59.3505922984" lon="34.6994055156"><ele>167.62</ele><time>2026-08-14T13:37:52Z</time></trkpt><trkpt lat="59.3505943101" lon="34.6994063538"><ele>166.52</ele><time>2026-08-14T13:38:38Z</time></trkpt><trkpt lat="59.3505921308" lon="34.6994125564"><ele>166.07</ele><time>2026-08-14T13:39:14Z</time></trkpt><trkpt lat="59.3505808990" lon="34.6993923560"><ele>165.07</ele><time>2026-08-14T13:39:53Z</time></trkpt><trkpt lat="59.3505878560" lon="34.6994103771"><ele>165.31</ele><time>2026-08-14T13:40:51Z</time></trkpt><trkpt lat="59.3505942263" lon="34.6993987262"><ele>164.79</ele><time>2026-08-14T13:41:26Z</time></trkpt><trkpt lat="59.3505803961" lon="34.6993882488"><ele>163.97</ele><time>2026-08-14T13:42:29Z</time></trkpt><trkpt lat="59.3505845033" lon="34.6993678808"><ele>163.73</ele><time>2026-08-14T13:43:31Z</time></trkpt><trkpt lat="59.3505770434" lon="34.6993707307"><ele>164.32</ele><time>2026-08-14T13:44:32Z</time></trkpt><trkpt lat="59.3505805638" lon="34.6993633546"><ele>164.73</ele><time>2026-08-14T13:45:12Z</time></trkpt><trkpt lat="59.3505853415" lon="34.6993674617"><ele>165.59</ele><time>2026-08-14T13:45:45Z</time></trkpt><trkpt lat="59.3505902868" lon="34.6993704792"><ele>165.72</ele><time>2026-08-14T13:46:31Z</time></trkpt><trkpt lat="59.3505878560" lon="34.6993610077"><ele>166.13</ele><time>2026-08-14T13:47:04Z</time></trkpt><trkpt lat="59.3506186176" lon="34.6993922722"><ele>167.17</ele><time>2026-08-14T13:47:37Z</time></trkpt><trkpt lat="59.3506210484" lon="34.6993808728"><ele>166.54</ele><time>2026-08-14T13:48:39Z</time></trkpt><trkpt lat="59.3506073859" lon="34.6993689705"><ele>165.77</ele><time>2026-08-14T13:49:39Z</time></trkpt><trkpt lat="59.3506088108" lon="34.6993743349"><ele>166.48</ele><time>2026-08-14T13:50:29Z</time></trkpt><trkpt lat="59.3506018538" lon="34.6993755084"><ele>166.57</ele><time>2026-08-14T13:51:21Z</time></trkpt><trkpt lat="59.3505990040" lon="34.6994041745"><ele>165.74</ele><time>2026-08-14T13:51:53Z</time></trkpt><trkpt lat="59.3505806476" lon="34.6994049288"><ele>164.88</ele><time>2026-08-14T13:52:31Z</time></trkpt><trkpt lat="59.3505653925" lon="34.6993703954"><ele>164.31</ele><time>2026-08-14T13:53:24Z</time></trkpt><trkpt lat="59.3505674042" lon="34.6993480157"><ele>163.88</ele><time>2026-08-14T13:54:21Z</time></trkpt><trkpt lat="59.3505650572" lon="34.6993579064"><ele>162.58</ele><time>2026-08-14T13:54:58Z</time></trkpt><trkpt lat="59.3505720980" lon="34.6993501112"><ele>160.79</ele><time>2026-08-14T13:55:41Z</time></trkpt><trkpt lat="59.3505808152" lon="34.6993386280"><ele>160.95</ele><time>2026-08-14T13:56:26Z</time></trkpt><trkpt lat="59.3505863473" lon="34.6993237920"><ele>160.88</ele><time>2026-08-14T13:57:31Z</time></trkpt><trkpt lat="59.3505963217" lon="34.6993418969"><ele>160.30</ele><time>2026-08-14T13:58:36Z</time></trkpt><trkpt lat="59.3505908735" lon="34.6993398853"><ele>161.38</ele><time>2026-08-14T13:59:20Z</time></trkpt><trkpt lat="59.3505834974" lon="34.6993516199"><ele>163.10</ele><time>2026-08-14T14:00:21Z</time></trkpt><trkpt lat="59.3505833298" lon="34.6993707307"><ele>163.59</ele><time>2026-08-14T14:00:50Z</time></trkpt><trkpt lat="59.3505996745" lon="34.6993698925"><ele>164.23</ele><time>2026-08-14T14:01:26Z</time></trkpt><trkpt lat="59.3505925499" lon="34.6993709821"><ele>164.34</ele><time>2026-08-14T14:02:05Z</time></trkpt><trkpt lat="59.3505961541" lon="34.6993392985"><ele>165.40</ele><time>2026-08-14T14:02:51Z</time></trkpt><trkpt lat="59.3506091461" lon="34.6993378736"><ele>166.62</ele><time>2026-08-14T14:03:40Z</time></trkpt><trkpt lat="59.3506037816" lon="34.6993597504"><ele>167.51</ele><time>2026-08-14T14:04:39Z</time></trkpt><trkpt lat="59.3506119121" lon="34.6993504465"><ele>168.71</ele><time>2026-08-14T14:05:33Z</time></trkpt><trkpt lat="59.3506077211" lon="34.6993811242"><ele>169.62</ele><time>2026-08-14T14:06:19Z</time></trkpt><trkpt lat="59.3506114092" lon="34.6993968822"><ele>169.95</ele><time>2026-08-14T14:06:50Z</time></trkpt><trkpt lat="59.3506096490" lon="34.6993882488"><ele>170.35</ele><time>2026-08-14T14:07:37Z</time></trkpt><trkpt lat="59.3506184500" lon="34.6994002350"><ele>171.06</ele><time>2026-08-14T14:08:18Z</time></trkpt><trkpt lat="59.3506114930" lon="34.6993657853"><ele>169.83</ele><time>2026-08-14T14:08:49Z</time></trkpt><trkpt lat="59.3506065477" lon="34.6993869077"><ele>170.03</ele><time>2026-08-14T14:09:21Z</time></trkpt><trkpt lat="59.3505986687" lon="34.6994007379"><ele>168.96</ele><time>2026-08-14T14:10:04Z</time></trkpt><trkpt lat="59.3505871017" lon="34.6993608400"><ele>167.22</ele><time>2026-08-14T14:11:00Z</time></trkpt><trkpt lat="59.3505737744" lon="34.6993801184"><ele>166.34</ele><time>2026-08-14T14:11:39Z</time></trkpt><trkpt lat="59.3505860958" lon="34.6993842255"><ele>165.72</ele><time>2026-08-14T14:12:08Z</time></trkpt><trkpt lat="59.3505848385" lon="34.6993940324"><ele>165.33</ele><time>2026-08-14T14:13:09Z</time></trkpt><trkpt lat="59.3505979981" lon="34.6994065214"><ele>165.99</ele><time>2026-08-14T14:14:24Z</time></trkpt><trkpt lat="59.3506022729" lon="34.6994069405"><ele>167.42</ele><time>2026-08-14T14:15:35Z</time></trkpt><trkpt lat="59.3506001774" lon="34.6994000673"><ele>166.79</ele><time>2026-08-14T14:16:28Z</time></trkpt><trkpt lat="59.3505981658" lon="34.6994103771"><ele>166.52</ele><time>2026-08-14T14:17:28Z</time></trkpt><trkpt lat="59.3506022729" lon="34.6994148195"><ele>167.27</ele><time>2026-08-14T14:18:36Z</time></trkpt><trkpt lat="59.3505924661" lon="34.6994065214"><ele>166.80</ele><time>2026-08-14T14:19:07Z</time></trkpt><trkpt lat="59.3505960703" lon="34.6994239558"><ele>166.34</ele><time>2026-08-14T14:19:38Z</time></trkpt><trkpt lat="59.3505790550" lon="34.6994100418"><ele>165.30</ele><time>2026-08-14T14:20:11Z</time></trkpt><trkpt lat="59.3505727686" lon="34.6994218603"><ele>163.29</ele><time>2026-08-14T14:21:33Z</time></trkpt><trkpt lat="59.3505685776" lon="34.6994008217"><ele>162.42</ele><time>2026-08-14T14:22:47Z</time></trkpt><trkpt lat="59.3505670689" lon="34.6993665397"><ele>162.80</ele><time>2026-08-14T14:24:08Z</time></trkpt><trkpt lat="59.3505720980" lon="34.6993734967"><ele>162.54</ele><time>2026-08-14T14:25:36Z</time></trkpt><trkpt lat="59.3505688291" lon="34.6993663721"><ele>162.44</ele><time>2026-08-14T14:26:56Z</time></trkpt><trkpt lat="59.3505680747" lon="34.6993997321"><ele>162.66</ele><time>2026-08-14T14:28:16Z</time></trkpt><trkpt lat="59.3505689129" lon="34.6993914340"><ele>163.48</ele><time>2026-08-14T14:29:43Z</time></trkpt><trkpt lat="59.3505662307" lon="34.6993836388"><ele>164.62</ele><time>2026-08-14T14:31:08Z</time></trkpt><trkpt lat="59.3505689129" lon="34.6993975528"><ele>163.81</ele><time>2026-08-14T14:32:26Z</time></trkpt><trkpt lat="59.3505676556" lon="34.6994197648"><ele>164.44</ele><time>2026-08-14T14:33:41Z</time></trkpt><trkpt lat="59.3505746126" lon="34.6993971337"><ele>164.33</ele><time>2026-08-14T14:34:48Z</time></trkpt><trkpt lat="59.3505715113" lon="34.6993918531"><ele>165.10</ele><time>2026-08-14T14:35:58Z</time></trkpt><trkpt lat="59.3505699188" lon="34.6994019113"><ele>165.26</ele><time>2026-08-14T14:36:58Z</time></trkpt><trkpt lat="59.3505683262" lon="34.6994247101"><ele>165.81</ele><time>2026-08-14T14:38:06Z</time></trkpt><trkpt lat="59.3505671527" lon="34.6994346846"><ele>164.82</ele><time>2026-08-14T14:38:58Z</time></trkpt><trkpt lat="59.3505638000" lon="34.6994047612"><ele>164.64</ele><time>2026-08-14T14:40:05Z</time></trkpt><trkpt lat="59.3505684938" lon="34.6994071081"><ele>164.76</ele><time>2026-08-14T14:41:15Z</time></trkpt><trkpt lat="59.3505687453" lon="34.6994335949"><ele>163.80</ele><time>2026-08-14T14:42:14Z</time></trkpt><trkpt lat="59.3505708408" lon="34.6994076110"><ele>164.83</ele><time>2026-08-14T14:43:40Z</time></trkpt><trkpt lat="59.3505590223" lon="34.6994145680"><ele>163.49</ele><time>2026-08-14T14:44:57Z</time></trkpt><trkpt lat="59.3505643029" lon="34.6994168311"><ele>163.27</ele><time>2026-08-14T14:46:07Z</time></trkpt><trkpt lat="59.3505745288" lon="34.6994273085"><ele>164.76</ele><time>2026-08-14T14:47:03Z</time></trkpt><trkpt lat="59.3505741935" lon="34.6994091198"><ele>165.17</ele><time>2026-08-14T14:47:33Z</time></trkpt><trkpt lat="59.3505849224" lon="34.6994080301"><ele>166.07</ele><time>2026-08-14T14:48:44Z</time></trkpt><trkpt lat="59.3505774625" lon="34.6993876621"><ele>166.90</ele><time>2026-08-14T14:50:05Z</time></trkpt><trkpt lat="59.3505766243" lon="34.6993868239"><ele>166.79</ele><time>2026-08-14T14:51:05Z</time></trkpt><trkpt lat="59.3505752832" lon="34.6993852314"><ele>166.74</ele><time>2026-08-14T14:52:06Z</time></trkpt><trkpt lat="59.3505776301" lon="34.6993863210"><ele>166.53</ele><time>2026-08-14T14:52:57Z</time></trkpt><trkpt lat="59.3505687453" lon="34.6993951220"><ele>165.98</ele><time>2026-08-14T14:53:51Z</time></trkpt><trkpt lat="59.3505746126" lon="34.6993901767"><ele>165.57</ele><time>2026-08-14T14:54:59Z</time></trkpt><trkpt lat="59.3505624589" lon="34.6993978042"><ele>166.01</ele><time>2026-08-14T14:56:05Z</time></trkpt><trkpt lat="59.3505689129" lon="34.6994032525"><ele>165.11</ele><time>2026-08-14T14:57:01Z</time></trkpt><trkpt lat="59.3505770434" lon="34.6994009055"><ele>164.00</ele><time>2026-08-14T14:58:03Z</time></trkpt><trkpt lat="59.3505819887" lon="34.6993900090"><ele>163.80</ele><time>2026-08-14T14:59:11Z</time></trkpt><trkpt lat="59.3505850062" lon="34.6993961278"><ele>162.61</ele><time>2026-08-14T15:00:27Z</time></trkpt><trkpt lat="59.3505703378" lon="34.6993999835"><ele>161.12</ele><time>2026-08-14T15:01:36Z</time></trkpt><trkpt lat="59.3505741097" lon="34.6993931103"><ele>162.04</ele><time>2026-08-14T15:02:43Z</time></trkpt><trkpt lat="59.3505728524" lon="34.6994019113"><ele>161.02</ele><time>2026-08-14T15:03:49Z</time></trkpt><trkpt lat="59.3505690806" lon="34.6993994806"><ele>158.84</ele><time>2026-08-14T15:04:37Z</time></trkpt><trkpt lat="59.3505586870" lon="34.6993986424"><ele>159.25</ele><time>2026-08-14T15:05:09Z</time></trkpt><trkpt lat="59.3505596090" lon="34.6993601695"><ele>159.46</ele><time>2026-08-14T15:05:39Z</time></trkpt><trkpt lat="59.3505659793" lon="34.6993717365"><ele>158.65</ele><time>2026-08-14T15:06:33Z</time></trkpt><trkpt lat="59.3505593576" lon="34.6994092874"><ele>159.75</ele><time>2026-08-14T15:07:47Z</time></trkpt><trkpt lat="59.3505663984" lon="34.6994012408"><ele>160.40</ele><time>2026-08-14T15:08:50Z</time></trkpt><trkpt lat="59.3505684100" lon="34.6994030848"><ele>162.02</ele><time>2026-08-14T15:09:54Z</time></trkpt><trkpt lat="59.3505560048" lon="34.6993989777"><ele>161.92</ele><time>2026-08-14T15:10:58Z</time></trkpt><trkpt lat="59.3505688291" lon="34.6993796155"><ele>161.34</ele><time>2026-08-14T15:11:31Z</time></trkpt><trkpt lat="59.3505652249" lon="34.6993587445"><ele>161.21</ele><time>2026-08-14T15:12:53Z</time></trkpt><trkpt lat="59.3505716790" lon="34.6993644442"><ele>162.60</ele><time>2026-08-14T15:14:08Z</time></trkpt><trkpt lat="59.3505647220" lon="34.6993509494"><ele>162.61</ele><time>2026-08-14T15:15:14Z</time></trkpt><trkpt lat="59.3505803123" lon="34.6993776038"><ele>163.07</ele><time>2026-08-14T15:16:17Z</time></trkpt><trkpt lat="59.3505889457" lon="34.6993774362"><ele>163.29</ele><time>2026-08-14T15:17:01Z</time></trkpt><trkpt lat="59.3505776301" lon="34.6993601695"><ele>163.78</ele><time>2026-08-14T15:17:33Z</time></trkpt><trkpt lat="59.3505599443" lon="34.6993228700"><ele>163.79</ele><time>2026-08-14T15:18:31Z</time></trkpt><trkpt lat="59.3505519815" lon="34.6993139852"><ele>164.06</ele><time>2026-08-14T15:19:05Z</time></trkpt><trkpt lat="59.3505889457" lon="34.6993734129"><ele>162.75</ele><time>2026-08-14T15:20:22Z</time></trkpt><trkpt lat="59.3505824078" lon="34.6993812080"><ele>162.92</ele><time>2026-08-14T15:21:18Z</time></trkpt><trkpt lat="59.3505662307" lon="34.6993633546"><ele>161.79</ele><time>2026-08-14T15:22:25Z</time></trkpt><trkpt lat="59.3505457789" lon="34.6993751731"><ele>160.29</ele><time>2026-08-14T15:23:36Z</time></trkpt><trkpt lat="59.3505423423" lon="34.6993637737"><ele>159.37</ele><time>2026-08-14T15:24:40Z</time></trkpt><trkpt lat="59.3505460303" lon="34.6993530449"><ele>158.58</ele><time>2026-08-14T15:25:59Z</time></trkpt><trkpt lat="59.3505492993" lon="34.6993544698"><ele>157.87</ele><time>2026-08-14T15:27:25Z</time></trkpt><trkpt lat="59.3505531549" lon="34.6993676294"><ele>157.88</ele><time>2026-08-14T15:28:43Z</time></trkpt><trkpt lat="59.3505465332" lon="34.6993750893"><ele>158.78</ele><time>2026-08-14T15:29:51Z</time></trkpt><trkpt lat="59.3505598605" lon="34.6994053479"><ele>159.31</ele><time>2026-08-14T15:31:05Z</time></trkpt><trkpt lat="59.3505503889" lon="34.6993821301"><ele>159.91</ele><time>2026-08-14T15:32:31Z</time></trkpt><trkpt lat="59.3505560048" lon="34.6994013246"><ele>159.62</ele><time>2026-08-14T15:33:35Z</time></trkpt><trkpt lat="59.3505565077" lon="34.6993772686"><ele>159.86</ele><time>2026-08-14T15:34:41Z</time></trkpt><trkpt lat="59.3505501375" lon="34.6993861534"><ele>158.04</ele><time>2026-08-14T15:35:41Z</time></trkpt><trkpt lat="59.3505525682" lon="34.6993514523"><ele>158.53</ele><time>2026-08-14T15:36:43Z</time></trkpt><trkpt lat="59.3505536579" lon="34.6993470937"><ele>157.27</ele><time>2026-08-14T15:38:00Z</time></trkpt><trkpt lat="59.3505570106" lon="34.6993666235"><ele>157.40</ele><time>2026-08-14T15:39:14Z</time></trkpt><trkpt lat="59.3505430128" lon="34.6993539669"><ele>157.13</ele><time>2026-08-14T15:40:37Z</time></trkpt><trkpt lat="59.3505482934" lon="34.6993679646"><ele>158.09</ele><time>2026-08-14T15:42:00Z</time></trkpt><trkpt lat="59.3505579326" lon="34.6993621811"><ele>158.33</ele><time>2026-08-14T15:43:21Z</time></trkpt><trkpt lat="59.3505565915" lon="34.6993807890"><ele>158.13</ele><time>2026-08-14T15:44:35Z</time></trkpt><trkpt lat="59.3505476229" lon="34.6993637737"><ele>157.90</ele><time>2026-08-14T15:45:57Z</time></trkpt><trkpt lat="59.3505568430" lon="34.6993597504"><ele>156.67</ele><time>2026-08-14T15:47:09Z</time></trkpt><trkpt lat="59.3505661469" lon="34.6993934456"><ele>156.05</ele><time>2026-08-14T15:48:27Z</time></trkpt><trkpt lat="59.3505579326" lon="34.6993700601"><ele>157.68</ele><time>2026-08-14T15:49:49Z</time></trkpt><trkpt lat="59.3505633809" lon="34.6993861534"><ele>159.48</ele><time>2026-08-14T15:51:12Z</time></trkpt><trkpt lat="59.3505528197" lon="34.6993913502"><ele>159.12</ele><time>2026-08-14T15:52:31Z</time></trkpt><trkpt lat="59.3505503051" lon="34.6993790288"><ele>159.00</ele><time>2026-08-14T15:53:54Z</time></trkpt><trkpt lat="59.3505503051" lon="34.6993649472"><ele>159.04</ele><time>2026-08-14T15:55:11Z</time></trkpt><trkpt lat="59.3505720142" lon="34.6994011570"><ele>160.73</ele><time>2026-08-14T15:56:24Z</time></trkpt><trkpt lat="59.3505665660" lon="34.6993907634"><ele>158.96</ele><time>2026-08-14T15:57:46Z</time></trkpt><trkpt lat="59.3505427614" lon="34.6993826330"><ele>156.94</ele><time>2026-08-14T15:59:07Z</time></trkpt><trkpt lat="59.3505514786" lon="34.6993889194"><ele>158.70</ele><time>2026-08-14T16:00:28Z</time></trkpt><trkpt lat="59.3505594414" lon="34.6993869916"><ele>159.43</ele><time>2026-08-14T16:01:36Z</time></trkpt><trkpt lat="59.3505829945" lon="34.6993954573"><ele>160.50</ele><time>2026-08-14T16:02:42Z</time></trkpt><trkpt lat="59.3505848385" lon="34.6993801184"><ele>159.13</ele><time>2026-08-14T16:03:35Z</time></trkpt><trkpt lat="59.3505897000" lon="34.6993899252"><ele>159.96</ele><time>2026-08-14T16:04:23Z</time></trkpt><trkpt lat="59.3505661469" lon="34.6993926074"><ele>160.39</ele><time>2026-08-14T16:05:49Z</time></trkpt><trkpt lat="59.3505582679" lon="34.6993568167"><ele>161.32</ele><time>2026-08-14T16:07:13Z</time></trkpt><trkpt lat="59.3505541608" lon="34.6993668750"><ele>161.09</ele><time>2026-08-14T16:08:34Z</time></trkpt><trkpt lat="59.3505486287" lon="34.6993490215"><ele>160.35</ele><time>2026-08-14T16:09:58Z</time></trkpt><trkpt lat="59.3505556695" lon="34.6993353590"><ele>159.83</ele><time>2026-08-14T16:11:17Z</time></trkpt><trkpt lat="59.3505679909" lon="34.6993388794"><ele>160.38</ele><time>2026-08-14T16:12:39Z</time></trkpt><trkpt lat="59.3505511433" lon="34.6993528772"><ele>158.89</ele><time>2026-08-14T16:14:02Z</time></trkpt><trkpt lat="59.3505696673" lon="34.6993689705"><ele>158.54</ele><time>2026-08-14T16:15:31Z</time></trkpt><trkpt lat="59.3505380675" lon="34.6993512008"><ele>158.85</ele><time>2026-08-14T16:16:58Z</time></trkpt><trkpt lat="59.3505624589" lon="34.6993557271"><ele>160.59</ele><time>2026-08-14T16:18:24Z</time></trkpt><trkpt lat="59.3505386543" lon="34.6993376222"><ele>160.04</ele><time>2026-08-14T16:19:58Z</time></trkpt><trkpt lat="59.3505525682" lon="34.6993571520"><ele>158.30</ele><time>2026-08-14T16:21:27Z</time></trkpt><trkpt lat="59.3505661469" lon="34.6993475966"><ele>159.04</ele><time>2026-08-14T16:22:51Z</time></trkpt><trkpt lat="59.3505523168" lon="34.6993538830"><ele>158.18</ele><time>2026-08-14T16:23:41Z</time></trkpt><trkpt lat="59.3505639676" lon="34.6993589122"><ele>159.61</ele><time>2026-08-14T16:25:04Z</time></trkpt><trkpt lat="59.3505761214" lon="34.6993765980"><ele>161.29</ele><time>2026-08-14T16:26:34Z</time></trkpt><trkpt lat="59.3505708408" lon="34.6993790288"><ele>160.93</ele><time>2026-08-14T16:27:50Z</time></trkpt><trkpt lat="59.3505622912" lon="34.6993947867"><ele>159.60</ele><time>2026-08-14T16:29:06Z</time></trkpt><trkpt lat="59.3505735230" lon="34.6993600018"><ele>161.04</ele><time>2026-08-14T16:30:30Z</time></trkpt><trkpt lat="59.3505674880" lon="34.6993160807"><ele>161.94</ele><time>2026-08-14T16:31:53Z</time></trkpt><trkpt lat="59.3505720980" lon="34.6993280668"><ele>163.02</ele><time>2026-08-14T16:33:15Z</time></trkpt><trkpt lat="59.3505677395" lon="34.6993661206"><ele>164.09</ele><time>2026-08-14T16:34:43Z</time></trkpt><trkpt lat="59.3505743612" lon="34.6994024143"><ele>163.46</ele><time>2026-08-14T16:36:14Z</time></trkpt><trkpt lat="59.3505552504" lon="34.6993651148"><ele>161.88</ele><time>2026-08-14T16:37:37Z</time></trkpt><trkpt lat="59.3505711760" lon="34.6993709821"><ele>163.08</ele><time>2026-08-14T16:39:11Z</time></trkpt><trkpt lat="59.3505867664" lon="34.6994339302"><ele>167.06</ele><time>2026-08-14T16:40:45Z</time></trkpt><trkpt lat="59.3505699188" lon="34.6994171664"><ele>165.51</ele><time>2026-08-14T16:42:08Z</time></trkpt><trkpt lat="59.3505960703" lon="34.6994137298"><ele>167.83</ele><time>2026-08-14T16:43:34Z</time></trkpt><trkpt lat="59.3505829107" lon="34.6994196810"><ele>169.53</ele><time>2026-08-14T16:45:05Z</time></trkpt><trkpt lat="59.3505741097" lon="34.6994169150"><ele>168.09</ele><time>2026-08-14T16:46:34Z</time></trkpt><trkpt lat="59.3505715113" lon="34.6994033363"><ele>167.08</ele><time>2026-08-14T16:47:55Z</time></trkpt><trkpt lat="59.3505731039" lon="34.6994162444"><ele>166.64</ele><time>2026-08-14T16:49:32Z</time></trkpt><trkpt lat="59.3505793065" lon="34.6993973013"><ele>168.52</ele><time>2026-08-14T16:51:05Z</time></trkpt><trkpt lat="59.3505916279" lon="34.6993926913"><ele>167.84</ele><time>2026-08-14T16:52:34Z</time></trkpt><trkpt lat="59.3505940586" lon="34.6994020790"><ele>167.80</ele><time>2026-08-14T16:54:01Z</time></trkpt><trkpt lat="59.3506056257" lon="34.6994001511"><ele>168.61</ele><time>2026-08-14T16:55:37Z</time></trkpt><trkpt lat="59.3505819049" lon="34.6994005702"><ele>167.13</ele><time>2026-08-14T16:57:07Z</time></trkpt><trkpt lat="59.3505724333" lon="34.6994053479"><ele>166.56</ele><time>2026-08-14T16:58:36Z</time></trkpt><trkpt lat="59.3505828269" lon="34.6993859019"><ele>167.39</ele><time>2026-08-14T17:00:07Z</time></trkpt><trkpt lat="59.3505819049" lon="34.6993998159"><ele>167.66</ele><time>2026-08-14T17:01:38Z</time></trkpt><trkpt lat="59.3505807314" lon="34.6994076949"><ele>167.89</ele><time>2026-08-14T17:03:12Z</time></trkpt><trkpt lat="59.3505822401" lon="34.6993951220"><ele>168.57</ele><time>2026-08-14T17:04:36Z</time></trkpt><trkpt lat="59.3505741935" lon="34.6994034201"><ele>168.23</ele><time>2026-08-14T17:05:53Z</time></trkpt><trkpt lat="59.3505824078" lon="34.6994040068"><ele>168.56</ele><time>2026-08-14T17:07:08Z</time></trkpt><trkpt lat="59.3505721819" lon="34.6994040068"><ele>168.43</ele><time>2026-08-14T17:08:06Z</time></trkpt><trkpt lat="59.3505713437" lon="34.6994325891"><ele>168.61</ele><time>2026-08-14T17:08:48Z</time></trkpt><trkpt lat="59.3505709246" lon="34.6994143166"><ele>168.15</ele><time>2026-08-14T17:09:23Z</time></trkpt><trkpt lat="59.3505830783" lon="34.6994019952"><ele>168.13</ele><time>2026-08-14T17:10:17Z</time></trkpt><trkpt lat="59.3505817372" lon="34.6994127240"><ele>167.29</ele><time>2026-08-14T17:11:08Z</time></trkpt><trkpt lat="59.3505856767" lon="34.6994246263"><ele>166.95</ele><time>2026-08-14T17:12:12Z</time></trkpt><trkpt lat="59.3505806476" lon="34.6994122211"><ele>167.44</ele><time>2026-08-14T17:13:21Z</time></trkpt><trkpt lat="59.3505751155" lon="34.6994182561"><ele>166.33</ele><time>2026-08-14T17:14:35Z</time></trkpt><trkpt lat="59.3505831622" lon="34.6994044259"><ele>166.50</ele><time>2026-08-14T17:15:56Z</time></trkpt><trkpt lat="59.3506042846" lon="34.6994025819"><ele>169.57</ele><time>2026-08-14T17:17:26Z</time></trkpt><trkpt lat="59.3505817372" lon="34.6994061861"><ele>168.86</ele><time>2026-08-14T17:18:39Z</time></trkpt><trkpt lat="59.3505743612" lon="34.6994209383"><ele>165.62</ele><time>2026-08-14T17:20:03Z</time></trkpt><trkpt lat="59.3505676556" lon="34.6994132269"><ele>165.35</ele><time>2026-08-14T17:21:26Z</time></trkpt><trkpt lat="59.3505768757" lon="34.6994211897"><ele>165.18</ele><time>2026-08-14T17:23:00Z</time></trkpt><trkpt lat="59.3505750317" lon="34.6994299069"><ele>165.12</ele><time>2026-08-14T17:23:51Z</time></trkpt><trkpt lat="59.3505773786" lon="34.6994013246"><ele>164.93</ele><time>2026-08-14T17:25:13Z</time></trkpt><trkpt lat="59.3505851738" lon="34.6994067729"><ele>166.07</ele><time>2026-08-14T17:26:48Z</time></trkpt><trkpt lat="59.3505513109" lon="34.6994039230"><ele>163.91</ele><time>2026-08-14T17:28:16Z</time></trkpt><trkpt lat="59.3505553342" lon="34.6993926074"><ele>162.74</ele><time>2026-08-14T17:29:17Z</time></trkpt><trkpt lat="59.3505611178" lon="34.6993881650"><ele>164.26</ele><time>2026-08-14T17:30:54Z</time></trkpt><trkpt lat="59.3505707569" lon="34.6993953735"><ele>165.85</ele><time>2026-08-14T17:32:23Z</time></trkpt><trkpt lat="59.3505658954" lon="34.6994055156"><ele>164.98</ele><time>2026-08-14T17:33:58Z</time></trkpt><trkpt lat="59.3505504727" lon="34.6994183399"><ele>163.66</ele><time>2026-08-14T17:35:30Z</time></trkpt><trkpt lat="59.3505643029" lon="34.6994151548"><ele>163.31</ele><time>2026-08-14T17:36:47Z</time></trkpt><trkpt lat="59.3505660631" lon="34.6994055994"><ele>164.55</ele><time>2026-08-14T17:38:06Z</time></trkpt><trkpt lat="59.3505835813" lon="34.6993957087"><ele>164.70</ele><time>2026-08-14T17:39:32Z</time></trkpt><trkpt lat="59.3505720980" lon="34.6994030010"><ele>165.41</ele><time>2026-08-14T17:40:50Z</time></trkpt><trkpt lat="59.3505712599" lon="34.6993984748"><ele>166.77</ele><time>2026-08-14T17:42:15Z</time></trkpt><trkpt lat="59.3505814858" lon="34.6993967146"><ele>166.46</ele><time>2026-08-14T17:43:40Z</time></trkpt><trkpt lat="59.3505773786" lon="34.6993685514"><ele>167.09</ele><time>2026-08-14T17:45:00Z</time></trkpt><trkpt lat="59.3505928013" lon="34.6994089521"><ele>166.60</ele><time>2026-08-14T17:46:31Z</time></trkpt><trkpt lat="59.3505760375" lon="34.6994090360"><ele>165.09</ele><time>2026-08-14T17:48:04Z</time></trkpt><trkpt lat="59.3505846709" lon="34.6994235367"><ele>165.08</ele><time>2026-08-14T17:49:37Z</time></trkpt><trkpt lat="59.3505542446" lon="34.6994091198"><ele>163.88</ele><time>2026-08-14T17:51:11Z</time></trkpt><trkpt lat="59.3505505566" lon="34.6994003188"><ele>164.38</ele><time>2026-08-14T17:52:42Z</time></trkpt><trkpt lat="59.3505655602" lon="34.6994192619"><ele>163.34</ele><time>2026-08-14T17:54:18Z</time></trkpt><trkpt lat="59.3505653087" lon="34.6994028334"><ele>164.78</ele><time>2026-08-14T17:55:53Z</time></trkpt><trkpt lat="59.3505669851" lon="34.6994131431"><ele>165.81</ele><time>2026-08-14T17:57:33Z</time></trkpt><trkpt lat="59.3505635485" lon="34.6994260512"><ele>166.49</ele><time>2026-08-14T17:58:49Z</time></trkpt><trkpt lat="59.3505617883" lon="34.6994443238"><ele>165.96</ele><time>2026-08-14T18:00:19Z</time></trkpt><trkpt lat="59.3505776301" lon="34.6994454134"><ele>165.19</ele><time>2026-08-14T18:01:33Z</time></trkpt><trkpt lat="59.3505873531" lon="34.6994354390"><ele>165.80</ele><time>2026-08-14T18:02:40Z</time></trkpt><trkpt lat="59.3505713437" lon="34.6994186752"><ele>164.86</ele><time>2026-08-14T18:03:51Z</time></trkpt><trkpt lat="59.3505780492" lon="34.6994406357"><ele>164.91</ele><time>2026-08-14T18:05:05Z</time></trkpt><trkpt lat="59.3505617883" lon="34.6994083654"><ele>165.63</ele><time>2026-08-14T18:06:16Z</time></trkpt><trkpt lat="59.3505560048" lon="34.6994220279"><ele>164.02</ele><time>2026-08-14T18:07:38Z</time></trkpt><trkpt lat="59.3505614530" lon="34.6993905120"><ele>165.77</ele><time>2026-08-14T18:08:54Z</time></trkpt><trkpt lat="59.3505596928" lon="34.6993808728"><ele>168.70</ele><time>2026-08-14T18:10:18Z</time></trkpt><trkpt lat="59.3505554181" lon="34.6994041745"><ele>169.30</ele><time>2026-08-14T18:11:24Z</time></trkpt><trkpt lat="59.3505705055" lon="34.6993890032"><ele>170.30</ele><time>2026-08-14T18:12:49Z</time></trkpt><trkpt lat="59.3505732715" lon="34.6994160768"><ele>169.65</ele><time>2026-08-14T18:13:54Z</time></trkpt><trkpt lat="59.3505680747" lon="34.6994197648"><ele>167.48</ele><time>2026-08-14T18:14:49Z</time></trkpt><trkpt lat="59.3505520653" lon="34.6993775200"><ele>167.95</ele><time>2026-08-14T18:15:20Z</time></trkpt><trkpt lat="59.3505979143" lon="34.6994176693"><ele>169.63</ele><time>2026-08-14T18:15:55Z</time></trkpt><trkpt lat="59.3505971599" lon="34.6994302422"><ele>167.76</ele><time>2026-08-14T18:16:51Z</time></trkpt><trkpt lat="59.3505901191" lon="34.6994140651"><ele>168.05</ele><time>2026-08-14T18:17:38Z</time></trkpt><trkpt lat="59.3505777977" lon="34.6994122211"><ele>169.20</ele><time>2026-08-14T18:18:28Z</time></trkpt><trkpt lat="59.3505742773" lon="34.6994216926"><ele>169.10</ele><time>2026-08-14T18:19:26Z</time></trkpt><trkpt lat="59.3505831622" lon="34.6994308289"><ele>167.45</ele><time>2026-08-14T18:20:03Z</time></trkpt><trkpt lat="59.3505672365" lon="34.6994280629"><ele>164.89</ele><time>2026-08-14T18:21:09Z</time></trkpt><trkpt lat="59.3505746964" lon="34.6994405519"><ele>164.81</ele><time>2026-08-14T18:21:50Z</time></trkpt><trkpt lat="59.3505775463" lon="34.6994416416"><ele>163.18</ele><time>2026-08-14T18:22:57Z</time></trkpt><trkpt lat="59.3505792227" lon="34.6994438209"><ele>163.98</ele><time>2026-08-14T18:23:53Z</time></trkpt><trkpt lat="59.3505721819" lon="34.6994421445"><ele>162.73</ele><time>2026-08-14T18:24:42Z</time></trkpt><trkpt lat="59.3505605310" lon="34.6994494367"><ele>161.52</ele><time>2026-08-14T18:25:26Z</time></trkpt><trkpt lat="59.3505485449" lon="34.6994437370"><ele>160.92</ele><time>2026-08-14T18:26:11Z</time></trkpt><trkpt lat="59.3505503889" lon="34.6994328406"><ele>160.07</ele><time>2026-08-14T18:26:43Z</time></trkpt><trkpt lat="59.3505440187" lon="34.6994306613"><ele>158.50</ele><time>2026-08-14T18:27:43Z</time></trkpt><trkpt lat="59.3505480420" lon="34.6994277276"><ele>158.17</ele><time>2026-08-14T18:28:26Z</time></trkpt><trkpt lat="59.3505553342" lon="34.6994473413"><ele>158.57</ele><time>2026-08-14T18:29:27Z</time></trkpt><trkpt lat="59.3505609501" lon="34.6994532924"><ele>158.67</ele><time>2026-08-14T18:30:33Z</time></trkpt><trkpt lat="59.3505646382" lon="34.6994662005"><ele>159.40</ele><time>2026-08-14T18:31:14Z</time></trkpt><trkpt lat="59.3505406659" lon="34.6994358581"><ele>158.60</ele><time>2026-08-14T18:32:04Z</time></trkpt><trkpt lat="59.3505411688" lon="34.6994445752"><ele>157.61</ele><time>2026-08-14T18:33:01Z</time></trkpt><trkpt lat="59.3505374808" lon="34.6994383726"><ele>156.67</ele><time>2026-08-14T18:33:50Z</time></trkpt><trkpt lat="59.3505441863" lon="34.6994410548"><ele>157.52</ele><time>2026-08-14T18:34:44Z</time></trkpt><trkpt lat="59.3505420908" lon="34.6994454134"><ele>156.98</ele><time>2026-08-14T18:35:27Z</time></trkpt><trkpt lat="59.3505297694" lon="34.6994522866"><ele>157.88</ele><time>2026-08-14T18:36:34Z</time></trkpt><trkpt lat="59.3505295180" lon="34.6994621772"><ele>157.04</ele><time>2026-08-14T18:37:15Z</time></trkpt><trkpt lat="59.3505320325" lon="34.6994485147"><ele>156.41</ele><time>2026-08-14T18:37:49Z</time></trkpt><trkpt lat="59.3505359720" lon="34.6994388755"><ele>158.62</ele><time>2026-08-14T18:38:59Z</time></trkpt><trkpt lat="59.3505634647" lon="34.6994541306"><ele>159.92</ele><time>2026-08-14T18:40:03Z</time></trkpt><trkpt lat="59.3505610339" lon="34.6994780190"><ele>158.51</ele><time>2026-08-14T18:41:16Z</time></trkpt><trkpt lat="59.3505643867" lon="34.6994563937"><ele>158.92</ele><time>2026-08-14T18:42:21Z</time></trkpt><trkpt lat="59.3505676556" lon="34.6994607523"><ele>158.79</ele><time>2026-08-14T18:43:12Z</time></trkpt><trkpt lat="59.3505404145" lon="34.6994566452"><ele>158.02</ele><time>2026-08-14T18:44:15Z</time></trkpt><trkpt lat="59.3505414203" lon="34.6994522028"><ele>157.60</ele><time>2026-08-14T18:45:27Z</time></trkpt><trkpt lat="59.3505507242" lon="34.6994566452"><ele>156.99</ele><time>2026-08-14T18:46:40Z</time></trkpt><trkpt lat="59.3505469523" lon="34.6994529571"><ele>157.05</ele><time>2026-08-14T18:47:51Z</time></trkpt><trkpt lat="59.3505503051" lon="34.6994554717"><ele>157.07</ele><time>2026-08-14T18:48:57Z</time></trkpt><trkpt lat="59.3505441863" lon="34.6994507778"><ele>156.45</ele><time>2026-08-14T18:50:01Z</time></trkpt><trkpt lat="59.3505461980" lon="34.6994513646"><ele>156.63</ele><time>2026-08-14T18:50:50Z</time></trkpt><trkpt lat="59.3505478743" lon="34.6994630154"><ele>156.28</ele><time>2026-08-14T18:51:44Z</time></trkpt><trkpt lat="59.3505353015" lon="34.6994565614"><ele>155.13</ele><time>2026-08-14T18:52:43Z</time></trkpt><trkpt lat="59.3505317811" lon="34.6994683798"><ele>155.21</ele><time>2026-08-14T18:53:43Z</time></trkpt><trkpt lat="59.3505819887" lon="34.6994724870"><ele>161.31</ele><time>2026-08-14T18:54:24Z</time></trkpt><trkpt lat="59.3505878560" lon="34.6994832996"><ele>162.15</ele><time>2026-08-14T18:55:25Z</time></trkpt><trkpt lat="59.3505855091" lon="34.6994591597"><ele>162.38</ele><time>2026-08-14T18:56:32Z</time></trkpt><trkpt lat="59.3505589385" lon="34.6994562261"><ele>160.44</ele><time>2026-08-14T18:57:26Z</time></trkpt><trkpt lat="59.3505409174" lon="34.6994553041"><ele>159.33</ele><time>2026-08-14T18:58:20Z</time></trkpt><trkpt lat="59.3505317811" lon="34.6994651947"><ele>159.16</ele><time>2026-08-14T18:59:17Z</time></trkpt><trkpt lat="59.3505458627" lon="34.6994637698"><ele>159.62</ele><time>2026-08-14T19:00:12Z</time></trkpt><trkpt lat="59.3505438510" lon="34.6994540468"><ele>159.30</ele><time>2026-08-14T19:00:55Z</time></trkpt><trkpt lat="59.3505496345" lon="34.6994388755"><ele>159.04</ele><time>2026-08-14T19:01:42Z</time></trkpt><trkpt lat="59.3505610339" lon="34.6994542982"><ele>160.02</ele><time>2026-08-14T19:02:34Z</time></trkpt><trkpt lat="59.3505661469" lon="34.6994542982"><ele>160.69</ele><time>2026-08-14T19:03:42Z</time></trkpt><trkpt lat="59.3505630456" lon="34.6994532924"><ele>161.12</ele><time>2026-08-14T19:04:49Z</time></trkpt><trkpt lat="59.3505596928" lon="34.6994582377"><ele>160.54</ele><time>2026-08-14T19:05:45Z</time></trkpt><trkpt lat="59.3505606987" lon="34.6994478442"><ele>160.71</ele><time>2026-08-14T19:06:57Z</time></trkpt><trkpt lat="59.3505602796" lon="34.6994643565"><ele>160.37</ele><time>2026-08-14T19:08:09Z</time></trkpt><trkpt lat="59.3505639676" lon="34.6994710620"><ele>160.21</ele><time>2026-08-14T19:09:11Z</time></trkpt><trkpt lat="59.3505507242" lon="34.6994660329"><ele>159.09</ele><time>2026-08-14T19:10:24Z</time></trkpt><trkpt lat="59.3505343795" lon="34.6994720679"><ele>158.84</ele><time>2026-08-14T19:11:32Z</time></trkpt><trkpt lat="59.3505338766" lon="34.6994537953"><ele>158.76</ele><time>2026-08-14T19:12:55Z</time></trkpt><trkpt lat="59.3505313620" lon="34.6994604170"><ele>158.80</ele><time>2026-08-14T19:14:01Z</time></trkpt><trkpt lat="59.3505345471" lon="34.6994630154"><ele>158.20</ele><time>2026-08-14T19:15:12Z</time></trkpt><trkpt lat="59.3505329546" lon="34.6994725708"><ele>158.15</ele><time>2026-08-14T19:16:19Z</time></trkpt><trkpt lat="59.3505251594" lon="34.6994497720"><ele>156.95</ele><time>2026-08-14T19:17:31Z</time></trkpt><trkpt lat="59.3505285122" lon="34.6994363610"><ele>156.83</ele><time>2026-08-14T19:18:38Z</time></trkpt><trkpt lat="59.3505530711" lon="34.6994408034"><ele>157.99</ele><time>2026-08-14T19:19:36Z</time></trkpt><trkpt lat="59.3505377322" lon="34.6994681284"><ele>157.71</ele><time>2026-08-14T19:20:37Z</time></trkpt><trkpt lat="59.3505383190" lon="34.6994797792"><ele>157.23</ele><time>2026-08-14T19:21:30Z</time></trkpt><trkpt lat="59.3505256623" lon="34.6994571481"><ele>156.89</ele><time>2026-08-14T19:22:11Z</time></trkpt><trkpt lat="59.3504925538" lon="34.6994685475"><ele>156.27</ele><time>2026-08-14T19:22:41Z</time></trkpt><trkpt lat="59.3504994269" lon="34.6994653624"><ele>155.83</ele><time>2026-08-14T19:23:45Z</time></trkpt><trkpt lat="59.3505109102" lon="34.6994633507"><ele>155.57</ele><time>2026-08-14T19:24:26Z</time></trkpt><trkpt lat="59.3505053781" lon="34.6994505264"><ele>155.66</ele><time>2026-08-14T19:25:41Z</time></trkpt><trkpt lat="59.3504875246" lon="34.6994362772"><ele>155.62</ele><time>2026-08-14T19:26:47Z</time></trkpt><trkpt lat="59.3505125865" lon="34.6994413063"><ele>157.09</ele><time>2026-08-14T19:28:02Z</time></trkpt><trkpt lat="59.3505270034" lon="34.6994455811"><ele>157.68</ele><time>2026-08-14T19:29:14Z</time></trkpt><trkpt lat="59.3505350500" lon="34.6994342655"><ele>159.83</ele><time>2026-08-14T19:30:23Z</time></trkpt><trkpt lat="59.3505379837" lon="34.6994549688"><ele>160.12</ele><time>2026-08-14T19:31:32Z</time></trkpt><trkpt lat="59.3505351339" lon="34.6994597465"><ele>159.98</ele><time>2026-08-14T19:32:08Z</time></trkpt><trkpt lat="59.3505415879" lon="34.6994653624"><ele>159.74</ele><time>2026-08-14T19:33:00Z</time></trkpt><trkpt lat="59.3505507242" lon="34.6994182561"><ele>159.67</ele><time>2026-08-14T19:33:33Z</time></trkpt><trkpt lat="59.3505373970" lon="34.6994361933"><ele>160.09</ele><time>2026-08-14T19:34:03Z</time></trkpt><trkpt lat="59.3505331222" lon="34.6994527895"><ele>161.55</ele><time>2026-08-14T19:35:03Z</time></trkpt><trkpt lat="59.3505536579" lon="34.6994575672"><ele>163.62</ele><time>2026-08-14T19:36:25Z</time></trkpt><trkpt lat="59.3505474553" lon="34.6994814556"><ele>164.07</ele><time>2026-08-14T19:37:36Z</time></trkpt><trkpt lat="59.3505403306" lon="34.6994683798"><ele>164.03</ele><time>2026-08-14T19:38:07Z</time></trkpt><trkpt lat="59.3505496345" lon="34.6994700562"><ele>162.87</ele><time>2026-08-14T19:38:39Z</time></trkpt><trkpt lat="59.3505463656" lon="34.6994158253"><ele>163.32</ele><time>2026-08-14T19:39:53Z</time></trkpt><trkpt lat="59.3505662307" lon="34.6994159091"><ele>166.73</ele><time>2026-08-14T19:41:02Z</time></trkpt><trkpt lat="59.3505674880" lon="34.6994157415"><ele>166.54</ele><time>2026-08-14T19:42:23Z</time></trkpt><trkpt lat="59.3505649734" lon="34.6994278114"><ele>167.52</ele><time>2026-08-14T19:43:42Z</time></trkpt><trkpt lat="59.3505692482" lon="34.6994464193"><ele>168.35</ele><time>2026-08-14T19:45:02Z</time></trkpt><trkpt lat="59.3505658116" lon="34.6994354390"><ele>166.16</ele><time>2026-08-14T19:46:22Z</time></trkpt><trkpt lat="59.3505620398" lon="34.6994319186"><ele>165.90</ele><time>2026-08-14T19:47:41Z</time></trkpt><trkpt lat="59.3505570106" lon="34.6994208544"><ele>166.35</ele><time>2026-08-14T19:49:02Z</time></trkpt><trkpt lat="59.3505638000" lon="34.6994465869"><ele>165.32</ele><time>2026-08-14T19:50:21Z</time></trkpt><trkpt lat="59.3505600281" lon="34.6994554717"><ele>166.98</ele><time>2026-08-14T19:51:31Z</time></trkpt><trkpt lat="59.3505644705" lon="34.6994516160"><ele>167.21</ele><time>2026-08-14T19:52:44Z</time></trkpt><trkpt lat="59.3505741097" lon="34.6994119696"><ele>167.57</ele><time>2026-08-14T19:54:02Z</time></trkpt><trkpt lat="59.3505829945" lon="34.6994253807"><ele>167.99</ele><time>2026-08-14T19:55:24Z</time></trkpt><trkpt lat="59.3505804799" lon="34.6994494367"><ele>166.70</ele><time>2026-08-14T19:56:41Z</time></trkpt><trkpt lat="59.3505937234" lon="34.6994524542"><ele>167.42</ele><time>2026-08-14T19:58:02Z</time></trkpt><trkpt lat="59.3505757861" lon="34.6994284820"><ele>169.17</ele><time>2026-08-14T19:59:29Z</time></trkpt><trkpt lat="59.3505601119" lon="34.6994286496"><ele>169.04</ele><time>2026-08-14T20:00:30Z</time></trkpt><trkpt lat="59.3505591061" lon="34.6994128916"><ele>170.10</ele><time>2026-08-14T20:01:02Z</time></trkpt><trkpt lat="59.3505681586" lon="34.6994328406"><ele>170.63</ele><time>2026-08-14T20:01:51Z</time></trkpt><trkpt lat="59.3505831622" lon="34.6994344331"><ele>170.52</ele><time>2026-08-14T20:02:26Z</time></trkpt><trkpt lat="59.3505544960" lon="34.6994295716"><ele>170.76</ele><time>2026-08-14T20:03:19Z</time></trkpt><trkpt lat="59.3505571783" lon="34.6994231176"><ele>171.09</ele><time>2026-08-14T20:03:57Z</time></trkpt><trkpt lat="59.3505686615" lon="34.6994306613"><ele>169.94</ele><time>2026-08-14T20:05:20Z</time></trkpt><trkpt lat="59.3505565077" lon="34.6994339302"><ele>170.42</ele><time>2026-08-14T20:05:54Z</time></trkpt><trkpt lat="59.3505602796" lon="34.6994328406"><ele>170.45</ele><time>2026-08-14T20:06:35Z</time></trkpt><trkpt lat="59.3505532388" lon="34.6994221117"><ele>169.96</ele><time>2026-08-14T20:07:09Z</time></trkpt><trkpt lat="59.3505605310" lon="34.6994306613"><ele>169.27</ele><time>2026-08-14T20:07:40Z</time></trkpt><trkpt lat="59.3505686615" lon="34.6994408034"><ele>170.26</ele><time>2026-08-14T20:08:53Z</time></trkpt><trkpt lat="59.3505745288" lon="34.6994305775"><ele>171.72</ele><time>2026-08-14T20:09:55Z</time></trkpt><trkpt lat="59.3505901191" lon="34.6994473413"><ele>173.10</ele><time>2026-08-14T20:11:13Z</time></trkpt><trkpt lat="59.3505960703" lon="34.6994541306"><ele>174.02</ele><time>2026-08-14T20:11:51Z</time></trkpt><trkpt lat="59.3505976629" lon="34.6994320024"><ele>173.18</ele><time>2026-08-14T20:13:05Z</time></trkpt><trkpt lat="59.3506000936" lon="34.6994396299"><ele>172.12</ele><time>2026-08-14T20:14:17Z</time></trkpt><trkpt lat="59.3506047875" lon="34.6994348522"><ele>172.67</ele><time>2026-08-14T20:15:10Z</time></trkpt><trkpt lat="59.3505880237" lon="34.6994454134"><ele>171.48</ele><time>2026-08-14T20:15:41Z</time></trkpt><trkpt lat="59.3505934719" lon="34.6994513646"><ele>171.59</ele><time>2026-08-14T20:16:39Z</time></trkpt><trkpt lat="59.3505960703" lon="34.6994596627"><ele>171.99</ele><time>2026-08-14T20:17:08Z</time></trkpt><trkpt lat="59.3505830783" lon="34.6994562261"><ele>174.49</ele><time>2026-08-14T20:17:40Z</time></trkpt><trkpt lat="59.3506172765" lon="34.6994460002"><ele>174.54</ele><time>2026-08-14T20:18:16Z</time></trkpt><trkpt lat="59.3506031949" lon="34.6994751692"><ele>174.82</ele><time>2026-08-14T20:19:34Z</time></trkpt><trkpt lat="59.3505917117" lon="34.6994420607"><ele>175.36</ele><time>2026-08-14T20:21:00Z</time></trkpt><trkpt lat="59.3506068829" lon="34.6994496044"><ele>174.42</ele><time>2026-08-14T20:22:22Z</time></trkpt><trkpt lat="59.3506104033" lon="34.6994411387"><ele>173.88</ele><time>2026-08-14T20:23:30Z</time></trkpt><trkpt lat="59.3506057095" lon="34.6994430665"><ele>173.42</ele><time>2026-08-14T20:24:47Z</time></trkpt><trkpt lat="59.3505948968" lon="34.6994496882"><ele>173.38</ele><time>2026-08-14T20:25:57Z</time></trkpt><trkpt lat="59.3506068829" lon="34.6994232852"><ele>172.80</ele><time>2026-08-14T20:27:13Z</time></trkpt><trkpt lat="59.3505931366" lon="34.6994363610"><ele>171.24</ele><time>2026-08-14T20:28:26Z</time></trkpt><trkpt lat="59.3505900353" lon="34.6994116344"><ele>171.05</ele><time>2026-08-14T20:29:32Z</time></trkpt><trkpt lat="59.3501825910" lon="34.6994937770"><ele>112.13</ele><time>2026-08-14T22:04:34Z</time></trkpt><trkpt lat="59.3503646459" lon="34.6996253729"><ele>139.88</ele><time>2026-08-14T22:04:49Z</time></trkpt><trkpt lat="59.3505456951" lon="34.6996887401"><ele>149.05</ele><time>2026-08-14T22:05:09Z</time></trkpt><trkpt lat="59.3504739460" lon="34.6996777598"><ele>151.21</ele><time>2026-08-14T22:05:25Z</time></trkpt><trkpt lat="59.3504720181" lon="34.6995113790"><ele>152.87</ele><time>2026-08-14T22:05:42Z</time></trkpt><trkpt lat="59.3505412526" lon="34.6996205114"><ele>161.32</ele><time>2026-08-14T22:20:09Z</time></trkpt><trkpt lat="59.3505478743" lon="34.6996143088"><ele>169.98</ele><time>2026-08-14T22:20:32Z</time></trkpt><trkpt lat="59.3505260814" lon="34.6994782705"><ele>160.97</ele><time>2026-08-14T22:20:58Z</time></trkpt><trkpt lat="59.3505568430" lon="34.6995463315"><ele>160.49</ele><time>2026-08-14T22:21:22Z</time></trkpt><trkpt lat="59.3505476229" lon="34.6996745747"><ele>161.42</ele><time>2026-08-14T22:21:47Z</time></trkpt><trkpt lat="59.3505525682" lon="34.6995939407"><ele>161.26</ele><time>2026-08-14T22:22:13Z</time></trkpt><trkpt lat="59.3505583517" lon="34.6995674539"><ele>159.58</ele><time>2026-08-14T22:22:35Z</time></trkpt><trkpt lat="59.3505606148" lon="34.6995680407"><ele>159.20</ele><time>2026-08-14T22:22:57Z</time></trkpt><trkpt lat="59.3505790550" lon="34.6996806096"><ele>158.28</ele><time>2026-08-14T22:23:15Z</time></trkpt><trkpt lat="59.3506140076" lon="34.6997161489"><ele>159.84</ele><time>2026-08-14T22:23:36Z</time></trkpt><trkpt lat="59.3505739421" lon="34.6995459963"><ele>158.76</ele><time>2026-08-14T22:23:55Z</time></trkpt><trkpt lat="59.3505736068" lon="34.6994994767"><ele>158.62</ele><time>2026-08-14T22:23:58Z</time></trkpt><trkpt lat="59.3505899515" lon="34.6993061900"><ele>157.38</ele><time>2026-08-14T22:24:12Z</time></trkpt><trkpt lat="59.3505891133" lon="34.6993952058"><ele>157.50</ele><time>2026-08-14T22:24:32Z</time></trkpt><trkpt lat="59.3505746964" lon="34.6993567329"><ele>157.67</ele><time>2026-08-14T22:24:51Z</time></trkpt><trkpt lat="59.3505649734" lon="34.6991954651"><ele>158.20</ele><time>2026-08-14T22:25:08Z</time></trkpt><trkpt lat="59.3505605310" lon="34.6992332675"><ele>158.24</ele><time>2026-08-14T22:25:10Z</time></trkpt><trkpt lat="59.3505586032" lon="34.6993755922"><ele>158.45</ele><time>2026-08-14T22:25:20Z</time></trkpt><trkpt lat="59.3505705055" lon="34.6993247140"><ele>158.24</ele><time>2026-08-14T22:25:31Z</time></trkpt><trkpt lat="59.3505551666" lon="34.6990954690"><ele>157.81</ele><time>2026-08-14T22:25:43Z</time></trkpt><trkpt lat="59.3505299371" lon="34.6989700757"><ele>157.72</ele><time>2026-08-14T22:25:59Z</time></trkpt><trkpt lat="59.3505020253" lon="34.6988582611"><ele>157.34</ele><time>2026-08-14T22:26:06Z</time></trkpt><trkpt lat="59.3504791427" lon="34.6986596938"><ele>157.12</ele><time>2026-08-14T22:26:16Z</time></trkpt><trkpt lat="59.3504537456" lon="34.6985596139"><ele>156.98</ele><time>2026-08-14T22:26:22Z</time></trkpt><trkpt lat="59.3504142668" lon="34.6984193008"><ele>156.62</ele><time>2026-08-14T22:26:28Z</time></trkpt><trkpt lat="59.3503964972" lon="34.6981183067"><ele>157.13</ele><time>2026-08-14T22:26:39Z</time></trkpt><trkpt lat="59.3503864389" lon="34.6980314702"><ele>157.29</ele><time>2026-08-14T22:26:43Z</time></trkpt><trkpt lat="59.3503432721" lon="34.6977640875"><ele>159.76</ele><time>2026-08-14T22:26:57Z</time></trkpt><trkpt lat="59.3502725288" lon="34.6974589862"><ele>161.50</ele><time>2026-08-14T22:27:14Z</time></trkpt><trkpt lat="59.3502191361" lon="34.6972567309"><ele>161.81</ele><time>2026-08-14T22:27:24Z</time></trkpt><trkpt lat="59.3501364067" lon="34.6969683096"><ele>163.25</ele><time>2026-08-14T22:27:38Z</time></trkpt><trkpt lat="59.3500945810" lon="34.6967444289"><ele>164.23</ele><time>2026-08-14T22:27:49Z</time></trkpt><trkpt lat="59.3500344828" lon="34.6965924650"><ele>164.69</ele><time>2026-08-14T22:27:58Z</time></trkpt><trkpt lat="59.3499686848" lon="34.6963632200"><ele>164.03</ele><time>2026-08-14T22:28:09Z</time></trkpt><trkpt lat="59.3499401864" lon="34.6961881220"><ele>164.03</ele><time>2026-08-14T22:28:17Z</time></trkpt><trkpt lat="59.3499429524" lon="34.6958460566"><ele>164.20</ele><time>2026-08-14T22:28:31Z</time></trkpt><trkpt lat="59.3499522563" lon="34.6958035603"><ele>164.19</ele><time>2026-08-14T22:28:33Z</time></trkpt><trkpt lat="59.3499655835" lon="34.6956567932"><ele>164.37</ele><time>2026-08-14T22:28:40Z</time></trkpt><trkpt lat="59.3499717023" lon="34.6956024785"><ele>163.70</ele><time>2026-08-14T22:28:42Z</time></trkpt><trkpt lat="59.3499581236" lon="34.6954488382"><ele>162.89</ele><time>2026-08-14T22:28:48Z</time></trkpt><trkpt lat="59.3499498256" lon="34.6950667910"><ele>160.25</ele><time>2026-08-14T22:29:07Z</time></trkpt><trkpt lat="59.3499357440" lon="34.6948433295"><ele>159.30</ele><time>2026-08-14T22:29:17Z</time></trkpt><trkpt lat="59.3499234226" lon="34.6947414894"><ele>158.80</ele><time>2026-08-14T22:29:21Z</time></trkpt><trkpt lat="59.3499042280" lon="34.6944325324"><ele>157.23</ele><time>2026-08-14T22:29:35Z</time></trkpt><trkpt lat="59.3499015458" lon="34.6943606995"><ele>156.58</ele><time>2026-08-14T22:29:38Z</time></trkpt><trkpt lat="59.3498696107" lon="34.6940477192"><ele>154.00</ele><time>2026-08-14T22:29:51Z</time></trkpt><trkpt lat="59.3498415314" lon="34.6936799213"><ele>153.01</ele><time>2026-08-14T22:30:06Z</time></trkpt><trkpt lat="59.3497897312" lon="34.6933796816"><ele>153.12</ele><time>2026-08-14T22:30:19Z</time></trkpt><trkpt lat="59.3497879710" lon="34.6933369339"><ele>153.23</ele><time>2026-08-14T22:30:21Z</time></trkpt><trkpt lat="59.3497532699" lon="34.6930027474"><ele>152.89</ele><time>2026-08-14T22:30:36Z</time></trkpt><trkpt lat="59.3497230113" lon="34.6926508751"><ele>154.44</ele><time>2026-08-14T22:30:51Z</time></trkpt><trkpt lat="59.3497202452" lon="34.6924744360"><ele>155.15</ele><time>2026-08-14T22:30:59Z</time></trkpt><trkpt lat="59.3497437984" lon="34.6922638826"><ele>156.27</ele><time>2026-08-14T22:31:08Z</time></trkpt><trkpt lat="59.3497474026" lon="34.6919098310"><ele>156.76</ele><time>2026-08-14T22:31:23Z</time></trkpt><trkpt lat="59.3497334886" lon="34.6915867925"><ele>155.92</ele><time>2026-08-14T22:31:37Z</time></trkpt><trkpt lat="59.3496937584" lon="34.6913146321"><ele>155.95</ele><time>2026-08-14T22:31:50Z</time></trkpt><trkpt lat="59.3497115280" lon="34.6910670307"><ele>155.96</ele><time>2026-08-14T22:32:29Z</time></trkpt><trkpt lat="59.3497005478" lon="34.6908361092"><ele>155.90</ele><time>2026-08-14T22:32:38Z</time></trkpt><trkpt lat="59.3496272899" lon="34.6905860770"><ele>154.77</ele><time>2026-08-14T22:32:48Z</time></trkpt><trkpt lat="59.3495907448" lon="34.6903415769"><ele>153.31</ele><time>2026-08-14T22:32:59Z</time></trkpt><trkpt lat="59.3495909125" lon="34.6903067082"><ele>153.16</ele><time>2026-08-14T22:33:01Z</time></trkpt><trkpt lat="59.3496843707" lon="34.6900907066"><ele>151.71</ele><time>2026-08-14T22:33:16Z</time></trkpt><trkpt lat="59.3497308064" lon="34.6900088154"><ele>154.39</ele><time>2026-08-14T22:33:34Z</time></trkpt><trkpt lat="59.3497162219" lon="34.6899616253"><ele>157.22</ele><time>2026-08-14T22:34:01Z</time></trkpt><trkpt lat="59.3496664334" lon="34.6899601165"><ele>159.40</ele><time>2026-08-14T22:34:22Z</time></trkpt><trkpt lat="59.3497106899" lon="34.6899645589"><ele>158.73</ele><time>2026-08-14T22:34:45Z</time></trkpt><trkpt lat="59.3496972788" lon="34.6899949014"><ele>159.85</ele><time>2026-08-14T22:35:08Z</time></trkpt><trkpt lat="59.3497243524" lon="34.6900143474"><ele>160.60</ele><time>2026-08-14T22:35:36Z</time></trkpt><trkpt lat="59.3497374281" lon="34.6900102403"><ele>160.55</ele><time>2026-08-14T22:36:01Z</time></trkpt><trkpt lat="59.3497324828" lon="34.6899865195"><ele>159.45</ele><time>2026-08-14T22:36:39Z</time></trkpt><trkpt lat="59.3497715425" lon="34.6899718512"><ele>159.31</ele><time>2026-08-14T22:37:02Z</time></trkpt><trkpt lat="59.3497360870" lon="34.6899711806"><ele>158.30</ele><time>2026-08-14T22:37:30Z</time></trkpt><trkpt lat="59.3497198261" lon="34.6898503136"><ele>157.69</ele><time>2026-08-14T22:37:44Z</time></trkpt><trkpt lat="59.3497355841" lon="34.6896809153"><ele>157.62</ele><time>2026-08-14T22:38:03Z</time></trkpt><trkpt lat="59.3497872166" lon="34.6894250158"><ele>156.76</ele><time>2026-08-14T22:38:22Z</time></trkpt><trkpt lat="59.3497820199" lon="34.6892168093"><ele>156.05</ele><time>2026-08-14T22:38:40Z</time></trkpt><trkpt lat="59.3497825228" lon="34.6891655959"><ele>155.75</ele><time>2026-08-14T22:39:09Z</time></trkpt><trkpt lat="59.3497983646" lon="34.6891451441"><ele>155.49</ele><time>2026-08-14T22:39:52Z</time></trkpt><trkpt lat="59.3497770745" lon="34.6891326550"><ele>156.53</ele><time>2026-08-14T22:40:18Z</time></trkpt><trkpt lat="59.3497829419" lon="34.6891363431"><ele>156.58</ele><time>2026-08-14T22:40:47Z</time></trkpt><trkpt lat="59.3498470634" lon="34.6891488321"><ele>156.09</ele><time>2026-08-14T22:41:06Z</time></trkpt><trkpt lat="59.3498179782" lon="34.6891543642"><ele>156.57</ele><time>2026-08-14T22:41:32Z</time></trkpt><trkpt lat="59.3498326465" lon="34.6891634166"><ele>157.65</ele><time>2026-08-14T22:41:55Z</time></trkpt><trkpt lat="59.3498302158" lon="34.6891741455"><ele>158.42</ele><time>2026-08-14T22:42:27Z</time></trkpt><trkpt lat="59.3498040643" lon="34.6891833656"><ele>158.47</ele><time>2026-08-14T22:42:49Z</time></trkpt><trkpt lat="59.3498097640" lon="34.6891168132"><ele>159.31</ele><time>2026-08-14T22:43:10Z</time></trkpt><trkpt lat="59.3498168048" lon="34.6890516859"><ele>158.81</ele><time>2026-08-14T22:43:32Z</time></trkpt><trkpt lat="59.3498847820" lon="34.6890932601"><ele>158.94</ele><time>2026-08-14T22:43:47Z</time></trkpt><trkpt lat="59.3499184772" lon="34.6890884824"><ele>158.85</ele><time>2026-08-14T22:43:59Z</time></trkpt><trkpt lat="59.3499811739" lon="34.6890651807"><ele>158.95</ele><time>2026-08-14T22:44:16Z</time></trkpt><trkpt lat="59.3500187248" lon="34.6888972912"><ele>158.14</ele><time>2026-08-14T22:44:36Z</time></trkpt><trkpt lat="59.3500892166" lon="34.6888144780"><ele>158.08</ele><time>2026-08-14T22:44:52Z</time></trkpt><trkpt lat="59.3501049746" lon="34.6888423059"><ele>156.70</ele><time>2026-08-14T22:45:23Z</time></trkpt><trkpt lat="59.3501097523" lon="34.6888197586"><ele>157.27</ele><time>2026-08-14T22:45:51Z</time></trkpt><trkpt lat="59.3500784039" lon="34.6887671202"><ele>156.49</ele><time>2026-08-14T22:46:07Z</time></trkpt><trkpt lat="59.3500654120" lon="34.6886641067"><ele>156.06</ele><time>2026-08-14T22:46:22Z</time></trkpt><trkpt lat="59.3501087464" lon="34.6885856520"><ele>156.69</ele><time>2026-08-14T22:46:43Z</time></trkpt><trkpt lat="59.3501815014" lon="34.6884114761"><ele>155.84</ele><time>2026-08-14T22:47:05Z</time></trkpt><trkpt lat="59.3501695991" lon="34.6883302554"><ele>155.20</ele><time>2026-08-14T22:47:25Z</time></trkpt><trkpt lat="59.3501389213" lon="34.6883155871"><ele>154.99</ele><time>2026-08-14T22:47:50Z</time></trkpt><trkpt lat="59.3501935713" lon="34.6882983204"><ele>154.33</ele><time>2026-08-14T22:48:21Z</time></trkpt><trkpt lat="59.3501995225" lon="34.6882989071"><ele>153.96</ele><time>2026-08-14T22:48:47Z</time></trkpt><trkpt lat="59.3501911405" lon="34.6882054489"><ele>154.50</ele><time>2026-08-14T22:49:08Z</time></trkpt><trkpt lat="59.3501682580" lon="34.6881021839"><ele>154.79</ele><time>2026-08-14T22:49:18Z</time></trkpt><trkpt lat="59.3501535058" lon="34.6878931392"><ele>154.61</ele><time>2026-08-14T22:49:35Z</time></trkpt><trkpt lat="59.3500909768" lon="34.6877773851"><ele>154.43</ele><time>2026-08-14T22:49:52Z</time></trkpt><trkpt lat="59.3500707764" lon="34.6876814123"><ele>154.68</ele><time>2026-08-14T22:50:13Z</time></trkpt><trkpt lat="59.3500282802" lon="34.6875563543"><ele>154.98</ele><time>2026-08-14T22:50:34Z</time></trkpt><trkpt lat="59.3499936629" lon="34.6874289494"><ele>153.68</ele><time>2026-08-14T22:50:53Z</time></trkpt><trkpt lat="59.3499770667" lon="34.6873213258"><ele>152.41</ele><time>2026-08-14T22:51:18Z</time></trkpt><trkpt lat="59.3499751389" lon="34.6873002872"><ele>151.03</ele><time>2026-08-14T22:51:31Z</time></trkpt><trkpt lat="59.3499627337" lon="34.6872807574"><ele>149.57</ele><time>2026-08-14T22:51:56Z</time></trkpt><trkpt lat="59.3499587104" lon="34.6872964315"><ele>148.54</ele><time>2026-08-14T22:52:20Z</time></trkpt><trkpt lat="59.3499232549" lon="34.6872703638"><ele>145.98</ele><time>2026-08-14T22:52:52Z</time></trkpt><trkpt lat="59.3499520048" lon="34.6872609761"><ele>144.05</ele><time>2026-08-14T22:53:21Z</time></trkpt><trkpt lat="59.3499115203" lon="34.6872364171"><ele>144.12</ele><time>2026-08-14T22:53:39Z</time></trkpt><trkpt lat="59.3499015458" lon="34.6870933380"><ele>143.58</ele><time>2026-08-14T22:54:01Z</time></trkpt><trkpt lat="59.3499219976" lon="34.6869090199"><ele>144.68</ele><time>2026-08-14T22:54:22Z</time></trkpt><trkpt lat="59.3499759771" lon="34.6867053397"><ele>144.83</ele><time>2026-08-14T22:54:45Z</time></trkpt><trkpt lat="59.3499825150" lon="34.6865268890"><ele>145.53</ele><time>2026-08-14T22:55:03Z</time></trkpt><trkpt lat="59.3499953393" lon="34.6864391305"><ele>146.05</ele><time>2026-08-14T22:55:20Z</time></trkpt><trkpt lat="59.3499670085" lon="34.6863977239"><ele>145.99</ele><time>2026-08-14T22:55:51Z</time></trkpt><trkpt lat="59.3499722052" lon="34.6863632742"><ele>146.11</ele><time>2026-08-14T22:56:21Z</time></trkpt><trkpt lat="59.3500111811" lon="34.6864216123"><ele>146.95</ele><time>2026-08-14T22:56:46Z</time></trkpt><trkpt lat="59.3499966804" lon="34.6863097139"><ele>148.63</ele><time>2026-08-14T22:57:21Z</time></trkpt><trkpt lat="59.3499973509" lon="34.6863341052"><ele>148.75</ele><time>2026-08-14T22:57:23Z</time></trkpt><trkpt lat="59.3500484806" lon="34.6864235401"><ele>149.73</ele><time>2026-08-14T22:57:57Z</time></trkpt><trkpt lat="59.3500269391" lon="34.6864436567"><ele>149.71</ele><time>2026-08-14T22:58:24Z</time></trkpt><trkpt lat="59.3499868736" lon="34.6863669623"><ele>150.24</ele><time>2026-08-14T22:58:52Z</time></trkpt><trkpt lat="59.3500153720" lon="34.6863569878"><ele>152.22</ele><time>2026-08-14T22:59:15Z</time></trkpt><trkpt lat="59.3500338960" lon="34.6864228696"><ele>154.12</ele><time>2026-08-14T22:59:45Z</time></trkpt><trkpt lat="59.3500578683" lon="34.6864151582"><ele>157.57</ele><time>2026-08-14T23:00:19Z</time></trkpt><trkpt lat="59.3500390090" lon="34.6864771005"><ele>158.74</ele><time>2026-08-14T23:00:39Z</time></trkpt><trkpt lat="59.3500737101" lon="34.6865256317"><ele>158.62</ele><time>2026-08-14T23:01:06Z</time></trkpt><trkpt lat="59.3500760570" lon="34.6864999831"><ele>159.41</ele><time>2026-08-14T23:01:31Z</time></trkpt><trkpt lat="59.3500245083" lon="34.6864354424"><ele>159.14</ele><time>2026-08-14T23:02:04Z</time></trkpt><trkpt lat="59.3500458822" lon="34.6864374541"><ele>156.79</ele><time>2026-08-14T23:02:35Z</time></trkpt><trkpt lat="59.3500565272" lon="34.6864334308"><ele>157.59</ele><time>2026-08-14T23:03:05Z</time></trkpt><trkpt lat="59.3500591256" lon="34.6864722390"><ele>157.16</ele><time>2026-08-14T23:03:32Z</time></trkpt><trkpt lat="59.3500520010" lon="34.6864361130"><ele>159.56</ele><time>2026-08-14T23:04:04Z</time></trkpt><trkpt lat="59.3500630651" lon="34.6864703111"><ele>159.50</ele><time>2026-08-14T23:04:29Z</time></trkpt><trkpt lat="59.3500966765" lon="34.6866604965"><ele>159.30</ele><time>2026-08-14T23:04:48Z</time></trkpt><trkpt lat="59.3500764761" lon="34.6867697965"><ele>158.45</ele><time>2026-08-14T23:05:12Z</time></trkpt><trkpt lat="59.3500732910" lon="34.6867760830"><ele>159.46</ele><time>2026-08-14T23:05:43Z</time></trkpt><trkpt lat="59.3500363268" lon="34.6868265420"><ele>159.82</ele><time>2026-08-14T23:06:14Z</time></trkpt><trkpt lat="59.3500911444" lon="34.6868008096"><ele>160.50</ele><time>2026-08-14T23:06:41Z</time></trkpt><trkpt lat="59.3501722813" lon="34.6869044099"><ele>160.62</ele><time>2026-08-14T23:07:01Z</time></trkpt><trkpt lat="59.3502242491" lon="34.6869951021"><ele>160.48</ele><time>2026-08-14T23:07:20Z</time></trkpt><trkpt lat="59.3502469640" lon="34.6870910749"><ele>159.48</ele><time>2026-08-14T23:07:38Z</time></trkpt><trkpt lat="59.3502425216" lon="34.6871836949"><ele>159.14</ele><time>2026-08-14T23:07:54Z</time></trkpt><trkpt lat="59.3503267597" lon="34.6872592159"><ele>159.14</ele><time>2026-08-14T23:08:17Z</time></trkpt><trkpt lat="59.3503777217" lon="34.6874019597"><ele>158.98</ele><time>2026-08-14T23:08:39Z</time></trkpt><trkpt lat="59.3503925577" lon="34.6874863654"><ele>158.45</ele><time>2026-08-14T23:08:59Z</time></trkpt><trkpt lat="59.3503513187" lon="34.6875988506"><ele>157.49</ele><time>2026-08-14T23:09:15Z</time></trkpt><trkpt lat="59.3503716029" lon="34.6877282672"><ele>157.31</ele><time>2026-08-14T23:09:32Z</time></trkpt><trkpt lat="59.3503911328" lon="34.6878385730"><ele>156.78</ele><time>2026-08-14T23:09:55Z</time></trkpt><trkpt lat="59.3504404183" lon="34.6878601145"><ele>156.23</ele><time>2026-08-14T23:10:23Z</time></trkpt><trkpt lat="59.3504253309" lon="34.6878360584"><ele>156.44</ele><time>2026-08-14T23:10:35Z</time></trkpt><trkpt lat="59.3503443617" lon="34.6878402494"><ele>157.51</ele><time>2026-08-14T23:11:01Z</time></trkpt><trkpt lat="59.3504324555" lon="34.6879145969"><ele>159.17</ele><time>2026-08-14T23:11:22Z</time></trkpt><trkpt lat="59.3505010195" lon="34.6879725996"><ele>159.81</ele><time>2026-08-14T23:11:38Z</time></trkpt><trkpt lat="59.3506118283" lon="34.6880227234"><ele>159.61</ele><time>2026-08-14T23:11:59Z</time></trkpt><trkpt lat="59.3506666459" lon="34.6879643016"><ele>160.22</ele><time>2026-08-14T23:12:17Z</time></trkpt><trkpt lat="59.3506746087" lon="34.6879786346"><ele>160.66</ele><time>2026-08-14T23:12:33Z</time></trkpt><trkpt lat="59.3506828230" lon="34.6879874356"><ele>160.06</ele><time>2026-08-14T23:12:56Z</time></trkpt><trkpt lat="59.3506748602" lon="34.6880192030"><ele>159.35</ele><time>2026-08-14T23:13:16Z</time></trkpt><trkpt lat="59.3506736867" lon="34.6880368888"><ele>160.50</ele><time>2026-08-14T23:13:47Z</time></trkpt><trkpt lat="59.3506637122" lon="34.6880565863"><ele>160.63</ele><time>2026-08-14T23:14:12Z</time></trkpt><trkpt lat="59.3506987486" lon="34.6881339513"><ele>160.52</ele><time>2026-08-14T23:14:29Z</time></trkpt><trkpt lat="59.3506466970" lon="34.6882835682"><ele>159.53</ele><time>2026-08-14T23:14:51Z</time></trkpt><trkpt lat="59.3505558372" lon="34.6884017531"><ele>158.51</ele><time>2026-08-14T23:15:10Z</time></trkpt><trkpt lat="59.3505148496" lon="34.6885362826"><ele>158.82</ele><time>2026-08-14T23:15:35Z</time></trkpt><trkpt lat="59.3505586032" lon="34.6886245441"><ele>159.75</ele><time>2026-08-14T23:15:55Z</time></trkpt><trkpt lat="59.3505915441" lon="34.6886637714"><ele>159.89</ele><time>2026-08-14T23:16:08Z</time></trkpt><trkpt lat="59.3506116606" lon="34.6886609215"><ele>160.10</ele><time>2026-08-14T23:16:29Z</time></trkpt><trkpt lat="59.3506513909" lon="34.6886370331"><ele>159.13</ele><time>2026-08-14T23:17:00Z</time></trkpt><trkpt lat="59.3506810628" lon="34.6888121311"><ele>160.06</ele><time>2026-08-14T23:17:18Z</time></trkpt><trkpt lat="59.3507331144" lon="34.6889054216"><ele>160.61</ele><time>2026-08-14T23:17:38Z</time></trkpt><trkpt lat="59.3507664744" lon="34.6890084352"><ele>158.65</ele><time>2026-08-14T23:17:57Z</time></trkpt><trkpt lat="59.3508621957" lon="34.6889443137"><ele>158.17</ele><time>2026-08-14T23:18:19Z</time></trkpt><trkpt lat="59.3508996628" lon="34.6889319085"><ele>157.97</ele><time>2026-08-14T23:18:32Z</time></trkpt><trkpt lat="59.3509272393" lon="34.6889220178"><ele>157.84</ele><time>2026-08-14T23:18:35Z</time></trkpt><trkpt lat="59.3509965576" lon="34.6889613289"><ele>156.69</ele><time>2026-08-14T23:18:53Z</time></trkpt><trkpt lat="59.3509969767" lon="34.6889184974"><ele>156.67</ele><time>2026-08-14T23:18:58Z</time></trkpt><trkpt lat="59.3510513753" lon="34.6889016498"><ele>156.82</ele><time>2026-08-14T23:19:05Z</time></trkpt><trkpt lat="59.3511753436" lon="34.6887623426"><ele>157.38</ele><time>2026-08-14T23:19:27Z</time></trkpt><trkpt lat="59.3512485176" lon="34.6885036770"><ele>156.81</ele><time>2026-08-14T23:19:49Z</time></trkpt><trkpt lat="59.3512812909" lon="34.6884738375"><ele>157.80</ele><time>2026-08-14T23:20:19Z</time></trkpt><trkpt lat="59.3513072748" lon="34.6885692235"><ele>157.28</ele><time>2026-08-14T23:20:54Z</time></trkpt><trkpt lat="59.3512683827" lon="34.6885687206"><ele>157.48</ele><time>2026-08-14T23:21:28Z</time></trkpt><trkpt lat="59.3512581568" lon="34.6887242887"><ele>156.19</ele><time>2026-08-14T23:21:53Z</time></trkpt><trkpt lat="59.3512859009" lon="34.6889255382"><ele>155.76</ele><time>2026-08-14T23:22:10Z</time></trkpt><trkpt lat="59.3513148185" lon="34.6889957786"><ele>155.04</ele><time>2026-08-14T23:22:28Z</time></trkpt><trkpt lat="59.3513085321" lon="34.6889978740"><ele>155.03</ele><time>2026-08-14T23:22:30Z</time></trkpt><trkpt lat="59.3513740785" lon="34.6891940944"><ele>155.35</ele><time>2026-08-14T23:22:49Z</time></trkpt><trkpt lat="59.3513942789" lon="34.6892930008"><ele>154.61</ele><time>2026-08-14T23:23:06Z</time></trkpt><trkpt lat="59.3514592387" lon="34.6895219106"><ele>154.90</ele><time>2026-08-14T23:23:42Z</time></trkpt><trkpt lat="59.3514853902" lon="34.6896613855"><ele>154.47</ele><time>2026-08-14T23:24:13Z</time></trkpt><trkpt lat="59.3514330033" lon="34.6896991041"><ele>154.21</ele><time>2026-08-14T23:24:39Z</time></trkpt><trkpt lat="59.3514521141" lon="34.6897498984"><ele>154.52</ele><time>2026-08-14T23:25:01Z</time></trkpt><trkpt lat="59.3514998909" lon="34.6898714360"><ele>154.37</ele><time>2026-08-14T23:25:23Z</time></trkpt><trkpt lat="59.3515418842" lon="34.6899192128"><ele>156.48</ele><time>2026-08-14T23:25:50Z</time></trkpt><trkpt lat="59.3516226858" lon="34.6899542492"><ele>157.81</ele><time>2026-08-14T23:26:10Z</time></trkpt><trkpt lat="59.3517220113" lon="34.6899602003"><ele>159.69</ele><time>2026-08-14T23:26:30Z</time></trkpt><trkpt lat="59.3517855462" lon="34.6898886189"><ele>160.47</ele><time>2026-08-14T23:26:50Z</time></trkpt><trkpt lat="59.3518663477" lon="34.6899558417"><ele>160.09</ele><time>2026-08-14T23:27:10Z</time></trkpt><trkpt lat="59.3519791681" lon="34.6901206300"><ele>158.25</ele><time>2026-08-14T23:27:29Z</time></trkpt><trkpt lat="59.3519815989" lon="34.6901289281"><ele>158.04</ele><time>2026-08-14T23:27:30Z</time></trkpt><trkpt lat="59.3520261068" lon="34.6901489608"><ele>156.90</ele><time>2026-08-14T23:28:04Z</time></trkpt><trkpt lat="59.3519924115" lon="34.6902639605"><ele>156.87</ele><time>2026-08-14T23:28:34Z</time></trkpt><trkpt lat="59.3519334868" lon="34.6903446782"><ele>157.07</ele><time>2026-08-14T23:29:01Z</time></trkpt><trkpt lat="59.3519417848" lon="34.6904012561"><ele>157.78</ele><time>2026-08-14T23:29:22Z</time></trkpt><trkpt lat="59.3519471493" lon="34.6903695725"><ele>158.52</ele><time>2026-08-14T23:30:03Z</time></trkpt><trkpt lat="59.3519831076" lon="34.6905561537"><ele>157.83</ele><time>2026-08-14T23:30:24Z</time></trkpt><trkpt lat="59.3519775756" lon="34.6906854864"><ele>158.55</ele><time>2026-08-14T23:30:43Z</time></trkpt><trkpt lat="59.3520432059" lon="34.6908823773"><ele>157.97</ele><time>2026-08-14T23:31:03Z</time></trkpt><trkpt lat="59.3521064054" lon="34.6909950301"><ele>158.61</ele><time>2026-08-14T23:31:22Z</time></trkpt><trkpt lat="59.3521338142" lon="34.6912110317"><ele>156.70</ele><time>2026-08-14T23:31:48Z</time></trkpt><trkpt lat="59.3521485664" lon="34.6913468186"><ele>156.25</ele><time>2026-08-14T23:32:05Z</time></trkpt><trkpt lat="59.3521499913" lon="34.6915390156"><ele>157.15</ele><time>2026-08-14T23:32:31Z</time></trkpt><trkpt lat="59.3521388434" lon="34.6915177256"><ele>157.80</ele><time>2026-08-14T23:32:42Z</time></trkpt><trkpt lat="59.3520932458" lon="34.6914925799"><ele>157.97</ele><time>2026-08-14T23:32:59Z</time></trkpt><trkpt lat="59.3521442916" lon="34.6916073281"><ele>157.63</ele><time>2026-08-14T23:33:17Z</time></trkpt><trkpt lat="59.3520875461" lon="34.6916992776"><ele>157.99</ele><time>2026-08-14T23:33:39Z</time></trkpt><trkpt lat="59.3520738836" lon="34.6917655785"><ele>157.71</ele><time>2026-08-14T23:34:02Z</time></trkpt><trkpt lat="59.3520731293" lon="34.6917872038"><ele>156.82</ele><time>2026-08-14T23:34:33Z</time></trkpt><trkpt lat="59.3520565331" lon="34.6918344777"><ele>159.10</ele><time>2026-08-14T23:34:59Z</time></trkpt><trkpt lat="59.3520934135" lon="34.6918550972"><ele>160.40</ele><time>2026-08-14T23:35:27Z</time></trkpt><trkpt lat="59.3521513324" lon="34.6919488069"><ele>160.51</ele><time>2026-08-14T23:35:49Z</time></trkpt><trkpt lat="59.3522488978" lon="34.6920201369"><ele>159.78</ele><time>2026-08-14T23:36:12Z</time></trkpt><trkpt lat="59.3522843532" lon="34.6919958293"><ele>159.52</ele><time>2026-08-14T23:36:21Z</time></trkpt><trkpt lat="59.3523504026" lon="34.6919918060"><ele>159.83</ele><time>2026-08-14T23:36:46Z</time></trkpt><trkpt lat="59.3523232453" lon="34.6920363139"><ele>162.26</ele><time>2026-08-14T23:37:17Z</time></trkpt><trkpt lat="59.3523896299" lon="34.6920007747"><ele>162.52</ele><time>2026-08-14T23:37:56Z</time></trkpt><trkpt lat="59.3524764664" lon="34.6918968391"><ele>162.68</ele><time>2026-08-14T23:38:16Z</time></trkpt><trkpt lat="59.3525430188" lon="34.6918846853"><ele>162.65</ele><time>2026-08-14T23:38:24Z</time></trkpt><trkpt lat="59.3526215572" lon="34.6918913908"><ele>162.82</ele><time>2026-08-14T23:38:51Z</time></trkpt><trkpt lat="59.3526790570" lon="34.6917418577"><ele>162.86</ele><time>2026-08-14T23:39:09Z</time></trkpt><trkpt lat="59.3527518958" lon="34.6916641574"><ele>162.80</ele><time>2026-08-14T23:39:29Z</time></trkpt><trkpt lat="59.3528643809" lon="34.6916761436"><ele>162.91</ele><time>2026-08-14T23:39:53Z</time></trkpt><trkpt lat="59.3529086374" lon="34.6917337272"><ele>162.38</ele><time>2026-08-14T23:40:14Z</time></trkpt><trkpt lat="59.3529134151" lon="34.6917665843"><ele>162.10</ele><time>2026-08-14T23:40:25Z</time></trkpt><trkpt lat="59.3529934622" lon="34.6916157939"><ele>163.33</ele><time>2026-08-14T23:41:00Z</time></trkpt><trkpt lat="59.3530393951" lon="34.6915379260"><ele>164.02</ele><time>2026-08-14T23:41:15Z</time></trkpt><trkpt lat="59.3530325219" lon="34.6915174741"><ele>164.39</ele><time>2026-08-14T23:41:26Z</time></trkpt><trkpt lat="59.3531691469" lon="34.6913737245"><ele>165.35</ele><time>2026-08-14T23:41:59Z</time></trkpt><trkpt lat="59.3531859107" lon="34.6913245227"><ele>165.03</ele><time>2026-08-14T23:42:07Z</time></trkpt><trkpt lat="59.3533340190" lon="34.6911636740"><ele>165.04</ele><time>2026-08-14T23:42:25Z</time></trkpt><trkpt lat="59.3533652835" lon="34.6910590678"><ele>164.32</ele><time>2026-08-14T23:42:38Z</time></trkpt><trkpt lat="59.3534031697" lon="34.6909231134"><ele>163.73</ele><time>2026-08-14T23:42:58Z</time></trkpt><trkpt lat="59.3534358591" lon="34.6908374503"><ele>162.33</ele><time>2026-08-14T23:43:25Z</time></trkpt><trkpt lat="59.3534325063" lon="34.6908274759"><ele>158.69</ele><time>2026-08-14T23:44:08Z</time></trkpt><trkpt lat="59.3534604181" lon="34.6908392943"><ele>160.53</ele><time>2026-08-14T23:44:43Z</time></trkpt><trkpt lat="59.3535385374" lon="34.6907646116"><ele>161.56</ele><time>2026-08-14T23:45:07Z</time></trkpt><trkpt lat="59.3535858952" lon="34.6906371228"><ele>161.13</ele><time>2026-08-14T23:45:27Z</time></trkpt><trkpt lat="59.3536264636" lon="34.6905842330"><ele>161.10</ele><time>2026-08-14T23:45:34Z</time></trkpt><trkpt lat="59.3537278846" lon="34.6903435048"><ele>161.52</ele><time>2026-08-14T23:45:58Z</time></trkpt><trkpt lat="59.3537705485" lon="34.6901925467"><ele>161.47</ele><time>2026-08-14T23:46:16Z</time></trkpt><trkpt lat="59.3537726440" lon="34.6900518984"><ele>162.21</ele><time>2026-08-14T23:46:50Z</time></trkpt><trkpt lat="59.3538064230" lon="34.6899096575"><ele>162.96</ele><time>2026-08-14T23:47:11Z</time></trkpt><trkpt lat="59.3538589776" lon="34.6898088232"><ele>163.17</ele><time>2026-08-14T23:47:31Z</time></trkpt><trkpt lat="59.3538840394" lon="34.6896852739"><ele>162.97</ele><time>2026-08-14T23:47:45Z</time></trkpt><trkpt lat="59.3539888132" lon="34.6895777341"><ele>162.66</ele><time>2026-08-14T23:48:04Z</time></trkpt><trkpt lat="59.3540448043" lon="34.6895366628"><ele>162.19</ele><time>2026-08-14T23:48:21Z</time></trkpt><trkpt lat="59.3541499972" lon="34.6893115249"><ele>162.80</ele><time>2026-08-14T23:48:41Z</time></trkpt><trkpt lat="59.3542270269" lon="34.6892471518"><ele>163.77</ele><time>2026-08-14T23:49:02Z</time></trkpt><trkpt lat="59.3542623986" lon="34.6893058252"><ele>162.71</ele><time>2026-08-14T23:49:31Z</time></trkpt><trkpt lat="59.3542854488" lon="34.6893155482"><ele>164.39</ele><time>2026-08-14T23:50:03Z</time></trkpt><trkpt lat="59.3542762287" lon="34.6892459784"><ele>165.08</ele><time>2026-08-14T23:50:28Z</time></trkpt><trkpt lat="59.3542882148" lon="34.6892292984"><ele>166.79</ele><time>2026-08-14T23:50:55Z</time></trkpt><trkpt lat="59.3542913161" lon="34.6892534383"><ele>169.07</ele><time>2026-08-14T23:51:24Z</time></trkpt><trkpt lat="59.3542993627" lon="34.6892683581"><ele>171.14</ele><time>2026-08-14T23:51:52Z</time></trkpt><trkpt lat="59.3543024641" lon="34.6892980300"><ele>171.66</ele><time>2026-08-14T23:52:24Z</time></trkpt><trkpt lat="59.3542891368" lon="34.6892307233"><ele>171.48</ele><time>2026-08-14T23:52:53Z</time></trkpt><trkpt lat="59.3543375842" lon="34.6891548671"><ele>171.61</ele><time>2026-08-14T23:53:16Z</time></trkpt><trkpt lat="59.3544288632" lon="34.6891790070"><ele>169.94</ele><time>2026-08-14T23:53:39Z</time></trkpt><trkpt lat="59.3544317968" lon="34.6891823597"><ele>169.88</ele><time>2026-08-14T23:53:42Z</time></trkpt><trkpt lat="59.3544692639" lon="34.6891492512"><ele>168.37</ele><time>2026-08-14T23:54:12Z</time></trkpt><trkpt lat="59.3545504846" lon="34.6891603153"><ele>166.66</ele><time>2026-08-14T23:54:43Z</time></trkpt><trkpt lat="59.3545959983" lon="34.6891546156"><ele>168.11</ele><time>2026-08-14T23:55:12Z</time></trkpt><trkpt lat="59.3545714393" lon="34.6891596448"><ele>169.24</ele><time>2026-08-14T23:55:43Z</time></trkpt><trkpt lat="59.3545817491" lon="34.6890243609"><ele>168.15</ele><time>2026-08-14T23:55:59Z</time></trkpt><trkpt lat="59.3545938190" lon="34.6888735704"><ele>168.18</ele><time>2026-08-14T23:56:18Z</time></trkpt><trkpt lat="59.3546594493" lon="34.6886651125"><ele>168.63</ele><time>2026-08-14T23:56:38Z</time></trkpt><trkpt lat="59.3546815775" lon="34.6884773578"><ele>168.34</ele><time>2026-08-14T23:56:59Z</time></trkpt><trkpt lat="59.3546778895" lon="34.6883811336"><ele>168.23</ele><time>2026-08-14T23:57:06Z</time></trkpt><trkpt lat="59.3546997663" lon="34.6882292535"><ele>168.78</ele><time>2026-08-14T23:57:25Z</time></trkpt><trkpt lat="59.3547594454" lon="34.6880577598"><ele>167.86</ele><time>2026-08-14T23:57:42Z</time></trkpt><trkpt lat="59.3548435159" lon="34.6878528222"><ele>166.40</ele><time>2026-08-14T23:58:03Z</time></trkpt><trkpt lat="59.3549381476" lon="34.6877235733"><ele>164.50</ele><time>2026-08-14T23:58:25Z</time></trkpt><trkpt lat="59.3549923785" lon="34.6876294445"><ele>163.63</ele><time>2026-08-14T23:58:44Z</time></trkpt><trkpt lat="59.3550611101" lon="34.6875172947"><ele>164.42</ele><time>2026-08-14T23:59:08Z</time></trkpt><trkpt lat="59.3550889380" lon="34.6875453740"><ele>164.44</ele><time>2026-08-14T23:59:40Z</time></trkpt><trkpt lat="59.3550941348" lon="34.6875178814"><ele>164.96</ele><time>2026-08-15T00:00:12Z</time></trkpt><trkpt lat="59.3550544046" lon="34.6874711942"><ele>166.08</ele><time>2026-08-15T00:00:44Z</time></trkpt><trkpt lat="59.3551253993" lon="34.6874676738"><ele>166.64</ele><time>2026-08-15T00:01:19Z</time></trkpt><trkpt lat="59.3551792111" lon="34.6874235012"><ele>167.20</ele><time>2026-08-15T00:01:39Z</time></trkpt><trkpt lat="59.3551956397" lon="34.6874239203"><ele>167.26</ele><time>2026-08-15T00:01:41Z</time></trkpt><trkpt lat="59.3552509602" lon="34.6874187235"><ele>167.48</ele><time>2026-08-15T00:02:05Z</time></trkpt><trkpt lat="59.3552604318" lon="34.6874478925"><ele>168.74</ele><time>2026-08-15T00:02:34Z</time></trkpt><trkpt lat="59.3553356174" lon="34.6876824182"><ele>167.74</ele><time>2026-08-15T00:02:58Z</time></trkpt><trkpt lat="59.3553865794" lon="34.6878621262"><ele>166.25</ele><time>2026-08-15T00:03:17Z</time></trkpt><trkpt lat="59.3554078694" lon="34.6880756132"><ele>164.31</ele><time>2026-08-15T00:03:39Z</time></trkpt><trkpt lat="59.3554095458" lon="34.6883108094"><ele>163.37</ele><time>2026-08-15T00:04:03Z</time></trkpt><trkpt lat="59.3553876691" lon="34.6884294134"><ele>162.67</ele><time>2026-08-15T00:04:30Z</time></trkpt><trkpt lat="59.3553926982" lon="34.6884886734"><ele>161.06</ele><time>2026-08-15T00:05:00Z</time></trkpt><trkpt lat="59.3553872500" lon="34.6885263082"><ele>160.87</ele><time>2026-08-15T00:05:15Z</time></trkpt><trkpt lat="59.3553476874" lon="34.6885630209"><ele>164.69</ele><time>2026-08-15T00:05:48Z</time></trkpt><trkpt lat="59.3553879205" lon="34.6887284797"><ele>165.82</ele><time>2026-08-15T00:06:11Z</time></trkpt><trkpt lat="59.3554134015" lon="34.6888755821"><ele>166.18</ele><time>2026-08-15T00:06:30Z</time></trkpt><trkpt lat="59.3555057701" lon="34.6890531946"><ele>166.27</ele><time>2026-08-15T00:06:55Z</time></trkpt><trkpt lat="59.3555420637" lon="34.6891671047"><ele>165.81</ele><time>2026-08-15T00:07:19Z</time></trkpt><trkpt lat="59.3555802852" lon="34.6893575415"><ele>166.05</ele><time>2026-08-15T00:07:44Z</time></trkpt><trkpt lat="59.3556424789" lon="34.6894322243"><ele>165.97</ele><time>2026-08-15T00:08:03Z</time></trkpt><trkpt lat="59.3557580654" lon="34.6895360760"><ele>166.31</ele><time>2026-08-15T00:08:29Z</time></trkpt><trkpt lat="59.3557806127" lon="34.6896185540"><ele>166.22</ele><time>2026-08-15T00:08:50Z</time></trkpt><trkpt lat="59.3557825405" lon="34.6896762215"><ele>166.59</ele><time>2026-08-15T00:09:22Z</time></trkpt><trkpt lat="59.3558078539" lon="34.6897198912"><ele>166.63</ele><time>2026-08-15T00:09:48Z</time></trkpt><trkpt lat="59.3557797745" lon="34.6897134371"><ele>167.71</ele><time>2026-08-15T00:10:19Z</time></trkpt><trkpt lat="59.3558156490" lon="34.6897207294"><ele>167.69</ele><time>2026-08-15T00:10:42Z</time></trkpt><trkpt lat="59.3558495957" lon="34.6897773072"><ele>166.39</ele><time>2026-08-15T00:11:11Z</time></trkpt><trkpt lat="59.3558387831" lon="34.6898639761"><ele>166.71</ele><time>2026-08-15T00:11:36Z</time></trkpt><trkpt lat="59.3558975402" lon="34.6900081448"><ele>166.83</ele><time>2026-08-15T00:12:05Z</time></trkpt><trkpt lat="59.3559454009" lon="34.6901087277"><ele>167.19</ele><time>2026-08-15T00:12:28Z</time></trkpt><trkpt lat="59.3559595663" lon="34.6901851706"><ele>168.00</ele><time>2026-08-15T00:12:48Z</time></trkpt><trkpt lat="59.3559412099" lon="34.6902143396"><ele>170.79</ele><time>2026-08-15T00:13:21Z</time></trkpt><trkpt lat="59.3559966981" lon="34.6901866794"><ele>170.88</ele><time>2026-08-15T00:13:55Z</time></trkpt><trkpt lat="59.3559881486" lon="34.6901644673"><ele>170.05</ele><time>2026-08-15T00:14:22Z</time></trkpt><trkpt lat="59.3559661880" lon="34.6901564207"><ele>170.30</ele><time>2026-08-15T00:15:11Z</time></trkpt><trkpt lat="59.3559378572" lon="34.6900678240"><ele>171.40</ele><time>2026-08-15T00:15:36Z</time></trkpt><trkpt lat="59.3559357617" lon="34.6900676563"><ele>173.06</ele><time>2026-08-15T00:16:18Z</time></trkpt><trkpt lat="59.3559200875" lon="34.6900086477"><ele>175.29</ele><time>2026-08-15T00:16:51Z</time></trkpt><trkpt lat="59.3559745699" lon="34.6900810674"><ele>173.64</ele><time>2026-08-15T00:17:34Z</time></trkpt><trkpt lat="59.3559381925" lon="34.6900746971"><ele>174.40</ele><time>2026-08-15T00:18:12Z</time></trkpt><trkpt lat="59.3559876457" lon="34.6900871862"><ele>175.95</ele><time>2026-08-15T00:18:46Z</time></trkpt><trkpt lat="59.3559513520" lon="34.6900730208"><ele>177.02</ele><time>2026-08-15T00:19:19Z</time></trkpt><trkpt lat="59.3559270445" lon="34.6900032833"><ele>176.36</ele><time>2026-08-15T00:19:49Z</time></trkpt><trkpt lat="59.3558783457" lon="34.6900376491"><ele>177.79</ele><time>2026-08-15T00:20:24Z</time></trkpt><trkpt lat="59.3559526093" lon="34.6901213843"><ele>177.88</ele><time>2026-08-15T00:20:54Z</time></trkpt><trkpt lat="59.3560162280" lon="34.6900468692"><ele>179.00</ele><time>2026-08-15T00:21:25Z</time></trkpt><trkpt lat="59.3560481630" lon="34.6900593583"><ele>180.62</ele><time>2026-08-15T00:21:55Z</time></trkpt><trkpt lat="59.3559588119" lon="34.6900538262"><ele>180.01</ele><time>2026-08-15T00:22:30Z</time></trkpt><trkpt lat="59.3559480831" lon="34.6898809075"><ele>178.52</ele><time>2026-08-15T00:22:59Z</time></trkpt><trkpt lat="59.3559659366" lon="34.6898509003"><ele>176.81</ele><time>2026-08-15T00:23:27Z</time></trkpt><trkpt lat="59.3560334109" lon="34.6898070630"><ele>175.35</ele><time>2026-08-15T00:23:49Z</time></trkpt><trkpt lat="59.3560498394" lon="34.6897606272"><ele>174.55</ele><time>2026-08-15T00:24:13Z</time></trkpt><trkpt lat="59.3560468219" lon="34.6897528321"><ele>174.28</ele><time>2026-08-15T00:24:42Z</time></trkpt><trkpt lat="59.3560374342" lon="34.6897384990"><ele>174.16</ele><time>2026-08-15T00:25:19Z</time></trkpt><trkpt lat="59.3560274597" lon="34.6898098290"><ele>173.83</ele><time>2026-08-15T00:25:46Z</time></trkpt><trkpt lat="59.3560453970" lon="34.6898880322"><ele>174.18</ele><time>2026-08-15T00:26:19Z</time></trkpt><trkpt lat="59.3560714647" lon="34.6898998506"><ele>172.68</ele><time>2026-08-15T00:26:44Z</time></trkpt><trkpt lat="59.3561682757" lon="34.6899154410"><ele>172.37</ele><time>2026-08-15T00:27:18Z</time></trkpt><trkpt lat="59.3560925033" lon="34.6898691729"><ele>172.84</ele><time>2026-08-15T00:27:49Z</time></trkpt><trkpt lat="59.3560948502" lon="34.6898105834"><ele>171.07</ele><time>2026-08-15T00:28:17Z</time></trkpt><trkpt lat="59.3560893182" lon="34.6899971645"><ele>171.15</ele><time>2026-08-15T00:28:39Z</time></trkpt><trkpt lat="59.3562026415" lon="34.6901539899"><ele>170.99</ele><time>2026-08-15T00:29:10Z</time></trkpt><trkpt lat="59.3562982790" lon="34.6902799699"><ele>170.97</ele><time>2026-08-15T00:29:38Z</time></trkpt><trkpt lat="59.3563556951" lon="34.6903091390"><ele>171.02</ele><time>2026-08-15T00:29:53Z</time></trkpt><trkpt lat="59.3564246781" lon="34.6905434132"><ele>171.82</ele><time>2026-08-15T00:30:32Z</time></trkpt><trkpt lat="59.3564183917" lon="34.6906197723"><ele>172.73</ele><time>2026-08-15T00:31:03Z</time></trkpt><trkpt lat="59.3563401885" lon="34.6906241309"><ele>171.91</ele><time>2026-08-15T00:31:31Z</time></trkpt><trkpt lat="59.3564352393" lon="34.6906546410"><ele>171.33</ele><time>2026-08-15T00:32:03Z</time></trkpt><trkpt lat="59.3564906437" lon="34.6908227820"><ele>171.47</ele><time>2026-08-15T00:32:24Z</time></trkpt><trkpt lat="59.3564903922" lon="34.6910012327"><ele>173.60</ele><time>2026-08-15T00:32:57Z</time></trkpt><trkpt lat="59.3564757239" lon="34.6910412144"><ele>174.45</ele><time>2026-08-15T00:33:37Z</time></trkpt><trkpt lat="59.3565121014" lon="34.6911347564"><ele>174.52</ele><time>2026-08-15T00:34:00Z</time></trkpt><trkpt lat="59.3565660808" lon="34.6913055796"><ele>174.03</ele><time>2026-08-15T00:34:26Z</time></trkpt><trkpt lat="59.3566482235" lon="34.6913529374"><ele>172.35</ele><time>2026-08-15T00:34:41Z</time></trkpt><trkpt lat="59.3566930667" lon="34.6914960165"><ele>172.12</ele><time>2026-08-15T00:35:03Z</time></trkpt><trkpt lat="59.3566731177" lon="34.6916660015"><ele>171.01</ele><time>2026-08-15T00:35:33Z</time></trkpt><trkpt lat="59.3567077350" lon="34.6916774847"><ele>170.13</ele><time>2026-08-15T00:36:01Z</time></trkpt><trkpt lat="59.3567332998" lon="34.6915981919"><ele>168.55</ele><time>2026-08-15T00:36:34Z</time></trkpt><trkpt lat="59.3567328807" lon="34.6915735491"><ele>168.57</ele><time>2026-08-15T00:36:36Z</time></trkpt><trkpt lat="59.3567369040" lon="34.6912918333"><ele>168.58</ele><time>2026-08-15T00:36:55Z</time></trkpt><trkpt lat="59.3566580303" lon="34.6910798550"><ele>173.80</ele><time>2026-08-15T00:37:26Z</time></trkpt><trkpt lat="59.3566641491" lon="34.6911165677"><ele>174.58</ele><time>2026-08-15T00:37:58Z</time></trkpt><trkpt lat="59.3566884566" lon="34.6909907553"><ele>175.31</ele><time>2026-08-15T00:38:30Z</time></trkpt><trkpt lat="59.3567079026" lon="34.6909060143"><ele>174.71</ele><time>2026-08-15T00:38:54Z</time></trkpt><trkpt lat="59.3566481397" lon="34.6906752605"><ele>173.12</ele><time>2026-08-15T00:39:36Z</time></trkpt><trkpt lat="59.3565902207" lon="34.6905985661"><ele>172.16</ele><time>2026-08-15T00:40:07Z</time></trkpt><trkpt lat="59.3565959204" lon="34.6906489413"><ele>170.42</ele><time>2026-08-15T00:40:50Z</time></trkpt><trkpt lat="59.3566210661" lon="34.6905978955"><ele>169.54</ele><time>2026-08-15T00:41:22Z</time></trkpt><trkpt lat="59.3565473892" lon="34.6905573271"><ele>168.63</ele><time>2026-08-15T00:41:59Z</time></trkpt><trkpt lat="59.3565220758" lon="34.6903011762"><ele>169.13</ele><time>2026-08-15T00:42:39Z</time></trkpt><trkpt lat="59.3564916495" lon="34.6903051157"><ele>169.17</ele><time>2026-08-15T00:43:03Z</time></trkpt><trkpt lat="59.3564679287" lon="34.6903158445"><ele>166.95</ele><time>2026-08-15T00:44:10Z</time></trkpt><trkpt lat="59.3565913942" lon="34.6904133260"><ele>167.15</ele><time>2026-08-15T00:44:44Z</time></trkpt><trkpt lat="59.3565222435" lon="34.6902793832"><ele>166.51</ele><time>2026-08-15T00:45:08Z</time></trkpt><trkpt lat="59.3565327208" lon="34.6901978273"><ele>165.44</ele><time>2026-08-15T00:45:33Z</time></trkpt><trkpt lat="59.3565803301" lon="34.6902520582"><ele>164.24</ele><time>2026-08-15T00:46:00Z</time></trkpt><trkpt lat="59.3565518316" lon="34.6902428381"><ele>164.68</ele><time>2026-08-15T00:46:33Z</time></trkpt><trkpt lat="59.3565260991" lon="34.6902108192"><ele>166.54</ele><time>2026-08-15T00:47:11Z</time></trkpt><trkpt lat="59.3565228302" lon="34.6901254077"><ele>167.11</ele><time>2026-08-15T00:47:37Z</time></trkpt><trkpt lat="59.3565354869" lon="34.6900137607"><ele>166.84</ele><time>2026-08-15T00:47:55Z</time></trkpt><trkpt lat="59.3565483112" lon="34.6898492239"><ele>166.36</ele><time>2026-08-15T00:48:13Z</time></trkpt><trkpt lat="59.3566640653" lon="34.6896958351"><ele>165.29</ele><time>2026-08-15T00:48:35Z</time></trkpt><trkpt lat="59.3566769734" lon="34.6896450408"><ele>164.98</ele><time>2026-08-15T00:48:40Z</time></trkpt><trkpt lat="59.3567546736" lon="34.6894546039"><ele>164.57</ele><time>2026-08-15T00:49:04Z</time></trkpt><trkpt lat="59.3567711022" lon="34.6892561205"><ele>164.23</ele><time>2026-08-15T00:49:29Z</time></trkpt><trkpt lat="59.3567124289" lon="34.6890983731"><ele>164.51</ele><time>2026-08-15T00:49:48Z</time></trkpt><trkpt lat="59.3566483911" lon="34.6889364347"><ele>163.74</ele><time>2026-08-15T00:50:04Z</time></trkpt><trkpt lat="59.3566153664" lon="34.6888145618"><ele>164.46</ele><time>2026-08-15T00:50:24Z</time></trkpt><trkpt lat="59.3565432820" lon="34.6888580639"><ele>165.71</ele><time>2026-08-15T00:50:45Z</time></trkpt><trkpt lat="59.3564714491" lon="34.6887402143"><ele>165.96</ele><time>2026-08-15T00:51:04Z</time></trkpt><trkpt lat="59.3563722074" lon="34.6887049265"><ele>166.41</ele><time>2026-08-15T00:51:32Z</time></trkpt><trkpt lat="59.3562682718" lon="34.6886520367"><ele>167.00</ele><time>2026-08-15T00:51:53Z</time></trkpt><trkpt lat="59.3561463989" lon="34.6885485202"><ele>166.96</ele><time>2026-08-15T00:52:11Z</time></trkpt><trkpt lat="59.3560633343" lon="34.6884603426"><ele>166.73</ele><time>2026-08-15T00:52:30Z</time></trkpt><trkpt lat="59.3559713848" lon="34.6883230470"><ele>166.20</ele><time>2026-08-15T00:52:51Z</time></trkpt><trkpt lat="59.3558534514" lon="34.6882182732"><ele>165.39</ele><time>2026-08-15T00:53:18Z</time></trkpt><trkpt lat="59.3557472527" lon="34.6881528944"><ele>166.53</ele><time>2026-08-15T00:53:42Z</time></trkpt><trkpt lat="59.3557083607" lon="34.6880276687"><ele>169.14</ele><time>2026-08-15T00:54:16Z</time></trkpt><trkpt lat="59.3557249568" lon="34.6880497970"><ele>168.77</ele><time>2026-08-15T00:54:50Z</time></trkpt><trkpt lat="59.3556436524" lon="34.6880824026"><ele>171.04</ele><time>2026-08-15T00:55:22Z</time></trkpt><trkpt lat="59.3556875736" lon="34.6880876832"><ele>172.42</ele><time>2026-08-15T00:55:44Z</time></trkpt><trkpt lat="59.3556745816" lon="34.6879348811"><ele>171.20</ele><time>2026-08-15T00:56:11Z</time></trkpt><trkpt lat="59.3555995636" lon="34.6876880340"><ele>170.03</ele><time>2026-08-15T00:56:35Z</time></trkpt><trkpt lat="59.3555669580" lon="34.6875664126"><ele>169.69</ele><time>2026-08-15T00:56:49Z</time></trkpt><trkpt lat="59.3555027526" lon="34.6873139497"><ele>169.82</ele><time>2026-08-15T00:57:18Z</time></trkpt><trkpt lat="59.3555013277" lon="34.6873130277"><ele>170.38</ele><time>2026-08-15T00:57:53Z</time></trkpt><trkpt lat="59.3554797024" lon="34.6873055678"><ele>170.30</ele><time>2026-08-15T00:58:26Z</time></trkpt><trkpt lat="59.3554589991" lon="34.6873332281"><ele>170.49</ele><time>2026-08-15T00:58:52Z</time></trkpt><trkpt lat="59.3554513715" lon="34.6873196494"><ele>170.82</ele><time>2026-08-15T00:59:22Z</time></trkpt><trkpt lat="59.3553166743" lon="34.6872686036"><ele>171.42</ele><time>2026-08-15T00:59:47Z</time></trkpt><trkpt lat="59.3552378844" lon="34.6873473935"><ele>171.11</ele><time>2026-08-15T01:00:09Z</time></trkpt><trkpt lat="59.3551245611" lon="34.6873552725"><ele>171.46</ele><time>2026-08-15T01:00:30Z</time></trkpt><trkpt lat="59.3549737707" lon="34.6874123532"><ele>170.90</ele><time>2026-08-15T01:00:56Z</time></trkpt><trkpt lat="59.3548660632" lon="34.6875032131"><ele>171.15</ele><time>2026-08-15T01:01:25Z</time></trkpt><trkpt lat="59.3547359761" lon="34.6876555122"><ele>171.72</ele><time>2026-08-15T01:01:48Z</time></trkpt><trkpt lat="59.3545788154" lon="34.6877978370"><ele>171.30</ele><time>2026-08-15T01:02:05Z</time></trkpt><trkpt lat="59.3545500655" lon="34.6878166962"><ele>171.42</ele><time>2026-08-15T01:02:12Z</time></trkpt><trkpt lat="59.3544450402" lon="34.6878120862"><ele>170.99</ele><time>2026-08-15T01:02:31Z</time></trkpt><trkpt lat="59.3543286994" lon="34.6878203005"><ele>171.15</ele><time>2026-08-15T01:02:55Z</time></trkpt><trkpt lat="59.3542924896" lon="34.6880000085"><ele>171.79</ele><time>2026-08-15T01:03:25Z</time></trkpt><trkpt lat="59.3542549387" lon="34.6879791375"><ele>172.58</ele><time>2026-08-15T01:03:55Z</time></trkpt><trkpt lat="59.3542816769" lon="34.6880221367"><ele>171.49</ele><time>2026-08-15T01:04:36Z</time></trkpt><trkpt lat="59.3543337286" lon="34.6879754495"><ele>169.00</ele><time>2026-08-15T01:05:12Z</time></trkpt><trkpt lat="59.3543473072" lon="34.6878777165"><ele>169.22</ele><time>2026-08-15T01:05:46Z</time></trkpt><trkpt lat="59.3543323874" lon="34.6879059635"><ele>169.16</ele><time>2026-08-15T01:06:13Z</time></trkpt><trkpt lat="59.3543333095" lon="34.6879319474"><ele>167.45</ele><time>2026-08-15T01:06:42Z</time></trkpt><trkpt lat="59.3543647416" lon="34.6878907084"><ele>166.71</ele><time>2026-08-15T01:07:14Z</time></trkpt><trkpt lat="59.3543878756" lon="34.6878025308"><ele>166.08</ele><time>2026-08-15T01:07:58Z</time></trkpt><trkpt lat="59.3545330502" lon="34.6877676621"><ele>165.89</ele><time>2026-08-15T01:08:43Z</time></trkpt><trkpt lat="59.3545719422" lon="34.6878317837"><ele>165.79</ele><time>2026-08-15T01:09:05Z</time></trkpt><trkpt lat="59.3546716031" lon="34.6877722722"><ele>166.61</ele><time>2026-08-15T01:09:33Z</time></trkpt><trkpt lat="59.3547024485" lon="34.6877649799"><ele>165.70</ele><time>2026-08-15T01:10:04Z</time></trkpt><trkpt lat="59.3547335453" lon="34.6876216494"><ele>166.68</ele><time>2026-08-15T01:10:35Z</time></trkpt><trkpt lat="59.3547464535" lon="34.6875984315"><ele>166.51</ele><time>2026-08-15T01:10:48Z</time></trkpt><trkpt lat="59.3548097368" lon="34.6875426080"><ele>166.15</ele><time>2026-08-15T01:11:10Z</time></trkpt><trkpt lat="59.3549032789" lon="34.6874289494"><ele>165.51</ele><time>2026-08-15T01:11:33Z</time></trkpt><trkpt lat="59.3549577612" lon="34.6871878859"><ele>165.91</ele><time>2026-08-15T01:12:05Z</time></trkpt><trkpt lat="59.3550467771" lon="34.6871164721"><ele>164.05</ele><time>2026-08-15T01:12:47Z</time></trkpt><trkpt lat="59.3550273310" lon="34.6872024704"><ele>163.89</ele><time>2026-08-15T01:13:21Z</time></trkpt><trkpt lat="59.3550066277" lon="34.6871646680"><ele>162.95</ele><time>2026-08-15T01:13:55Z</time></trkpt><trkpt lat="59.3550397363" lon="34.6869630832"><ele>163.01</ele><time>2026-08-15T01:14:12Z</time></trkpt><trkpt lat="59.3550435919" lon="34.6869294718"><ele>162.97</ele><time>2026-08-15T01:14:15Z</time></trkpt><trkpt lat="59.3550157640" lon="34.6867785975"><ele>163.27</ele><time>2026-08-15T01:14:35Z</time></trkpt><trkpt lat="59.3550238106" lon="34.6865605004"><ele>163.24</ele><time>2026-08-15T01:15:11Z</time></trkpt><trkpt lat="59.3550428376" lon="34.6864967141"><ele>163.48</ele><time>2026-08-15T01:15:34Z</time></trkpt><trkpt lat="59.3550603557" lon="34.6864203550"><ele>162.91</ele><time>2026-08-15T01:16:13Z</time></trkpt><trkpt lat="59.3549965695" lon="34.6863470133"><ele>162.26</ele><time>2026-08-15T01:16:43Z</time></trkpt><trkpt lat="59.3549844157" lon="34.6863086242"><ele>162.77</ele><time>2026-08-15T01:17:15Z</time></trkpt><trkpt lat="59.3549833260" lon="34.6862293314"><ele>162.08</ele><time>2026-08-15T01:17:47Z</time></trkpt><trkpt lat="59.3549563363" lon="34.6864372026"><ele>161.90</ele><time>2026-08-15T01:18:16Z</time></trkpt><trkpt lat="59.3549464457" lon="34.6865279786"><ele>161.98</ele><time>2026-08-15T01:18:51Z</time></trkpt><trkpt lat="59.3549049553" lon="34.6866169106"><ele>161.71</ele><time>2026-08-15T01:19:12Z</time></trkpt><trkpt lat="59.3548125029" lon="34.6865624283"><ele>161.59</ele><time>2026-08-15T01:19:39Z</time></trkpt><trkpt lat="59.3547117524" lon="34.6866778471"><ele>161.56</ele><time>2026-08-15T01:20:09Z</time></trkpt><trkpt lat="59.3546113372" lon="34.6866789367"><ele>161.52</ele><time>2026-08-15T01:20:29Z</time></trkpt><trkpt lat="59.3545103353" lon="34.6866744105"><ele>161.59</ele><time>2026-08-15T01:20:51Z</time></trkpt><trkpt lat="59.3543822598" lon="34.6867506858"><ele>161.76</ele><time>2026-08-15T01:21:19Z</time></trkpt><trkpt lat="59.3542779051" lon="34.6867045853"><ele>162.00</ele><time>2026-08-15T01:21:43Z</time></trkpt><trkpt lat="59.3541231751" lon="34.6867242828"><ele>162.49</ele><time>2026-08-15T01:22:36Z</time></trkpt><trkpt lat="59.3540321477" lon="34.6867375262"><ele>162.54</ele><time>2026-08-15T01:23:06Z</time></trkpt><trkpt lat="59.3539849576" lon="34.6867802739"><ele>163.02</ele><time>2026-08-15T01:23:31Z</time></trkpt><trkpt lat="59.3539110292" lon="34.6867161524"><ele>163.34</ele><time>2026-08-15T01:23:57Z</time></trkpt><trkpt lat="59.3538631685" lon="34.6866579819"><ele>163.58</ele><time>2026-08-15T01:24:22Z</time></trkpt><trkpt lat="59.3538517691" lon="34.6866160724"><ele>163.98</ele><time>2026-08-15T01:24:46Z</time></trkpt><trkpt lat="59.3537334166" lon="34.6866055951"><ele>164.10</ele><time>2026-08-15T01:25:11Z</time></trkpt><trkpt lat="59.3536326662" lon="34.6866452415"><ele>164.00</ele><time>2026-08-15T01:25:31Z</time></trkpt><trkpt lat="59.3535663653" lon="34.6866706386"><ele>163.95</ele><time>2026-08-15T01:25:51Z</time></trkpt><trkpt lat="59.3534710631" lon="34.6867430583"><ele>163.76</ele><time>2026-08-15T01:26:10Z</time></trkpt><trkpt lat="59.3533947039" lon="34.6867738198"><ele>164.40</ele><time>2026-08-15T01:26:27Z</time></trkpt><trkpt lat="59.3532466795" lon="34.6868005581"><ele>164.67</ele><time>2026-08-15T01:26:57Z</time></trkpt><trkpt lat="59.3530907761" lon="34.6867505182"><ele>164.68</ele><time>2026-08-15T01:27:15Z</time></trkpt><trkpt lat="59.3530645408" lon="34.6866946947"><ele>165.19</ele><time>2026-08-15T01:27:44Z</time></trkpt><trkpt lat="59.3529601023" lon="34.6866466664"><ele>163.67</ele><time>2026-08-15T01:28:06Z</time></trkpt><trkpt lat="59.3528874312" lon="34.6866515279"><ele>163.55</ele><time>2026-08-15T01:28:27Z</time></trkpt><trkpt lat="59.3527779635" lon="34.6866987180"><ele>163.88</ele><time>2026-08-15T01:28:45Z</time></trkpt><trkpt lat="59.3526985031" lon="34.6867950261"><ele>163.81</ele><time>2026-08-15T01:29:01Z</time></trkpt><trkpt lat="59.3526689149" lon="34.6867884044"><ele>163.64</ele><time>2026-08-15T01:29:16Z</time></trkpt><trkpt lat="59.3525882810" lon="34.6867116261"><ele>163.72</ele><time>2026-08-15T01:29:39Z</time></trkpt><trkpt lat="59.3525341339" lon="34.6865816228"><ele>163.36</ele><time>2026-08-15T01:29:56Z</time></trkpt><trkpt lat="59.3524762988" lon="34.6865282301"><ele>164.71</ele><time>2026-08-15T01:30:20Z</time></trkpt><trkpt lat="59.3523775600" lon="34.6864805371"><ele>164.09</ele><time>2026-08-15T01:30:43Z</time></trkpt><trkpt lat="59.3523118459" lon="34.6864864044"><ele>164.42</ele><time>2026-08-15T01:31:07Z</time></trkpt><trkpt lat="59.3523587845" lon="34.6863527969"><ele>165.58</ele><time>2026-08-15T01:31:32Z</time></trkpt><trkpt lat="59.3523115944" lon="34.6863339376"><ele>165.06</ele><time>2026-08-15T01:32:01Z</time></trkpt><trkpt lat="59.3522556871" lon="34.6863717400"><ele>165.06</ele><time>2026-08-15T01:32:21Z</time></trkpt><trkpt lat="59.3522049766" lon="34.6863349434"><ele>164.74</ele><time>2026-08-15T01:32:47Z</time></trkpt><trkpt lat="59.3521155417" lon="34.6863247175"><ele>165.79</ele><time>2026-08-15T01:33:21Z</time></trkpt><trkpt lat="59.3520498276" lon="34.6863163356"><ele>166.12</ele><time>2026-08-15T01:33:43Z</time></trkpt><trkpt lat="59.3519906513" lon="34.6861802973"><ele>166.50</ele><time>2026-08-15T01:34:03Z</time></trkpt><trkpt lat="59.3519663438" lon="34.6861774474"><ele>166.50</ele><time>2026-08-15T01:34:07Z</time></trkpt><trkpt lat="59.3518954329" lon="34.6861729212"><ele>166.32</ele><time>2026-08-15T01:34:26Z</time></trkpt><trkpt lat="59.3518808484" lon="34.6863720752"><ele>166.18</ele><time>2026-08-15T01:34:43Z</time></trkpt><trkpt lat="59.3518456444" lon="34.6864890866"><ele>166.51</ele><time>2026-08-15T01:35:05Z</time></trkpt><trkpt lat="59.3517996278" lon="34.6866553836"><ele>166.34</ele><time>2026-08-15T01:35:27Z</time></trkpt><trkpt lat="59.3517133780" lon="34.6866980474"><ele>166.27</ele><time>2026-08-15T01:35:47Z</time></trkpt><trkpt lat="59.3516617455" lon="34.6866988856"><ele>166.44</ele><time>2026-08-15T01:35:58Z</time></trkpt><trkpt lat="59.3515660241" lon="34.6866882406"><ele>166.99</ele><time>2026-08-15T01:36:21Z</time></trkpt><trkpt lat="59.3514785171" lon="34.6867384482"><ele>167.37</ele><time>2026-08-15T01:36:43Z</time></trkpt><trkpt lat="59.3514473364" lon="34.6866309084"><ele>167.41</ele><time>2026-08-15T01:37:05Z</time></trkpt><trkpt lat="59.3513402995" lon="34.6866222750"><ele>167.33</ele><time>2026-08-15T01:37:23Z</time></trkpt><trkpt lat="59.3512610905" lon="34.6867053397"><ele>167.19</ele><time>2026-08-15T01:37:40Z</time></trkpt><trkpt lat="59.3511459231" lon="34.6867753286"><ele>167.59</ele><time>2026-08-15T01:38:05Z</time></trkpt><trkpt lat="59.3510693125" lon="34.6868660208"><ele>167.74</ele><time>2026-08-15T01:38:22Z</time></trkpt><trkpt lat="59.3510459270" lon="34.6868743189"><ele>167.96</ele><time>2026-08-15T01:38:24Z</time></trkpt><trkpt lat="59.3509888463" lon="34.6870088484"><ele>168.26</ele><time>2026-08-15T01:38:42Z</time></trkpt><trkpt lat="59.3509647902" lon="34.6871425398"><ele>168.87</ele><time>2026-08-15T01:38:59Z</time></trkpt><trkpt lat="59.3509111460" lon="34.6872493252"><ele>169.06</ele><time>2026-08-15T01:39:18Z</time></trkpt><trkpt lat="59.3508234713" lon="34.6873645764"><ele>169.08</ele><time>2026-08-15T01:39:35Z</time></trkpt><trkpt lat="59.3507972360" lon="34.6873672586"><ele>169.17</ele><time>2026-08-15T01:39:37Z</time></trkpt><trkpt lat="59.3507685699" lon="34.6872943360"><ele>169.57</ele><time>2026-08-15T01:39:54Z</time></trkpt><trkpt lat="59.3506855052" lon="34.6872405242"><ele>169.33</ele><time>2026-08-15T01:40:14Z</time></trkpt><trkpt lat="59.3506459426" lon="34.6872080863"><ele>168.96</ele><time>2026-08-15T01:40:25Z</time></trkpt><trkpt lat="59.3506226409" lon="34.6871234290"><ele>168.16</ele><time>2026-08-15T01:40:49Z</time></trkpt><trkpt lat="59.3505285122" lon="34.6870612353"><ele>168.01</ele><time>2026-08-15T01:41:08Z</time></trkpt><trkpt lat="59.3504845910" lon="34.6869617421"><ele>168.18</ele><time>2026-08-15T01:41:31Z</time></trkpt><trkpt lat="59.3503294419" lon="34.6870211698"><ele>168.42</ele><time>2026-08-15T01:41:50Z</time></trkpt><trkpt lat="59.3502427731" lon="34.6871873830"><ele>168.35</ele><time>2026-08-15T01:42:10Z</time></trkpt><trkpt lat="59.3501277734" lon="34.6872562822"><ele>168.09</ele><time>2026-08-15T01:42:30Z</time></trkpt><trkpt lat="59.3500920665" lon="34.6871101018"><ele>168.40</ele><time>2026-08-15T01:42:46Z</time></trkpt><trkpt lat="59.3500155397" lon="34.6871102694"><ele>167.84</ele><time>2026-08-15T01:43:10Z</time></trkpt><trkpt lat="59.3500295375" lon="34.6869583055"><ele>167.71</ele><time>2026-08-15T01:43:34Z</time></trkpt><trkpt lat="59.3500456307" lon="34.6869044937"><ele>167.35</ele><time>2026-08-15T01:43:39Z</time></trkpt><trkpt lat="59.3500271905" lon="34.6867208462"><ele>167.30</ele><time>2026-08-15T01:43:56Z</time></trkpt><trkpt lat="59.3500492349" lon="34.6865454968"><ele>167.44</ele><time>2026-08-15T01:44:11Z</time></trkpt><trkpt lat="59.3500310462" lon="34.6863649506"><ele>168.27</ele><time>2026-08-15T01:44:37Z</time></trkpt><trkpt lat="59.3499601353" lon="34.6864056867"><ele>168.38</ele><time>2026-08-15T01:45:06Z</time></trkpt><trkpt lat="59.3499954231" lon="34.6864025854"><ele>168.37</ele><time>2026-08-15T01:45:33Z</time></trkpt><trkpt lat="59.3500112649" lon="34.6863605082"><ele>172.01</ele><time>2026-08-15T01:46:05Z</time></trkpt><trkpt lat="59.3500128575" lon="34.6863994841"><ele>172.14</ele><time>2026-08-15T01:46:36Z</time></trkpt><trkpt lat="59.3499981891" lon="34.6863583289"><ele>172.61</ele><time>2026-08-15T01:47:24Z</time></trkpt><trkpt lat="59.3499624822" lon="34.6864467580"><ele>173.58</ele><time>2026-08-15T01:47:57Z</time></trkpt><trkpt lat="59.3499250989" lon="34.6865022462"><ele>173.55</ele><time>2026-08-15T01:48:31Z</time></trkpt><trkpt lat="59.3499166332" lon="34.6866012365"><ele>172.50</ele><time>2026-08-15T01:49:00Z</time></trkpt><trkpt lat="59.3499328941" lon="34.6865260508"><ele>172.09</ele><time>2026-08-15T01:49:33Z</time></trkpt><trkpt lat="59.3499706965" lon="34.6864524577"><ele>173.60</ele><time>2026-08-15T01:50:10Z</time></trkpt><trkpt lat="59.3498693593" lon="34.6866332553"><ele>174.07</ele><time>2026-08-15T01:50:52Z</time></trkpt><trkpt lat="59.3500488158" lon="34.6863895096"><ele>173.47</ele><time>2026-08-15T01:51:24Z</time></trkpt><trkpt lat="59.3500172161" lon="34.6864049323"><ele>173.31</ele><time>2026-08-15T01:51:57Z</time></trkpt><trkpt lat="59.3499617279" lon="34.6864903439"><ele>172.22</ele><time>2026-08-15T01:52:27Z</time></trkpt><trkpt lat="59.3500116840" lon="34.6865176689"><ele>177.01</ele><time>2026-08-15T01:53:02Z</time></trkpt><trkpt lat="59.3499806710" lon="34.6864258870"><ele>176.03</ele><time>2026-08-15T01:53:34Z</time></trkpt><trkpt lat="59.3499262724" lon="34.6863931138"><ele>173.17</ele><time>2026-08-15T01:54:05Z</time></trkpt><trkpt lat="59.3500054814" lon="34.6864074469"><ele>174.48</ele><time>2026-08-15T01:54:40Z</time></trkpt><trkpt lat="59.3499641586" lon="34.6863652021"><ele>174.56</ele><time>2026-08-15T01:55:10Z</time></trkpt><trkpt lat="59.3499571178" lon="34.6864010766"><ele>171.35</ele><time>2026-08-15T01:55:44Z</time></trkpt><trkpt lat="59.3499467243" lon="34.6864082851"><ele>170.61</ele><time>2026-08-15T01:56:18Z</time></trkpt><trkpt lat="59.3499953393" lon="34.6863167547"><ele>171.39</ele><time>2026-08-15T01:56:46Z</time></trkpt><trkpt lat="59.3499121070" lon="34.6864003222"><ele>173.42</ele><time>2026-08-15T01:57:17Z</time></trkpt><trkpt lat="59.3499120232" lon="34.6863331832"><ele>173.76</ele><time>2026-08-15T01:57:51Z</time></trkpt><trkpt lat="59.3499027193" lon="34.6863368712"><ele>177.22</ele><time>2026-08-15T01:58:24Z</time></trkpt><trkpt lat="59.3499587104" lon="34.6863783617"><ele>176.58</ele><time>2026-08-15T01:58:47Z</time></trkpt><trkpt lat="59.3499907292" lon="34.6863940358"><ele>175.94</ele><time>2026-08-15T01:59:11Z</time></trkpt><trkpt lat="59.3499922380" lon="34.6863823850"><ele>175.35</ele><time>2026-08-15T01:59:37Z</time></trkpt><trkpt lat="59.3500268552" lon="34.6864408907"><ele>174.56</ele><time>2026-08-15T02:00:02Z</time></trkpt><trkpt lat="59.3500369973" lon="34.6864836384"><ele>172.80</ele><time>2026-08-15T02:00:31Z</time></trkpt><trkpt lat="59.3500154559" lon="34.6864372864"><ele>172.58</ele><time>2026-08-15T02:00:47Z</time></trkpt><trkpt lat="59.3500002008" lon="34.6863071993"><ele>172.05</ele><time>2026-08-15T02:01:13Z</time></trkpt><trkpt lat="59.3499938305" lon="34.6861198638"><ele>171.14</ele><time>2026-08-15T02:01:34Z</time></trkpt><trkpt lat="59.3500216585" lon="34.6859432571"><ele>170.41</ele><time>2026-08-15T02:01:51Z</time></trkpt><trkpt lat="59.3499481492" lon="34.6857084800"><ele>169.24</ele><time>2026-08-15T02:02:10Z</time></trkpt><trkpt lat="59.3498883862" lon="34.6855721064"><ele>168.72</ele><time>2026-08-15T02:02:24Z</time></trkpt><trkpt lat="59.3497979455" lon="34.6855333820"><ele>167.99</ele><time>2026-08-15T02:02:41Z</time></trkpt><trkpt lat="59.3497745600" lon="34.6853667498"><ele>168.27</ele><time>2026-08-15T02:02:56Z</time></trkpt><trkpt lat="59.3497729674" lon="34.6852586232"><ele>168.18</ele><time>2026-08-15T02:03:12Z</time></trkpt><trkpt lat="59.3497869652" lon="34.6852449607"><ele>168.01</ele><time>2026-08-15T02:03:36Z</time></trkpt><trkpt lat="59.3498097640" lon="34.6852326393"><ele>168.29</ele><time>2026-08-15T02:04:07Z</time></trkpt><trkpt lat="59.3498582952" lon="34.6852582879"><ele>167.69</ele><time>2026-08-15T02:04:33Z</time></trkpt><trkpt lat="59.3498246837" lon="34.6850549430"><ele>167.42</ele><time>2026-08-15T02:04:57Z</time></trkpt><trkpt lat="59.3498532660" lon="34.6849825233"><ele>167.68</ele><time>2026-08-15T02:05:15Z</time></trkpt><trkpt lat="59.3498652522" lon="34.6847702097"><ele>167.88</ele><time>2026-08-15T02:05:38Z</time></trkpt><trkpt lat="59.3498375081" lon="34.6846513543"><ele>169.21</ele><time>2026-08-15T02:05:57Z</time></trkpt><trkpt lat="59.3499372527" lon="34.6845352650"><ele>169.51</ele><time>2026-08-15T02:06:16Z</time></trkpt><trkpt lat="59.3499449641" lon="34.6844587382"><ele>169.91</ele><time>2026-08-15T02:06:38Z</time></trkpt><trkpt lat="59.3499750551" lon="34.6843936946"><ele>169.45</ele><time>2026-08-15T02:06:56Z</time></trkpt><trkpt lat="59.3499666732" lon="34.6843947005"><ele>168.43</ele><time>2026-08-15T02:07:20Z</time></trkpt><trkpt lat="59.3499823473" lon="34.6843898389"><ele>167.26</ele><time>2026-08-15T02:07:41Z</time></trkpt><trkpt lat="59.3499530945" lon="34.6843429003"><ele>166.98</ele><time>2026-08-15T02:08:11Z</time></trkpt><trkpt lat="59.3499606382" lon="34.6843130607"><ele>165.75</ele><time>2026-08-15T02:08:38Z</time></trkpt><trkpt lat="59.3499994464" lon="34.6840781998"><ele>165.82</ele><time>2026-08-15T02:08:58Z</time></trkpt><trkpt lat="59.3500328902" lon="34.6839973144"><ele>164.53</ele><time>2026-08-15T02:09:19Z</time></trkpt><trkpt lat="59.3500707764" lon="34.6838138346"><ele>163.98</ele><time>2026-08-15T02:09:40Z</time></trkpt><trkpt lat="59.3501101714" lon="34.6836698335"><ele>164.12</ele><time>2026-08-15T02:10:00Z</time></trkpt><trkpt lat="59.3501295336" lon="34.6836416703"><ele>166.78</ele><time>2026-08-15T02:10:24Z</time></trkpt><trkpt lat="59.3501926493" lon="34.6836819034"><ele>168.26</ele><time>2026-08-15T02:10:57Z</time></trkpt><trkpt lat="59.3501908053" lon="34.6836663131"><ele>169.24</ele><time>2026-08-15T02:11:25Z</time></trkpt><trkpt lat="59.3502003606" lon="34.6834554244"><ele>170.04</ele><time>2026-08-15T02:11:45Z</time></trkpt><trkpt lat="59.3502245843" lon="34.6833213978"><ele>170.23</ele><time>2026-08-15T02:12:05Z</time></trkpt><trkpt lat="59.3502876163" lon="34.6831904724"><ele>170.67</ele><time>2026-08-15T02:12:24Z</time></trkpt><trkpt lat="59.3503581919" lon="34.6830081660"><ele>170.81</ele><time>2026-08-15T02:12:45Z</time></trkpt><trkpt lat="59.3503802363" lon="34.6829142887"><ele>170.28</ele><time>2026-08-15T02:13:05Z</time></trkpt><trkpt lat="59.3504100759" lon="34.6829380933"><ele>169.91</ele><time>2026-08-15T02:13:26Z</time></trkpt><trkpt lat="59.3504190445" lon="34.6829863731"><ele>171.33</ele><time>2026-08-15T02:14:01Z</time></trkpt><trkpt lat="59.3504402507" lon="34.6828834433"><ele>171.08</ele><time>2026-08-15T02:14:35Z</time></trkpt><trkpt lat="59.3504066393" lon="34.6826961078"><ele>170.47</ele><time>2026-08-15T02:14:50Z</time></trkpt><trkpt lat="59.3504592776" lon="34.6825733129"><ele>170.17</ele><time>2026-08-15T02:15:07Z</time></trkpt><trkpt lat="59.3505280931" lon="34.6823868155"><ele>169.25</ele><time>2026-08-15T02:15:25Z</time></trkpt><trkpt lat="59.3505733553" lon="34.6822408028"><ele>168.80</ele><time>2026-08-15T02:15:42Z</time></trkpt><trkpt lat="59.3505658116" lon="34.6821052674"><ele>167.21</ele><time>2026-08-15T02:15:57Z</time></trkpt><trkpt lat="59.3505822401" lon="34.6820910182"><ele>167.16</ele><time>2026-08-15T02:16:24Z</time></trkpt><trkpt lat="59.3505819887" lon="34.6820650343"><ele>167.40</ele><time>2026-08-15T02:16:58Z</time></trkpt><trkpt lat="59.3506031111" lon="34.6820467617"><ele>166.79</ele><time>2026-08-15T02:17:26Z</time></trkpt><trkpt lat="59.3505726010" lon="34.6818438359"><ele>166.63</ele><time>2026-08-15T02:17:47Z</time></trkpt><trkpt lat="59.3505425099" lon="34.6816952247"><ele>166.59</ele><time>2026-08-15T02:18:06Z</time></trkpt><trkpt lat="59.3505654763" lon="34.6815860085"><ele>166.80</ele><time>2026-08-15T02:18:23Z</time></trkpt><trkpt lat="59.3505759537" lon="34.6814253274"><ele>166.53</ele><time>2026-08-15T02:18:44Z</time></trkpt><trkpt lat="59.3505707569" lon="34.6812384948"><ele>166.53</ele><time>2026-08-15T02:19:01Z</time></trkpt><trkpt lat="59.3505821563" lon="34.6811194718"><ele>162.93</ele><time>2026-08-15T02:19:20Z</time></trkpt><trkpt lat="59.3505847547" lon="34.6811142750"><ele>163.40</ele><time>2026-08-15T02:19:39Z</time></trkpt><trkpt lat="59.3505901191" lon="34.6811100002"><ele>164.64</ele><time>2026-08-15T02:20:00Z</time></trkpt><trkpt lat="59.3506174441" lon="34.6811236627"><ele>164.08</ele><time>2026-08-15T02:20:22Z</time></trkpt><trkpt lat="59.3506334536" lon="34.6810958348"><ele>163.91</ele><time>2026-08-15T02:20:45Z</time></trkpt><trkpt lat="59.3506486248" lon="34.6809768118"><ele>164.25</ele><time>2026-08-15T02:21:01Z</time></trkpt><trkpt lat="59.3506508041" lon="34.6807651687"><ele>163.00</ele><time>2026-08-15T02:21:20Z</time></trkpt><trkpt lat="59.3506512232" lon="34.6807374246"><ele>162.97</ele><time>2026-08-15T02:21:22Z</time></trkpt><trkpt lat="59.3506668136" lon="34.6805362590"><ele>162.54</ele><time>2026-08-15T02:21:39Z</time></trkpt><trkpt lat="59.3506347947" lon="34.6804114524"><ele>161.01</ele><time>2026-08-15T02:21:54Z</time></trkpt><trkpt lat="59.3506585155" lon="34.6802663617"><ele>160.10</ele><time>2026-08-15T02:22:15Z</time></trkpt><trkpt lat="59.3506776262" lon="34.6800860669"><ele>160.15</ele><time>2026-08-15T02:22:37Z</time></trkpt><trkpt lat="59.3507110700" lon="34.6800502762"><ele>161.70</ele><time>2026-08-15T02:23:02Z</time></trkpt><trkpt lat="59.3507356290" lon="34.6800731588"><ele>162.62</ele><time>2026-08-15T02:23:29Z</time></trkpt><trkpt lat="59.3506818172" lon="34.6801514458"><ele>161.80</ele><time>2026-08-15T02:23:58Z</time></trkpt><trkpt lat="59.3507171888" lon="34.6800124738"><ele>163.53</ele><time>2026-08-15T02:24:21Z</time></trkpt><trkpt lat="59.3507300131" lon="34.6798247192"><ele>163.34</ele><time>2026-08-15T02:24:36Z</time></trkpt><trkpt lat="59.3507716712" lon="34.6796538122"><ele>163.73</ele><time>2026-08-15T02:24:54Z</time></trkpt><trkpt lat="59.3507611938" lon="34.6794353798"><ele>163.04</ele><time>2026-08-15T02:25:13Z</time></trkpt><trkpt lat="59.3507772032" lon="34.6792631317"><ele>163.78</ele><time>2026-08-15T02:25:30Z</time></trkpt><trkpt lat="59.3508084677" lon="34.6791735291"><ele>166.09</ele><time>2026-08-15T02:25:57Z</time></trkpt><trkpt lat="59.3508818094" lon="34.6790654864"><ele>167.34</ele><time>2026-08-15T02:26:29Z</time></trkpt><trkpt lat="59.3508619443" lon="34.6790738683"><ele>169.86</ele><time>2026-08-15T02:26:56Z</time></trkpt><trkpt lat="59.3508336972" lon="34.6789454576"><ele>170.53</ele><time>2026-08-15T02:27:16Z</time></trkpt><trkpt lat="59.3508411571" lon="34.6787947509"><ele>169.51</ele><time>2026-08-15T02:27:30Z</time></trkpt><trkpt lat="59.3508328591" lon="34.6785711218"><ele>168.53</ele><time>2026-08-15T02:27:53Z</time></trkpt><trkpt lat="59.3508817255" lon="34.6784338262"><ele>169.06</ele><time>2026-08-15T02:28:12Z</time></trkpt><trkpt lat="59.3509631976" lon="34.6783870552"><ele>171.66</ele><time>2026-08-15T02:28:44Z</time></trkpt><trkpt lat="59.3509257305" lon="34.6783658490"><ele>170.72</ele><time>2026-08-15T02:29:11Z</time></trkpt><trkpt lat="59.3509524688" lon="34.6783764940"><ele>170.90</ele><time>2026-08-15T02:29:37Z</time></trkpt><trkpt lat="59.3510211166" lon="34.6783500910"><ele>172.82</ele><time>2026-08-15T02:30:04Z</time></trkpt><trkpt lat="59.3509641197" lon="34.6782686189"><ele>174.84</ele><time>2026-08-15T02:30:32Z</time></trkpt><trkpt lat="59.3509519659" lon="34.6781195886"><ele>174.35</ele><time>2026-08-15T02:30:48Z</time></trkpt><trkpt lat="59.3509997427" lon="34.6779069398"><ele>173.77</ele><time>2026-08-15T02:31:07Z</time></trkpt><trkpt lat="59.3510441668" lon="34.6777167544"><ele>173.06</ele><time>2026-08-15T02:31:25Z</time></trkpt><trkpt lat="59.3510733359" lon="34.6776033472"><ele>172.59</ele><time>2026-08-15T02:31:45Z</time></trkpt><trkpt lat="59.3510877527" lon="34.6775749326"><ele>171.90</ele><time>2026-08-15T02:32:12Z</time></trkpt><trkpt lat="59.3510636128" lon="34.6775077097"><ele>171.96</ele><time>2026-08-15T02:32:41Z</time></trkpt><trkpt lat="59.3510857411" lon="34.6775217913"><ele>172.64</ele><time>2026-08-15T02:32:58Z</time></trkpt><trkpt lat="59.3511315063" lon="34.6775815543"><ele>171.77</ele><time>2026-08-15T02:33:33Z</time></trkpt><trkpt lat="59.3511734996" lon="34.6774616931"><ele>171.07</ele><time>2026-08-15T02:33:58Z</time></trkpt><trkpt lat="59.3511454202" lon="34.6772654727"><ele>170.48</ele><time>2026-08-15T02:34:16Z</time></trkpt><trkpt lat="59.3511309195" lon="34.6770377364"><ele>167.85</ele><time>2026-08-15T02:34:36Z</time></trkpt><trkpt lat="59.3511264771" lon="34.6768346429"><ele>166.39</ele><time>2026-08-15T02:34:56Z</time></trkpt><trkpt lat="59.3511045165" lon="34.6767447889"><ele>165.37</ele><time>2026-08-15T02:35:19Z</time></trkpt><trkpt lat="59.3511251360" lon="34.6766946651"><ele>164.68</ele><time>2026-08-15T02:35:49Z</time></trkpt><trkpt lat="59.3511336856" lon="34.6766881272"><ele>165.23</ele><time>2026-08-15T02:36:10Z</time></trkpt><trkpt lat="59.3511842284" lon="34.6766591258"><ele>166.54</ele><time>2026-08-15T02:36:36Z</time></trkpt><trkpt lat="59.3511848990" lon="34.6765271109"><ele>167.16</ele><time>2026-08-15T02:36:53Z</time></trkpt><trkpt lat="59.3511582445" lon="34.6764204931"><ele>167.75</ele><time>2026-08-15T02:37:08Z</time></trkpt><trkpt lat="59.3511157483" lon="34.6763841994"><ele>168.17</ele><time>2026-08-15T02:37:40Z</time></trkpt><trkpt lat="59.3510272354" lon="34.6762816049"><ele>169.24</ele><time>2026-08-15T02:38:02Z</time></trkpt><trkpt lat="59.3510645349" lon="34.6760614123"><ele>169.63</ele><time>2026-08-15T02:38:24Z</time></trkpt><trkpt lat="59.3510357849" lon="34.6759425569"><ele>170.70</ele><time>2026-08-15T02:38:44Z</time></trkpt><trkpt lat="59.3510427419" lon="34.6758255456"><ele>171.04</ele><time>2026-08-15T02:39:02Z</time></trkpt><trkpt lat="59.3510726653" lon="34.6758876555"><ele>172.31</ele><time>2026-08-15T02:39:30Z</time></trkpt><trkpt lat="59.3510224577" lon="34.6758968756"><ele>172.19</ele><time>2026-08-15T02:40:04Z</time></trkpt><trkpt lat="59.3510112260" lon="34.6758359391"><ele>171.88</ele><time>2026-08-15T02:40:34Z</time></trkpt><trkpt lat="59.3510242179" lon="34.6758178342"><ele>172.32</ele><time>2026-08-15T02:40:54Z</time></trkpt><trkpt lat="59.3510849029" lon="34.6758960374"><ele>174.05</ele><time>2026-08-15T02:41:25Z</time></trkpt><trkpt lat="59.3510595057" lon="34.6758977976"><ele>174.84</ele><time>2026-08-15T02:41:57Z</time></trkpt><trkpt lat="59.3510678038" lon="34.6757699735"><ele>175.17</ele><time>2026-08-15T02:42:20Z</time></trkpt><trkpt lat="59.3510779459" lon="34.6755047701"><ele>175.60</ele><time>2026-08-15T02:42:40Z</time></trkpt><trkpt lat="59.3511084560" lon="34.6752173547"><ele>173.63</ele><time>2026-08-15T02:43:00Z</time></trkpt><trkpt lat="59.3512027524" lon="34.6751264110"><ele>171.84</ele><time>2026-08-15T02:43:18Z</time></trkpt><trkpt lat="59.3512957916" lon="34.6750261635"><ele>171.96</ele><time>2026-08-15T02:43:39Z</time></trkpt><trkpt lat="59.3513287324" lon="34.6750168595"><ele>171.45</ele><time>2026-08-15T02:43:59Z</time></trkpt><trkpt lat="59.3513548840" lon="34.6749747824"><ele>171.09</ele><time>2026-08-15T02:44:22Z</time></trkpt><trkpt lat="59.3513522018" lon="34.6750000957"><ele>170.51</ele><time>2026-08-15T02:44:48Z</time></trkpt><trkpt lat="59.3513318338" lon="34.6749689989"><ele>168.79</ele><time>2026-08-15T02:45:13Z</time></trkpt><trkpt lat="59.3513487652" lon="34.6749262512"><ele>167.88</ele><time>2026-08-15T02:45:34Z</time></trkpt><trkpt lat="59.3514051754" lon="34.6747877821"><ele>168.14</ele><time>2026-08-15T02:45:55Z</time></trkpt><trkpt lat="59.3513974641" lon="34.6746153664"><ele>168.05</ele><time>2026-08-15T02:46:13Z</time></trkpt><trkpt lat="59.3513703905" lon="34.6744189784"><ele>167.52</ele><time>2026-08-15T02:46:33Z</time></trkpt><trkpt lat="59.3513275590" lon="34.6741623245"><ele>166.05</ele><time>2026-08-15T02:46:54Z</time></trkpt><trkpt lat="59.3513048440" lon="34.6740171500"><ele>169.72</ele><time>2026-08-15T02:47:23Z</time></trkpt><trkpt lat="59.3513601646" lon="34.6740381885"><ele>167.01</ele><time>2026-08-15T02:47:53Z</time></trkpt><trkpt lat="59.3513804488" lon="34.6740420442"><ele>166.71</ele><time>2026-08-15T02:47:57Z</time></trkpt><trkpt lat="59.3513341807" lon="34.6739849634"><ele>167.01</ele><time>2026-08-15T02:48:28Z</time></trkpt><trkpt lat="59.3513133936" lon="34.6739661042"><ele>168.52</ele><time>2026-08-15T02:49:00Z</time></trkpt><trkpt lat="59.3512893375" lon="34.6740262862"><ele>168.19</ele><time>2026-08-15T02:49:35Z</time></trkpt><trkpt lat="59.3513455801" lon="34.6738981269"><ele>169.76</ele><time>2026-08-15T02:50:01Z</time></trkpt><trkpt lat="59.3513796106" lon="34.6737942751"><ele>170.73</ele><time>2026-08-15T02:50:20Z</time></trkpt><trkpt lat="59.3514457438" lon="34.6736040059"><ele>170.60</ele><time>2026-08-15T02:50:39Z</time></trkpt><trkpt lat="59.3515080214" lon="34.6734213643"><ele>171.33</ele><time>2026-08-15T02:51:00Z</time></trkpt><trkpt lat="59.3515353464" lon="34.6731956396"><ele>170.98</ele><time>2026-08-15T02:51:20Z</time></trkpt><trkpt lat="59.3515462428" lon="34.6730373893"><ele>171.02</ele><time>2026-08-15T02:51:39Z</time></trkpt><trkpt lat="59.3515378609" lon="34.6730096452"><ele>171.05</ele><time>2026-08-15T02:52:05Z</time></trkpt><trkpt lat="59.3515314069" lon="34.6729703341"><ele>170.23</ele><time>2026-08-15T02:52:27Z</time></trkpt><trkpt lat="59.3515333347" lon="34.6729389019"><ele>169.24</ele><time>2026-08-15T02:52:58Z</time></trkpt><trkpt lat="59.3516055867" lon="34.6730199549"><ele>168.78</ele><time>2026-08-15T02:53:31Z</time></trkpt><trkpt lat="59.3515755795" lon="34.6730495431"><ele>169.92</ele><time>2026-08-15T02:53:59Z</time></trkpt><trkpt lat="59.3515655212" lon="34.6728644706"><ele>170.00</ele><time>2026-08-15T02:54:17Z</time></trkpt><trkpt lat="59.3515438959" lon="34.6727213077"><ele>170.48</ele><time>2026-08-15T02:54:37Z</time></trkpt><trkpt lat="59.3514884915" lon="34.6726152766"><ele>170.70</ele><time>2026-08-15T02:54:54Z</time></trkpt><trkpt lat="59.3514239509" lon="34.6726514865"><ele>171.98</ele><time>2026-08-15T02:55:15Z</time></trkpt><trkpt lat="59.3514349312" lon="34.6726094931"><ele>172.45</ele><time>2026-08-15T02:55:42Z</time></trkpt><trkpt lat="59.3514277227" lon="34.6726045478"><ele>173.16</ele><time>2026-08-15T02:56:07Z</time></trkpt><trkpt lat="59.3514156528" lon="34.6726024523"><ele>173.01</ele><time>2026-08-15T02:56:35Z</time></trkpt><trkpt lat="59.3514215201" lon="34.6726177912"><ele>173.14</ele><time>2026-08-15T02:57:01Z</time></trkpt><trkpt lat="59.3514183350" lon="34.6726174559"><ele>173.06</ele><time>2026-08-15T02:57:24Z</time></trkpt><trkpt lat="59.3513966259" lon="34.6726456191"><ele>173.40</ele><time>2026-08-15T02:57:47Z</time></trkpt><trkpt lat="59.3514163233" lon="34.6726004407"><ele>173.43</ele><time>2026-08-15T02:58:14Z</time></trkpt><trkpt lat="59.3514083605" lon="34.6726200543"><ele>173.47</ele><time>2026-08-15T02:58:41Z</time></trkpt><trkpt lat="59.3514073547" lon="34.6726292744"><ele>173.46</ele><time>2026-08-15T02:59:06Z</time></trkpt><trkpt lat="59.3513964582" lon="34.6726249997"><ele>172.72</ele><time>2026-08-15T02:59:36Z</time></trkpt><trkpt lat="59.3514037505" lon="34.6726238262"><ele>173.59</ele><time>2026-08-15T03:00:02Z</time></trkpt><trkpt lat="59.3513984699" lon="34.6726515703"><ele>173.49</ele><time>2026-08-15T03:00:27Z</time></trkpt><trkpt lat="59.3514033314" lon="34.6726034582"><ele>171.88</ele><time>2026-08-15T03:00:56Z</time></trkpt><trkpt lat="59.3514345121" lon="34.6726094093"><ele>172.09</ele><time>2026-08-15T03:01:20Z</time></trkpt><trkpt lat="59.3514120486" lon="34.6725996025"><ele>172.98</ele><time>2026-08-15T03:01:42Z</time></trkpt><trkpt lat="59.3514080252" lon="34.6725853533"><ele>172.79</ele><time>2026-08-15T03:02:03Z</time></trkpt><trkpt lat="59.3514210172" lon="34.6725926455"><ele>172.34</ele><time>2026-08-15T03:02:26Z</time></trkpt><trkpt lat="59.3514340930" lon="34.6725840960"><ele>172.69</ele><time>2026-08-15T03:02:49Z</time></trkpt><trkpt lat="59.3514425587" lon="34.6725848503"><ele>173.30</ele><time>2026-08-15T03:03:13Z</time></trkpt><trkpt lat="59.3514198437" lon="34.6725725289"><ele>173.70</ele><time>2026-08-15T03:03:36Z</time></trkpt><trkpt lat="59.3514119647" lon="34.6726538334"><ele>174.06</ele><time>2026-08-15T03:03:58Z</time></trkpt><trkpt lat="59.3514190894" lon="34.6726229042"><ele>174.78</ele><time>2026-08-15T03:04:19Z</time></trkpt><trkpt lat="59.3513848074" lon="34.6726299450"><ele>175.12</ele><time>2026-08-15T03:04:48Z</time></trkpt><trkpt lat="59.3514604121" lon="34.6726104151"><ele>175.11</ele><time>2026-08-15T03:05:15Z</time></trkpt><trkpt lat="59.3514585681" lon="34.6726137679"><ele>175.26</ele><time>2026-08-15T03:05:46Z</time></trkpt><trkpt lat="59.3514452409" lon="34.6725761332"><ele>174.05</ele><time>2026-08-15T03:06:15Z</time></trkpt><trkpt lat="59.3514508568" lon="34.6725773904"><ele>175.25</ele><time>2026-08-15T03:06:42Z</time></trkpt><trkpt lat="59.3514586519" lon="34.6725835931"><ele>175.49</ele><time>2026-08-15T03:07:10Z</time></trkpt><trkpt lat="59.3514007330" lon="34.6725906339"><ele>176.26</ele><time>2026-08-15T03:07:37Z</time></trkpt><trkpt lat="59.3514345959" lon="34.6725753788"><ele>177.16</ele><time>2026-08-15T03:08:04Z</time></trkpt><trkpt lat="59.3514242861" lon="34.6726061404"><ele>178.51</ele><time>2026-08-15T03:08:33Z</time></trkpt><trkpt lat="59.3514437322" lon="34.6726286039"><ele>180.56</ele><time>2026-08-15T03:08:59Z</time></trkpt><trkpt lat="59.3514454085" lon="34.6726118401"><ele>181.04</ele><time>2026-08-15T03:09:25Z</time></trkpt><trkpt lat="59.3514817860" lon="34.6725866105"><ele>181.40</ele><time>2026-08-15T03:09:55Z</time></trkpt><trkpt lat="59.3514754996" lon="34.6725799050"><ele>182.65</ele><time>2026-08-15T03:10:23Z</time></trkpt><trkpt lat="59.3515774235" lon="34.6725539211"><ele>185.33</ele><time>2026-08-15T03:10:51Z</time></trkpt><trkpt lat="59.3515143078" lon="34.6727094892"><ele>186.58</ele><time>2026-08-15T03:11:19Z</time></trkpt><trkpt lat="59.3515205942" lon="34.6727187932"><ele>185.54</ele><time>2026-08-15T03:11:49Z</time></trkpt><trkpt lat="59.3515016511" lon="34.6726275142"><ele>186.33</ele><time>2026-08-15T03:12:19Z</time></trkpt><trkpt lat="59.3514735717" lon="34.6725714393"><ele>186.05</ele><time>2026-08-15T03:12:41Z</time></trkpt><trkpt lat="59.3514034990" lon="34.6724589542"><ele>184.80</ele><time>2026-08-15T03:13:03Z</time></trkpt><trkpt lat="59.3513638526" lon="34.6722790785"><ele>183.77</ele><time>2026-08-15T03:13:22Z</time></trkpt><trkpt lat="59.3513989728" lon="34.6721235942"><ele>181.94</ele><time>2026-08-15T03:13:43Z</time></trkpt><trkpt lat="59.3514079414" lon="34.6721235942"><ele>179.84</ele><time>2026-08-15T03:14:08Z</time></trkpt><trkpt lat="59.3514473364" lon="34.6722023841"><ele>177.32</ele><time>2026-08-15T03:14:36Z</time></trkpt><trkpt lat="59.3514506891" lon="34.6721675992"><ele>177.07</ele><time>2026-08-15T03:14:56Z</time></trkpt><trkpt lat="59.3514739908" lon="34.6721742209"><ele>174.34</ele><time>2026-08-15T03:15:23Z</time></trkpt><trkpt lat="59.3514728174" lon="34.6721460577"><ele>174.12</ele><time>2026-08-15T03:15:50Z</time></trkpt><trkpt lat="59.3514227774" lon="34.6721080039"><ele>173.10</ele><time>2026-08-15T03:16:17Z</time></trkpt><trkpt lat="59.3514037505" lon="34.6720975265"><ele>171.81</ele><time>2026-08-15T03:16:46Z</time></trkpt><trkpt lat="59.3513496872" lon="34.6719535254"><ele>171.17</ele><time>2026-08-15T03:17:07Z</time></trkpt><trkpt lat="59.3513666186" lon="34.6717701294"><ele>170.75</ele><time>2026-08-15T03:17:29Z</time></trkpt><trkpt lat="59.3513941113" lon="34.6715635154"><ele>170.61</ele><time>2026-08-15T03:17:47Z</time></trkpt><trkpt lat="59.3514194246" lon="34.6714013256"><ele>170.43</ele><time>2026-08-15T03:18:05Z</time></trkpt><trkpt lat="59.3514216878" lon="34.6712490264"><ele>170.38</ele><time>2026-08-15T03:18:23Z</time></trkpt><trkpt lat="59.3514122162" lon="34.6711866651"><ele>170.07</ele><time>2026-08-15T03:18:46Z</time></trkpt><trkpt lat="59.3514008168" lon="34.6711616870"><ele>170.05</ele><time>2026-08-15T03:19:11Z</time></trkpt><trkpt lat="59.3513853941" lon="34.6710982360"><ele>169.62</ele><time>2026-08-15T03:19:53Z</time></trkpt><trkpt lat="59.3513688818" lon="34.6711667161"><ele>168.22</ele><time>2026-08-15T03:20:20Z</time></trkpt><trkpt lat="59.3514059298" lon="34.6711524669"><ele>168.71</ele><time>2026-08-15T03:20:50Z</time></trkpt><trkpt lat="59.3514112104" lon="34.6710574161"><ele>169.16</ele><time>2026-08-15T03:21:11Z</time></trkpt><trkpt lat="59.3513619248" lon="34.6709166840"><ele>169.74</ele><time>2026-08-15T03:21:31Z</time></trkpt><trkpt lat="59.3513078615" lon="34.6707194578"><ele>169.30</ele><time>2026-08-15T03:21:50Z</time></trkpt><trkpt lat="59.3512812071" lon="34.6704726946"><ele>168.44</ele><time>2026-08-15T03:22:10Z</time></trkpt><trkpt lat="59.3513028324" lon="34.6702831797"><ele>168.08</ele><time>2026-08-15T03:22:30Z</time></trkpt><trkpt lat="59.3513014074" lon="34.6702001151"><ele>167.75</ele><time>2026-08-15T03:22:49Z</time></trkpt><trkpt lat="59.3512993120" lon="34.6702208184"><ele>167.62</ele><time>2026-08-15T03:23:05Z</time></trkpt><trkpt lat="59.3512783572" lon="34.6703209821"><ele>166.84</ele><time>2026-08-15T03:23:37Z</time></trkpt><trkpt lat="59.3512980547" lon="34.6703203954"><ele>167.42</ele><time>2026-08-15T03:24:02Z</time></trkpt><trkpt lat="59.3513044249" lon="34.6702898853"><ele>166.99</ele><time>2026-08-15T03:24:29Z</time></trkpt><trkpt lat="59.3513294030" lon="34.6702507418"><ele>167.30</ele><time>2026-08-15T03:24:56Z</time></trkpt><trkpt lat="59.3513207696" lon="34.6701592952"><ele>167.11</ele><time>2026-08-15T03:25:19Z</time></trkpt><trkpt lat="59.3513441551" lon="34.6700578742"><ele>166.42</ele><time>2026-08-15T03:25:38Z</time></trkpt><trkpt lat="59.3513327558" lon="34.6699874662"><ele>165.71</ele><time>2026-08-15T03:26:07Z</time></trkpt><trkpt lat="59.3512986414" lon="34.6699018870"><ele>164.14</ele><time>2026-08-15T03:26:36Z</time></trkpt><trkpt lat="59.3513099570" lon="34.6698776633"><ele>164.31</ele><time>2026-08-15T03:26:58Z</time></trkpt><trkpt lat="59.3513179198" lon="34.6699596383"><ele>165.40</ele><time>2026-08-15T03:27:25Z</time></trkpt><trkpt lat="59.3513195124" lon="34.6699554473"><ele>165.37</ele><time>2026-08-15T03:27:26Z</time></trkpt><trkpt lat="59.3512745854" lon="34.6698515117"><ele>166.28</ele><time>2026-08-15T03:27:44Z</time></trkpt><trkpt lat="59.3512305804" lon="34.6697926708"><ele>166.22</ele><time>2026-08-15T03:28:03Z</time></trkpt><trkpt lat="59.3512280658" lon="34.6697420441"><ele>166.44</ele><time>2026-08-15T03:28:14Z</time></trkpt><trkpt lat="59.3511880003" lon="34.6696059220"><ele>168.83</ele><time>2026-08-15T03:28:37Z</time></trkpt><trkpt lat="59.3512590788" lon="34.6695501823"><ele>169.48</ele><time>2026-08-15T03:28:55Z</time></trkpt><trkpt lat="59.3512858171" lon="34.6694772597"><ele>169.67</ele><time>2026-08-15T03:29:13Z</time></trkpt><trkpt lat="59.3513039220" lon="34.6694666985"><ele>168.81</ele><time>2026-08-15T03:29:36Z</time></trkpt><trkpt lat="59.3513071910" lon="34.6694748290"><ele>169.54</ele><time>2026-08-15T03:30:01Z</time></trkpt><trkpt lat="59.3513003178" lon="34.6695014834"><ele>169.67</ele><time>2026-08-15T03:30:29Z</time></trkpt><trkpt lat="59.3513526209" lon="34.6695169900"><ele>170.12</ele><time>2026-08-15T03:30:57Z</time></trkpt><trkpt lat="59.3513475917" lon="34.6694666147"><ele>170.97</ele><time>2026-08-15T03:31:27Z</time></trkpt><trkpt lat="59.3513283972" lon="34.6694822889"><ele>171.14</ele><time>2026-08-15T03:32:06Z</time></trkpt><trkpt lat="59.3513278943" lon="34.6695521940"><ele>172.14</ele><time>2026-08-15T03:32:28Z</time></trkpt><trkpt lat="59.3513869029" lon="34.6694329195"><ele>171.45</ele><time>2026-08-15T03:32:49Z</time></trkpt><trkpt lat="59.3514389545" lon="34.6693212725"><ele>171.35</ele><time>2026-08-15T03:33:11Z</time></trkpt><trkpt lat="59.3515048362" lon="34.6691351105"><ele>170.70</ele><time>2026-08-15T03:33:31Z</time></trkpt><trkpt lat="59.3515204266" lon="34.6690149978"><ele>169.78</ele><time>2026-08-15T03:33:46Z</time></trkpt><trkpt lat="59.3515402917" lon="34.6689509600"><ele>168.85</ele><time>2026-08-15T03:34:02Z</time></trkpt><trkpt lat="59.3515463267" lon="34.6687617805"><ele>168.21</ele><time>2026-08-15T03:34:21Z</time></trkpt><trkpt lat="59.3515262939" lon="34.6686104033"><ele>167.87</ele><time>2026-08-15T03:34:37Z</time></trkpt><trkpt lat="59.3515212648" lon="34.6685948130"><ele>168.01</ele><time>2026-08-15T03:34:58Z</time></trkpt><trkpt lat="59.3515198398" lon="34.6685495507"><ele>169.11</ele><time>2026-08-15T03:35:21Z</time></trkpt><trkpt lat="59.3515375257" lon="34.6686160192"><ele>169.38</ele><time>2026-08-15T03:35:50Z</time></trkpt><trkpt lat="59.3515257072" lon="34.6686145104"><ele>169.82</ele><time>2026-08-15T03:36:19Z</time></trkpt><trkpt lat="59.3515567202" lon="34.6686141752"><ele>172.07</ele><time>2026-08-15T03:36:47Z</time></trkpt><trkpt lat="59.3515125476" lon="34.6686742734"><ele>171.76</ele><time>2026-08-15T03:37:14Z</time></trkpt><trkpt lat="59.3515123799" lon="34.6684786398"><ele>169.85</ele><time>2026-08-15T03:37:38Z</time></trkpt><trkpt lat="59.3514920957" lon="34.6682706848"><ele>169.93</ele><time>2026-08-15T03:37:56Z</time></trkpt><trkpt lat="59.3514288124" lon="34.6680974308"><ele>169.24</ele><time>2026-08-15T03:38:14Z</time></trkpt><trkpt lat="59.3514294829" lon="34.6678904817"><ele>167.76</ele><time>2026-08-15T03:38:33Z</time></trkpt><trkpt lat="59.3514542095" lon="34.6677667648"><ele>167.36</ele><time>2026-08-15T03:38:51Z</time></trkpt><trkpt lat="59.3514514435" lon="34.6677619871"><ele>167.07</ele><time>2026-08-15T03:39:14Z</time></trkpt><trkpt lat="59.3514886592" lon="34.6677624900"><ele>167.17</ele><time>2026-08-15T03:39:39Z</time></trkpt><trkpt lat="59.3514568079" lon="34.6677568741"><ele>167.01</ele><time>2026-08-15T03:40:06Z</time></trkpt><trkpt lat="59.3514051754" lon="34.6677132882"><ele>166.85</ele><time>2026-08-15T03:40:26Z</time></trkpt><trkpt lat="59.3514479231" lon="34.6677133720"><ele>166.49</ele><time>2026-08-15T03:40:51Z</time></trkpt><trkpt lat="59.3514475878" lon="34.6677340753"><ele>165.43</ele><time>2026-08-15T03:41:15Z</time></trkpt><trkpt lat="59.3514518626" lon="34.6678031422"><ele>165.37</ele><time>2026-08-15T03:41:41Z</time></trkpt><trkpt lat="59.3514315784" lon="34.6677684411"><ele>164.93</ele><time>2026-08-15T03:42:11Z</time></trkpt><trkpt lat="59.3514349312" lon="34.6677569579"><ele>165.26</ele><time>2026-08-15T03:42:36Z</time></trkpt><trkpt lat="59.3514387868" lon="34.6677813493"><ele>165.97</ele><time>2026-08-15T03:43:04Z</time></trkpt><trkpt lat="59.3514527008" lon="34.6677655913"><ele>165.00</ele><time>2026-08-15T03:43:36Z</time></trkpt><trkpt lat="59.3514432292" lon="34.6677148808"><ele>165.01</ele><time>2026-08-15T03:44:06Z</time></trkpt><trkpt lat="59.3514504377" lon="34.6676555369"><ele>165.46</ele><time>2026-08-15T03:44:28Z</time></trkpt><trkpt lat="59.3514866475" lon="34.6674915869"><ele>165.33</ele><time>2026-08-15T03:44:47Z</time></trkpt><trkpt lat="59.3515245337" lon="34.6673659422"><ele>165.39</ele><time>2026-08-15T03:45:07Z</time></trkpt><trkpt lat="59.3515040819" lon="34.6672409680"><ele>165.37</ele><time>2026-08-15T03:45:27Z</time></trkpt><trkpt lat="59.3514969572" lon="34.6671113838"><ele>165.77</ele><time>2026-08-15T03:45:49Z</time></trkpt><trkpt lat="59.3515511882" lon="34.6669882536"><ele>166.45</ele><time>2026-08-15T03:46:09Z</time></trkpt><trkpt lat="59.3515323289" lon="34.6668816358"><ele>168.05</ele><time>2026-08-15T03:46:30Z</time></trkpt><trkpt lat="59.3515537027" lon="34.6668530535"><ele>169.51</ele><time>2026-08-15T03:46:55Z</time></trkpt><trkpt lat="59.3515319098" lon="34.6669100504"><ele>170.12</ele><time>2026-08-15T03:47:21Z</time></trkpt><trkpt lat="59.3515506852" lon="34.6669276524"><ele>169.62</ele><time>2026-08-15T03:47:46Z</time></trkpt><trkpt lat="59.3515722267" lon="34.6668928675"><ele>169.81</ele><time>2026-08-15T03:48:10Z</time></trkpt><trkpt lat="59.3515597377" lon="34.6668571606"><ele>170.18</ele><time>2026-08-15T03:48:38Z</time></trkpt><trkpt lat="59.3515885714" lon="34.6668614354"><ele>170.50</ele><time>2026-08-15T03:49:05Z</time></trkpt><trkpt lat="59.3515770044" lon="34.6668833122"><ele>170.87</ele><time>2026-08-15T03:49:31Z</time></trkpt><trkpt lat="59.3515855540" lon="34.6668350324"><ele>172.81</ele><time>2026-08-15T03:49:53Z</time></trkpt><trkpt lat="59.3515983783" lon="34.6669113915"><ele>173.16</ele><time>2026-08-15T03:50:23Z</time></trkpt><trkpt lat="59.3515951093" lon="34.6668949630"><ele>174.89</ele><time>2026-08-15T03:50:50Z</time></trkpt><trkpt lat="59.3515306525" lon="34.6670474298"><ele>175.92</ele><time>2026-08-15T03:51:16Z</time></trkpt><trkpt lat="59.3515831232" lon="34.6668838989"><ele>175.98</ele><time>2026-08-15T03:51:37Z</time></trkpt><trkpt lat="59.3516864721" lon="34.6667528059"><ele>175.46</ele><time>2026-08-15T03:51:57Z</time></trkpt><trkpt lat="59.3518098537" lon="34.6665783785"><ele>174.17</ele><time>2026-08-15T03:52:20Z</time></trkpt><trkpt lat="59.3518180680" lon="34.6663936414"><ele>171.84</ele><time>2026-08-15T03:52:41Z</time></trkpt><trkpt lat="59.3517288007" lon="34.6662999317"><ele>170.45</ele><time>2026-08-15T03:53:00Z</time></trkpt><trkpt lat="59.3517106958" lon="34.6661219839"><ele>168.21</ele><time>2026-08-15T03:53:20Z</time></trkpt><trkpt lat="59.3517241906" lon="34.6659805812"><ele>167.41</ele><time>2026-08-15T03:53:41Z</time></trkpt><trkpt lat="59.3517062534" lon="34.6658820100"><ele>167.46</ele><time>2026-08-15T03:54:01Z</time></trkpt><trkpt lat="59.3517458159" lon="34.6659103408"><ele>167.97</ele><time>2026-08-15T03:54:31Z</time></trkpt><trkpt lat="59.3517484982" lon="34.6659052279"><ele>169.35</ele><time>2026-08-15T03:55:03Z</time></trkpt><trkpt lat="59.3516946863" lon="34.6658533439"><ele>172.06</ele><time>2026-08-15T03:55:35Z</time></trkpt><trkpt lat="59.3516960274" lon="34.6657787450"><ele>172.57</ele><time>2026-08-15T03:55:52Z</time></trkpt><trkpt lat="59.3517604843" lon="34.6656526811"><ele>172.57</ele><time>2026-08-15T03:56:10Z</time></trkpt><trkpt lat="59.3517645076" lon="34.6655580495"><ele>172.55</ele><time>2026-08-15T03:56:25Z</time></trkpt><trkpt lat="59.3517238554" lon="34.6654082648"><ele>171.02</ele><time>2026-08-15T03:56:43Z</time></trkpt><trkpt lat="59.3517420441" lon="34.6652066801"><ele>169.04</ele><time>2026-08-15T03:56:58Z</time></trkpt><trkpt lat="59.3517653458" lon="34.6650098730"><ele>167.62</ele><time>2026-08-15T03:57:15Z</time></trkpt><trkpt lat="59.3518234324" lon="34.6650014911"><ele>168.24</ele><time>2026-08-15T03:57:34Z</time></trkpt><trkpt lat="59.3518666830" lon="34.6650542971"><ele>168.57</ele><time>2026-08-15T03:57:49Z</time></trkpt><trkpt lat="59.3519365881" lon="34.6651828755"><ele>168.70</ele><time>2026-08-15T03:58:09Z</time></trkpt><trkpt lat="59.3520323094" lon="34.6652658563"><ele>169.36</ele><time>2026-08-15T03:58:30Z</time></trkpt><trkpt lat="59.3520711176" lon="34.6652454883"><ele>169.27</ele><time>2026-08-15T03:58:47Z</time></trkpt><trkpt lat="59.3520811759" lon="34.6652347594"><ele>169.34</ele><time>2026-08-15T03:59:09Z</time></trkpt><trkpt lat="59.3520815112" lon="34.6652451530"><ele>169.36</ele><time>2026-08-15T03:59:11Z</time></trkpt><trkpt lat="59.3521483988" lon="34.6651972923"><ele>170.97</ele><time>2026-08-15T03:59:41Z</time></trkpt><trkpt lat="59.3521164637" lon="34.6653655171"><ele>170.71</ele><time>2026-08-15T04:00:14Z</time></trkpt><trkpt lat="59.3520751409" lon="34.6652513556"><ele>170.99</ele><time>2026-08-15T04:00:47Z</time></trkpt><trkpt lat="59.3521345686" lon="34.6652052552"><ele>171.46</ele><time>2026-08-15T04:01:09Z</time></trkpt><trkpt lat="59.3521777354" lon="34.6650728211"><ele>171.07</ele><time>2026-08-15T04:01:31Z</time></trkpt><trkpt lat="59.3522252608" lon="34.6649263054"><ele>170.67</ele><time>2026-08-15T04:01:50Z</time></trkpt><trkpt lat="59.3522772286" lon="34.6647605114"><ele>170.40</ele><time>2026-08-15T04:02:07Z</time></trkpt><trkpt lat="59.3523405958" lon="34.6646547318"><ele>168.71</ele><time>2026-08-15T04:02:25Z</time></trkpt><trkpt lat="59.3523383327" lon="34.6646013390"><ele>167.33</ele><time>2026-08-15T04:02:50Z</time></trkpt><trkpt lat="59.3523543421" lon="34.6646688972"><ele>166.42</ele><time>2026-08-15T04:03:13Z</time></trkpt><trkpt lat="59.3523479719" lon="34.6646491159"><ele>166.55</ele><time>2026-08-15T04:03:35Z</time></trkpt><trkpt lat="59.3523760512" lon="34.6646407340"><ele>167.07</ele><time>2026-08-15T04:03:57Z</time></trkpt><trkpt lat="59.3523714412" lon="34.6646482777"><ele>169.10</ele><time>2026-08-15T04:04:22Z</time></trkpt><trkpt lat="59.3523648195" lon="34.6646153368"><ele>169.27</ele><time>2026-08-15T04:04:47Z</time></trkpt><trkpt lat="59.3523649871" lon="34.6646029316"><ele>169.15</ele><time>2026-08-15T04:05:04Z</time></trkpt><trkpt lat="59.3523758836" lon="34.6646197792"><ele>168.17</ele><time>2026-08-15T04:05:28Z</time></trkpt><trkpt lat="59.3523515761" lon="34.6646109782"><ele>169.54</ele><time>2026-08-15T04:05:59Z</time></trkpt><trkpt lat="59.3523692619" lon="34.6646300051"><ele>169.47</ele><time>2026-08-15T04:06:23Z</time></trkpt><trkpt lat="59.3523807451" lon="34.6646350343"><ele>169.24</ele><time>2026-08-15T04:06:42Z</time></trkpt><trkpt lat="59.3523656577" lon="34.6646619402"><ele>167.68</ele><time>2026-08-15T04:07:13Z</time></trkpt><trkpt lat="59.3523550127" lon="34.6646415722"><ele>168.77</ele><time>2026-08-15T04:07:33Z</time></trkpt><trkpt lat="59.3523611315" lon="34.6646103077"><ele>168.98</ele><time>2026-08-15T04:07:52Z</time></trkpt><trkpt lat="59.3523914739" lon="34.6645090543"><ele>167.65</ele><time>2026-08-15T04:08:10Z</time></trkpt><trkpt lat="59.3524235766" lon="34.6644322760"><ele>165.72</ele><time>2026-08-15T04:08:25Z</time></trkpt><trkpt lat="59.3524500635" lon="34.6644016821"><ele>164.61</ele><time>2026-08-15T04:08:43Z</time></trkpt><trkpt lat="59.3524804898" lon="34.6643438470"><ele>164.14</ele><time>2026-08-15T04:08:57Z</time></trkpt><trkpt lat="59.3524903804" lon="34.6643105708"><ele>163.98</ele><time>2026-08-15T04:09:10Z</time></trkpt><trkpt lat="59.3525193818" lon="34.6642961539"><ele>164.08</ele><time>2026-08-15T04:09:26Z</time></trkpt><trkpt lat="59.3525335472" lon="34.6642858442"><ele>163.98</ele><time>2026-08-15T04:09:44Z</time></trkpt><trkpt lat="59.3525632191" lon="34.6642104071"><ele>163.80</ele><time>2026-08-15T04:10:00Z</time></trkpt><trkpt lat="59.3526026979" lon="34.6641239896"><ele>163.79</ele><time>2026-08-15T04:10:20Z</time></trkpt><trkpt lat="59.3526081461" lon="34.6640973352"><ele>163.09</ele><time>2026-08-15T04:10:43Z</time></trkpt><trkpt lat="59.3526155222" lon="34.6641027834"><ele>163.55</ele><time>2026-08-15T04:11:02Z</time></trkpt><trkpt lat="59.3526154384" lon="34.6640950721"><ele>162.02</ele><time>2026-08-15T04:11:22Z</time></trkpt><trkpt lat="59.3526259996" lon="34.6640691720"><ele>162.36</ele><time>2026-08-15T04:11:53Z</time></trkpt><trkpt lat="59.3526133429" lon="34.6640903782"><ele>161.45</ele><time>2026-08-15T04:12:21Z</time></trkpt><trkpt lat="59.3526382372" lon="34.6640273463"><ele>161.78</ele><time>2026-08-15T04:12:35Z</time></trkpt><trkpt lat="59.3526394945" lon="34.6639874484"><ele>161.78</ele><time>2026-08-15T04:12:47Z</time></trkpt><trkpt lat="59.3526580185" lon="34.6639370732"><ele>162.11</ele><time>2026-08-15T04:13:01Z</time></trkpt><trkpt lat="59.3527025264" lon="34.6638829261"><ele>162.29</ele><time>2026-08-15T04:13:17Z</time></trkpt><trkpt lat="59.3527439330" lon="34.6638385020"><ele>162.09</ele><time>2026-08-15T04:13:34Z</time></trkpt><trkpt lat="59.3527767900" lon="34.6637836006"><ele>162.04</ele><time>2026-08-15T04:13:52Z</time></trkpt><trkpt lat="59.3527965713" lon="34.6636996139"><ele>161.83</ele><time>2026-08-15T04:14:10Z</time></trkpt><trkpt lat="59.3528122455" lon="34.6636814252"><ele>162.04</ele><time>2026-08-15T04:14:28Z</time></trkpt><trkpt lat="59.3528725952" lon="34.6635784954"><ele>162.69</ele><time>2026-08-15T04:14:45Z</time></trkpt><trkpt lat="59.3529259041" lon="34.6634374280"><ele>163.18</ele><time>2026-08-15T04:15:01Z</time></trkpt><trkpt lat="59.3529458530" lon="34.6633505076"><ele>163.41</ele><time>2026-08-15T04:15:23Z</time></trkpt><trkpt lat="59.3529424164" lon="34.6633351687"><ele>163.66</ele><time>2026-08-15T04:15:43Z</time></trkpt><trkpt lat="59.3529440928" lon="34.6633517649"><ele>163.46</ele><time>2026-08-15T04:16:00Z</time></trkpt><trkpt lat="59.3529538997" lon="34.6633407846"><ele>163.75</ele><time>2026-08-15T04:16:24Z</time></trkpt><trkpt lat="59.3529742677" lon="34.6633407008"><ele>164.00</ele><time>2026-08-15T04:16:49Z</time></trkpt><trkpt lat="59.3529684003" lon="34.6633261163"><ele>164.81</ele><time>2026-08-15T04:17:06Z</time></trkpt><trkpt lat="59.3529708311" lon="34.6632776689"><ele>165.35</ele><time>2026-08-15T04:17:29Z</time></trkpt><trkpt lat="59.3530090526" lon="34.6631675307"><ele>164.98</ele><time>2026-08-15T04:17:49Z</time></trkpt><trkpt lat="59.3531067856" lon="34.6629826259"><ele>164.55</ele><time>2026-08-15T04:18:12Z</time></trkpt><trkpt lat="59.3531434983" lon="34.6628236212"><ele>164.36</ele><time>2026-08-15T04:18:29Z</time></trkpt><trkpt lat="59.3532265630" lon="34.6627644449"><ele>164.27</ele><time>2026-08-15T04:18:49Z</time></trkpt><trkpt lat="59.3532749265" lon="34.6627393831"><ele>165.11</ele><time>2026-08-15T04:19:07Z</time></trkpt><trkpt lat="59.3532423209" lon="34.6628144011"><ele>165.98</ele><time>2026-08-15T04:19:34Z</time></trkpt><trkpt lat="59.3532720767" lon="34.6627733298"><ele>165.81</ele><time>2026-08-15T04:19:57Z</time></trkpt><trkpt lat="59.3533051852" lon="34.6627941169"><ele>165.73</ele><time>2026-08-15T04:20:26Z</time></trkpt><trkpt lat="59.3532916065" lon="34.6628558077"><ele>165.77</ele><time>2026-08-15T04:20:59Z</time></trkpt><trkpt lat="59.3532786984" lon="34.6628055163"><ele>166.23</ele><time>2026-08-15T04:21:22Z</time></trkpt><trkpt lat="59.3532782793" lon="34.6627355274"><ele>167.25</ele><time>2026-08-15T04:21:45Z</time></trkpt><trkpt lat="59.3533064425" lon="34.6626481041"><ele>166.66</ele><time>2026-08-15T04:22:03Z</time></trkpt><trkpt lat="59.3533302471" lon="34.6625491139"><ele>166.60</ele><time>2026-08-15T04:22:20Z</time></trkpt><trkpt lat="59.3533359468" lon="34.6624826454"><ele>166.46</ele><time>2026-08-15T04:22:28Z</time></trkpt><trkpt lat="59.3533833884" lon="34.6623335313"><ele>165.25</ele><time>2026-08-15T04:22:46Z</time></trkpt><trkpt lat="59.3534046784" lon="34.6621987503"><ele>164.66</ele><time>2026-08-15T04:23:01Z</time></trkpt><trkpt lat="59.3534850609" lon="34.6620510612"><ele>164.00</ele><time>2026-08-15T04:23:20Z</time></trkpt><trkpt lat="59.3535094522" lon="34.6619389113"><ele>163.86</ele><time>2026-08-15T04:23:39Z</time></trkpt><trkpt lat="59.3535784353" lon="34.6618748736"><ele>164.05</ele><time>2026-08-15T04:23:58Z</time></trkpt><trkpt lat="59.3535768427" lon="34.6617820021"><ele>164.16</ele><time>2026-08-15T04:24:13Z</time></trkpt><trkpt lat="59.3535721488" lon="34.6617846843"><ele>164.25</ele><time>2026-08-15T04:24:30Z</time></trkpt><trkpt lat="59.3535676226" lon="34.6617980115"><ele>163.91</ele><time>2026-08-15T04:25:06Z</time></trkpt><trkpt lat="59.3536228593" lon="34.6618203912"><ele>164.35</ele><time>2026-08-15T04:25:28Z</time></trkpt><trkpt lat="59.3535604980" lon="34.6618141048"><ele>164.27</ele><time>2026-08-15T04:25:53Z</time></trkpt><trkpt lat="59.3535569776" lon="34.6618259232"><ele>164.66</ele><time>2026-08-15T04:26:23Z</time></trkpt><trkpt lat="59.3536707200" lon="34.6618149430"><ele>165.58</ele><time>2026-08-15T04:26:41Z</time></trkpt><trkpt lat="59.3537279684" lon="34.6616462991"><ele>162.95</ele><time>2026-08-15T04:26:59Z</time></trkpt><trkpt lat="59.3537785951" lon="34.6614810918"><ele>161.21</ele><time>2026-08-15T04:27:16Z</time></trkpt><trkpt lat="59.3538017292" lon="34.6614188142"><ele>160.39</ele><time>2026-08-15T04:27:33Z</time></trkpt><trkpt lat="59.3538604863" lon="34.6613369230"><ele>161.08</ele><time>2026-08-15T04:27:47Z</time></trkpt><trkpt lat="59.3539043237" lon="34.6612619050"><ele>160.47</ele><time>2026-08-15T04:28:01Z</time></trkpt><trkpt lat="59.3539163936" lon="34.6611635853"><ele>160.05</ele><time>2026-08-15T04:28:13Z</time></trkpt><trkpt lat="59.3539685290" lon="34.6611529402"><ele>159.92</ele><time>2026-08-15T04:28:29Z</time></trkpt><trkpt lat="59.3540312257" lon="34.6611170657"><ele>160.88</ele><time>2026-08-15T04:28:45Z</time></trkpt><trkpt lat="59.3540447205" lon="34.6611199155"><ele>160.14</ele><time>2026-08-15T04:29:08Z</time></trkpt><trkpt lat="59.3540253583" lon="34.6611620765"><ele>161.46</ele><time>2026-08-15T04:29:48Z</time></trkpt><trkpt lat="59.3540265318" lon="34.6611367632"><ele>161.18</ele><time>2026-08-15T04:30:25Z</time></trkpt><trkpt lat="59.3540220894" lon="34.6611198317"><ele>160.89</ele><time>2026-08-15T04:30:48Z</time></trkpt><trkpt lat="59.3540027272" lon="34.6611541137"><ele>160.43</ele><time>2026-08-15T04:31:16Z</time></trkpt><trkpt lat="59.3539601471" lon="34.6611589752"><ele>160.46</ele><time>2026-08-15T04:31:31Z</time></trkpt><trkpt lat="59.3538744841" lon="34.6611707937"><ele>160.58</ele><time>2026-08-15T04:31:47Z</time></trkpt><trkpt lat="59.3538337480" lon="34.6611689497"><ele>160.58</ele><time>2026-08-15T04:31:53Z</time></trkpt><trkpt lat="59.3537664413" lon="34.6612433810"><ele>161.03</ele><time>2026-08-15T04:32:09Z</time></trkpt><trkpt lat="59.3537283037" lon="34.6613158844"><ele>161.84</ele><time>2026-08-15T04:32:27Z</time></trkpt><trkpt lat="59.3536637630" lon="34.6613349952"><ele>161.99</ele><time>2026-08-15T04:32:47Z</time></trkpt><trkpt lat="59.3536102027" lon="34.6613240149"><ele>162.56</ele><time>2026-08-15T04:33:04Z</time></trkpt><trkpt lat="59.3535194267" lon="34.6613520104"><ele>162.55</ele><time>2026-08-15T04:33:24Z</time></trkpt><trkpt lat="59.3534618430" lon="34.6612127032"><ele>161.94</ele><time>2026-08-15T04:33:43Z</time></trkpt><trkpt lat="59.3534683809" lon="34.6610172372"><ele>161.25</ele><time>2026-08-15T04:34:03Z</time></trkpt><trkpt lat="59.3534786906" lon="34.6609566361"><ele>161.29</ele><time>2026-08-15T04:34:20Z</time></trkpt><trkpt lat="59.3535325862" lon="34.6608897485"><ele>160.94</ele><time>2026-08-15T04:34:35Z</time></trkpt><trkpt lat="59.3535581511" lon="34.6607961226"><ele>159.93</ele><time>2026-08-15T04:34:50Z</time></trkpt><trkpt lat="59.3535700534" lon="34.6607386228"><ele>159.16</ele><time>2026-08-15T04:35:07Z</time></trkpt><trkpt lat="59.3535885774" lon="34.6606764290"><ele>155.80</ele><time>2026-08-15T04:35:17Z</time></trkpt><trkpt lat="59.3536076043" lon="34.6605479345"><ele>152.88</ele><time>2026-08-15T04:35:36Z</time></trkpt><trkpt lat="59.3536407128" lon="34.6605118923"><ele>152.68</ele><time>2026-08-15T04:35:57Z</time></trkpt><trkpt lat="59.3536686245" lon="34.6604921110"><ele>153.55</ele><time>2026-08-15T04:36:21Z</time></trkpt><trkpt lat="59.3536885735" lon="34.6604778618"><ele>155.19</ele><time>2026-08-15T04:36:52Z</time></trkpt><trkpt lat="59.3536920939" lon="34.6604761016"><ele>154.80</ele><time>2026-08-15T04:37:22Z</time></trkpt><trkpt lat="59.3536534533" lon="34.6604806278"><ele>155.90</ele><time>2026-08-15T04:37:54Z</time></trkpt><trkpt lat="59.3536630925" lon="34.6604942903"><ele>155.87</ele><time>2026-08-15T04:38:16Z</time></trkpt><trkpt lat="59.3536370248" lon="34.6604137402"><ele>156.76</ele><time>2026-08-15T04:38:32Z</time></trkpt><trkpt lat="59.3536181655" lon="34.6603306755"><ele>157.51</ele><time>2026-08-15T04:38:48Z</time></trkpt><trkpt lat="59.3536180817" lon="34.6602673922"><ele>158.96</ele><time>2026-08-15T04:39:07Z</time></trkpt><trkpt lat="59.3536186684" lon="34.6602036897"><ele>159.41</ele><time>2026-08-15T04:39:23Z</time></trkpt><trkpt lat="59.3535931874" lon="34.6601209603"><ele>160.12</ele><time>2026-08-15T04:39:40Z</time></trkpt><trkpt lat="59.3535970431" lon="34.6600411646"><ele>162.12</ele><time>2026-08-15T04:40:00Z</time></trkpt><trkpt lat="59.3535866495" lon="34.6599467844"><ele>163.94</ele><time>2026-08-15T04:40:19Z</time></trkpt><trkpt lat="59.3535314128" lon="34.6598365624"><ele>165.48</ele><time>2026-08-15T04:40:37Z</time></trkpt><trkpt lat="59.3534700572" lon="34.6597412601"><ele>166.64</ele><time>2026-08-15T04:40:55Z</time></trkpt><trkpt lat="59.3533791136" lon="34.6597384103"><ele>168.07</ele><time>2026-08-15T04:41:15Z</time></trkpt><trkpt lat="59.3533955421" lon="34.6597231552"><ele>168.04</ele><time>2026-08-15T04:41:36Z</time></trkpt><trkpt lat="59.3533800356" lon="34.6597129293"><ele>167.85</ele><time>2026-08-15T04:42:02Z</time></trkpt><trkpt lat="59.3533550575" lon="34.6597200539"><ele>167.87</ele><time>2026-08-15T04:42:37Z</time></trkpt><trkpt lat="59.3533734977" lon="34.6597172040"><ele>166.82</ele><time>2026-08-15T04:43:00Z</time></trkpt><trkpt lat="59.3533486035" lon="34.6597018652"><ele>167.28</ele><time>2026-08-15T04:43:27Z</time></trkpt><trkpt lat="59.3532833923" lon="34.6596641466"><ele>168.05</ele><time>2026-08-15T04:43:46Z</time></trkpt><trkpt lat="59.3532697298" lon="34.6596195549"><ele>167.89</ele><time>2026-08-15T04:44:10Z</time></trkpt><trkpt lat="59.3533041794" lon="34.6595809981"><ele>167.59</ele><time>2026-08-15T04:44:35Z</time></trkpt><trkpt lat="59.3533706479" lon="34.6595840994"><ele>167.15</ele><time>2026-08-15T04:45:00Z</time></trkpt><trkpt lat="59.3532916903" lon="34.6596695948"><ele>167.38</ele><time>2026-08-15T04:45:18Z</time></trkpt><trkpt lat="59.3532912713" lon="34.6596416831"><ele>167.21</ele><time>2026-08-15T04:45:43Z</time></trkpt><trkpt lat="59.3532769382" lon="34.6596897114"><ele>166.94</ele><time>2026-08-15T04:46:10Z</time></trkpt><trkpt lat="59.3531935383" lon="34.6598776337"><ele>166.99</ele><time>2026-08-15T04:46:30Z</time></trkpt><trkpt lat="59.3531434983" lon="34.6600099001"><ele>166.46</ele><time>2026-08-15T04:46:38Z</time></trkpt><trkpt lat="59.3530647084" lon="34.6602595132"><ele>165.76</ele><time>2026-08-15T04:46:53Z</time></trkpt><trkpt lat="59.3529790454" lon="34.6604913566"><ele>164.23</ele><time>2026-08-15T04:47:09Z</time></trkpt><trkpt lat="59.3528950587" lon="34.6606632695"><ele>163.53</ele><time>2026-08-15T04:47:27Z</time></trkpt><trkpt lat="59.3528462760" lon="34.6608079411"><ele>163.43</ele><time>2026-08-15T04:47:42Z</time></trkpt><trkpt lat="59.3527602777" lon="34.6609998867"><ele>160.85</ele><time>2026-08-15T04:47:57Z</time></trkpt><trkpt lat="59.3527203798" lon="34.6611436363"><ele>159.21</ele><time>2026-08-15T04:48:07Z</time></trkpt><trkpt lat="59.3526781350" lon="34.6612266172"><ele>159.90</ele><time>2026-08-15T04:48:23Z</time></trkpt><trkpt lat="59.3526679091" lon="34.6613387670"><ele>160.87</ele><time>2026-08-15T04:48:45Z</time></trkpt><trkpt lat="59.3526263349" lon="34.6613560338"><ele>161.04</ele><time>2026-08-15T04:49:00Z</time></trkpt><trkpt lat="59.3525228184" lon="34.6614230890"><ele>161.38</ele><time>2026-08-15T04:49:24Z</time></trkpt><trkpt lat="59.3524109200" lon="34.6615300421"><ele>161.92</ele><time>2026-08-15T04:49:42Z</time></trkpt><trkpt lat="59.3522764742" lon="34.6617524140"><ele>162.53</ele><time>2026-08-15T04:49:59Z</time></trkpt><trkpt lat="59.3521836866" lon="34.6619882807"><ele>162.17</ele><time>2026-08-15T04:50:16Z</time></trkpt><trkpt lat="59.3520828523" lon="34.6621978283"><ele>162.50</ele><time>2026-08-15T04:50:30Z</time></trkpt><trkpt lat="59.3519497477" lon="34.6624405682"><ele>162.86</ele><time>2026-08-15T04:50:51Z</time></trkpt><trkpt lat="59.3518817704" lon="34.6626409795"><ele>162.98</ele><time>2026-08-15T04:51:04Z</time></trkpt><trkpt lat="59.3518310599" lon="34.6628086176"><ele>162.01</ele><time>2026-08-15T04:51:17Z</time></trkpt><trkpt lat="59.3517888989" lon="34.6629894990"><ele>160.78</ele><time>2026-08-15T04:51:36Z</time></trkpt><trkpt lat="59.3517640047" lon="34.6631070133"><ele>160.46</ele><time>2026-08-15T04:51:55Z</time></trkpt><trkpt lat="59.3517466541" lon="34.6632111166"><ele>160.68</ele><time>2026-08-15T04:52:00Z</time></trkpt><trkpt lat="59.3517215084" lon="34.6632596478"><ele>160.82</ele><time>2026-08-15T04:52:03Z</time></trkpt><trkpt lat="59.3516179919" lon="34.6633914951"><ele>158.97</ele><time>2026-08-15T04:52:17Z</time></trkpt><trkpt lat="59.3515827879" lon="34.6634500008"><ele>158.45</ele><time>2026-08-15T04:52:22Z</time></trkpt><trkpt lat="59.3514496833" lon="34.6635726281"><ele>157.97</ele><time>2026-08-15T04:52:37Z</time></trkpt><trkpt lat="59.3512836378" lon="34.6636926569"><ele>157.04</ele><time>2026-08-15T04:52:57Z</time></trkpt><trkpt lat="59.3512077816" lon="34.6638143621"><ele>156.99</ele><time>2026-08-15T04:53:07Z</time></trkpt><trkpt lat="59.3511670455" lon="34.6640078165"><ele>157.16</ele><time>2026-08-15T04:53:23Z</time></trkpt><trkpt lat="59.3510605115" lon="34.6643489599"><ele>156.03</ele><time>2026-08-15T04:53:46Z</time></trkpt><trkpt lat="59.3509991560" lon="34.6645423304"><ele>156.26</ele><time>2026-08-15T04:54:01Z</time></trkpt><trkpt lat="59.3509555701" lon="34.6648406424"><ele>156.04</ele><time>2026-08-15T04:54:20Z</time></trkpt><trkpt lat="59.3509800453" lon="34.6650808677"><ele>155.55</ele><time>2026-08-15T04:54:35Z</time></trkpt><trkpt lat="59.3509884272" lon="34.6651637647"><ele>155.36</ele><time>2026-08-15T04:54:39Z</time></trkpt><trkpt lat="59.3510014191" lon="34.6654380206"><ele>155.40</ele><time>2026-08-15T04:54:52Z</time></trkpt><trkpt lat="59.3509708252" lon="34.6657964308"><ele>157.03</ele><time>2026-08-15T04:55:14Z</time></trkpt><trkpt lat="59.3509617727" lon="34.6661923919"><ele>158.02</ele><time>2026-08-15T04:55:39Z</time></trkpt><trkpt lat="59.3509549834" lon="34.6665280871"><ele>158.97</ele><time>2026-08-15T04:56:01Z</time></trkpt><trkpt lat="59.3508754391" lon="34.6669389680"><ele>157.99</ele><time>2026-08-15T04:56:22Z</time></trkpt><trkpt lat="59.3507762812" lon="34.6671879943"><ele>158.92</ele><time>2026-08-15T04:56:43Z</time></trkpt><trkpt lat="59.3506906182" lon="34.6674474142"><ele>159.09</ele><time>2026-08-15T04:57:04Z</time></trkpt><trkpt lat="59.3505891133" lon="34.6677892283"><ele>157.89</ele><time>2026-08-15T04:57:24Z</time></trkpt><trkpt lat="59.3505586032" lon="34.6682265960"><ele>157.25</ele><time>2026-08-15T04:57:45Z</time></trkpt><trkpt lat="59.3505561724" lon="34.6683259215"><ele>157.44</ele><time>2026-08-15T04:58:02Z</time></trkpt><trkpt lat="59.3505889457" lon="34.6683327947"><ele>157.48</ele><time>2026-08-15T04:58:24Z</time></trkpt><trkpt lat="59.3506149296" lon="34.6683339681"><ele>157.87</ele><time>2026-08-15T04:58:36Z</time></trkpt><trkpt lat="59.3506152648" lon="34.6683553420"><ele>157.98</ele><time>2026-08-15T04:59:00Z</time></trkpt><trkpt lat="59.3506260775" lon="34.6683486365"><ele>157.70</ele><time>2026-08-15T04:59:27Z</time></trkpt><trkpt lat="59.3506328668" lon="34.6682806592"><ele>157.97</ele><time>2026-08-15T04:59:56Z</time></trkpt><trkpt lat="59.3505938910" lon="34.6682807431"><ele>162.98</ele><time>2026-08-15T05:00:28Z</time></trkpt></trkseg><trkseg><trkpt lat="59.3506114930" lon="34.6682814974"><ele>163.26</ele><time>2026-08-15T05:00:51Z</time></trkpt><trkpt lat="59.3506094813" lon="34.6682952438"><ele>163.73</ele><time>2026-08-15T05:00:59Z</time></trkpt><trkpt lat="59.3505897000" lon="34.6993741672"><ele>148.08</ele><time>2026-08-15T05:40:46Z</time></trkpt><trkpt lat="59.3505932204" lon="34.6993714012"><ele>151.49</ele><time>2026-08-15T05:41:11Z</time></trkpt><trkpt lat="59.3505969923" lon="34.6993902605"><ele>153.27</ele><time>2026-08-15T05:41:37Z</time></trkpt><trkpt lat="59.3505843356" lon="34.6993978880"><ele>159.34</ele><time>2026-08-15T05:42:29Z</time></trkpt><trkpt lat="59.3505778816" lon="34.6993933618"><ele>162.94</ele><time>2026-08-15T05:43:47Z</time></trkpt><trkpt lat="59.3505734392" lon="34.6993921045"><ele>162.90</ele><time>2026-08-15T05:45:08Z</time></trkpt><trkpt lat="59.3505798932" lon="34.6993807890"><ele>164.24</ele><time>2026-08-15T05:46:10Z</time></trkpt><trkpt lat="59.3505603634" lon="34.6993997321"><ele>166.28</ele><time>2026-08-15T05:47:17Z</time></trkpt><trkpt lat="59.3505792227" lon="34.6993665397"><ele>164.60</ele><time>2026-08-15T05:48:40Z</time></trkpt><trkpt lat="59.3505692482" lon="34.6993550565"><ele>163.94</ele><time>2026-08-15T05:49:59Z</time></trkpt><trkpt lat="59.3505692482" lon="34.6993682161"><ele>162.24</ele><time>2026-08-15T05:51:25Z</time></trkpt><trkpt lat="59.3505628780" lon="34.6993805375"><ele>164.41</ele><time>2026-08-15T05:52:45Z</time></trkpt><trkpt lat="59.3505845033" lon="34.6993929427"><ele>165.16</ele><time>2026-08-15T05:54:09Z</time></trkpt><trkpt lat="59.3505759537" lon="34.6993920207"><ele>164.66</ele><time>2026-08-15T05:55:45Z</time></trkpt><trkpt lat="59.3505753670" lon="34.6994019113"><ele>163.35</ele><time>2026-08-15T05:57:06Z</time></trkpt><trkpt lat="59.3505831622" lon="34.6994040906"><ele>162.83</ele><time>2026-08-15T05:58:36Z</time></trkpt><trkpt lat="59.3505969085" lon="34.6994126402"><ele>162.80</ele><time>2026-08-15T06:00:02Z</time></trkpt><trkpt lat="59.3505777977" lon="34.6993947867"><ele>165.08</ele><time>2026-08-15T06:01:41Z</time></trkpt><trkpt lat="59.3505891133" lon="34.6994024143"><ele>165.61</ele><time>2026-08-15T06:03:18Z</time></trkpt><trkpt lat="59.3505830783" lon="34.6994094551"><ele>165.64</ele><time>2026-08-15T06:04:34Z</time></trkpt><trkpt lat="59.3505780492" lon="34.6993844770"><ele>164.46</ele><time>2026-08-15T06:05:47Z</time></trkpt><trkpt lat="59.3505763728" lon="34.6993776038"><ele>164.85</ele><time>2026-08-15T06:07:07Z</time></trkpt><trkpt lat="59.3505539931" lon="34.6993567329"><ele>164.99</ele><time>2026-08-15T06:08:47Z</time></trkpt><trkpt lat="59.3505738582" lon="34.6993903443"><ele>165.97</ele><time>2026-08-15T06:10:11Z</time></trkpt><trkpt lat="59.3505735230" lon="34.6994566452"><ele>166.06</ele><time>2026-08-15T06:11:01Z</time></trkpt><trkpt lat="59.3505965732" lon="34.6994683798"><ele>165.89</ele><time>2026-08-15T06:11:15Z</time></trkpt><trkpt lat="59.3506044522" lon="34.6994629316"><ele>165.76</ele><time>2026-08-15T06:11:32Z</time></trkpt><trkpt lat="59.3506042846" lon="34.6994532086"><ele>164.94</ele><time>2026-08-15T06:11:52Z</time></trkpt><trkpt lat="59.3505982496" lon="34.6994437370"><ele>164.37</ele><time>2026-08-15T06:12:07Z</time></trkpt><trkpt lat="59.3505474553" lon="34.6994568966"><ele>164.12</ele><time>2026-08-15T06:12:20Z</time></trkpt><trkpt lat="59.3506327830" lon="34.6995476726"><ele>164.31</ele><time>2026-08-15T06:12:42Z</time></trkpt><trkpt lat="59.3506240658" lon="34.6994488500"><ele>164.18</ele><time>2026-08-15T06:12:46Z</time></trkpt><trkpt lat="59.3505554181" lon="34.6988958959"><ele>163.45</ele><time>2026-08-15T06:13:03Z</time></trkpt><trkpt lat="59.3505210523" lon="34.6987209655"><ele>163.31</ele><time>2026-08-15T06:13:07Z</time></trkpt><trkpt lat="59.3503928091" lon="34.6978014708"><ele>163.98</ele><time>2026-08-15T06:13:24Z</time></trkpt><trkpt lat="59.3502312060" lon="34.6968440060"><ele>160.43</ele><time>2026-08-15T06:13:43Z</time></trkpt><trkpt lat="59.3500240054" lon="34.6960342303"><ele>157.99</ele><time>2026-08-15T06:14:00Z</time></trkpt><trkpt lat="59.3499849457" lon="34.6950224508"><ele>157.92</ele><time>2026-08-15T06:14:18Z</time></trkpt><trkpt lat="59.3498991150" lon="34.6942269243"><ele>157.88</ele><time>2026-08-15T06:14:34Z</time></trkpt><trkpt lat="59.3498458900" lon="34.6932561323"><ele>160.72</ele><time>2026-08-15T06:14:52Z</time></trkpt><trkpt lat="59.3497964367" lon="34.6922748629"><ele>163.47</ele><time>2026-08-15T06:15:10Z</time></trkpt><trkpt lat="59.3497682735" lon="34.6915502474"><ele>164.31</ele><time>2026-08-15T06:15:23Z</time></trkpt><trkpt lat="59.3497033976" lon="34.6907134820"><ele>165.68</ele><time>2026-08-15T06:15:39Z</time></trkpt><trkpt lat="59.3495056685" lon="34.6900075581"><ele>166.33</ele><time>2026-08-15T06:15:55Z</time></trkpt><trkpt lat="59.3493780121" lon="34.6891301405"><ele>166.76</ele><time>2026-08-15T06:16:11Z</time></trkpt><trkpt lat="59.3493112922" lon="34.6884227078"><ele>167.89</ele><time>2026-08-15T06:16:25Z</time></trkpt><trkpt lat="59.3493085261" lon="34.6877584420"><ele>169.94</ele><time>2026-08-15T06:16:40Z</time></trkpt><trkpt lat="59.3492911756" lon="34.6871296316"><ele>172.04</ele><time>2026-08-15T06:16:54Z</time></trkpt><trkpt lat="59.3493050057" lon="34.6863305848"><ele>171.55</ele><time>2026-08-15T06:17:11Z</time></trkpt><trkpt lat="59.3494391162" lon="34.6856666543"><ele>173.27</ele><time>2026-08-15T06:17:27Z</time></trkpt><trkpt lat="59.3494495936" lon="34.6851580404"><ele>172.68</ele><time>2026-08-15T06:17:41Z</time></trkpt><trkpt lat="59.3494561315" lon="34.6846663579"><ele>173.88</ele><time>2026-08-15T06:17:52Z</time></trkpt><trkpt lat="59.3495195825" lon="34.6841264796"><ele>174.34</ele><time>2026-08-15T06:18:06Z</time></trkpt><trkpt lat="59.3495355081" lon="34.6839780360"><ele>174.83</ele><time>2026-08-15T06:18:09Z</time></trkpt><trkpt lat="59.3495802674" lon="34.6833382454"><ele>177.94</ele><time>2026-08-15T06:18:23Z</time></trkpt><trkpt lat="59.3496710435" lon="34.6828413662"><ele>179.45</ele><time>2026-08-15T06:18:35Z</time></trkpt><trkpt lat="59.3497517612" lon="34.6822396293"><ele>179.92</ele><time>2026-08-15T06:18:50Z</time></trkpt><trkpt lat="59.3497745600" lon="34.6821705624"><ele>179.84</ele><time>2026-08-15T06:18:53Z</time></trkpt><trkpt lat="59.3500264362" lon="34.6823035832"><ele>176.81</ele><time>2026-08-15T06:19:10Z</time></trkpt><trkpt lat="59.3500380032" lon="34.6823108755"><ele>176.47</ele><time>2026-08-15T06:19:11Z</time></trkpt><trkpt lat="59.3500753026" lon="34.6822928544"><ele>174.82</ele><time>2026-08-15T06:19:14Z</time></trkpt><trkpt lat="59.3501319643" lon="34.6822013240"><ele>173.01</ele><time>2026-08-15T06:19:19Z</time></trkpt><trkpt lat="59.3502830900" lon="34.6817766130"><ele>172.52</ele><time>2026-08-15T06:19:34Z</time></trkpt><trkpt lat="59.3503515702" lon="34.6814406663"><ele>172.68</ele><time>2026-08-15T06:19:48Z</time></trkpt><trkpt lat="59.3503479660" lon="34.6812715195"><ele>171.89</ele><time>2026-08-15T06:19:56Z</time></trkpt><trkpt lat="59.3501576968" lon="34.6808820125"><ele>170.19</ele><time>2026-08-15T06:20:15Z</time></trkpt><trkpt lat="59.3500484806" lon="34.6805416234"><ele>168.65</ele><time>2026-08-15T06:20:32Z</time></trkpt><trkpt lat="59.3499670923" lon="34.6791220643"><ele>166.18</ele><time>2026-08-15T06:21:22Z</time></trkpt><trkpt lat="59.3499805871" lon="34.6785864606"><ele>166.05</ele><time>2026-08-15T06:21:45Z</time></trkpt><trkpt lat="59.3501119316" lon="34.6780577302"><ele>164.54</ele><time>2026-08-15T06:22:06Z</time></trkpt><trkpt lat="59.3501606304" lon="34.6775171813"><ele>163.42</ele><time>2026-08-15T06:22:26Z</time></trkpt><trkpt lat="59.3502279371" lon="34.6772039495"><ele>162.94</ele><time>2026-08-15T06:22:36Z</time></trkpt><trkpt lat="59.3502689246" lon="34.6768530831"><ele>164.11</ele><time>2026-08-15T06:22:44Z</time></trkpt><trkpt lat="59.3503345549" lon="34.6764567029"><ele>164.43</ele><time>2026-08-15T06:22:59Z</time></trkpt><trkpt lat="59.3505335413" lon="34.6754207835"><ele>163.94</ele><time>2026-08-15T06:23:37Z</time></trkpt><trkpt lat="59.3506387342" lon="34.6750358026"><ele>169.15</ele><time>2026-08-15T06:23:49Z</time></trkpt><trkpt lat="59.3507385626" lon="34.6747876983"><ele>171.78</ele><time>2026-08-15T06:23:59Z</time></trkpt><trkpt lat="59.3507975712" lon="34.6746096667"><ele>173.94</ele><time>2026-08-15T06:24:14Z</time></trkpt><trkpt lat="59.3508400675" lon="34.6743655857"><ele>174.88</ele><time>2026-08-15T06:24:29Z</time></trkpt><trkpt lat="59.3507889379" lon="34.6739212610"><ele>176.03</ele><time>2026-08-15T06:24:44Z</time></trkpt><trkpt lat="59.3507639598" lon="34.6736802813"><ele>177.03</ele><time>2026-08-15T06:24:52Z</time></trkpt><trkpt lat="59.3507504649" lon="34.6733268164"><ele>177.47</ele><time>2026-08-15T06:25:05Z</time></trkpt><trkpt lat="59.3507357128" lon="34.6732015070"><ele>177.56</ele><time>2026-08-15T06:25:09Z</time></trkpt><trkpt lat="59.3507228047" lon="34.6730542369"><ele>177.62</ele><time>2026-08-15T06:25:14Z</time></trkpt><trkpt lat="59.3507264089" lon="34.6729435120"><ele>178.21</ele><time>2026-08-15T06:25:18Z</time></trkpt><trkpt lat="59.3506964855" lon="34.6724773105"><ele>177.93</ele><time>2026-08-15T06:25:32Z</time></trkpt><trkpt lat="59.3506787159" lon="34.6721046511"><ele>177.64</ele><time>2026-08-15T06:25:44Z</time></trkpt><trkpt lat="59.3506881036" lon="34.6719981171"><ele>177.66</ele><time>2026-08-15T06:25:48Z</time></trkpt><trkpt lat="59.3506810628" lon="34.6718476620"><ele>177.33</ele><time>2026-08-15T06:25:53Z</time></trkpt><trkpt lat="59.3506211322" lon="34.6714802831"><ele>176.54</ele><time>2026-08-15T06:26:07Z</time></trkpt><trkpt lat="59.3505771272" lon="34.6711191908"><ele>174.95</ele><time>2026-08-15T06:26:21Z</time></trkpt><trkpt lat="59.3505433481" lon="34.6706193779"><ele>173.50</ele><time>2026-08-15T06:26:37Z</time></trkpt><trkpt lat="59.3505394924" lon="34.6704962477"><ele>173.16</ele><time>2026-08-15T06:26:41Z</time></trkpt><trkpt lat="59.3505341280" lon="34.6702868678"><ele>172.08</ele><time>2026-08-15T06:26:48Z</time></trkpt><trkpt lat="59.3505305238" lon="34.6698183194"><ele>170.53</ele><time>2026-08-15T06:27:02Z</time></trkpt><trkpt lat="59.3505480420" lon="34.6694937721"><ele>171.95</ele><time>2026-08-15T06:27:14Z</time></trkpt><trkpt lat="59.3505467009" lon="34.6693604160"><ele>172.20</ele><time>2026-08-15T06:27:18Z</time></trkpt><trkpt lat="59.3505566753" lon="34.6689558215"><ele>172.74</ele><time>2026-08-15T06:27:31Z</time></trkpt><trkpt lat="59.3505451921" lon="34.6684774663"><ele>172.46</ele><time>2026-08-15T06:27:46Z</time></trkpt><trkpt lat="59.3505420070" lon="34.6680966765"><ele>173.19</ele><time>2026-08-15T06:27:58Z</time></trkpt><trkpt lat="59.3505647220" lon="34.6679134481"><ele>172.51</ele><time>2026-08-15T06:28:04Z</time></trkpt><trkpt lat="59.3506505527" lon="34.6675025672"><ele>171.79</ele><time>2026-08-15T06:28:17Z</time></trkpt><trkpt lat="59.3507798016" lon="34.6671289857"><ele>173.21</ele><time>2026-08-15T06:28:30Z</time></trkpt><trkpt lat="59.3508027680" lon="34.6670363657"><ele>173.66</ele><time>2026-08-15T06:28:33Z</time></trkpt><trkpt lat="59.3508813065" lon="34.6666725911"><ele>175.17</ele><time>2026-08-15T06:28:46Z</time></trkpt><trkpt lat="59.3509060331" lon="34.6662045456"><ele>175.65</ele><time>2026-08-15T06:29:01Z</time></trkpt><trkpt lat="59.3509507086" lon="34.6658577025"><ele>176.01</ele><time>2026-08-15T06:29:13Z</time></trkpt><trkpt lat="59.3509806320" lon="34.6657465585"><ele>175.90</ele><time>2026-08-15T06:29:17Z</time></trkpt><trkpt lat="59.3509852421" lon="34.6655078419"><ele>175.71</ele><time>2026-08-15T06:29:24Z</time></trkpt><trkpt lat="59.3510029279" lon="34.6652438119"><ele>175.49</ele><time>2026-08-15T06:29:32Z</time></trkpt><trkpt lat="59.3509582523" lon="34.6648071986"><ele>174.30</ele><time>2026-08-15T06:29:45Z</time></trkpt><trkpt lat="59.3510292470" lon="34.6644181944"><ele>175.52</ele><time>2026-08-15T06:29:58Z</time></trkpt><trkpt lat="59.3511237949" lon="34.6640182100"><ele>177.76</ele><time>2026-08-15T06:30:11Z</time></trkpt><trkpt lat="59.3512947857" lon="34.6636152919"><ele>178.35</ele><time>2026-08-15T06:30:27Z</time></trkpt><trkpt lat="59.3514143117" lon="34.6635482367"><ele>177.79</ele><time>2026-08-15T06:30:39Z</time></trkpt><trkpt lat="59.3514460791" lon="34.6635206603"><ele>177.07</ele><time>2026-08-15T06:30:55Z</time></trkpt><trkpt lat="59.3514511082" lon="34.6635467280"><ele>177.39</ele><time>2026-08-15T06:31:13Z</time></trkpt><trkpt lat="59.3514547963" lon="34.6635012142"><ele>177.35</ele><time>2026-08-15T06:31:43Z</time></trkpt><trkpt lat="59.3514398765" lon="34.6634194907"><ele>176.62</ele><time>2026-08-15T06:32:07Z</time></trkpt><trkpt lat="59.3514102045" lon="34.6633742284"><ele>176.28</ele><time>2026-08-15T06:32:31Z</time></trkpt><trkpt lat="59.3514037505" lon="34.6633746475"><ele>175.90</ele><time>2026-08-15T06:32:54Z</time></trkpt><trkpt lat="59.3514041696" lon="34.6633443050"><ele>174.73</ele><time>2026-08-15T06:33:23Z</time></trkpt><trkpt lat="59.3513823766" lon="34.6632844582"><ele>174.01</ele><time>2026-08-15T06:33:59Z</time></trkpt><trkpt lat="59.3513838854" lon="34.6633378509"><ele>173.63</ele><time>2026-08-15T06:34:25Z</time></trkpt><trkpt lat="59.3513505254" lon="34.6634140424"><ele>174.94</ele><time>2026-08-15T06:35:00Z</time></trkpt><trkpt lat="59.3513775151" lon="34.6633572970"><ele>175.28</ele><time>2026-08-15T06:35:34Z</time></trkpt><trkpt lat="59.3513682112" lon="34.6632911637"><ele>175.18</ele><time>2026-08-15T06:35:42Z</time></trkpt><trkpt lat="59.3513252120" lon="34.6631584782"><ele>174.78</ele><time>2026-08-15T06:36:08Z</time></trkpt><trkpt lat="59.3511954602" lon="34.6629156545"><ele>174.49</ele><time>2026-08-15T06:36:37Z</time></trkpt><trkpt lat="59.3511085398" lon="34.6627446637"><ele>173.76</ele><time>2026-08-15T06:36:53Z</time></trkpt><trkpt lat="59.3510310911" lon="34.6625425760"><ele>174.33</ele><time>2026-08-15T06:37:12Z</time></trkpt><trkpt lat="59.3509707414" lon="34.6624269057"><ele>173.96</ele><time>2026-08-15T06:37:25Z</time></trkpt><trkpt lat="59.3509573303" lon="34.6623671427"><ele>172.64</ele><time>2026-08-15T06:37:50Z</time></trkpt><trkpt lat="59.3509297539" lon="34.6623373870"><ele>173.17</ele><time>2026-08-15T06:38:21Z</time></trkpt><trkpt lat="59.3509029318" lon="34.6622038633"><ele>174.48</ele><time>2026-08-15T06:38:56Z</time></trkpt><trkpt lat="59.3509019259" lon="34.6622917056"><ele>175.96</ele><time>2026-08-15T06:39:33Z</time></trkpt><trkpt lat="59.3509387225" lon="34.6622492094"><ele>177.61</ele><time>2026-08-15T06:40:02Z</time></trkpt><trkpt lat="59.3508860841" lon="34.6621195413"><ele>177.54</ele><time>2026-08-15T06:40:27Z</time></trkpt><trkpt lat="59.3507803883" lon="34.6619078144"><ele>177.03</ele><time>2026-08-15T06:40:49Z</time></trkpt><trkpt lat="59.3506554142" lon="34.6617053915"><ele>175.04</ele><time>2026-08-15T06:41:08Z</time></trkpt><trkpt lat="59.3505610339" lon="34.6614667587"><ele>173.46</ele><time>2026-08-15T06:41:26Z</time></trkpt><trkpt lat="59.3505425937" lon="34.6613172255"><ele>173.22</ele><time>2026-08-15T06:41:51Z</time></trkpt><trkpt lat="59.3505487125" lon="34.6612712089"><ele>174.08</ele><time>2026-08-15T06:42:21Z</time></trkpt><trkpt lat="59.3505424261" lon="34.6613724623"><ele>176.53</ele><time>2026-08-15T06:42:50Z</time></trkpt><trkpt lat="59.3505229801" lon="34.6613883879"><ele>176.67</ele><time>2026-08-15T06:43:20Z</time></trkpt><trkpt lat="59.3504478782" lon="34.6613092627"><ele>176.17</ele><time>2026-08-15T06:43:45Z</time></trkpt><trkpt lat="59.3503977545" lon="34.6611438878"><ele>175.79</ele><time>2026-08-15T06:44:05Z</time></trkpt><trkpt lat="59.3504061364" lon="34.6610863879"><ele>174.26</ele><time>2026-08-15T06:44:37Z</time></trkpt><trkpt lat="59.3504077289" lon="34.6610226855"><ele>174.19</ele><time>2026-08-15T06:45:05Z</time></trkpt><trkpt lat="59.3503535818" lon="34.6609693766"><ele>171.81</ele><time>2026-08-15T06:45:36Z</time></trkpt><trkpt lat="59.3503227364" lon="34.6610154770"><ele>171.15</ele><time>2026-08-15T06:46:05Z</time></trkpt><trkpt lat="59.3502228241" lon="34.6608252078"><ele>171.01</ele><time>2026-08-15T06:46:32Z</time></trkpt><trkpt lat="59.3501170445" lon="34.6607444063"><ele>171.13</ele><time>2026-08-15T06:46:50Z</time></trkpt><trkpt lat="59.3500911444" lon="34.6607500222"><ele>171.76</ele><time>2026-08-15T06:47:16Z</time></trkpt><trkpt lat="59.3500738777" lon="34.6606701426"><ele>173.72</ele><time>2026-08-15T06:47:48Z</time></trkpt><trkpt lat="59.3499790784" lon="34.6607172489"><ele>177.44</ele><time>2026-08-15T06:48:20Z</time></trkpt><trkpt lat="59.3500110134" lon="34.6607737429"><ele>177.59</ele><time>2026-08-15T06:48:49Z</time></trkpt><trkpt lat="59.3500046432" lon="34.6606897563"><ele>177.87</ele><time>2026-08-15T06:49:14Z</time></trkpt><trkpt lat="59.3499406893" lon="34.6604224574"><ele>177.22</ele><time>2026-08-15T06:49:38Z</time></trkpt><trkpt lat="59.3499111850" lon="34.6601826511"><ele>175.70</ele><time>2026-08-15T06:50:02Z</time></trkpt><trkpt lat="59.3498855364" lon="34.6600758657"><ele>175.49</ele><time>2026-08-15T06:50:34Z</time></trkpt><trkpt lat="59.3498825189" lon="34.6600078046"><ele>177.64</ele><time>2026-08-15T06:51:04Z</time></trkpt><trkpt lat="59.3499301281" lon="34.6600294299"><ele>177.87</ele><time>2026-08-15T06:51:32Z</time></trkpt><trkpt lat="59.3498660065" lon="34.6599825751"><ele>177.81</ele><time>2026-08-15T06:52:01Z</time></trkpt><trkpt lat="59.3498212472" lon="34.6598586068"><ele>177.44</ele><time>2026-08-15T06:52:15Z</time></trkpt><trkpt lat="59.3497338239" lon="34.6596441977"><ele>176.62</ele><time>2026-08-15T06:52:38Z</time></trkpt><trkpt lat="59.3496842030" lon="34.6595478896"><ele>176.08</ele><time>2026-08-15T06:52:50Z</time></trkpt><trkpt lat="59.3495801836" lon="34.6594261844"><ele>175.38</ele><time>2026-08-15T06:53:06Z</time></trkpt><trkpt lat="59.3495319877" lon="34.6592553612"><ele>174.32</ele><time>2026-08-15T06:53:28Z</time></trkpt><trkpt lat="59.3495059200" lon="34.6591452230"><ele>175.56</ele><time>2026-08-15T06:54:03Z</time></trkpt><trkpt lat="59.3494951911" lon="34.6592099313"><ele>176.07</ele><time>2026-08-15T06:54:31Z</time></trkpt><trkpt lat="59.3495301437" lon="34.6591921616"><ele>175.64</ele><time>2026-08-15T06:55:02Z</time></trkpt><trkpt lat="59.3494770024" lon="34.6590889804"><ele>175.87</ele><time>2026-08-15T06:55:31Z</time></trkpt><trkpt lat="59.3493983801" lon="34.6589703765"><ele>175.30</ele><time>2026-08-15T06:55:49Z</time></trkpt><trkpt lat="59.3493870646" lon="34.6589237731"><ele>175.22</ele><time>2026-08-15T06:55:55Z</time></trkpt><trkpt lat="59.3493095320" lon="34.6586176660"><ele>175.24</ele><time>2026-08-15T06:56:14Z</time></trkpt><trkpt lat="59.3492564745" lon="34.6585247945"><ele>174.98</ele><time>2026-08-15T06:56:40Z</time></trkpt><trkpt lat="59.3492490984" lon="34.6584671270"><ele>174.69</ele><time>2026-08-15T06:57:09Z</time></trkpt><trkpt lat="59.3492309935" lon="34.6584098786"><ele>174.47</ele><time>2026-08-15T06:57:30Z</time></trkpt><trkpt lat="59.3492081109" lon="34.6584506147"><ele>174.71</ele><time>2026-08-15T06:57:59Z</time></trkpt><trkpt lat="59.3491963763" lon="34.6584598348"><ele>173.97</ele><time>2026-08-15T06:58:27Z</time></trkpt><trkpt lat="59.3491594121" lon="34.6581807174"><ele>173.70</ele><time>2026-08-15T06:58:52Z</time></trkpt><trkpt lat="59.3491414748" lon="34.6579397377"><ele>173.54</ele><time>2026-08-15T06:59:15Z</time></trkpt><trkpt lat="59.3490463402" lon="34.6578659769"><ele>173.61</ele><time>2026-08-15T06:59:36Z</time></trkpt><trkpt lat="59.3489492778" lon="34.6577849239"><ele>173.56</ele><time>2026-08-15T06:59:59Z</time></trkpt><trkpt lat="59.3489380460" lon="34.6577695012"><ele>172.93</ele><time>2026-08-15T07:00:25Z</time></trkpt><trkpt lat="59.3489176780" lon="34.6577114146"><ele>174.33</ele><time>2026-08-15T07:00:54Z</time></trkpt><trkpt lat="59.3489608448" lon="34.6577814035"><ele>175.94</ele><time>2026-08-15T07:01:21Z</time></trkpt><trkpt lat="59.3489649519" lon="34.6576825809"><ele>176.90</ele><time>2026-08-15T07:01:52Z</time></trkpt><trkpt lat="59.3489667960" lon="34.6576156095"><ele>175.14</ele><time>2026-08-15T07:02:22Z</time></trkpt><trkpt lat="59.3489641976" lon="34.6576327924"><ele>173.44</ele><time>2026-08-15T07:02:53Z</time></trkpt><trkpt lat="59.3489458412" lon="34.6576147713"><ele>174.07</ele><time>2026-08-15T07:03:18Z</time></trkpt><trkpt lat="59.3488773610" lon="34.6575510688"><ele>173.87</ele><time>2026-08-15T07:03:43Z</time></trkpt><trkpt lat="59.3488105573" lon="34.6574500669"><ele>174.22</ele><time>2026-08-15T07:04:06Z</time></trkpt><trkpt lat="59.3487004191" lon="34.6572852787"><ele>174.42</ele><time>2026-08-15T07:04:29Z</time></trkpt><trkpt lat="59.3486248981" lon="34.6571548562"><ele>174.53</ele><time>2026-08-15T07:04:54Z</time></trkpt><trkpt lat="59.3485876825" lon="34.6569943428"><ele>176.43</ele><time>2026-08-15T07:05:31Z</time></trkpt><trkpt lat="59.3485834077" lon="34.6570546925"><ele>175.82</ele><time>2026-08-15T07:06:06Z</time></trkpt><trkpt lat="59.3485960644" lon="34.6569837816"><ele>176.98</ele><time>2026-08-15T07:06:36Z</time></trkpt><trkpt lat="59.3485712539" lon="34.6569498349"><ele>179.05</ele><time>2026-08-15T07:07:05Z</time></trkpt><trkpt lat="59.3485935498" lon="34.6569344122"><ele>179.77</ele><time>2026-08-15T07:07:36Z</time></trkpt><trkpt lat="59.3485747743" lon="34.6570093464"><ele>177.18</ele><time>2026-08-15T07:08:06Z</time></trkpt><trkpt lat="59.3485461920" lon="34.6570019703"><ele>176.66</ele><time>2026-08-15T07:08:37Z</time></trkpt><trkpt lat="59.3485275004" lon="34.6569277905"><ele>178.07</ele><time>2026-08-15T07:09:04Z</time></trkpt><trkpt lat="59.3484748621" lon="34.6568034030"><ele>177.86</ele><time>2026-08-15T07:09:21Z</time></trkpt><trkpt lat="59.3484066334" lon="34.6567293070"><ele>176.83</ele><time>2026-08-15T07:09:44Z</time></trkpt><trkpt lat="59.3483323697" lon="34.6565985493"><ele>175.70</ele><time>2026-08-15T07:10:07Z</time></trkpt><trkpt lat="59.3483140972" lon="34.6566485055"><ele>173.81</ele><time>2026-08-15T07:10:33Z</time></trkpt><trkpt lat="59.3483154383" lon="34.6565707214"><ele>173.61</ele><time>2026-08-15T07:11:02Z</time></trkpt><trkpt lat="59.3483096547" lon="34.6565708052"><ele>173.77</ele><time>2026-08-15T07:11:30Z</time></trkpt><trkpt lat="59.3483032007" lon="34.6565498505"><ele>173.55</ele><time>2026-08-15T07:12:01Z</time></trkpt><trkpt lat="59.3483259156" lon="34.6565454919"><ele>174.55</ele><time>2026-08-15T07:12:35Z</time></trkpt><trkpt lat="59.3483291846" lon="34.6564597450"><ele>174.40</ele><time>2026-08-15T07:12:54Z</time></trkpt><trkpt lat="59.3482984230" lon="34.6563699748"><ele>173.77</ele><time>2026-08-15T07:13:04Z</time></trkpt><trkpt lat="59.3482410908" lon="34.6562282369"><ele>172.60</ele><time>2026-08-15T07:13:18Z</time></trkpt><trkpt lat="59.3482583575" lon="34.6560429968"><ele>172.00</ele><time>2026-08-15T07:13:40Z</time></trkpt><trkpt lat="59.3482602853" lon="34.6559181903"><ele>172.41</ele><time>2026-08-15T07:13:51Z</time></trkpt><trkpt lat="59.3482373189" lon="34.6558062918"><ele>172.74</ele><time>2026-08-15T07:14:02Z</time></trkpt><trkpt lat="59.3481141049" lon="34.6558081359"><ele>171.80</ele><time>2026-08-15T07:14:25Z</time></trkpt><trkpt lat="59.3480741233" lon="34.6558007598"><ele>172.42</ele><time>2026-08-15T07:14:51Z</time></trkpt><trkpt lat="59.3480676692" lon="34.6558084711"><ele>173.66</ele><time>2026-08-15T07:15:25Z</time></trkpt><trkpt lat="59.3480573595" lon="34.6557359677"><ele>174.40</ele><time>2026-08-15T07:15:56Z</time></trkpt><trkpt lat="59.3480237480" lon="34.6556660626"><ele>174.98</ele><time>2026-08-15T07:16:26Z</time></trkpt><trkpt lat="59.3479592912" lon="34.6556140110"><ele>174.69</ele><time>2026-08-15T07:16:46Z</time></trkpt><trkpt lat="59.3479031324" lon="34.6555004362"><ele>174.32</ele><time>2026-08-15T07:17:09Z</time></trkpt><trkpt lat="59.3478959240" lon="34.6554887854"><ele>174.35</ele><time>2026-08-15T07:17:10Z</time></trkpt><trkpt lat="59.3478393462" lon="34.6552872006"><ele>173.91</ele><time>2026-08-15T07:17:33Z</time></trkpt><trkpt lat="59.3477883842" lon="34.6551665850"><ele>174.42</ele><time>2026-08-15T07:17:51Z</time></trkpt><trkpt lat="59.3477619812" lon="34.6550359111"><ele>174.65</ele><time>2026-08-15T07:18:24Z</time></trkpt><trkpt lat="59.3477387633" lon="34.6550997812"><ele>174.59</ele><time>2026-08-15T07:18:53Z</time></trkpt><trkpt lat="59.3477540184" lon="34.6550521720"><ele>176.78</ele><time>2026-08-15T07:19:21Z</time></trkpt><trkpt lat="59.3477499951" lon="34.6550168004"><ele>177.17</ele><time>2026-08-15T07:19:34Z</time></trkpt><trkpt lat="59.3477041461" lon="34.6549026389"><ele>176.55</ele><time>2026-08-15T07:19:56Z</time></trkpt><trkpt lat="59.3476019707" lon="34.6548067499"><ele>175.90</ele><time>2026-08-15T07:20:16Z</time></trkpt><trkpt lat="59.3475241866" lon="34.6546180733"><ele>175.30</ele><time>2026-08-15T07:20:35Z</time></trkpt><trkpt lat="59.3474567961" lon="34.6544423886"><ele>174.60</ele><time>2026-08-15T07:20:55Z</time></trkpt><trkpt lat="59.3474322371" lon="34.6544068493"><ele>175.31</ele><time>2026-08-15T07:21:26Z</time></trkpt><trkpt lat="59.3474509288" lon="34.6544830408"><ele>174.84</ele><time>2026-08-15T07:21:54Z</time></trkpt><trkpt lat="59.3474173173" lon="34.6546311490"><ele>173.90</ele><time>2026-08-15T07:22:15Z</time></trkpt><trkpt lat="59.3473842926" lon="34.6547242720"><ele>173.07</ele><time>2026-08-15T07:22:26Z</time></trkpt><trkpt lat="59.3473452330" lon="34.6547919139"><ele>172.59</ele><time>2026-08-15T07:22:35Z</time></trkpt><trkpt lat="59.3472785130" lon="34.6549034771"><ele>171.63</ele><time>2026-08-15T07:22:56Z</time></trkpt><trkpt lat="59.3472846318" lon="34.6548958495"><ele>170.34</ele><time>2026-08-15T07:23:30Z</time></trkpt><trkpt lat="59.3472547922" lon="34.6548899822"><ele>168.82</ele><time>2026-08-15T07:24:08Z</time></trkpt><trkpt lat="59.3472434767" lon="34.6548714582"><ele>168.73</ele><time>2026-08-15T07:24:38Z</time></trkpt><trkpt lat="59.3472238630" lon="34.6549344901"><ele>169.24</ele><time>2026-08-15T07:25:11Z</time></trkpt><trkpt lat="59.3472708855" lon="34.6548053250"><ele>168.76</ele><time>2026-08-15T07:25:26Z</time></trkpt><trkpt lat="59.3473830353" lon="34.6546602342"><ele>168.82</ele><time>2026-08-15T07:25:44Z</time></trkpt><trkpt lat="59.3474505935" lon="34.6546043269"><ele>169.21</ele><time>2026-08-15T07:25:59Z</time></trkpt><trkpt lat="59.3474716321" lon="34.6545117069"><ele>168.71</ele><time>2026-08-15T07:26:13Z</time></trkpt><trkpt lat="59.3474479951" lon="34.6545888204"><ele>168.00</ele><time>2026-08-15T07:26:52Z</time></trkpt><trkpt lat="59.3474476598" lon="34.6545687038"><ele>168.26</ele><time>2026-08-15T07:27:24Z</time></trkpt><trkpt lat="59.3474118691" lon="34.6545636747"><ele>168.69</ele><time>2026-08-15T07:28:06Z</time></trkpt><trkpt lat="59.3473696243" lon="34.6545571368"><ele>169.44</ele><time>2026-08-15T07:28:38Z</time></trkpt><trkpt lat="59.3473930098" lon="34.6545407083"><ele>169.05</ele><time>2026-08-15T07:29:06Z</time></trkpt><trkpt lat="59.3473953567" lon="34.6545700449"><ele>170.21</ele><time>2026-08-15T07:29:40Z</time></trkpt><trkpt lat="59.3473925069" lon="34.6545687877"><ele>170.60</ele><time>2026-08-15T07:30:14Z</time></trkpt><trkpt lat="59.3473864719" lon="34.6545763314"><ele>170.59</ele><time>2026-08-15T07:30:39Z</time></trkpt><trkpt lat="59.3474118691" lon="34.6545517724"><ele>171.69</ele><time>2026-08-15T07:31:06Z</time></trkpt><trkpt lat="59.3474236038" lon="34.6545043308"><ele>171.81</ele><time>2026-08-15T07:31:36Z</time></trkpt><trkpt lat="59.3474279623" lon="34.6545027383"><ele>171.18</ele><time>2026-08-15T07:32:03Z</time></trkpt><trkpt lat="59.3474224303" lon="34.6544763353"><ele>171.85</ele><time>2026-08-15T07:32:29Z</time></trkpt><trkpt lat="59.3474022299" lon="34.6543014888"><ele>171.28</ele><time>2026-08-15T07:32:50Z</time></trkpt><trkpt lat="59.3473990448" lon="34.6541162487"><ele>170.73</ele><time>2026-08-15T07:33:10Z</time></trkpt><trkpt lat="59.3473357614" lon="34.6540512890"><ele>170.27</ele><time>2026-08-15T07:33:34Z</time></trkpt><trkpt lat="59.3472843803" lon="34.6538028494"><ele>169.41</ele><time>2026-08-15T07:33:53Z</time></trkpt><trkpt lat="59.3472733162" lon="34.6537844092"><ele>169.26</ele><time>2026-08-15T07:33:59Z</time></trkpt><trkpt lat="59.3471924309" lon="34.6536518913"><ele>168.52</ele><time>2026-08-15T07:34:22Z</time></trkpt><trkpt lat="59.3471925147" lon="34.6535962354"><ele>169.09</ele><time>2026-08-15T07:34:54Z</time></trkpt><trkpt lat="59.3471644353" lon="34.6536063775"><ele>169.61</ele><time>2026-08-15T07:35:28Z</time></trkpt><trkpt lat="59.3471693806" lon="34.6535668150"><ele>170.53</ele><time>2026-08-15T07:36:00Z</time></trkpt><trkpt lat="59.3471179996" lon="34.6534214728"><ele>170.78</ele><time>2026-08-15T07:36:21Z</time></trkpt><trkpt lat="59.3470596615" lon="34.6532856859"><ele>170.79</ele><time>2026-08-15T07:36:40Z</time></trkpt><trkpt lat="59.3469362799" lon="34.6530385874"><ele>170.13</ele><time>2026-08-15T07:37:06Z</time></trkpt><trkpt lat="59.3468931131" lon="34.6529450454"><ele>169.62</ele><time>2026-08-15T07:37:26Z</time></trkpt><trkpt lat="59.3468847312" lon="34.6529277787"><ele>169.12</ele><time>2026-08-15T07:37:56Z</time></trkpt><trkpt lat="59.3468616810" lon="34.6528777387"><ele>169.55</ele><time>2026-08-15T07:38:26Z</time></trkpt><trkpt lat="59.3467700668" lon="34.6527709533"><ele>169.15</ele><time>2026-08-15T07:38:51Z</time></trkpt><trkpt lat="59.3467305880" lon="34.6526107751"><ele>168.37</ele><time>2026-08-15T07:39:13Z</time></trkpt><trkpt lat="59.3466678075" lon="34.6523763333"><ele>167.56</ele><time>2026-08-15T07:39:34Z</time></trkpt><trkpt lat="59.3466437515" lon="34.6523050033"><ele>167.58</ele><time>2026-08-15T07:39:46Z</time></trkpt><trkpt lat="59.3466466013" lon="34.6521764249"><ele>166.99</ele><time>2026-08-15T07:40:08Z</time></trkpt><trkpt lat="59.3465396482" lon="34.6519937832"><ele>166.74</ele><time>2026-08-15T07:40:35Z</time></trkpt><trkpt lat="59.3465737626" lon="34.6519677155"><ele>167.72</ele><time>2026-08-15T07:41:03Z</time></trkpt><trkpt lat="59.3466417398" lon="34.6520454157"><ele>168.22</ele><time>2026-08-15T07:41:34Z</time></trkpt><trkpt lat="59.3467262294" lon="34.6520033386"><ele>168.36</ele><time>2026-08-15T07:41:51Z</time></trkpt><trkpt lat="59.3467994872" lon="34.6519171726"><ele>168.84</ele><time>2026-08-15T07:42:11Z</time></trkpt><trkpt lat="59.3468415644" lon="34.6519335173"><ele>168.26</ele><time>2026-08-15T07:42:31Z</time></trkpt><trkpt lat="59.3468527962" lon="34.6519362833"><ele>168.24</ele><time>2026-08-15T07:42:35Z</time></trkpt><trkpt lat="59.3469471764" lon="34.6519072820"><ele>167.45</ele><time>2026-08-15T07:42:58Z</time></trkpt><trkpt lat="59.3469750881" lon="34.6517930366"><ele>166.77</ele><time>2026-08-15T07:43:19Z</time></trkpt><trkpt lat="59.3470351864" lon="34.6516751032"><ele>167.35</ele><time>2026-08-15T07:43:40Z</time></trkpt><trkpt lat="59.3470884953" lon="34.6516675595"><ele>167.14</ele><time>2026-08-15T07:43:53Z</time></trkpt><trkpt lat="59.3471936043" lon="34.6516725048"><ele>167.04</ele><time>2026-08-15T07:44:15Z</time></trkpt><trkpt lat="59.3472495116" lon="34.6514355484"><ele>166.70</ele><time>2026-08-15T07:44:37Z</time></trkpt><trkpt lat="59.3471982144" lon="34.6513010189"><ele>166.52</ele><time>2026-08-15T07:44:58Z</time></trkpt><trkpt lat="59.3471950293" lon="34.6512477100"><ele>167.37</ele><time>2026-08-15T07:45:28Z</time></trkpt><trkpt lat="59.3472178280" lon="34.6512774657"><ele>166.99</ele><time>2026-08-15T07:45:53Z</time></trkpt><trkpt lat="59.3472081050" lon="34.6512088180"><ele>166.96</ele><time>2026-08-15T07:46:23Z</time></trkpt><trkpt lat="59.3472133018" lon="34.6513507236"><ele>165.11</ele><time>2026-08-15T07:46:53Z</time></trkpt><trkpt lat="59.3472804409" lon="34.6514339559"><ele>165.06</ele><time>2026-08-15T07:47:08Z</time></trkpt><trkpt lat="59.3473610748" lon="34.6515694913"><ele>164.87</ele><time>2026-08-15T07:47:23Z</time></trkpt><trkpt lat="59.3474526051" lon="34.6516971476"><ele>164.07</ele><time>2026-08-15T07:47:38Z</time></trkpt><trkpt lat="59.3474781699" lon="34.6518714912"><ele>164.22</ele><time>2026-08-15T07:47:55Z</time></trkpt><trkpt lat="59.3475810997" lon="34.6519661229"><ele>164.28</ele><time>2026-08-15T07:48:13Z</time></trkpt><trkpt lat="59.3476439640" lon="34.6520813741"><ele>164.55</ele><time>2026-08-15T07:48:35Z</time></trkpt><trkpt lat="59.3475624919" lon="34.6521287318"><ele>166.33</ele><time>2026-08-15T07:49:05Z</time></trkpt><trkpt lat="59.3475790881" lon="34.6521345992"><ele>166.26</ele><time>2026-08-15T07:49:37Z</time></trkpt><trkpt lat="59.3476769049" lon="34.6522466652"><ele>165.90</ele><time>2026-08-15T07:49:56Z</time></trkpt><trkpt lat="59.3477162998" lon="34.6523161512"><ele>165.59</ele><time>2026-08-15T07:50:06Z</time></trkpt><trkpt lat="59.3478618935" lon="34.6525035705"><ele>164.58</ele><time>2026-08-15T07:50:24Z</time></trkpt><trkpt lat="59.3479376659" lon="34.6526153013"><ele>163.84</ele><time>2026-08-15T07:50:39Z</time></trkpt><trkpt lat="59.3479835987" lon="34.6527116094"><ele>163.20</ele><time>2026-08-15T07:50:57Z</time></trkpt><trkpt lat="59.3479988538" lon="34.6527586319"><ele>162.68</ele><time>2026-08-15T07:51:23Z</time></trkpt><trkpt lat="59.3480147794" lon="34.6527686063"><ele>162.13</ele><time>2026-08-15T07:51:51Z</time></trkpt><trkpt lat="59.3480095826" lon="34.6527896449"><ele>160.92</ele><time>2026-08-15T07:52:20Z</time></trkpt><trkpt lat="59.3480416015" lon="34.6528437082"><ele>159.00</ele><time>2026-08-15T07:52:48Z</time></trkpt><trkpt lat="59.3480935693" lon="34.6529591270"><ele>158.74</ele><time>2026-08-15T07:53:03Z</time></trkpt><trkpt lat="59.3481770530" lon="34.6529969294"><ele>158.91</ele><time>2026-08-15T07:53:24Z</time></trkpt><trkpt lat="59.3482004385" lon="34.6530326363"><ele>158.97</ele><time>2026-08-15T07:53:28Z</time></trkpt><trkpt lat="59.3482637219" lon="34.6531285252"><ele>158.99</ele><time>2026-08-15T07:53:43Z</time></trkpt><trkpt lat="59.3482504785" lon="34.6532685030"><ele>159.06</ele><time>2026-08-15T07:53:55Z</time></trkpt><trkpt lat="59.3482735287" lon="34.6533933934"><ele>159.36</ele><time>2026-08-15T07:54:10Z</time></trkpt><trkpt lat="59.3482543342" lon="34.6534336265"><ele>159.77</ele><time>2026-08-15T07:54:14Z</time></trkpt><trkpt lat="59.3483114149" lon="34.6534880251"><ele>160.29</ele><time>2026-08-15T07:54:40Z</time></trkpt><trkpt lat="59.3483367283" lon="34.6534689981"><ele>158.02</ele><time>2026-08-15T07:55:20Z</time></trkpt><trkpt lat="59.3483829126" lon="34.6536381450"><ele>158.28</ele><time>2026-08-15T07:55:50Z</time></trkpt><trkpt lat="59.3483958207" lon="34.6538103931"><ele>157.91</ele><time>2026-08-15T07:56:08Z</time></trkpt><trkpt lat="59.3484389037" lon="34.6539440006"><ele>157.92</ele><time>2026-08-15T07:56:24Z</time></trkpt><trkpt lat="59.3484990019" lon="34.6540827211"><ele>157.87</ele><time>2026-08-15T07:56:37Z</time></trkpt><trkpt lat="59.3485888559" lon="34.6542157419"><ele>157.80</ele><time>2026-08-15T07:56:52Z</time></trkpt><trkpt lat="59.3486095592" lon="34.6543009859"><ele>157.44</ele><time>2026-08-15T07:57:18Z</time></trkpt><trkpt lat="59.3486209586" lon="34.6542895027"><ele>156.91</ele><time>2026-08-15T07:57:45Z</time></trkpt><trkpt lat="59.3486409076" lon="34.6542706434"><ele>155.25</ele><time>2026-08-15T07:58:12Z</time></trkpt><trkpt lat="59.3487071246" lon="34.6543527860"><ele>154.39</ele><time>2026-08-15T07:58:41Z</time></trkpt><trkpt lat="59.3487681448" lon="34.6544388682"><ele>154.13</ele><time>2026-08-15T07:58:59Z</time></trkpt><trkpt lat="59.3488315959" lon="34.6545257047"><ele>154.17</ele><time>2026-08-15T07:59:13Z</time></trkpt><trkpt lat="59.3489622697" lon="34.6546033211"><ele>152.74</ele><time>2026-08-15T07:59:36Z</time></trkpt><trkpt lat="59.3490201887" lon="34.6547105256"><ele>152.38</ele><time>2026-08-15T07:59:53Z</time></trkpt><trkpt lat="59.3490250502" lon="34.6547612362"><ele>152.70</ele><time>2026-08-15T08:00:21Z</time></trkpt><trkpt lat="59.3490119744" lon="34.6547392756"><ele>151.61</ele><time>2026-08-15T08:00:48Z</time></trkpt><trkpt lat="59.3490503635" lon="34.6547366772"><ele>151.05</ele><time>2026-08-15T08:01:22Z</time></trkpt><trkpt lat="59.3490708154" lon="34.6547956020"><ele>151.22</ele><time>2026-08-15T08:01:53Z</time></trkpt><trkpt lat="59.3491128925" lon="34.6548933350"><ele>151.25</ele><time>2026-08-15T08:02:04Z</time></trkpt><trkpt lat="59.3490925245" lon="34.6550415270"><ele>151.73</ele><time>2026-08-15T08:02:21Z</time></trkpt><trkpt lat="59.3491905089" lon="34.6551472228"><ele>152.19</ele><time>2026-08-15T08:02:43Z</time></trkpt><trkpt lat="59.3492299039" lon="34.6553638112"><ele>153.21</ele><time>2026-08-15T08:03:03Z</time></trkpt><trkpt lat="59.3492428958" lon="34.6554193832"><ele>152.52</ele><time>2026-08-15T08:03:28Z</time></trkpt><trkpt lat="59.3492687121" lon="34.6554759610"><ele>152.26</ele><time>2026-08-15T08:03:58Z</time></trkpt><trkpt lat="59.3492370285" lon="34.6554472949"><ele>152.53</ele><time>2026-08-15T08:04:32Z</time></trkpt><trkpt lat="59.3493001442" lon="34.6555478778"><ele>153.04</ele><time>2026-08-15T08:04:53Z</time></trkpt><trkpt lat="59.3494111206" lon="34.6556157712"><ele>154.04</ele><time>2026-08-15T08:05:27Z</time></trkpt><trkpt lat="59.3494402058" lon="34.6557891089"><ele>154.72</ele><time>2026-08-15T08:05:52Z</time></trkpt><trkpt lat="59.3494852167" lon="34.6559233032"><ele>154.78</ele><time>2026-08-15T08:06:05Z</time></trkpt><trkpt lat="59.3495082669" lon="34.6561466809"><ele>155.02</ele><time>2026-08-15T08:06:23Z</time></trkpt><trkpt lat="59.3495377712" lon="34.6562794503"><ele>155.35</ele><time>2026-08-15T08:06:50Z</time></trkpt><trkpt lat="59.3495652638" lon="34.6563307475"><ele>155.84</ele><time>2026-08-15T08:07:19Z</time></trkpt><trkpt lat="59.3495547865" lon="34.6563411411"><ele>156.19</ele><time>2026-08-15T08:07:47Z</time></trkpt><trkpt lat="59.3496154714" lon="34.6564539615"><ele>156.21</ele><time>2026-08-15T08:08:06Z</time></trkpt><trkpt lat="59.3496521004" lon="34.6565536223"><ele>156.22</ele><time>2026-08-15T08:08:22Z</time></trkpt><trkpt lat="59.3497125339" lon="34.6567652654"><ele>156.42</ele><time>2026-08-15T08:08:37Z</time></trkpt><trkpt lat="59.3497695308" lon="34.6569177322"><ele>155.97</ele><time>2026-08-15T08:08:58Z</time></trkpt><trkpt lat="59.3497454748" lon="34.6569795907"><ele>156.31</ele><time>2026-08-15T08:09:20Z</time></trkpt><trkpt lat="59.3497687764" lon="34.6569632459"><ele>156.64</ele><time>2026-08-15T08:09:46Z</time></trkpt><trkpt lat="59.3498034775" lon="34.6570712049"><ele>156.84</ele><time>2026-08-15T08:09:59Z</time></trkpt><trkpt lat="59.3498453032" lon="34.6572468057"><ele>157.48</ele><time>2026-08-15T08:10:15Z</time></trkpt><trkpt lat="59.3498997018" lon="34.6573753003"><ele>157.38</ele><time>2026-08-15T08:10:29Z</time></trkpt><trkpt lat="59.3499592971" lon="34.6575001907"><ele>156.72</ele><time>2026-08-15T08:10:42Z</time></trkpt><trkpt lat="59.3500285316" lon="34.6576141845"><ele>156.63</ele><time>2026-08-15T08:10:54Z</time></trkpt><trkpt lat="59.3501048908" lon="34.6577134263"><ele>156.27</ele><time>2026-08-15T08:11:18Z</time></trkpt><trkpt lat="59.3501710240" lon="34.6577399969"><ele>155.94</ele><time>2026-08-15T08:11:46Z</time></trkpt><trkpt lat="59.3501368258" lon="34.6577617060"><ele>156.33</ele><time>2026-08-15T08:12:16Z</time></trkpt><trkpt lat="59.3501280248" lon="34.6577708423"><ele>156.50</ele><time>2026-08-15T08:12:21Z</time></trkpt><trkpt lat="59.3501107581" lon="34.6577998437"><ele>157.76</ele><time>2026-08-15T08:12:54Z</time></trkpt><trkpt lat="59.3501235824" lon="34.6578429267"><ele>158.29</ele><time>2026-08-15T08:13:19Z</time></trkpt><trkpt lat="59.3501952477" lon="34.6579763666"><ele>158.52</ele><time>2026-08-15T08:13:36Z</time></trkpt><trkpt lat="59.3502024561" lon="34.6580158453"><ele>158.52</ele><time>2026-08-15T08:13:40Z</time></trkpt><trkpt lat="59.3502462935" lon="34.6580670588"><ele>158.67</ele><time>2026-08-15T08:14:00Z</time></trkpt><trkpt lat="59.3503650650" lon="34.6580989100"><ele>159.18</ele><time>2026-08-15T08:14:24Z</time></trkpt><trkpt lat="59.3504104111" lon="34.6582292486"><ele>158.92</ele><time>2026-08-15T08:14:44Z</time></trkpt><trkpt lat="59.3504643906" lon="34.6583103016"><ele>159.07</ele><time>2026-08-15T08:15:00Z</time></trkpt><trkpt lat="59.3504944816" lon="34.6583652869"><ele>159.38</ele><time>2026-08-15T08:15:28Z</time></trkpt><trkpt lat="59.3504749518" lon="34.6583929472"><ele>160.54</ele><time>2026-08-15T08:15:56Z</time></trkpt><trkpt lat="59.3504666537" lon="34.6583833918"><ele>160.63</ele><time>2026-08-15T08:16:30Z</time></trkpt><trkpt lat="59.3505081441" lon="34.6584230382"><ele>160.67</ele><time>2026-08-15T08:16:51Z</time></trkpt><trkpt lat="59.3505628780" lon="34.6585406363"><ele>160.11</ele><time>2026-08-15T08:17:08Z</time></trkpt><trkpt lat="59.3506030273" lon="34.6587292291"><ele>159.74</ele><time>2026-08-15T08:17:29Z</time></trkpt><trkpt lat="59.3506575935" lon="34.6588854678"><ele>159.27</ele><time>2026-08-15T08:17:45Z</time></trkpt><trkpt lat="59.3506498821" lon="34.6590055805"><ele>157.67</ele><time>2026-08-15T08:18:08Z</time></trkpt><trkpt lat="59.3506369740" lon="34.6590723004"><ele>157.54</ele><time>2026-08-15T08:18:36Z</time></trkpt><trkpt lat="59.3506188691" lon="34.6591114439"><ele>160.38</ele><time>2026-08-15T08:19:06Z</time></trkpt><trkpt lat="59.3506746925" lon="34.6591514256"><ele>160.20</ele><time>2026-08-15T08:19:31Z</time></trkpt><trkpt lat="59.3507509679" lon="34.6592510864"><ele>159.15</ele><time>2026-08-15T08:19:48Z</time></trkpt><trkpt lat="59.3508704100" lon="34.6592598874"><ele>157.32</ele><time>2026-08-15T08:20:06Z</time></trkpt><trkpt lat="59.3509497866" lon="34.6593810059"><ele>156.64</ele><time>2026-08-15T08:20:21Z</time></trkpt><trkpt lat="59.3509798776" lon="34.6594597120"><ele>155.99</ele><time>2026-08-15T08:20:39Z</time></trkpt><trkpt lat="59.3509486970" lon="34.6594678424"><ele>155.99</ele><time>2026-08-15T08:21:08Z</time></trkpt><trkpt lat="59.3509686459" lon="34.6594553534"><ele>155.71</ele><time>2026-08-15T08:21:36Z</time></trkpt><trkpt lat="59.3510004971" lon="34.6594909765"><ele>154.64</ele><time>2026-08-15T08:22:02Z</time></trkpt><trkpt lat="59.3510330189" lon="34.6595769748"><ele>154.15</ele><time>2026-08-15T08:22:28Z</time></trkpt><trkpt lat="59.3511021696" lon="34.6597246639"><ele>153.52</ele><time>2026-08-15T08:22:44Z</time></trkpt><trkpt lat="59.3511951249" lon="34.6598565113"><ele>153.61</ele><time>2026-08-15T08:23:00Z</time></trkpt><trkpt lat="59.3512723222" lon="34.6600653883"><ele>154.04</ele><time>2026-08-15T08:23:22Z</time></trkpt><trkpt lat="59.3513461668" lon="34.6601616126"><ele>153.84</ele><time>2026-08-15T08:23:44Z</time></trkpt><trkpt lat="59.3513561413" lon="34.6601814777"><ele>153.31</ele><time>2026-08-15T08:24:09Z</time></trkpt><trkpt lat="59.3513387907" lon="34.6602004208"><ele>151.92</ele><time>2026-08-15T08:24:37Z</time></trkpt><trkpt lat="59.3513689656" lon="34.6602820605"><ele>151.89</ele><time>2026-08-15T08:24:58Z</time></trkpt><trkpt lat="59.3514610827" lon="34.6604360361"><ele>152.04</ele><time>2026-08-15T08:25:15Z</time></trkpt><trkpt lat="59.3515362684" lon="34.6605559811"><ele>152.33</ele><time>2026-08-15T08:25:28Z</time></trkpt><trkpt lat="59.3515888229" lon="34.6606921870"><ele>152.71</ele><time>2026-08-15T08:25:39Z</time></trkpt><trkpt lat="59.3516604044" lon="34.6608252078"><ele>152.18</ele><time>2026-08-15T08:25:53Z</time></trkpt><trkpt lat="59.3516904116" lon="34.6608633455"><ele>152.14</ele><time>2026-08-15T08:26:18Z</time></trkpt><trkpt lat="59.3517138809" lon="34.6608703025"><ele>150.93</ele><time>2026-08-15T08:26:47Z</time></trkpt><trkpt lat="59.3517445587" lon="34.6608939394"><ele>152.83</ele><time>2026-08-15T08:27:15Z</time></trkpt><trkpt lat="59.3517150544" lon="34.6608222742"><ele>156.42</ele><time>2026-08-15T08:27:47Z</time></trkpt><trkpt lat="59.3516644277" lon="34.6607452445"><ele>156.02</ele><time>2026-08-15T08:28:19Z</time></trkpt><trkpt lat="59.3516737316" lon="34.6607945301"><ele>154.94</ele><time>2026-08-15T08:28:50Z</time></trkpt><trkpt lat="59.3516933452" lon="34.6607912611"><ele>153.26</ele><time>2026-08-15T08:29:19Z</time></trkpt><trkpt lat="59.3516899925" lon="34.6608157363"><ele>153.42</ele><time>2026-08-15T08:29:50Z</time></trkpt><trkpt lat="59.3516862206" lon="34.6608142275"><ele>153.79</ele><time>2026-08-15T08:30:16Z</time></trkpt><trkpt lat="59.3516893219" lon="34.6608286444"><ele>153.47</ele><time>2026-08-15T08:30:46Z</time></trkpt><trkpt lat="59.3516624998" lon="34.6607400477"><ele>153.89</ele><time>2026-08-15T08:31:13Z</time></trkpt><trkpt lat="59.3516740669" lon="34.6607569791"><ele>155.18</ele><time>2026-08-15T08:31:45Z</time></trkpt><trkpt lat="59.3516767491" lon="34.6607837174"><ele>157.35</ele><time>2026-08-15T08:32:13Z</time></trkpt><trkpt lat="59.3516889028" lon="34.6607925184"><ele>158.41</ele><time>2026-08-15T08:32:42Z</time></trkpt><trkpt lat="59.3517173175" lon="34.6607827116"><ele>159.84</ele><time>2026-08-15T08:33:09Z</time></trkpt><trkpt lat="59.3517319858" lon="34.6605312545"><ele>160.75</ele><time>2026-08-15T08:33:32Z</time></trkpt><trkpt lat="59.3517360929" lon="34.6603710763"><ele>160.28</ele><time>2026-08-15T08:33:50Z</time></trkpt><trkpt lat="59.3517223466" lon="34.6601432562"><ele>159.82</ele><time>2026-08-15T08:34:07Z</time></trkpt><trkpt lat="59.3517340813" lon="34.6600613650"><ele>159.78</ele><time>2026-08-15T08:34:15Z</time></trkpt><trkpt lat="59.3517993763" lon="34.6598021127"><ele>159.18</ele><time>2026-08-15T08:34:36Z</time></trkpt><trkpt lat="59.3518588878" lon="34.6597250830"><ele>157.84</ele><time>2026-08-15T08:34:57Z</time></trkpt><trkpt lat="59.3519205786" lon="34.6598096564"><ele>158.20</ele><time>2026-08-15T08:35:20Z</time></trkpt><trkpt lat="59.3519464787" lon="34.6599791385"><ele>157.50</ele><time>2026-08-15T08:35:37Z</time></trkpt><trkpt lat="59.3520111870" lon="34.6599717624"><ele>156.92</ele><time>2026-08-15T08:35:58Z</time></trkpt><trkpt lat="59.3520678487" lon="34.6599039529"><ele>157.96</ele><time>2026-08-15T08:36:16Z</time></trkpt><trkpt lat="59.3521088362" lon="34.6597946528"><ele>158.71</ele><time>2026-08-15T08:36:39Z</time></trkpt><trkpt lat="59.3521231692" lon="34.6596481372"><ele>160.92</ele><time>2026-08-15T08:37:05Z</time></trkpt><trkpt lat="59.3521276955" lon="34.6596444491"><ele>161.87</ele><time>2026-08-15T08:37:33Z</time></trkpt><trkpt lat="59.3521376699" lon="34.6596799046"><ele>163.11</ele><time>2026-08-15T08:38:04Z</time></trkpt><trkpt lat="59.3521248456" lon="34.6596265957"><ele>165.23</ele><time>2026-08-15T08:38:34Z</time></trkpt><trkpt lat="59.3520784099" lon="34.6594935749"><ele>165.98</ele><time>2026-08-15T08:38:56Z</time></trkpt><trkpt lat="59.3520258553" lon="34.6594037209"><ele>165.52</ele><time>2026-08-15T08:39:14Z</time></trkpt><trkpt lat="59.3519598059" lon="34.6592021361"><ele>163.66</ele><time>2026-08-15T08:39:34Z</time></trkpt><trkpt lat="59.3519540224" lon="34.6591658425"><ele>163.22</ele><time>2026-08-15T08:39:38Z</time></trkpt><trkpt lat="59.3519113585" lon="34.6590050776"><ele>161.91</ele><time>2026-08-15T08:40:01Z</time></trkpt><trkpt lat="59.3518950976" lon="34.6589785907"><ele>162.65</ele><time>2026-08-15T08:40:28Z</time></trkpt><trkpt lat="59.3518796749" lon="34.6589157265"><ele>164.53</ele><time>2026-08-15T08:40:54Z</time></trkpt><trkpt lat="59.3518267851" lon="34.6588632558"><ele>164.92</ele><time>2026-08-15T08:41:19Z</time></trkpt><trkpt lat="59.3517539464" lon="34.6586696338"><ele>164.25</ele><time>2026-08-15T08:41:41Z</time></trkpt><trkpt lat="59.3517059181" lon="34.6584936138"><ele>162.16</ele><time>2026-08-15T08:42:00Z</time></trkpt><trkpt lat="59.3515844643" lon="34.6582113951"><ele>161.66</ele><time>2026-08-15T08:42:24Z</time></trkpt><trkpt lat="59.3515300658" lon="34.6581305936"><ele>165.06</ele><time>2026-08-15T08:42:54Z</time></trkpt><trkpt lat="59.3515133020" lon="34.6580987424"><ele>165.13</ele><time>2026-08-15T08:43:21Z</time></trkpt><trkpt lat="59.3514787685" lon="34.6580079664"><ele>166.92</ele><time>2026-08-15T08:43:52Z</time></trkpt><trkpt lat="59.3514434807" lon="34.6578272525"><ele>165.70</ele><time>2026-08-15T08:44:12Z</time></trkpt><trkpt lat="59.3514107913" lon="34.6577096544"><ele>164.25</ele><time>2026-08-15T08:44:29Z</time></trkpt><trkpt lat="59.3513086997" lon="34.6574985143"><ele>162.31</ele><time>2026-08-15T08:44:48Z</time></trkpt><trkpt lat="59.3512518704" lon="34.6573043894"><ele>164.40</ele><time>2026-08-15T08:45:18Z</time></trkpt><trkpt lat="59.3512546364" lon="34.6572991088"><ele>164.94</ele><time>2026-08-15T08:45:51Z</time></trkpt><trkpt lat="59.3512435723" lon="34.6572934091"><ele>165.82</ele><time>2026-08-15T08:46:20Z</time></trkpt><trkpt lat="59.3511999026" lon="34.6573157050"><ele>166.29</ele><time>2026-08-15T08:46:53Z</time></trkpt><trkpt lat="59.3512072787" lon="34.6573005337"><ele>165.93</ele><time>2026-08-15T08:47:22Z</time></trkpt><trkpt lat="59.3511825521" lon="34.6571488213"><ele>165.90</ele><time>2026-08-15T08:47:47Z</time></trkpt><trkpt lat="59.3511327635" lon="34.6570177283"><ele>163.83</ele><time>2026-08-15T08:48:07Z</time></trkpt><trkpt lat="59.3509813864" lon="34.6567159798"><ele>163.06</ele><time>2026-08-15T08:48:28Z</time></trkpt><trkpt lat="59.3509388901" lon="34.6566394530"><ele>162.59</ele><time>2026-08-15T08:48:50Z</time></trkpt><trkpt lat="59.3509236351" lon="34.6565906703"><ele>160.21</ele><time>2026-08-15T08:49:19Z</time></trkpt><trkpt lat="59.3509211205" lon="34.6565913409"><ele>160.08</ele><time>2026-08-15T08:49:46Z</time></trkpt><trkpt lat="59.3508301768" lon="34.6564546321"><ele>158.62</ele><time>2026-08-15T08:50:09Z</time></trkpt><trkpt lat="59.3507251516" lon="34.6562448330"><ele>156.22</ele><time>2026-08-15T08:50:28Z</time></trkpt><trkpt lat="59.3506056257" lon="34.6560508758"><ele>154.70</ele><time>2026-08-15T08:50:49Z</time></trkpt><trkpt lat="59.3505544122" lon="34.6559305117"><ele>156.11</ele><time>2026-08-15T08:51:13Z</time></trkpt><trkpt lat="59.3505207170" lon="34.6559457667"><ele>157.48</ele><time>2026-08-15T08:51:46Z</time></trkpt><trkpt lat="59.3505406659" lon="34.6559252311"><ele>159.91</ele><time>2026-08-15T08:52:17Z</time></trkpt><trkpt lat="59.3505227286" lon="34.6559070423"><ele>162.08</ele><time>2026-08-15T08:52:49Z</time></trkpt><trkpt lat="59.3505013548" lon="34.6559053659"><ele>163.32</ele><time>2026-08-15T08:53:19Z</time></trkpt><trkpt lat="59.3505063839" lon="34.6558059566"><ele>163.78</ele><time>2026-08-15T08:53:45Z</time></trkpt><trkpt lat="59.3504426815" lon="34.6555815730"><ele>162.81</ele><time>2026-08-15T08:54:06Z</time></trkpt><trkpt lat="59.3503563479" lon="34.6554366499"><ele>160.10</ele><time>2026-08-15T08:54:30Z</time></trkpt><trkpt lat="59.3503028713" lon="34.6553217340"><ele>158.45</ele><time>2026-08-15T08:54:54Z</time></trkpt><trkpt lat="59.3502148613" lon="34.6552113444"><ele>159.78</ele><time>2026-08-15T08:55:28Z</time></trkpt><trkpt lat="59.3501959182" lon="34.6551554371"><ele>161.30</ele><time>2026-08-15T08:56:00Z</time></trkpt><trkpt lat="59.3501564395" lon="34.6551366616"><ele>161.32</ele><time>2026-08-15T08:56:28Z</time></trkpt><trkpt lat="59.3501017895" lon="34.6550487354"><ele>160.55</ele><time>2026-08-15T08:56:48Z</time></trkpt><trkpt lat="59.3500613887" lon="34.6549904812"><ele>159.87</ele><time>2026-08-15T08:57:08Z</time></trkpt><trkpt lat="59.3500001170" lon="34.6548994537"><ele>159.27</ele><time>2026-08-15T08:57:32Z</time></trkpt><trkpt lat="59.3499241769" lon="34.6547992062"><ele>159.23</ele><time>2026-08-15T08:57:54Z</time></trkpt><trkpt lat="59.3498070817" lon="34.6547292173"><ele>158.41</ele><time>2026-08-15T08:58:21Z</time></trkpt><trkpt lat="59.3497161381" lon="34.6546328254"><ele>158.71</ele><time>2026-08-15T08:58:41Z</time></trkpt><trkpt lat="59.3496816047" lon="34.6546001360"><ele>159.40</ele><time>2026-08-15T08:58:48Z</time></trkpt><trkpt lat="59.3496667687" lon="34.6544686239"><ele>160.11</ele><time>2026-08-15T08:59:17Z</time></trkpt><trkpt lat="59.3496570457" lon="34.6544402093"><ele>162.76</ele><time>2026-08-15T08:59:45Z</time></trkpt><trkpt lat="59.3496308941" lon="34.6543610003"><ele>164.59</ele><time>2026-08-15T09:00:12Z</time></trkpt><trkpt lat="59.3496175669" lon="34.6542922687"><ele>165.43</ele><time>2026-08-15T09:00:37Z</time></trkpt><trkpt lat="59.3496417906" lon="34.6541984752"><ele>164.95</ele><time>2026-08-15T09:00:58Z</time></trkpt><trkpt lat="59.3496272061" lon="34.6540713217"><ele>164.71</ele><time>2026-08-15T09:01:18Z</time></trkpt><trkpt lat="59.3495690357" lon="34.6539045218"><ele>163.67</ele><time>2026-08-15T09:01:36Z</time></trkpt><trkpt lat="59.3494910840" lon="34.6537797991"><ele>162.85</ele><time>2026-08-15T09:01:57Z</time></trkpt><trkpt lat="59.3494080193" lon="34.6536149271"><ele>162.05</ele><time>2026-08-15T09:02:22Z</time></trkpt><trkpt lat="59.3494013976" lon="34.6535590198"><ele>161.00</ele><time>2026-08-15T09:02:57Z</time></trkpt><trkpt lat="59.3493894115" lon="34.6535324492"><ele>160.95</ele><time>2026-08-15T09:03:27Z</time></trkpt><trkpt lat="59.3493750785" lon="34.6535141766"><ele>160.67</ele><time>2026-08-15T09:03:55Z</time></trkpt><trkpt lat="59.3493291456" lon="34.6534192096"><ele>160.23</ele><time>2026-08-15T09:04:20Z</time></trkpt><trkpt lat="59.3492767587" lon="34.6532697603"><ele>159.94</ele><time>2026-08-15T09:04:47Z</time></trkpt><trkpt lat="59.3492352683" lon="34.6531572752"><ele>159.65</ele><time>2026-08-15T09:05:13Z</time></trkpt><trkpt lat="59.3492522836" lon="34.6530224103"><ele>159.35</ele><time>2026-08-15T09:05:33Z</time></trkpt><trkpt lat="59.3492527027" lon="34.6529846918"><ele>159.43</ele><time>2026-08-15T09:05:36Z</time></trkpt><trkpt lat="59.3492463324" lon="34.6528353263"><ele>160.45</ele><time>2026-08-15T09:06:00Z</time></trkpt><trkpt lat="59.3492411356" lon="34.6527218353"><ele>160.17</ele><time>2026-08-15T09:06:24Z</time></trkpt><trkpt lat="59.3492144812" lon="34.6526536904"><ele>160.14</ele><time>2026-08-15T09:06:54Z</time></trkpt><trkpt lat="59.3492115475" lon="34.6526344121"><ele>160.44</ele><time>2026-08-15T09:07:29Z</time></trkpt><trkpt lat="59.3492066860" lon="34.6525819413"><ele>161.55</ele><time>2026-08-15T09:07:58Z</time></trkpt><trkpt lat="59.3491580710" lon="34.6525195800"><ele>161.60</ele><time>2026-08-15T09:08:21Z</time></trkpt><trkpt lat="59.3491077796" lon="34.6524099447"><ele>160.90</ele><time>2026-08-15T09:08:43Z</time></trkpt><trkpt lat="59.3490553927" lon="34.6523568034"><ele>160.42</ele><time>2026-08-15T09:09:10Z</time></trkpt><trkpt lat="59.3490017485" lon="34.6522345114"><ele>160.02</ele><time>2026-08-15T09:09:31Z</time></trkpt><trkpt lat="59.3489375431" lon="34.6521247085"><ele>160.43</ele><time>2026-08-15T09:09:40Z</time></trkpt><trkpt lat="59.3489351124" lon="34.6520221978"><ele>160.08</ele><time>2026-08-15T09:10:00Z</time></trkpt><trkpt lat="59.3489297479" lon="34.6519905142"><ele>160.81</ele><time>2026-08-15T09:10:21Z</time></trkpt><trkpt lat="59.3489160016" lon="34.6519816294"><ele>161.54</ele><time>2026-08-15T09:10:49Z</time></trkpt><trkpt lat="59.3489240482" lon="34.6520013269"><ele>161.57</ele><time>2026-08-15T09:11:19Z</time></trkpt><trkpt lat="59.3488972262" lon="34.6519319247"><ele>161.52</ele><time>2026-08-15T09:11:45Z</time></trkpt><trkpt lat="59.3488280755" lon="34.6518323477"><ele>161.12</ele><time>2026-08-15T09:12:05Z</time></trkpt><trkpt lat="59.3487672228" lon="34.6517375484"><ele>160.03</ele><time>2026-08-15T09:12:21Z</time></trkpt><trkpt lat="59.3487253971" lon="34.6515777893"><ele>157.69</ele><time>2026-08-15T09:12:37Z</time></trkpt><trkpt lat="59.3486708310" lon="34.6514896117"><ele>155.73</ele><time>2026-08-15T09:12:57Z</time></trkpt><trkpt lat="59.3486532290" lon="34.6513638832"><ele>154.40</ele><time>2026-08-15T09:13:19Z</time></trkpt><trkpt lat="59.3485819828" lon="34.6512032859"><ele>154.69</ele><time>2026-08-15T09:13:37Z</time></trkpt><trkpt lat="59.3485218007" lon="34.6511538327"><ele>156.00</ele><time>2026-08-15T09:14:07Z</time></trkpt><trkpt lat="59.3485324457" lon="34.6511158627"><ele>160.44</ele><time>2026-08-15T09:14:38Z</time></trkpt><trkpt lat="59.3485244829" lon="34.6510550939"><ele>162.86</ele><time>2026-08-15T09:15:07Z</time></trkpt><trkpt lat="59.3484799750" lon="34.6509996895"><ele>163.83</ele><time>2026-08-15T09:15:28Z</time></trkpt><trkpt lat="59.3484236486" lon="34.6509177983"><ele>163.43</ele><time>2026-08-15T09:15:49Z</time></trkpt><trkpt lat="59.3483649753" lon="34.6509084944"><ele>163.43</ele><time>2026-08-15T09:16:09Z</time></trkpt><trkpt lat="59.3483043741" lon="34.6507834364"><ele>162.43</ele><time>2026-08-15T09:16:29Z</time></trkpt><trkpt lat="59.3482626323" lon="34.6506810933"><ele>161.62</ele><time>2026-08-15T09:16:45Z</time></trkpt><trkpt lat="59.3482247461" lon="34.6505641658"><ele>162.51</ele><time>2026-08-15T09:17:11Z</time></trkpt><trkpt lat="59.3482043780" lon="34.6505259443"><ele>161.49</ele><time>2026-08-15T09:17:39Z</time></trkpt><trkpt lat="59.3482025340" lon="34.6505292971"><ele>161.55</ele><time>2026-08-15T09:18:08Z</time></trkpt><trkpt lat="59.3482192978" lon="34.6504827775"><ele>161.19</ele><time>2026-08-15T09:18:33Z</time></trkpt><trkpt lat="59.3481842615" lon="34.6502205916"><ele>159.50</ele><time>2026-08-15T09:18:54Z</time></trkpt><trkpt lat="59.3481219839" lon="34.6501262952"><ele>158.67</ele><time>2026-08-15T09:19:14Z</time></trkpt><trkpt lat="59.3480515759" lon="34.6499967948"><ele>158.24</ele><time>2026-08-15T09:19:37Z</time></trkpt><trkpt lat="59.3480198923" lon="34.6499575675"><ele>157.93</ele><time>2026-08-15T09:19:43Z</time></trkpt><trkpt lat="59.3479618896" lon="34.6498560626"><ele>159.33</ele><time>2026-08-15T09:20:07Z</time></trkpt><trkpt lat="59.3479445390" lon="34.6498637740"><ele>161.25</ele><time>2026-08-15T09:20:30Z</time></trkpt><trkpt lat="59.3479356542" lon="34.6498591639"><ele>160.96</ele><time>2026-08-15T09:20:52Z</time></trkpt><trkpt lat="59.3479801621" lon="34.6497981437"><ele>160.81</ele><time>2026-08-15T09:21:17Z</time></trkpt><trkpt lat="59.3480604608" lon="34.6496351156"><ele>159.85</ele><time>2026-08-15T09:21:38Z</time></trkpt><trkpt lat="59.3481204752" lon="34.6494304296"><ele>159.07</ele><time>2026-08-15T09:22:00Z</time></trkpt><trkpt lat="59.3481681682" lon="34.6492271684"><ele>158.78</ele><time>2026-08-15T09:22:23Z</time></trkpt><trkpt lat="59.3483114149" lon="34.6489616297"><ele>157.34</ele><time>2026-08-15T09:22:47Z</time></trkpt><trkpt lat="59.3483416736" lon="34.6488440316"><ele>157.60</ele><time>2026-08-15T09:23:09Z</time></trkpt><trkpt lat="59.3483666517" lon="34.6487921476"><ele>158.90</ele><time>2026-08-15T09:23:36Z</time></trkpt><trkpt lat="59.3483972456" lon="34.6487354022"><ele>161.17</ele><time>2026-08-15T09:24:08Z</time></trkpt><trkpt lat="59.3483970780" lon="34.6488506533"><ele>163.30</ele><time>2026-08-15T09:24:39Z</time></trkpt><trkpt lat="59.3484580982" lon="34.6489514876"><ele>163.64</ele><time>2026-08-15T09:24:59Z</time></trkpt><trkpt lat="59.3485414144" lon="34.6491011884"><ele>163.38</ele><time>2026-08-15T09:25:21Z</time></trkpt><trkpt lat="59.3486489542" lon="34.6492425073"><ele>159.66</ele><time>2026-08-15T09:25:44Z</time></trkpt><trkpt lat="59.3487144168" lon="34.6494209580"><ele>158.45</ele><time>2026-08-15T09:26:06Z</time></trkpt><trkpt lat="59.3487484474" lon="34.6494999994"><ele>158.14</ele><time>2026-08-15T09:26:14Z</time></trkpt><trkpt lat="59.3487701565" lon="34.6496563219"><ele>158.86</ele><time>2026-08-15T09:26:39Z</time></trkpt><trkpt lat="59.3487848248" lon="34.6496978123"><ele>160.60</ele><time>2026-08-15T09:27:06Z</time></trkpt><trkpt lat="59.3487927876" lon="34.6496895980"><ele>160.90</ele><time>2026-08-15T09:27:31Z</time></trkpt><trkpt lat="59.3488149159" lon="34.6497474331"><ele>161.98</ele><time>2026-08-15T09:28:00Z</time></trkpt><trkpt lat="59.3489237130" lon="34.6497869957"><ele>161.81</ele><time>2026-08-15T09:28:18Z</time></trkpt><trkpt lat="59.3490171712" lon="34.6499150712"><ele>161.83</ele><time>2026-08-15T09:28:36Z</time></trkpt><trkpt lat="59.3490801193" lon="34.6500055119"><ele>161.16</ele><time>2026-08-15T09:28:51Z</time></trkpt><trkpt lat="59.3491471745" lon="34.6501236968"><ele>162.28</ele><time>2026-08-15T09:29:06Z</time></trkpt><trkpt lat="59.3491853960" lon="34.6501998883"><ele>163.26</ele><time>2026-08-15T09:29:36Z</time></trkpt><trkpt lat="59.3492122181" lon="34.6502496768"><ele>164.38</ele><time>2026-08-15T09:30:05Z</time></trkpt><trkpt lat="59.3491986394" lon="34.6503333282"><ele>165.29</ele><time>2026-08-15T09:30:33Z</time></trkpt><trkpt lat="59.3491485994" lon="34.6504586376"><ele>165.35</ele><time>2026-08-15T09:30:51Z</time></trkpt><trkpt lat="59.3491524551" lon="34.6505696978"><ele>164.63</ele><time>2026-08-15T09:31:15Z</time></trkpt><trkpt lat="59.3491989747" lon="34.6506663412"><ele>163.74</ele><time>2026-08-15T09:31:38Z</time></trkpt><trkpt lat="59.3492517807" lon="34.6507605538"><ele>162.69</ele><time>2026-08-15T09:31:57Z</time></trkpt><trkpt lat="59.3492496014" lon="34.6507957578"><ele>163.30</ele><time>2026-08-15T09:32:20Z</time></trkpt><trkpt lat="59.3492485117" lon="34.6508178022"><ele>163.18</ele><time>2026-08-15T09:32:49Z</time></trkpt><trkpt lat="59.3492250424" lon="34.6508053970"><ele>163.06</ele><time>2026-08-15T09:33:23Z</time></trkpt><trkpt lat="59.3492297363" lon="34.6508349851"><ele>163.48</ele><time>2026-08-15T09:33:51Z</time></trkpt><trkpt lat="59.3492292333" lon="34.6508396789"><ele>163.49</ele><time>2026-08-15T09:34:20Z</time></trkpt><trkpt lat="59.3492216058" lon="34.6508804150"><ele>163.96</ele><time>2026-08-15T09:34:52Z</time></trkpt><trkpt lat="59.3492240366" lon="34.6508485638"><ele>164.40</ele><time>2026-08-15T09:35:17Z</time></trkpt><trkpt lat="59.3492242880" lon="34.6508362424"><ele>163.55</ele><time>2026-08-15T09:35:52Z</time></trkpt><trkpt lat="59.3492250424" lon="34.6508892160"><ele>163.34</ele><time>2026-08-15T09:36:19Z</time></trkpt><trkpt lat="59.3492432311" lon="34.6508426126"><ele>162.76</ele><time>2026-08-15T09:36:51Z</time></trkpt><trkpt lat="59.3492281437" lon="34.6508437023"><ele>162.06</ele><time>2026-08-15T09:37:19Z</time></trkpt><trkpt lat="59.3492356036" lon="34.6508609690"><ele>162.29</ele><time>2026-08-15T09:37:51Z</time></trkpt><trkpt lat="59.3492726516" lon="34.6508710273"><ele>163.58</ele><time>2026-08-15T09:38:18Z</time></trkpt><trkpt lat="59.3493025750" lon="34.6508699376"><ele>165.39</ele><time>2026-08-15T09:38:48Z</time></trkpt><trkpt lat="59.3493697140" lon="34.6508584544"><ele>165.36</ele><time>2026-08-15T09:39:14Z</time></trkpt><trkpt lat="59.3494744040" lon="34.6510099154"><ele>164.93</ele><time>2026-08-15T09:39:37Z</time></trkpt><trkpt lat="59.3495200854" lon="34.6511290222"><ele>164.32</ele><time>2026-08-15T09:39:54Z</time></trkpt><trkpt lat="59.3495701253" lon="34.6512635518"><ele>163.55</ele><time>2026-08-15T09:40:14Z</time></trkpt><trkpt lat="59.3496421259" lon="34.6514300164"><ele>162.52</ele><time>2026-08-15T09:40:34Z</time></trkpt><trkpt lat="59.3497234304" lon="34.6515639592"><ele>161.80</ele><time>2026-08-15T09:40:56Z</time></trkpt><trkpt lat="59.3497440498" lon="34.6516108979"><ele>161.86</ele><time>2026-08-15T09:41:21Z</time></trkpt><trkpt lat="59.3497420382" lon="34.6516518854"><ele>162.78</ele><time>2026-08-15T09:41:51Z</time></trkpt><trkpt lat="59.3497624062" lon="34.6516191121"><ele>164.50</ele><time>2026-08-15T09:42:19Z</time></trkpt><trkpt lat="59.3497645855" lon="34.6515958942"><ele>164.27</ele><time>2026-08-15T09:42:48Z</time></trkpt><trkpt lat="59.3498023879" lon="34.6516834851"><ele>163.48</ele><time>2026-08-15T09:43:06Z</time></trkpt><trkpt lat="59.3498425372" lon="34.6516785398"><ele>162.90</ele><time>2026-08-15T09:43:28Z</time></trkpt><trkpt lat="59.3498564512" lon="34.6517140791"><ele>162.25</ele><time>2026-08-15T09:43:45Z</time></trkpt><trkpt lat="59.3498992827" lon="34.6518291626"><ele>161.74</ele><time>2026-08-15T09:44:06Z</time></trkpt><trkpt lat="59.3499307986" lon="34.6519079525"><ele>161.35</ele><time>2026-08-15T09:44:25Z</time></trkpt><trkpt lat="59.3500131089" lon="34.6518178470"><ele>160.78</ele><time>2026-08-15T09:44:45Z</time></trkpt><trkpt lat="59.3500484806" lon="34.6519289073"><ele>161.20</ele><time>2026-08-15T09:45:05Z</time></trkpt><trkpt lat="59.3500605505" lon="34.6521355212"><ele>161.46</ele><time>2026-08-15T09:45:28Z</time></trkpt><trkpt lat="59.3500763923" lon="34.6521701384"><ele>162.19</ele><time>2026-08-15T09:45:50Z</time></trkpt><trkpt lat="59.3500704411" lon="34.6522183344"><ele>162.30</ele><time>2026-08-15T09:46:17Z</time></trkpt><trkpt lat="59.3500659149" lon="34.6522442345"><ele>163.06</ele><time>2026-08-15T09:46:44Z</time></trkpt><trkpt lat="59.3501367420" lon="34.6523255389"><ele>162.79</ele><time>2026-08-15T09:47:12Z</time></trkpt><trkpt lat="59.3502000254" lon="34.6523941867"><ele>161.89</ele><time>2026-08-15T09:47:35Z</time></trkpt><trkpt lat="59.3502677511" lon="34.6524580568"><ele>161.02</ele><time>2026-08-15T09:47:54Z</time></trkpt><trkpt lat="59.3503714353" lon="34.6524400357"><ele>160.57</ele><time>2026-08-15T09:48:13Z</time></trkpt><trkpt lat="59.3504180387" lon="34.6523984615"><ele>160.83</ele><time>2026-08-15T09:48:28Z</time></trkpt><trkpt lat="59.3504223134" lon="34.6525051631"><ele>161.28</ele><time>2026-08-15T09:48:53Z</time></trkpt><trkpt lat="59.3504263368" lon="34.6525976993"><ele>161.82</ele><time>2026-08-15T09:49:15Z</time></trkpt><trkpt lat="59.3504381552" lon="34.6526448894"><ele>161.88</ele><time>2026-08-15T09:49:24Z</time></trkpt><trkpt lat="59.3504633009" lon="34.6527929977"><ele>161.94</ele><time>2026-08-15T09:49:43Z</time></trkpt><trkpt lat="59.3504704256" lon="34.6528411098"><ele>161.46</ele><time>2026-08-15T09:50:06Z</time></trkpt><trkpt lat="59.3504663184" lon="34.6528722905"><ele>160.94</ele><time>2026-08-15T09:50:33Z</time></trkpt><trkpt lat="59.3504591938" lon="34.6529033035"><ele>160.55</ele><time>2026-08-15T09:51:04Z</time></trkpt><trkpt lat="59.3504744489" lon="34.6529085841"><ele>159.30</ele><time>2026-08-15T09:51:33Z</time></trkpt><trkpt lat="59.3505449407" lon="34.6530173812"><ele>159.22</ele><time>2026-08-15T09:51:51Z</time></trkpt><trkpt lat="59.3506070506" lon="34.6532007772"><ele>158.73</ele><time>2026-08-15T09:52:07Z</time></trkpt><trkpt lat="59.3506225571" lon="34.6532521583"><ele>158.87</ele><time>2026-08-15T09:52:12Z</time></trkpt><trkpt lat="59.3506927136" lon="34.6534482948"><ele>159.58</ele><time>2026-08-15T09:52:30Z</time></trkpt><trkpt lat="59.3507317733" lon="34.6535932180"><ele>159.55</ele><time>2026-08-15T09:52:48Z</time></trkpt><trkpt lat="59.3506864272" lon="34.6537933778"><ele>159.44</ele><time>2026-08-15T09:53:08Z</time></trkpt><trkpt lat="59.3506725971" lon="34.6538828127"><ele>159.42</ele><time>2026-08-15T09:53:33Z</time></trkpt><trkpt lat="59.3506645504" lon="34.6539543103"><ele>161.06</ele><time>2026-08-15T09:54:00Z</time></trkpt><trkpt lat="59.3506700825" lon="34.6540385485"><ele>162.81</ele><time>2026-08-15T09:54:30Z</time></trkpt><trkpt lat="59.3506973237" lon="34.6540749259"><ele>164.69</ele><time>2026-08-15T09:54:57Z</time></trkpt><trkpt lat="59.3507480342" lon="34.6542620100"><ele>163.27</ele><time>2026-08-15T09:55:21Z</time></trkpt><trkpt lat="59.3508247286" lon="34.6544945240"><ele>161.49</ele><time>2026-08-15T09:55:45Z</time></trkpt><trkpt lat="59.3509523850" lon="34.6546518523"><ele>159.76</ele><time>2026-08-15T09:56:10Z</time></trkpt><trkpt lat="59.3510173447" lon="34.6546697896"><ele>161.13</ele><time>2026-08-15T09:56:30Z</time></trkpt><trkpt lat="59.3509900197" lon="34.6547288820"><ele>162.90</ele><time>2026-08-15T09:57:00Z</time></trkpt><trkpt lat="59.3510263972" lon="34.6547303908"><ele>164.11</ele><time>2026-08-15T09:57:25Z</time></trkpt><trkpt lat="59.3510889262" lon="34.6547255293"><ele>163.84</ele><time>2026-08-15T09:57:50Z</time></trkpt><trkpt lat="59.3511345237" lon="34.6548409481"><ele>164.01</ele><time>2026-08-15T09:58:06Z</time></trkpt><trkpt lat="59.3512612581" lon="34.6550276969"><ele>164.45</ele><time>2026-08-15T09:58:26Z</time></trkpt><trkpt lat="59.3513400480" lon="34.6552290302"><ele>165.34</ele><time>2026-08-15T09:58:47Z</time></trkpt><trkpt lat="59.3513779342" lon="34.6552860271"><ele>165.62</ele><time>2026-08-15T09:59:12Z</time></trkpt><trkpt lat="59.3514026608" lon="34.6553700138"><ele>165.42</ele><time>2026-08-15T09:59:34Z</time></trkpt><trkpt lat="59.3514850549" lon="34.6555493027"><ele>164.86</ele><time>2026-08-15T09:59:56Z</time></trkpt><trkpt lat="59.3516214285" lon="34.6558292583"><ele>163.28</ele><time>2026-08-15T10:00:20Z</time></trkpt><trkpt lat="59.3517031521" lon="34.6559766121"><ele>163.67</ele><time>2026-08-15T10:00:44Z</time></trkpt><trkpt lat="59.3517226819" lon="34.6560046077"><ele>163.92</ele><time>2026-08-15T10:01:09Z</time></trkpt><trkpt lat="59.3517376017" lon="34.6560653765"><ele>164.76</ele><time>2026-08-15T10:01:35Z</time></trkpt><trkpt lat="59.3518032320" lon="34.6561648697"><ele>164.78</ele><time>2026-08-15T10:01:54Z</time></trkpt><trkpt lat="59.3518962711" lon="34.6563925222"><ele>164.49</ele><time>2026-08-15T10:02:17Z</time></trkpt><trkpt lat="59.3519696128" lon="34.6564916801"><ele>163.75</ele><time>2026-08-15T10:02:33Z</time></trkpt><trkpt lat="59.3520615622" lon="34.6565449890"><ele>162.35</ele><time>2026-08-15T10:02:56Z</time></trkpt><trkpt lat="59.3520993646" lon="34.6566482540"><ele>163.22</ele><time>2026-08-15T10:03:22Z</time></trkpt><trkpt lat="59.3521368317" lon="34.6567630861"><ele>165.19</ele><time>2026-08-15T10:03:49Z</time></trkpt><trkpt lat="59.3521193974" lon="34.6568229329"><ele>167.11</ele><time>2026-08-15T10:04:29Z</time></trkpt><trkpt lat="59.3521491531" lon="34.6570029762"><ele>167.58</ele><time>2026-08-15T10:04:51Z</time></trkpt><trkpt lat="59.3521955051" lon="34.6571832709"><ele>167.28</ele><time>2026-08-15T10:05:10Z</time></trkpt><trkpt lat="59.3522095028" lon="34.6573540941"><ele>166.47</ele><time>2026-08-15T10:05:25Z</time></trkpt><trkpt lat="59.3522666674" lon="34.6576967463"><ele>165.03</ele><time>2026-08-15T10:05:46Z</time></trkpt><trkpt lat="59.3523288611" lon="34.6578508895"><ele>164.41</ele><time>2026-08-15T10:06:01Z</time></trkpt><trkpt lat="59.3523446191" lon="34.6578780469"><ele>164.27</ele><time>2026-08-15T10:06:05Z</time></trkpt><trkpt lat="59.3523897976" lon="34.6579829883"><ele>165.19</ele><time>2026-08-15T10:06:35Z</time></trkpt><trkpt lat="59.3524317909" lon="34.6579668112"><ele>166.00</ele><time>2026-08-15T10:07:03Z</time></trkpt><trkpt lat="59.3525111675" lon="34.6579826530"><ele>165.64</ele><time>2026-08-15T10:07:27Z</time></trkpt><trkpt lat="59.3525474612" lon="34.6581190266"><ele>164.71</ele><time>2026-08-15T10:07:40Z</time></trkpt><trkpt lat="59.3526353035" lon="34.6582227107"><ele>163.99</ele><time>2026-08-15T10:07:58Z</time></trkpt><trkpt lat="59.3527140096" lon="34.6584165003"><ele>163.93</ele><time>2026-08-15T10:08:18Z</time></trkpt><trkpt lat="59.3527875189" lon="34.6585070249"><ele>163.50</ele><time>2026-08-15T10:08:34Z</time></trkpt><trkpt lat="59.3527986668" lon="34.6585222799"><ele>163.63</ele><time>2026-08-15T10:08:37Z</time></trkpt><trkpt lat="59.3528542388" lon="34.6585642733"><ele>164.65</ele><time>2026-08-15T10:09:00Z</time></trkpt><trkpt lat="59.3528901972" lon="34.6586438175"><ele>165.18</ele><time>2026-08-15T10:09:35Z</time></trkpt><trkpt lat="59.3529616948" lon="34.6586760879"><ele>166.96</ele><time>2026-08-15T10:10:06Z</time></trkpt><trkpt lat="59.3529817276" lon="34.6587048378"><ele>167.63</ele><time>2026-08-15T10:10:28Z</time></trkpt><trkpt lat="59.3530730065" lon="34.6587851364"><ele>167.62</ele><time>2026-08-15T10:10:47Z</time></trkpt><trkpt lat="59.3531959690" lon="34.6590410359"><ele>167.04</ele><time>2026-08-15T10:11:11Z</time></trkpt><trkpt lat="59.3532636110" lon="34.6592937503"><ele>166.15</ele><time>2026-08-15T10:11:26Z</time></trkpt><trkpt lat="59.3532812130" lon="34.6595195588"><ele>166.71</ele><time>2026-08-15T10:11:41Z</time></trkpt><trkpt lat="59.3532577436" lon="34.6596743725"><ele>166.83</ele><time>2026-08-15T10:11:55Z</time></trkpt><trkpt lat="59.3531487789" lon="34.6599197108"><ele>165.65</ele><time>2026-08-15T10:12:13Z</time></trkpt><trkpt lat="59.3530680612" lon="34.6601612773"><ele>163.43</ele><time>2026-08-15T10:12:29Z</time></trkpt><trkpt lat="59.3529870082" lon="34.6604551468"><ele>161.80</ele><time>2026-08-15T10:12:43Z</time></trkpt><trkpt lat="59.3528572563" lon="34.6607320011"><ele>161.58</ele><time>2026-08-15T10:13:00Z</time></trkpt><trkpt lat="59.3527680729" lon="34.6609877329"><ele>162.43</ele><time>2026-08-15T10:13:19Z</time></trkpt><trkpt lat="59.3527055439" lon="34.6612147987"><ele>164.64</ele><time>2026-08-15T10:13:40Z</time></trkpt></trkseg></trk></gpx>